GFSSW_sfc_wetblb_000.txt.gz
Wetbulb
61.11 60.06 58.89 58.04 57.73 57.78 57.84 57.96 57.90 58.56 59.22 60.80 61.93 63.60 63.76 62.91 62.01 58.12 52.79 55.54 57.03 62.25 61.43 54.22 53.21 53.36 52.09 49.83 51.95 48.91 42.10 39.63 39.98 40.65 42.70 46.25 44.66 48.05 48.06 45.48 47.85 48.49 48.07 50.94 52.61
61.32 60.69 59.36 58.32 57.69 57.61 57.64 57.79 57.73 58.10 59.09 60.30 61.41 62.46 62.98 62.49 58.28 55.33 58.98 62.87 63.05 63.35 55.78 51.43 48.86 50.80 47.27 48.19 48.67 47.97 42.53 42.16 45.18 44.53 44.12 46.35 46.24 46.27 45.99 45.81 46.23 47.91 50.59 52.65 55.18
60.99 60.97 59.94 58.73 57.91 57.14 57.62 57.81 57.88 58.22 59.01 59.80 60.20 61.16 61.57 61.35 53.20 52.59 62.11 64.24 64.14 63.66 56.95 54.63 52.55 49.64 45.22 46.69 47.07 46.80 43.87 46.72 47.18 48.22 48.40 47.30 45.96 47.92 45.48 44.96 47.52 47.76 49.47 50.81 54.48
60.65 60.78 60.41 59.28 58.27 57.31 57.26 57.54 57.62 58.22 58.28 58.86 59.60 59.91 60.65 57.85 43.62 51.64 61.02 61.68 63.83 61.03 56.55 53.66 49.45 44.13 43.36 43.59 47.53 42.23 47.42 48.69 49.28 50.61 49.43 47.10 48.85 46.54 46.37 47.27 49.66 49.41 49.76 49.62 52.20
60.54 60.56 60.49 59.62 58.63 57.54 57.18 57.15 57.19 57.57 57.22 58.24 59.14 59.18 56.66 50.56 50.06 54.71 59.72 57.98 58.22 57.56 54.83 53.01 47.62 45.23 41.45 42.71 43.88 43.36 45.36 48.20 49.37 49.90 50.02 50.99 49.34 48.59 48.48 50.67 51.85 51.63 50.20 50.07 50.18
59.71 60.30 60.41 59.96 58.90 58.32 57.48 56.90 57.13 57.20 57.84 57.36 58.40 57.49 49.79 41.20 50.98 51.83 52.07 52.56 54.37 55.55 53.66 52.76 49.66 49.32 44.55 44.13 42.35 44.50 45.05 45.33 46.84 47.71 48.35 47.74 48.03 47.95 49.97 50.40 48.89 49.33 49.24 49.76 49.52
59.49 59.97 60.16 59.98 59.25 58.27 57.85 57.25 57.43 57.26 57.46 57.06 57.61 53.97 47.82 44.72 50.62 50.40 51.67 49.07 50.50 52.06 51.32 53.11 52.37 48.60 48.09 43.83 46.28 45.14 41.19 43.13 44.22 45.66 45.49 47.86 44.87 45.49 49.99 50.08 48.50 47.74 47.91 49.05 49.87
57.17 58.73 59.06 59.42 59.26 58.88 58.30 57.72 57.80 57.66 57.90 57.27 57.33 51.22 43.22 52.10 51.52 50.81 50.08 48.29 49.32 51.13 49.89 52.62 53.03 49.45 46.62 46.59 44.26 42.25 40.07 34.87 41.00 44.03 45.71 46.44 39.09 45.06 48.35 48.87 49.19 50.05 47.47 47.42 49.17
55.33 56.46 58.30 58.82 59.08 58.73 58.56 57.93 57.27 56.26 56.73 56.78 49.62 45.69 40.26 52.53 49.26 50.25 49.82 46.95 47.00 47.70 48.43 51.48 47.56 42.86 42.60 38.62 35.21 37.66 30.40 33.46 37.25 43.50 43.71 44.07 39.13 45.38 48.26 48.01 46.71 46.01 45.90 47.00 47.44
54.09 54.29 56.09 58.14 58.80 58.39 58.31 57.32 56.65 55.45 54.25 52.75 50.64 42.96 44.91 43.74 48.22 49.27 49.56 49.08 45.40 45.69 45.09 44.03 42.22 37.98 38.93 35.33 25.90 30.12 32.14 35.51 36.63 41.09 40.89 40.60 41.15 44.82 45.75 46.23 45.61 45.69 45.62 46.07 46.55
53.20 54.90 54.85 56.85 58.17 58.14 55.70 50.94 45.02 45.19 48.61 41.98 42.62 42.08 44.65 48.19 49.84 47.71 48.73 46.57 44.55 41.80 36.81 39.82 36.16 33.91 35.77 36.90 36.63 35.23 34.04 34.01 37.32 41.52 40.05 37.43 38.07 40.55 42.73 43.76 44.23 46.49 45.53 47.11 46.31
52.21 53.00 54.94 55.12 58.28 57.60 52.39 45.76 43.55 44.01 39.03 45.69 45.60 45.38 47.45 48.05 43.04 45.88 48.66 42.12 40.30 35.05 36.29 36.83 32.29 36.39 38.51 37.83 37.98 37.18 35.07 34.21 36.57 40.01 39.68 36.95 36.30 39.62 41.34 43.11 44.03 44.83 46.26 46.55 47.59
51.77 52.31 54.10 54.33 57.54 54.18 49.39 45.94 48.86 47.10 36.75 39.61 44.15 43.65 44.38 46.15 42.16 42.82 45.58 41.81 37.17 34.67 36.51 31.94 33.90 38.54 37.69 35.50 33.99 32.80 32.08 31.60 31.94 36.06 37.41 34.97 32.42 35.60 40.40 42.87 44.25 45.59 46.38 48.18 49.00
51.20 51.70 53.16 54.22 53.75 51.38 47.49 49.81 48.97 46.04 24.54 31.31 39.17 42.49 44.44 45.16 40.11 47.25 46.85 42.39 37.87 35.18 35.56 34.87 38.15 36.35 34.07 33.37 34.43 30.25 35.79 35.76 34.33 31.23 25.11 33.39 23.26 31.26 35.14 38.34 41.06 43.48 44.33 46.63 47.38
50.55 51.21 52.80 53.06 51.18 47.86 49.25 49.45 48.73 40.52 12.71 35.06 39.15 47.72 45.76 40.63 42.40 41.85 46.73 43.95 35.66 34.81 34.97 31.27 33.30 33.43 32.73 33.65 35.36 32.17 36.74 35.03 34.78 32.06 28.67 30.22 27.32 27.78 33.75 34.57 39.15 41.86 42.74 44.93 47.28
50.57 51.26 52.59 50.37 51.74 50.44 51.24 51.47 46.35 23.92 12.94 33.46 39.35 40.47 39.89 40.55 42.71 43.14 43.28 46.12 44.10 37.93 37.15 33.48 37.71 36.38 34.26 36.30 36.70 37.32 33.45 32.87 32.27 32.09 24.01 27.57 27.76 27.00 30.08 33.06 37.78 40.86 42.38 44.28 44.58
50.96 51.63 51.64 50.49 47.18 51.98 51.81 45.90 29.83 19.65 34.53 33.13 35.19 39.06 38.77 37.72 39.06 40.15 38.15 37.21 35.16 30.74 30.72 35.73 34.99 37.94 38.33 32.75 35.60 34.77 31.14 22.63 23.07 22.84 20.46 28.60 26.65 29.33 33.89 37.02 38.22 40.27 41.59 42.71 42.86
50.64 51.44 50.90 50.12 52.64 52.05 47.96 36.33 21.83 29.24 30.38 37.72 36.51 37.05 34.33 37.65 37.65 38.70 37.30 34.73 38.20 36.12 31.76 25.46 21.70 33.96 36.66 34.27 31.32 31.77 30.60 22.54 15.76 20.07 19.07 28.40 23.37 28.24 37.26 40.67 41.83 42.44 43.90 41.94 41.70
51.41 48.81 47.99 48.06 52.49 50.92 40.74 29.42 26.44 30.31 36.38 34.61 35.69 32.27 32.67 35.53 35.86 36.18 35.93 34.82 36.23 37.59 30.41 28.56 25.24 34.61 36.22 37.66 37.15 33.40 28.57 32.39 26.87 26.72 23.41 23.81 28.07 34.43 39.17 39.55 40.92 40.20 41.42 40.71 41.77
47.20 44.59 44.88 49.57 52.69 47.37 36.89 30.80 30.92 37.28 37.89 36.60 30.59 33.62 30.34 32.62 32.15 33.86 32.83 33.76 36.39 38.48 38.30 32.72 26.94 32.40 35.37 37.57 37.53 35.21 36.16 28.22 28.10 18.80 15.36 21.36 23.90 26.35 34.00 36.08 38.57 40.07 41.29 40.22 42.00
45.49 39.49 46.41 50.38 50.34 41.69 32.05 31.23 33.84 40.54 40.02 36.21 33.86 32.99 34.24 32.95 33.99 32.98 29.43 33.07 36.26 35.63 37.67 34.56 31.89 28.40 35.07 32.37 30.61 32.30 30.77 30.97 30.42 27.69 17.13 16.95 22.02 33.51 35.15 37.08 37.64 39.58 41.87 41.74 42.16
42.85 35.51 49.28 50.94 37.88 38.54 32.18 33.79 39.04 39.18 40.85 41.27 38.67 38.04 34.98 33.40 31.62 28.85 28.98 32.66 37.75 37.58 33.48 37.00 34.56 27.04 28.67 34.75 36.91 34.54 31.46 30.57 24.68 18.63 24.09 19.98 24.13 37.98 38.14 38.32 39.69 41.00 40.06 40.82 42.78
40.30 42.81 49.65 48.05 33.07 34.66 35.94 36.30 38.51 39.35 39.76 39.75 37.95 39.24 39.74 35.68 30.64 31.64 32.74 37.65 38.75 37.48 34.91 36.78 32.74 26.35 26.84 31.94 35.71 33.50 33.37 32.67 31.45 30.22 22.32 18.71 24.90 36.65 39.43 41.04 40.44 40.13 40.47 42.28 43.13
40.97 36.03 41.86 43.71 42.36 37.00 34.89 34.65 34.23 40.61 40.00 41.51 40.32 39.65 37.77 36.43 35.25 31.96 32.80 37.68 38.79 38.68 42.17 40.41 35.10 30.42 24.63 29.43 33.53 31.27 32.30 33.12 31.32 26.23 25.96 26.74 29.18 34.64 37.37 39.72 41.19 40.84 41.05 42.42 42.94
43.40 37.25 38.52 32.51 37.60 37.06 37.80 36.39 34.61 35.45 40.23 41.68 40.19 39.29 38.21 35.80 35.31 33.46 34.79 35.94 38.84 41.33 40.95 38.61 31.25 33.03 33.61 33.86 34.07 34.39 33.54 32.67 30.48 30.40 26.23 29.18 30.50 34.84 37.63 39.05 41.70 42.62 41.64 42.11 42.73
41.19 39.31 39.77 37.38 39.26 35.11 35.25 35.49 35.53 37.20 39.61 38.39 37.06 39.11 39.59 37.35 36.35 31.87 35.44 35.63 35.66 37.93 37.84 39.34 31.57 33.06 31.33 35.18 34.28 32.76 34.53 35.43 34.47 32.79 31.88 32.06 31.51 38.94 40.80 42.74 42.24 40.83 41.14 41.96 42.91
42.97 45.31 41.26 39.49 38.77 34.82 34.61 35.83 36.42 40.63 40.81 41.20 41.23 40.29 38.89 40.35 42.56 42.56 41.58 39.91 40.14 39.11 37.35 35.57 32.57 31.90 28.25 34.72 34.44 28.92 32.38 33.92 35.20 36.11 34.28 30.14 34.58 39.08 39.29 41.21 38.62 38.86 41.68 42.26 43.02

GFSSW_sfc_wetblb_003.txt.gz
Wetbulb
61.16 61.57 61.38 60.15 58.77 57.82 57.78 57.28 58.18 58.34 58.67 59.24 60.70 62.24 63.96 63.38 61.81 58.20 52.60 56.26 57.63 62.51 61.45 56.04 54.73 54.68 54.76 52.84 54.49 51.50 46.00 42.45 43.01 42.84 45.53 49.42 48.35 51.55 51.58 49.90 51.91 53.12 52.79 54.96 57.60
60.79 61.07 61.51 60.75 59.15 58.13 57.66 57.39 58.12 58.21 58.56 59.31 60.62 61.92 62.96 62.44 57.84 54.77 58.85 62.48 62.66 62.77 56.87 53.14 50.63 52.30 49.97 50.85 51.14 50.49 45.85 44.86 47.14 47.09 47.09 49.06 49.09 50.11 50.28 49.93 51.23 52.62 54.80 55.61 58.24
60.29 60.62 61.00 61.10 59.66 58.56 57.53 57.68 58.15 58.27 58.70 59.02 60.02 60.71 61.75 61.61 53.73 53.63 61.63 64.01 63.88 63.46 57.88 55.66 53.54 50.95 47.74 50.27 49.04 49.24 45.20 48.28 48.89 49.66 50.01 49.14 49.10 51.10 49.08 48.10 50.86 51.91 52.74 54.13 56.71
60.23 60.02 60.62 60.82 60.23 58.96 57.65 57.06 57.89 57.84 57.99 58.36 59.03 59.74 60.81 57.80 43.84 51.88 61.24 61.40 64.49 60.44 57.36 54.11 50.76 46.40 45.25 45.46 49.13 45.86 48.70 49.81 50.63 52.18 51.12 49.58 51.25 50.48 49.21 50.88 53.56 52.48 53.25 53.05 54.16
58.03 59.24 59.73 60.21 60.43 59.29 57.89 57.01 57.54 57.41 57.43 57.20 58.35 58.79 56.77 51.27 50.46 55.57 58.21 57.56 58.69 57.55 55.40 52.85 48.86 46.27 43.12 44.58 45.90 45.67 46.97 49.31 50.28 49.95 50.44 51.54 50.21 50.74 50.88 52.78 54.84 55.60 54.20 53.82 53.89
56.29 57.75 58.40 59.32 60.07 59.84 58.86 57.47 57.44 57.33 57.62 57.02 57.89 56.60 50.47 44.25 51.56 51.40 52.94 52.95 55.64 57.31 54.25 53.43 50.73 50.04 46.09 45.60 44.27 45.57 45.77 46.15 47.30 48.07 48.91 48.39 49.20 49.77 51.49 53.95 53.15 52.49 53.02 53.19 52.92
54.67 56.14 56.47 58.55 58.84 59.70 58.22 57.97 57.35 57.42 57.60 57.25 57.44 53.15 47.46 44.93 51.19 50.92 51.28 49.64 50.93 53.66 52.55 53.89 52.97 50.14 49.29 45.65 47.71 46.16 42.86 44.25 45.15 46.60 46.32 48.74 45.14 45.83 51.75 52.43 51.76 52.13 52.69 53.40 53.46
52.84 53.93 55.15 55.81 58.27 59.23 59.03 58.25 57.68 57.96 57.69 57.12 57.24 50.88 42.82 52.05 52.25 51.04 50.64 48.89 50.15 52.00 51.21 53.58 53.90 50.45 48.25 47.99 44.24 42.34 42.25 37.59 42.59 44.74 46.13 47.24 38.92 46.92 50.18 50.06 50.25 51.16 50.61 51.56 53.40
51.79 52.35 53.95 55.00 56.13 58.34 58.76 58.93 58.26 57.08 56.91 57.40 50.69 45.72 40.34 52.37 49.47 50.74 49.70 46.99 47.84 48.72 49.59 51.53 48.64 44.17 45.26 40.00 36.48 38.29 32.52 36.04 38.35 44.76 44.47 44.52 40.55 46.06 49.54 48.39 47.92 48.98 49.93 50.16 51.06
50.94 51.33 52.74 54.10 55.19 57.24 58.57 58.24 57.43 55.53 53.43 52.32 51.11 43.97 45.18 43.60 48.46 48.80 50.32 48.69 46.09 46.24 45.66 45.03 42.82 38.88 38.96 36.12 27.62 30.37 33.14 34.98 35.48 41.16 41.96 40.32 39.97 43.58 46.79 46.86 47.53 47.72 48.94 49.24 49.93
50.86 51.45 52.44 53.38 55.23 56.59 56.68 52.38 46.35 44.22 47.52 41.80 42.21 42.65 44.82 48.39 49.86 47.28 48.97 46.64 45.36 43.11 37.83 41.14 36.72 33.27 35.63 37.16 36.19 36.26 34.92 34.32 37.52 40.95 39.18 38.68 39.21 41.58 44.23 44.06 44.27 45.67 47.13 48.44 49.52
50.70 51.32 51.93 52.81 55.07 55.62 53.96 46.69 44.29 44.82 39.24 46.02 45.81 45.37 47.61 48.30 42.92 45.59 48.60 42.16 40.75 36.21 38.30 37.29 32.63 37.03 38.46 37.87 36.96 36.17 34.12 33.69 37.07 39.90 38.99 37.48 36.31 40.27 41.97 42.64 44.21 45.04 45.95 47.54 49.20
50.75 51.17 51.35 51.86 54.05 53.12 50.32 47.73 48.95 46.93 36.99 39.74 44.51 43.98 44.65 46.61 42.69 42.86 45.55 42.05 38.18 35.45 36.19 32.81 34.82 38.69 37.33 36.24 35.21 35.00 33.59 33.47 33.16 36.69 38.07 35.73 33.04 36.28 39.95 41.99 43.95 45.30 46.40 47.53 47.73
50.08 49.79 50.91 51.49 49.01 51.42 48.05 50.76 50.01 45.88 25.71 32.42 38.58 42.87 44.70 45.27 40.01 47.28 47.02 42.93 38.66 35.51 36.87 35.45 38.49 36.58 35.10 34.46 35.71 30.90 36.34 35.91 34.49 32.58 26.85 34.54 24.61 33.51 37.61 38.59 40.32 42.15 44.11 45.76 47.22
49.49 50.32 51.01 51.32 47.48 48.65 50.08 50.84 47.97 42.22 13.13 34.87 38.86 47.73 45.66 40.97 41.44 42.26 46.93 43.63 35.76 35.39 35.83 32.15 33.95 34.23 33.45 34.24 36.25 32.90 36.61 34.84 34.70 32.68 30.88 30.98 27.58 30.73 35.10 34.69 38.14 40.96 42.94 44.90 46.86
48.78 49.66 50.52 49.23 49.36 49.39 51.89 50.55 45.55 29.22 14.47 33.19 39.63 40.27 39.64 40.02 42.20 43.17 43.35 46.22 43.62 37.48 37.62 34.40 38.06 36.39 35.03 36.69 37.02 37.76 34.50 33.70 32.93 31.32 23.68 27.95 28.20 28.40 32.53 35.02 37.43 40.58 42.49 44.09 46.77
48.37 48.63 48.44 49.33 44.19 52.22 51.91 46.05 30.13 21.45 34.05 33.31 35.36 40.18 38.58 36.66 38.93 39.70 38.12 37.11 35.05 30.19 30.08 34.65 35.17 37.31 37.93 33.31 35.76 35.43 32.04 24.80 22.72 22.85 20.95 29.15 27.27 30.02 35.69 38.46 39.21 40.21 42.74 44.18 45.95
49.17 50.09 49.35 49.61 51.14 52.03 47.85 36.60 25.32 29.08 30.18 37.96 37.06 38.68 35.37 37.01 37.78 38.36 36.23 34.44 38.14 35.64 30.95 23.71 22.75 34.29 37.28 34.86 31.60 32.20 31.42 24.84 17.16 18.11 21.55 27.91 24.60 30.16 37.36 40.64 40.95 42.17 43.01 43.60 44.62
50.74 46.56 47.52 48.51 50.76 49.91 41.08 30.44 27.21 30.24 36.23 35.30 36.12 33.26 33.35 35.93 36.62 36.74 36.19 35.27 37.44 37.67 31.23 26.80 26.92 34.80 35.76 37.12 36.54 33.21 29.06 33.79 26.90 27.04 23.24 25.37 28.86 34.02 36.23 38.03 39.44 40.63 41.23 41.80 42.94
47.05 45.47 44.97 49.53 50.97 47.30 36.63 32.01 31.78 37.85 38.16 37.16 31.50 33.96 30.53 33.11 33.16 34.68 34.56 35.09 35.99 38.92 39.66 34.20 27.26 32.53 35.28 36.90 37.03 35.10 36.26 27.48 28.31 19.76 17.58 22.25 24.11 26.50 32.24 34.98 37.72 40.31 41.04 43.66 43.41
44.93 39.71 45.80 50.34 50.39 41.23 32.01 34.14 34.49 40.00 39.70 36.02 33.77 32.81 32.87 33.03 33.22 32.77 30.82 33.14 36.68 36.16 38.68 36.66 32.23 29.87 35.39 32.39 30.84 32.85 31.32 32.03 31.06 28.56 21.13 19.03 24.54 32.89 34.27 36.51 38.87 39.41 42.74 44.29 43.37
41.82 35.50 47.39 49.64 36.29 34.70 33.76 34.28 39.83 38.36 41.09 40.45 38.62 36.61 33.81 34.18 33.15 32.55 29.69 32.14 37.55 37.65 34.73 36.36 33.87 28.34 28.70 35.08 37.23 35.26 32.30 31.79 25.55 22.85 26.52 23.44 25.04 38.15 38.18 39.31 39.40 40.85 42.86 44.06 43.83
39.28 42.42 48.38 45.64 32.86 34.30 37.00 37.22 39.13 39.66 39.40 39.47 37.68 39.00 38.32 34.52 31.39 32.36 32.56 37.47 38.61 37.01 34.37 36.56 32.97 24.41 24.24 32.09 35.12 32.88 33.31 33.40 32.46 30.61 24.83 21.47 25.18 36.89 36.97 39.51 41.53 41.44 42.59 43.64 43.48
41.09 36.13 41.88 43.43 42.12 35.00 33.77 34.58 35.08 40.67 40.38 41.25 39.37 39.50 37.52 36.03 36.09 32.68 32.92 37.48 38.23 38.60 41.74 40.31 34.61 27.49 25.35 29.17 33.20 30.93 32.26 33.35 31.79 26.82 25.83 26.27 28.76 33.82 36.36 37.81 39.67 40.98 43.09 43.33 42.19
43.34 36.70 38.64 33.73 37.16 36.79 37.33 36.58 34.82 34.61 39.55 40.70 38.67 39.24 37.10 35.50 35.66 34.85 34.50 35.71 37.89 40.29 39.96 38.32 30.47 32.68 33.65 34.09 33.45 33.61 32.87 32.74 31.26 30.59 26.16 28.96 29.32 33.59 36.19 37.76 39.75 42.46 42.98 42.72 41.71
38.61 39.42 37.94 37.08 39.25 36.17 35.20 32.64 33.69 36.03 39.19 38.17 36.42 39.44 39.97 37.10 36.07 32.56 34.85 34.64 34.87 37.34 38.24 39.78 32.66 33.45 31.19 34.84 34.15 31.69 34.50 33.43 33.33 32.70 31.39 31.49 30.61 37.81 39.02 40.24 42.35 43.58 42.00 41.58 41.91
43.12 44.44 42.06 39.17 37.41 34.38 32.67 34.99 36.06 39.05 39.96 41.44 40.49 39.77 38.61 39.94 42.08 42.21 42.34 40.96 40.16 37.81 36.71 36.25 33.05 31.64 27.55 34.31 34.00 28.65 32.98 33.66 34.32 35.27 33.28 29.13 34.00 38.45 37.51 38.31 40.09 42.04 40.67 42.55 43.51

GFSSW_sfc_wetblb_006.txt.gz
Wetbulb
60.38 60.97 61.29 61.49 61.09 59.59 58.55 58.14 57.45 58.26 58.49 58.86 59.72 61.19 62.99 63.34 62.49 59.38 55.44 58.46 59.45 62.51 62.20 59.13 57.55 57.37 57.82 55.76 57.43 57.49 48.50 45.16 46.71 47.12 48.76 52.76 51.27 54.80 55.10 53.82 55.36 56.43 56.50 57.99 60.63
59.38 60.68 60.75 61.24 61.12 60.12 58.90 58.30 57.79 58.54 58.44 58.72 59.67 60.82 62.34 62.42 59.13 56.05 60.12 62.42 62.94 62.81 58.98 56.03 53.84 54.95 53.35 53.38 54.43 52.43 47.65 47.16 51.15 51.81 50.24 52.13 52.43 53.34 52.96 53.50 53.95 55.76 58.41 58.43 60.42
57.99 58.80 59.96 60.62 60.96 60.55 59.26 58.37 58.15 58.51 58.58 58.82 59.11 60.17 61.51 61.40 54.53 55.03 61.57 63.86 64.06 63.79 60.45 58.07 56.10 53.81 50.55 52.98 52.25 51.59 47.36 51.00 51.52 53.02 53.28 52.21 52.52 54.63 52.62 51.16 54.29 54.67 56.75 58.03 58.36
55.46 57.42 58.73 59.20 60.19 60.58 59.65 58.46 57.57 58.32 58.12 57.74 58.31 59.38 61.02 58.54 45.30 55.94 61.54 62.31 64.88 63.18 59.27 56.84 54.03 50.15 48.58 48.04 51.89 47.10 50.84 51.36 51.88 53.66 53.61 52.49 54.75 53.10 53.61 53.76 56.52 57.44 57.76 58.42 59.26
53.51 54.86 56.68 57.67 58.89 59.92 59.99 58.78 57.62 58.15 57.97 56.90 57.97 57.99 58.46 52.58 51.41 57.43 57.82 59.44 61.97 60.94 56.71 54.71 51.66 50.16 46.89 48.08 49.40 48.56 49.56 51.24 52.70 52.81 52.97 53.57 51.94 52.45 53.20 56.68 58.64 58.93 59.02 59.21 59.56
52.50 53.37 54.60 56.31 57.00 58.96 59.78 59.32 57.94 58.03 57.72 57.34 57.66 56.69 53.14 47.57 54.97 54.82 55.87 58.12 59.55 59.26 55.98 54.65 52.82 52.82 48.95 47.56 47.38 48.64 49.17 49.67 50.77 50.87 51.66 49.96 50.78 52.06 53.36 56.21 55.95 56.48 56.86 58.57 59.25
51.87 52.85 53.13 53.99 55.75 56.71 59.03 58.85 58.13 57.87 57.94 57.63 56.95 55.15 49.68 47.98 54.37 55.09 54.52 54.36 55.81 58.58 54.35 55.30 55.25 51.86 51.20 47.32 50.36 48.99 45.37 47.64 48.36 49.25 48.83 50.94 46.87 47.80 52.80 54.11 53.50 54.95 55.91 56.58 57.71
50.99 52.12 52.20 52.80 54.60 55.91 58.03 59.19 58.52 58.33 58.01 57.48 56.93 52.84 45.86 53.43 56.04 53.55 54.05 52.98 55.00 55.80 56.91 57.73 57.06 51.98 49.19 50.46 47.48 44.61 44.82 40.93 46.36 47.37 48.41 47.93 41.45 48.52 53.30 52.99 52.56 53.89 54.68 55.17 56.41
51.24 50.76 51.56 51.75 53.33 54.78 55.94 58.73 58.34 58.27 57.40 57.52 51.90 48.88 44.56 53.83 50.23 53.44 53.94 51.55 52.34 52.90 54.40 55.65 52.02 47.72 47.76 43.08 40.83 42.22 37.96 39.37 41.81 47.18 46.88 46.44 43.86 48.63 51.89 51.93 51.64 52.57 53.88 54.98 56.08
50.85 50.75 50.89 51.86 52.68 53.83 55.04 58.37 57.84 56.77 55.62 53.77 51.45 45.58 47.88 45.34 50.19 51.43 53.04 52.29 49.64 50.13 48.32 47.90 47.02 43.37 43.28 41.14 35.04 36.85 36.85 38.52 38.49 43.33 44.82 43.27 43.47 47.59 50.24 49.81 49.79 51.16 53.15 54.17 54.64
50.44 50.40 50.90 51.55 52.35 53.25 53.84 54.71 47.42 46.68 49.37 44.79 45.36 44.62 46.43 50.08 51.86 49.34 51.38 49.79 49.34 47.42 41.77 44.49 39.99 36.95 40.20 41.81 41.18 38.82 37.99 37.85 40.93 43.69 41.59 40.83 41.87 44.67 47.52 48.15 48.25 49.44 50.52 51.69 53.44
49.97 50.49 50.87 51.34 52.11 52.66 52.55 46.97 46.86 49.59 42.15 47.54 47.30 47.13 48.96 50.19 44.29 47.27 51.28 44.82 43.87 39.83 42.76 39.72 35.70 41.65 41.71 41.20 39.49 38.55 36.87 37.00 40.43 42.27 41.02 40.57 39.94 43.53 44.92 45.59 47.19 48.11 49.31 50.51 51.99
49.13 49.85 50.51 51.01 51.32 50.63 48.92 49.17 51.11 49.04 41.97 43.78 46.69 45.83 46.53 48.58 44.47 44.81 48.06 45.43 42.20 39.52 40.00 37.85 38.37 40.94 39.67 38.63 37.05 37.85 36.55 36.68 36.39 40.01 41.11 39.07 37.46 41.53 44.36 45.63 46.32 47.09 48.36 49.31 50.02
49.19 49.56 49.75 50.16 47.73 48.42 46.50 52.27 51.23 47.99 34.21 36.48 41.38 44.70 46.60 47.74 42.52 49.36 49.48 45.59 41.45 38.48 39.61 39.05 42.11 38.31 37.69 36.82 38.54 34.17 39.41 37.80 36.42 34.74 30.98 38.00 30.31 39.02 42.18 42.72 44.44 46.18 47.41 48.29 49.62
49.26 49.22 49.28 49.33 45.19 44.88 49.81 52.12 48.70 45.16 26.61 37.93 39.70 49.63 47.32 42.63 43.67 43.93 49.60 45.38 39.10 38.67 39.08 36.39 37.08 36.78 34.66 36.26 39.30 35.79 39.07 37.33 36.97 35.01 33.19 34.38 28.99 36.11 40.30 39.50 42.26 45.27 47.04 48.58 49.82
48.92 49.07 49.03 47.46 47.15 48.52 51.70 50.08 46.38 31.63 25.56 34.63 40.57 40.14 40.06 41.39 42.51 44.39 44.19 46.58 44.83 39.56 39.77 38.99 41.32 39.68 38.93 40.04 40.18 40.05 37.19 36.51 35.83 33.21 26.41 32.93 31.46 33.00 37.86 40.55 42.34 44.23 46.64 47.85 49.52
49.02 49.08 47.53 47.02 41.41 50.17 51.53 44.84 30.50 28.59 36.75 33.75 35.63 38.80 38.12 36.97 39.38 40.66 39.52 37.72 36.28 31.62 32.33 35.88 36.97 39.80 40.32 36.07 39.17 38.17 33.58 27.37 24.83 24.99 25.01 34.64 31.31 33.81 39.87 41.76 43.19 44.28 45.66 47.92 49.57
49.31 50.94 49.93 47.18 50.03 49.85 47.78 36.47 28.18 32.84 33.95 38.74 38.54 38.09 35.61 37.72 38.73 38.44 37.25 35.05 38.80 36.69 33.35 30.39 29.96 36.80 39.71 36.94 35.03 34.93 34.40 28.17 21.02 23.68 27.41 33.85 27.59 33.85 42.09 44.00 44.98 45.63 46.39 46.91 48.54
50.39 49.13 48.13 49.67 51.02 49.62 39.01 30.60 32.54 34.40 37.88 35.94 37.44 34.12 34.23 36.46 38.22 36.85 36.05 35.63 38.21 38.87 32.55 30.62 29.08 37.57 38.96 40.01 39.03 33.84 30.13 36.98 29.50 30.78 25.79 30.15 34.27 39.34 41.66 41.31 42.92 43.81 44.96 47.52 48.81
44.23 46.66 46.52 51.53 50.96 45.97 35.80 33.66 34.22 39.76 40.04 39.15 33.02 35.47 31.36 33.90 35.29 35.29 35.87 39.36 38.52 41.19 41.73 35.99 29.81 36.21 37.78 39.74 39.37 36.80 38.03 29.41 30.69 21.45 20.68 27.90 29.27 31.65 37.00 38.90 41.28 42.04 44.78 46.73 48.64
44.05 39.40 46.51 51.03 47.40 38.55 33.21 33.89 37.67 41.71 41.90 38.46 35.88 34.95 35.92 34.72 35.81 35.05 35.58 37.87 40.52 40.31 41.81 38.48 33.55 32.69 35.84 33.40 33.64 33.21 31.13 33.39 32.76 30.60 23.07 22.81 28.85 39.24 38.33 39.99 41.56 43.27 45.08 46.89 48.31
42.08 33.99 48.43 49.22 36.32 36.08 35.21 35.56 41.46 40.26 43.69 41.39 40.84 38.97 36.89 37.05 35.14 35.31 35.12 36.76 41.34 41.53 36.65 39.52 35.20 30.04 32.48 39.07 40.02 38.39 34.62 33.29 27.46 25.95 29.37 28.04 29.15 41.06 40.82 41.47 42.47 43.56 45.12 46.85 48.84
38.73 39.51 47.80 47.04 34.42 35.40 37.63 37.71 41.55 40.55 41.37 40.89 39.18 40.32 40.15 37.05 33.62 36.53 36.70 40.64 41.36 40.74 38.59 39.67 34.03 27.88 31.30 34.80 37.26 34.01 35.84 35.59 34.13 32.85 28.12 25.08 29.00 39.11 40.84 41.11 42.71 43.12 44.37 46.73 48.53
39.10 33.99 40.98 41.41 43.46 38.05 37.21 37.09 37.86 43.12 42.36 42.49 40.51 41.61 39.14 36.73 38.27 35.79 36.09 39.65 41.54 41.43 42.06 41.72 35.95 32.44 28.72 32.67 35.97 33.23 33.85 34.87 33.39 28.67 29.68 30.49 32.15 36.79 39.22 40.19 41.96 43.16 44.92 47.91 48.36
40.96 37.75 39.76 34.50 38.30 39.90 39.88 39.04 37.32 36.95 42.35 43.34 39.68 39.43 38.30 35.22 36.16 35.63 37.61 38.24 39.79 41.46 41.49 40.09 32.32 34.13 34.28 34.94 34.93 34.55 33.92 35.12 31.82 32.89 29.22 33.00 33.50 37.40 39.93 40.68 42.19 43.53 44.96 47.22 46.36
36.93 39.18 42.28 39.94 40.10 39.69 38.93 37.25 37.10 39.08 39.75 38.34 38.70 40.43 39.87 37.17 37.52 36.10 38.24 38.38 37.89 40.54 39.23 40.72 32.90 34.63 31.61 35.23 35.28 33.13 35.36 35.63 35.31 34.73 34.18 34.83 34.20 41.16 42.43 42.95 42.35 44.24 44.40 44.08 45.31
43.30 43.80 43.55 38.72 38.58 37.98 37.66 37.77 37.94 40.84 41.41 42.42 41.38 40.36 39.08 40.54 42.88 43.85 43.01 42.37 41.01 39.71 38.31 37.01 34.62 32.41 29.10 35.97 35.12 31.54 34.78 35.48 35.53 36.49 35.79 31.03 37.16 41.80 39.83 40.23 40.85 42.54 43.62 43.85 45.21

GFSSW_sfc_wetblb_009.txt.gz
Wetbulb
57.35 59.17 60.13 60.87 61.04 60.99 60.54 59.46 58.92 57.83 58.35 58.77 58.96 59.76 61.23 62.67 62.87 60.11 55.03 59.80 61.15 63.62 62.06 60.02 58.54 58.43 58.60 56.24 57.20 58.52 49.85 45.90 47.68 47.89 49.45 53.90 52.26 55.37 56.48 54.33 55.39 56.67 56.66 59.33 62.28
55.66 56.96 58.35 59.64 60.24 60.58 60.70 59.91 59.18 58.20 58.78 58.69 59.04 59.97 61.05 62.29 59.45 55.88 60.55 61.50 62.23 63.05 59.25 57.01 54.56 55.92 53.99 54.09 54.87 52.62 47.60 47.62 51.29 51.86 51.10 52.69 52.98 53.98 53.33 53.35 53.24 55.29 58.27 59.66 60.93
53.56 54.72 56.12 57.81 58.88 59.60 60.26 60.11 59.21 58.68 58.85 58.69 58.97 59.49 60.31 61.72 53.89 55.05 64.36 63.32 63.74 63.24 60.44 58.53 57.19 54.60 51.15 53.41 52.81 51.96 47.27 50.95 51.85 53.66 54.28 52.87 52.55 54.50 52.61 51.43 54.48 53.96 56.48 58.93 59.37
52.99 52.90 54.33 55.70 57.27 58.33 59.62 60.39 59.35 58.57 58.65 58.50 58.20 58.88 60.18 58.98 45.70 58.06 61.15 62.78 64.59 63.24 59.78 57.35 55.04 51.52 49.83 48.70 52.28 48.12 50.92 51.62 52.44 53.38 53.26 52.09 54.04 52.44 53.45 53.75 56.58 57.01 58.11 59.04 58.74
52.31 52.28 53.20 54.11 55.13 56.32 57.86 59.39 59.66 58.21 58.37 58.04 57.50 58.59 58.27 53.10 51.88 59.73 59.38 60.70 62.60 60.92 57.03 55.20 52.69 51.99 48.34 50.36 51.26 49.26 50.56 51.63 52.59 52.89 53.00 53.79 52.07 52.54 53.56 56.74 57.82 58.10 58.27 58.15 58.53
52.14 51.67 52.29 52.84 53.50 54.50 56.47 58.09 59.70 58.21 58.18 57.97 57.27 58.06 54.49 48.03 57.61 57.61 58.24 59.33 59.57 59.70 56.13 56.09 53.11 53.82 50.69 50.13 48.79 50.62 50.53 50.96 52.17 52.03 52.70 50.74 50.97 52.04 53.14 55.97 55.79 56.36 56.88 58.04 58.71
52.19 52.11 51.46 51.82 52.27 53.26 54.84 57.03 58.91 58.32 58.09 58.45 57.49 55.76 51.02 50.53 56.69 57.38 57.88 57.60 59.98 59.74 54.77 56.51 55.21 52.85 52.33 48.37 51.91 50.28 46.65 48.85 49.49 50.44 49.74 51.34 47.18 48.13 53.01 54.35 53.57 54.57 55.80 56.55 57.40
51.86 51.67 51.55 51.46 51.77 52.43 53.56 55.64 56.69 58.82 58.07 58.11 57.25 53.67 47.28 55.10 57.08 54.22 57.24 57.04 59.58 60.05 57.89 58.14 56.49 52.74 50.71 51.50 48.76 45.60 46.78 42.61 48.69 48.99 49.84 48.95 42.16 50.05 53.20 53.43 53.11 53.72 54.25 55.01 56.11
51.44 51.11 51.36 51.32 50.98 51.74 52.95 54.26 55.69 58.42 58.22 57.81 53.21 51.13 46.07 54.39 51.34 54.47 56.20 54.02 55.09 56.53 57.69 57.37 54.82 49.72 48.75 44.31 42.28 44.16 40.04 42.52 44.78 49.04 47.95 47.49 44.72 50.16 52.54 52.24 51.59 52.79 54.16 54.77 56.00
50.98 50.68 50.78 51.03 51.06 51.72 52.56 53.52 54.84 57.01 56.10 54.83 52.52 46.76 49.39 47.27 51.95 53.27 55.24 55.11 52.09 51.81 50.46 49.35 47.79 44.42 44.53 42.63 36.55 39.42 39.54 41.49 40.73 44.88 46.01 44.58 44.37 48.16 50.30 50.25 50.85 51.95 52.59 53.37 54.62
50.20 50.16 49.76 50.60 51.12 51.84 51.85 50.18 49.37 47.67 50.39 46.53 46.85 46.34 48.35 51.83 53.51 51.07 53.05 52.19 51.30 48.74 41.99 44.82 40.02 38.84 42.82 44.36 44.37 41.95 39.55 39.24 42.78 45.47 42.94 42.01 42.77 45.10 47.77 48.42 48.59 49.60 50.80 51.82 52.87
49.95 49.96 50.16 50.22 50.76 51.33 50.95 44.35 47.27 47.91 42.72 48.95 47.97 48.40 50.87 51.82 45.67 48.80 52.60 46.66 45.82 41.46 44.36 40.22 37.18 43.74 45.51 43.90 42.33 40.92 38.86 38.76 42.03 44.17 42.51 41.23 40.91 44.55 46.23 46.95 48.10 48.19 48.88 50.04 51.49
50.02 49.75 49.74 50.22 50.27 49.96 47.45 45.28 51.25 49.46 43.00 44.42 47.40 47.18 47.70 49.75 45.82 45.95 49.15 47.02 43.67 41.37 41.01 39.20 41.00 42.62 42.42 40.77 38.82 39.60 38.21 38.67 38.60 41.80 42.46 40.33 38.97 42.85 46.49 47.76 48.29 48.77 49.16 49.42 50.25
49.50 49.32 49.37 49.26 47.14 45.46 44.48 50.91 50.75 49.14 33.90 38.91 41.75 45.62 47.78 48.76 43.71 50.31 50.60 47.12 43.28 40.16 41.24 40.98 44.35 39.96 39.48 38.30 40.16 36.12 42.15 40.54 38.37 36.41 33.35 39.91 31.63 39.60 43.04 44.39 46.13 47.41 48.27 48.88 49.54
49.09 49.05 49.27 48.48 45.58 43.65 47.60 51.56 50.26 46.73 26.86 39.10 41.36 50.40 48.42 44.21 45.16 44.97 50.95 46.32 40.37 40.64 41.16 38.39 38.32 38.79 37.03 38.47 41.20 37.61 40.48 38.53 38.00 35.52 33.96 35.59 31.87 37.22 42.36 40.77 43.15 46.08 47.97 49.14 50.35
48.82 49.22 49.44 47.66 46.87 47.68 49.97 50.42 46.80 31.42 26.40 35.57 40.36 40.34 40.14 42.88 43.29 45.04 44.92 47.82 46.13 40.90 41.06 40.17 43.20 41.42 40.57 41.42 41.52 41.32 38.06 36.85 36.24 32.78 26.65 33.24 33.70 34.50 38.41 40.39 42.02 45.24 46.81 48.04 49.15
49.60 49.86 48.52 47.76 42.25 49.22 49.57 44.69 29.96 26.42 37.16 33.52 35.15 39.59 38.51 37.14 39.41 41.09 39.29 38.20 36.67 32.04 32.24 37.04 37.81 40.95 42.06 37.52 40.15 38.47 33.25 29.24 26.73 25.89 26.36 36.65 33.36 35.73 40.97 42.74 43.25 43.74 45.82 47.56 48.68
50.59 50.21 50.02 49.92 48.10 48.05 44.66 37.36 28.06 34.77 35.35 39.46 38.19 38.13 35.15 37.39 37.97 38.83 37.43 34.98 39.86 38.55 35.17 31.09 31.42 37.87 40.60 38.24 36.24 34.78 34.43 29.53 22.97 25.95 29.41 36.48 30.26 35.56 42.75 44.25 44.84 45.84 46.42 47.35 47.79
49.63 48.67 48.22 48.85 48.70 48.09 37.39 29.81 30.15 36.50 39.03 36.98 36.72 33.77 34.30 36.84 38.37 37.93 37.20 36.68 39.38 40.24 34.16 33.16 31.64 39.95 40.75 41.12 40.16 35.67 31.60 38.09 30.48 31.71 26.89 30.99 35.61 40.06 42.17 42.41 43.78 44.35 45.22 45.72 46.67
46.09 45.66 45.97 50.31 50.89 45.32 36.34 33.74 35.33 41.43 41.53 39.74 33.49 36.05 31.15 33.88 35.13 35.89 35.81 40.48 38.34 41.82 42.93 37.28 30.80 37.77 39.60 40.93 41.02 38.07 39.56 29.76 31.12 22.09 22.19 29.70 31.77 33.16 38.12 40.11 42.11 42.85 43.91 45.18 47.57
45.24 39.42 47.16 51.69 49.36 39.59 33.50 34.20 38.21 43.03 43.20 39.46 37.14 36.01 36.19 34.58 37.04 35.55 36.67 40.40 42.69 41.96 42.55 39.59 35.23 33.71 36.90 34.59 35.05 34.65 32.88 33.48 33.44 31.44 24.92 23.60 29.39 39.60 39.28 41.00 41.71 43.92 45.02 46.16 47.45
42.84 35.19 48.22 50.45 35.78 38.09 36.53 36.54 41.56 40.61 43.75 41.74 41.86 40.25 38.96 38.64 37.46 37.59 37.44 38.69 43.51 43.25 37.16 40.43 35.94 30.93 33.30 39.84 41.28 39.04 35.07 33.94 28.45 27.55 29.89 29.08 29.17 41.16 41.63 42.39 42.98 43.17 44.34 45.83 46.59
40.31 39.51 48.03 47.38 34.33 36.19 37.08 38.14 41.48 40.60 42.02 41.63 39.88 41.66 42.19 39.22 35.57 38.73 39.15 42.49 42.79 42.02 39.46 39.99 34.58 28.98 32.19 36.50 39.61 35.62 37.51 37.18 35.85 33.85 29.23 26.24 29.96 41.59 41.96 41.72 42.61 42.86 44.15 45.42 46.97
37.57 34.94 40.60 42.05 43.25 39.91 36.96 37.72 38.50 43.98 42.93 43.39 41.77 42.65 40.52 38.78 40.50 37.75 37.74 40.80 42.69 42.74 43.13 43.42 36.53 33.25 29.51 34.25 36.79 33.26 35.10 36.59 34.51 30.23 30.54 31.15 32.87 38.02 40.57 41.22 42.85 43.84 44.98 45.62 46.22
39.78 38.36 41.51 36.28 38.31 39.99 40.49 39.90 38.01 37.87 43.19 43.72 40.53 40.56 39.55 36.18 37.19 36.65 39.29 40.01 41.56 43.32 41.93 40.13 33.05 35.13 35.66 36.54 36.60 35.64 34.93 35.27 32.61 34.33 30.19 33.26 33.77 37.99 40.58 41.56 43.13 44.84 44.68 45.68 46.38
37.85 38.66 41.88 40.74 42.27 40.90 40.25 39.10 38.76 39.76 40.76 38.90 39.25 40.90 40.92 38.18 39.02 36.75 39.50 39.22 38.34 40.91 39.77 40.63 33.77 35.23 31.68 36.11 36.51 34.73 36.94 37.11 36.82 35.96 35.41 35.01 34.08 41.19 43.03 43.74 42.90 43.37 44.09 44.82 44.33
44.41 44.50 41.76 39.29 40.19 39.24 39.85 39.69 39.78 42.15 42.67 43.62 42.43 41.59 40.06 41.46 44.03 44.06 44.55 43.55 42.60 40.26 38.28 37.53 34.95 32.42 30.00 36.51 35.56 33.27 36.68 37.18 37.10 37.79 36.82 32.81 37.13 41.77 41.09 41.39 41.64 41.59 42.69 43.16 44.62

GFSSW_sfc_wetblb_012.txt.gz
Wetbulb
54.34 55.07 56.43 57.65 58.94 59.64 60.57 60.91 60.61 59.70 58.84 58.38 59.11 59.10 59.90 61.23 62.39 60.09 55.79 58.08 60.57 64.45 62.26 60.44 58.21 56.94 56.74 54.19 55.61 55.66 46.14 42.93 44.65 45.62 47.50 51.53 49.65 52.01 53.13 50.78 52.11 52.39 52.00 56.95 62.80
53.69 54.18 54.33 55.80 57.04 58.47 59.09 60.41 60.87 59.97 59.12 58.77 59.04 59.22 60.05 61.50 59.30 55.86 61.11 63.09 63.24 64.20 57.57 55.90 53.32 54.71 51.58 51.97 52.44 49.40 45.26 46.06 50.39 49.78 48.51 51.46 50.16 50.51 49.64 50.30 49.41 50.97 54.15 57.82 59.22
53.14 53.28 53.43 54.03 55.41 56.74 57.81 58.93 60.37 60.07 59.18 58.94 59.03 59.15 59.75 60.24 54.39 53.27 65.05 63.63 63.62 62.51 59.34 57.78 56.28 53.36 49.58 51.20 50.60 49.41 44.46 49.15 49.81 50.87 51.83 51.31 51.11 52.30 49.54 48.05 50.57 50.07 51.80 55.13 56.26
53.23 52.90 52.90 52.84 54.00 54.68 55.91 57.62 59.16 60.49 59.19 58.72 58.86 58.57 59.40 57.75 43.96 57.99 63.83 64.24 64.16 62.17 58.56 55.68 53.51 49.82 47.45 45.98 50.34 45.80 49.67 50.13 50.63 51.89 51.33 49.72 52.32 50.13 50.29 49.71 53.54 53.63 54.34 53.82 54.44
52.87 53.00 52.98 52.46 52.60 53.11 54.24 55.71 57.96 59.56 58.92 58.68 58.21 57.93 56.24 52.35 51.76 60.51 61.42 61.71 62.12 60.37 56.97 53.64 51.05 49.76 46.30 48.10 48.54 46.75 48.24 50.13 50.86 50.97 50.34 51.82 49.82 49.87 50.63 53.54 55.05 55.26 55.13 54.50 54.08
53.24 52.93 52.65 52.53 52.29 52.18 52.81 54.19 56.51 58.69 59.09 58.56 57.85 57.80 52.43 46.94 58.58 58.19 58.38 58.72 58.85 58.83 56.61 55.26 52.91 53.29 49.75 48.76 47.69 49.63 49.44 49.54 50.53 50.20 50.60 49.27 48.98 49.80 50.16 52.87 52.76 53.81 53.71 53.85 54.71
53.54 53.14 52.44 52.20 52.32 52.26 52.07 53.50 54.75 57.23 59.05 58.47 58.09 55.29 49.81 49.35 57.75 57.80 57.32 56.59 58.79 58.85 55.29 56.61 55.94 52.50 51.15 48.08 51.04 49.21 44.96 47.33 47.96 48.65 48.06 49.28 45.15 46.05 51.03 52.29 51.31 51.46 52.35 53.89 54.56
52.81 52.56 52.18 51.70 51.76 51.82 51.76 52.27 53.93 55.08 56.98 58.21 58.13 53.24 46.20 55.78 56.32 54.59 57.23 56.20 58.53 60.16 57.94 57.73 56.53 52.46 49.94 50.78 48.40 44.56 44.52 39.03 46.16 48.05 48.33 47.11 39.16 47.10 50.50 50.10 49.52 50.36 51.15 51.79 53.31
52.07 51.84 51.60 51.38 51.19 51.41 51.48 52.19 53.29 54.43 57.17 57.93 52.86 50.27 44.40 54.01 51.48 53.60 56.05 54.34 56.20 57.01 57.62 57.77 55.21 49.87 48.77 42.49 39.30 41.66 35.59 38.69 42.45 47.58 46.48 44.70 40.38 47.46 50.11 49.01 47.98 48.51 49.19 51.01 51.82
51.20 51.11 51.01 50.60 50.69 51.15 51.56 52.35 53.12 53.27 56.48 55.38 52.71 46.18 48.46 46.97 51.22 52.85 54.87 55.67 52.14 53.21 51.12 50.65 48.08 42.76 42.35 39.51 31.77 35.73 36.54 39.04 38.42 43.00 43.46 41.53 41.36 45.19 47.33 47.26 45.92 46.98 48.27 48.98 50.25
50.88 50.82 50.57 50.40 50.53 50.80 50.16 49.13 46.12 47.41 50.47 45.36 45.56 45.98 47.37 51.86 53.46 51.01 53.29 52.37 51.15 48.87 41.56 45.14 39.17 36.28 40.19 41.79 42.13 40.89 38.66 36.42 39.58 43.52 40.35 38.91 39.68 42.04 44.67 44.63 44.73 45.45 46.65 48.02 49.58
50.54 50.34 50.36 50.38 50.58 50.95 49.13 43.11 45.41 48.08 41.89 48.83 48.42 48.36 50.68 51.42 45.64 48.55 52.96 46.54 45.16 40.56 43.21 39.93 35.45 41.72 44.31 43.70 41.26 40.20 37.25 36.01 39.80 42.85 40.09 38.47 37.93 41.44 43.49 44.03 44.92 45.22 45.48 46.49 47.79
50.01 50.06 50.09 49.77 49.98 48.89 45.29 44.91 50.62 48.23 42.72 43.95 47.49 47.11 47.57 49.67 45.43 45.60 49.08 47.41 43.00 40.23 40.42 37.13 39.92 44.10 42.18 40.51 38.21 37.14 35.88 35.88 35.92 39.74 40.02 37.56 35.11 38.07 42.79 44.48 45.37 46.29 46.92 47.34 47.07
49.78 49.69 49.28 49.52 46.52 46.05 43.65 49.57 49.98 48.70 33.96 38.31 41.56 45.73 47.79 48.65 43.62 49.86 50.32 47.04 43.54 39.62 40.95 39.66 43.27 40.68 39.11 38.49 39.21 33.68 39.82 39.29 38.21 33.79 27.77 37.10 25.43 34.49 38.82 39.88 42.73 43.25 43.43 44.33 45.33
49.39 49.32 49.24 49.02 44.93 42.35 46.12 50.44 48.93 44.80 25.01 39.47 41.32 50.99 48.30 44.20 44.62 45.03 50.62 46.65 40.51 40.62 40.89 37.05 38.42 38.36 36.58 37.79 40.10 36.24 40.24 37.71 36.93 32.74 29.72 30.65 26.48 31.22 37.80 36.83 39.06 39.34 42.10 43.66 45.28
49.81 50.16 50.32 47.52 46.93 46.44 49.08 49.11 44.14 29.37 25.20 34.83 40.58 40.59 40.95 43.28 43.33 45.06 45.33 47.79 46.42 41.13 41.68 39.77 42.80 40.89 39.56 41.48 40.88 40.79 37.89 35.46 33.93 30.60 20.21 28.87 29.23 29.25 33.30 37.04 38.60 38.35 40.90 43.00 43.64
50.23 50.61 49.75 49.34 41.46 48.55 47.58 42.30 29.56 24.89 36.96 34.40 36.80 39.90 39.08 38.31 39.57 40.83 39.20 37.95 34.99 31.63 31.56 36.47 37.09 40.35 41.63 36.68 39.37 38.72 33.52 22.53 20.73 21.42 19.72 33.03 28.94 31.31 37.31 40.24 40.45 38.25 39.86 41.73 42.81
51.22 51.14 49.58 49.41 48.48 48.00 43.92 35.08 25.11 32.45 35.15 38.29 38.74 38.91 35.15 38.25 38.05 38.67 37.34 34.83 38.70 36.71 33.23 28.06 28.82 36.82 40.09 37.05 34.66 35.06 33.68 24.15 19.32 18.50 22.96 32.36 24.23 30.84 37.98 40.10 41.34 41.62 41.58 42.06 42.51
51.06 48.61 46.73 48.97 49.79 46.80 37.13 28.26 29.17 35.27 38.08 36.11 37.63 34.54 33.76 37.11 37.27 36.80 35.89 34.83 37.27 38.58 31.53 30.84 31.37 39.95 40.27 40.41 38.99 34.10 28.53 34.29 28.42 27.39 21.36 25.62 30.19 36.76 39.89 40.13 41.06 39.87 41.14 40.77 41.97
46.82 46.16 44.17 48.37 48.54 43.87 35.28 32.87 34.02 39.19 40.41 39.20 32.25 35.59 30.88 33.77 34.72 35.30 35.01 38.89 37.60 40.48 40.84 37.38 27.99 36.95 38.80 40.05 39.40 35.99 37.79 29.12 28.10 13.83 17.10 23.72 26.53 28.74 34.10 35.55 39.06 39.04 38.45 40.49 42.09
45.91 40.25 46.01 50.07 49.05 40.67 32.27 33.42 37.16 42.12 42.04 39.28 36.07 34.82 34.97 33.74 35.87 34.31 34.69 39.50 40.51 39.93 41.66 38.46 32.64 32.80 35.85 33.52 32.64 33.47 31.62 32.36 30.78 28.26 19.40 20.04 24.17 35.24 35.08 36.72 36.51 39.00 40.50 40.31 41.39
42.75 35.63 47.61 49.97 36.91 37.10 35.18 35.78 41.40 40.74 44.55 42.10 42.10 39.34 36.01 36.09 35.43 35.18 35.85 38.80 42.79 41.99 36.70 39.10 35.74 26.07 31.08 37.74 38.97 37.21 33.35 32.91 27.07 21.31 27.03 25.85 26.12 39.93 39.42 38.38 39.30 39.21 41.06 39.54 42.23
40.08 40.46 48.60 47.82 33.39 35.12 37.53 38.48 40.84 40.62 41.75 41.37 39.88 42.04 40.71 37.33 34.59 37.44 38.72 41.23 42.39 40.77 37.91 39.08 32.57 23.68 26.87 34.17 37.06 34.96 35.25 35.89 34.04 32.21 26.82 24.16 26.46 40.30 41.01 40.75 41.37 41.28 40.78 40.84 43.43
40.84 34.31 40.37 42.67 42.14 37.78 36.13 37.88 38.49 43.89 42.73 43.30 41.33 42.37 40.12 37.96 39.78 36.45 37.22 40.70 41.44 41.99 44.11 42.70 36.19 28.02 23.41 27.65 33.42 30.22 33.88 35.99 34.16 29.20 28.36 29.22 30.65 36.38 39.07 40.07 40.75 40.92 43.03 43.05 42.36
41.51 38.41 41.07 36.71 39.25 38.99 39.56 39.54 38.02 37.60 43.39 43.72 40.54 40.57 39.05 35.64 36.27 36.19 38.65 38.83 40.83 42.76 41.23 38.45 30.67 30.88 33.98 35.08 34.31 33.23 33.37 34.54 33.08 33.90 30.15 31.82 32.81 36.29 39.02 40.18 41.56 41.56 41.75 42.58 43.54
39.64 38.69 41.11 40.64 41.73 38.94 40.07 38.60 38.29 39.93 40.94 38.91 39.01 40.72 40.11 37.10 38.20 35.88 38.55 38.48 37.61 39.78 37.81 38.85 31.71 33.52 28.38 34.17 33.91 31.64 34.42 35.57 36.37 36.66 36.91 36.73 35.43 40.96 41.91 42.41 41.22 39.59 40.66 41.59 42.78
43.96 44.73 41.57 39.27 40.10 38.62 38.88 39.39 40.02 42.12 42.55 43.32 42.42 40.93 39.84 41.22 43.17 43.08 42.86 42.88 42.01 39.01 37.26 36.76 34.90 31.63 24.50 34.04 32.73 30.58 34.90 36.74 37.91 38.63 37.70 33.76 37.79 41.87 40.70 40.98 40.75 38.84 40.77 41.78 43.05

GFSSW_sfc_wetblb_015.txt.gz
Wetbulb
54.05 54.04 54.50 54.67 55.51 57.26 58.60 59.45 60.09 60.98 60.35 59.57 58.68 59.25 59.16 59.88 60.64 58.75 53.35 57.24 59.23 64.70 62.88 59.29 57.61 55.74 54.28 50.68 52.34 50.91 41.72 39.28 42.17 43.23 44.69 49.55 47.56 49.80 50.85 48.84 49.69 49.73 49.13 58.23 63.38
54.01 54.10 53.90 53.80 53.83 54.76 56.76 57.76 59.09 60.12 60.79 59.83 59.01 59.15 59.23 60.41 57.23 55.97 60.07 64.02 64.49 64.02 58.87 53.82 52.28 52.63 47.80 48.84 49.22 45.39 41.40 42.84 47.33 47.12 46.01 48.89 48.68 48.49 47.75 48.20 46.99 47.68 52.88 57.39 61.75
53.77 53.57 53.84 53.82 53.51 53.61 54.23 55.95 57.31 59.02 60.46 59.87 59.25 59.06 59.37 59.03 52.58 53.21 64.14 64.23 64.42 63.41 58.72 55.59 54.63 51.54 47.22 47.60 46.95 46.08 41.67 47.41 49.32 49.76 49.05 49.26 48.80 50.70 46.83 45.03 48.05 47.96 49.04 53.98 55.85
53.91 53.96 53.72 53.71 53.55 53.27 53.08 53.25 55.53 57.45 59.55 60.07 59.29 58.95 58.87 56.34 41.97 56.83 64.09 65.11 64.34 60.88 57.20 54.77 51.84 47.00 45.05 44.25 47.76 42.89 47.33 48.57 49.31 50.41 49.00 47.21 50.38 48.43 48.15 47.61 51.64 51.09 51.51 52.38 51.92
54.09 54.06 53.96 53.51 53.03 53.17 52.78 52.90 53.67 55.98 58.55 60.00 59.11 58.29 55.48 50.80 50.23 60.58 63.41 63.84 61.37 59.79 55.21 53.14 49.27 47.00 43.86 44.87 45.71 43.71 45.92 48.78 49.34 49.20 48.20 49.90 47.43 47.39 47.81 51.05 52.63 52.78 53.20 51.68 52.41
53.83 53.53 53.50 53.18 52.82 52.06 52.57 52.65 52.47 54.92 56.49 58.94 58.80 58.17 52.03 45.27 57.47 59.19 58.67 59.15 59.12 58.01 55.53 54.73 49.92 50.14 46.95 46.26 44.83 46.65 47.25 47.13 48.13 48.00 48.30 47.58 46.86 47.12 47.86 50.94 50.01 50.71 50.92 50.85 51.49
53.07 52.87 52.86 52.66 52.58 52.40 51.69 52.15 52.38 52.93 55.44 56.91 58.72 54.90 48.94 47.79 56.79 56.44 57.26 56.37 57.83 57.71 54.43 56.64 55.08 51.91 48.44 45.81 48.86 47.66 43.13 45.00 45.82 47.05 46.08 48.14 43.50 44.28 49.08 50.31 49.29 48.80 48.63 50.34 51.62
52.43 52.14 52.19 51.99 51.86 51.54 51.45 51.90 51.94 52.38 54.02 56.21 58.43 52.66 45.14 55.16 54.53 56.25 56.70 55.91 56.62 58.02 57.34 57.46 56.22 51.90 49.57 47.91 46.49 42.97 42.15 37.12 44.06 46.50 47.02 46.21 38.19 45.80 48.58 47.00 47.64 49.50 50.07 49.71 51.13
51.73 51.50 51.32 51.44 51.16 51.04 51.20 51.57 52.16 52.56 53.92 55.88 53.89 49.14 43.56 54.61 50.95 52.59 55.28 53.83 56.69 56.79 57.42 57.68 54.80 48.78 48.71 43.16 37.97 38.63 32.92 36.19 39.81 46.18 45.64 43.80 39.13 45.89 48.11 47.20 44.85 46.88 48.31 49.29 50.32
51.06 50.91 50.87 50.89 50.74 50.79 51.04 51.54 51.63 52.09 52.10 54.73 53.01 45.19 47.80 46.20 51.17 52.06 52.73 56.15 53.05 53.94 52.54 51.54 49.12 42.64 42.40 39.69 31.98 32.62 33.59 35.99 36.15 41.60 42.61 40.35 39.30 43.38 45.34 44.29 42.51 43.23 44.66 45.63 47.37
50.71 50.62 50.58 50.72 50.63 50.67 48.78 45.50 42.41 44.34 47.26 45.26 43.57 44.51 46.96 51.31 52.97 50.49 51.85 52.75 51.87 49.23 41.54 45.33 39.79 36.43 36.81 38.69 38.89 37.59 35.70 34.38 37.19 41.46 38.29 37.20 37.40 39.52 42.45 41.78 42.60 43.65 42.22 44.38 46.22
50.43 50.44 50.59 50.47 50.27 50.50 47.61 40.57 43.37 45.86 40.23 48.32 47.53 47.91 50.20 51.06 45.27 48.14 52.04 46.09 45.64 40.69 41.55 38.10 34.21 39.12 42.70 42.10 40.34 37.60 35.38 33.29 37.02 40.53 38.28 36.67 36.69 40.16 41.79 42.55 43.45 43.87 43.01 42.35 43.84
50.04 50.12 50.20 49.88 50.13 47.24 43.65 43.10 49.04 47.53 39.46 44.20 47.71 46.67 47.25 49.76 44.81 44.87 48.79 46.02 42.03 39.92 39.44 35.04 38.30 42.50 40.74 38.75 37.29 34.41 33.34 33.51 33.56 37.31 36.53 34.62 32.34 35.68 40.08 41.80 43.46 44.49 45.39 44.63 43.57
49.42 49.67 49.88 49.74 44.94 44.14 42.66 48.44 49.40 47.26 31.64 38.02 42.08 45.93 47.78 48.25 43.08 49.30 49.61 46.83 43.63 39.47 40.03 39.85 42.25 40.39 38.55 37.70 37.63 31.63 37.89 37.31 35.85 31.50 25.78 33.89 23.60 30.43 36.52 37.99 40.60 41.77 41.22 43.60 44.93
49.98 50.30 50.47 50.09 44.63 40.87 45.30 48.98 46.86 42.53 22.23 38.80 41.19 50.77 47.75 43.90 44.11 44.57 49.91 46.87 40.46 39.88 40.31 36.58 37.96 38.49 35.40 36.80 38.28 34.50 38.69 36.01 35.14 30.04 26.97 27.45 24.70 27.44 34.24 34.65 37.76 37.72 39.53 39.44 41.45
50.40 50.63 50.87 48.34 47.17 44.85 47.61 48.08 44.01 27.86 21.55 35.47 41.18 41.19 40.76 42.68 43.12 44.39 45.02 47.60 46.12 41.50 41.03 38.48 41.08 39.39 38.33 40.07 39.13 39.70 35.41 33.76 32.08 28.44 17.81 26.01 26.23 24.28 30.09 34.33 35.83 37.77 37.01 39.13 40.38
50.82 51.00 50.43 49.35 42.21 47.22 46.91 41.98 27.37 21.31 36.23 34.04 37.48 39.87 38.88 38.20 39.25 40.96 39.80 37.04 33.56 30.08 31.25 36.23 35.90 38.55 40.23 35.11 37.32 35.98 29.20 16.84 20.34 22.39 18.67 29.77 26.89 29.13 35.24 38.16 38.61 39.09 38.55 39.99 40.43
50.66 51.72 48.65 48.89 48.02 46.28 42.70 34.57 22.29 32.53 33.66 39.58 39.53 38.84 35.59 38.39 37.89 38.89 37.41 33.77 36.99 34.30 27.85 24.47 23.54 34.97 38.41 35.42 32.64 32.41 30.68 21.01 17.93 17.37 21.55 29.82 24.18 29.35 37.78 39.97 39.24 40.28 39.52 39.49 39.85
51.23 45.46 45.92 48.42 47.74 44.15 37.30 24.54 26.84 32.84 37.98 36.96 37.72 35.03 34.28 37.44 36.77 36.94 36.03 34.83 35.39 35.44 27.26 24.84 27.46 38.03 38.33 39.17 37.61 32.13 27.21 32.53 23.97 23.94 15.88 23.41 28.00 34.10 37.75 37.11 37.23 38.16 38.59 38.93 38.45
45.84 43.20 43.72 48.34 46.86 42.00 34.70 31.97 32.19 36.16 40.29 39.07 31.59 34.35 31.39 34.32 32.94 34.72 34.69 37.30 36.33 38.25 37.55 35.37 26.29 35.88 37.95 38.93 38.11 34.29 35.93 23.73 21.29 12.76 15.80 21.49 22.99 27.26 31.99 33.87 37.02 37.67 36.86 38.06 40.45
43.00 38.67 44.52 47.27 46.33 38.78 32.11 32.53 36.31 40.92 42.02 38.31 33.75 33.29 33.50 34.17 34.34 33.85 33.34 37.28 38.76 38.08 38.72 37.99 31.90 31.24 36.98 32.15 30.98 31.62 28.06 29.47 28.07 24.67 16.90 18.00 22.44 32.22 33.63 34.11 35.17 35.95 37.97 39.88 40.19
40.81 34.78 44.67 48.15 36.61 36.71 34.22 36.31 40.98 39.25 42.43 41.71 40.01 36.42 33.66 35.54 32.87 31.99 31.69 35.99 40.93 40.94 35.01 38.92 34.18 25.91 28.94 35.59 37.39 34.84 31.44 31.09 22.31 18.75 23.73 20.76 25.10 38.00 38.40 35.78 38.36 39.52 39.87 39.07 39.62
38.25 39.24 46.87 46.10 33.17 34.20 37.34 39.01 40.96 41.39 41.67 41.06 39.71 40.04 38.97 34.43 33.00 35.61 36.86 39.34 41.93 40.20 35.94 38.25 30.84 21.19 28.01 32.11 36.39 32.78 33.41 33.77 31.81 30.10 24.79 22.43 25.29 36.83 37.36 39.93 42.12 41.78 40.03 41.70 42.84
36.79 30.22 36.94 40.00 40.97 37.49 36.00 37.97 37.00 42.71 41.79 42.82 40.47 39.79 36.96 36.98 37.46 35.48 34.95 39.06 40.00 41.05 44.26 41.79 33.96 24.63 22.42 24.96 32.22 27.91 32.39 34.00 32.87 28.37 27.04 27.66 29.63 34.97 37.76 39.79 41.66 42.44 43.27 42.66 42.48
39.49 35.41 36.31 28.56 35.20 36.10 39.77 39.15 37.23 37.31 42.18 42.22 39.44 39.29 37.49 33.94 34.81 34.14 36.40 36.74 39.12 42.68 41.18 39.10 26.37 27.96 32.09 33.66 33.03 31.67 32.04 33.08 31.12 32.42 29.40 31.18 32.47 36.37 39.92 41.49 41.60 42.00 40.42 41.23 41.80
38.07 37.84 39.18 36.37 38.24 37.01 38.00 36.99 38.27 39.16 40.02 37.57 37.55 39.43 39.68 35.84 36.31 33.92 37.55 36.09 34.43 37.10 36.25 37.20 29.25 32.72 28.45 32.89 32.75 30.42 33.03 33.40 33.46 33.58 34.07 34.69 34.34 41.80 43.48 44.09 42.46 38.35 40.13 40.46 40.86
43.04 43.91 41.11 36.65 35.98 35.90 35.83 38.85 38.75 40.40 41.13 41.92 40.35 39.79 39.17 40.04 41.63 40.97 42.61 41.21 39.47 37.58 36.86 36.56 32.20 25.65 19.65 31.82 30.98 27.70 32.29 33.53 35.44 38.19 38.28 34.27 38.23 42.48 41.21 40.61 39.50 38.81 39.96 40.18 41.22

GFSSW_sfc_wetblb_018.txt.gz
Wetbulb
54.59 54.18 54.06 54.04 54.03 53.94 54.64 55.95 57.56 58.53 59.85 61.00 60.24 59.08 59.34 59.05 59.53 57.15 52.33 55.86 58.35 64.20 63.09 58.10 56.81 54.71 53.74 49.33 50.97 49.40 40.80 38.45 40.86 41.41 42.67 47.24 46.58 49.70 49.78 46.95 47.77 48.11 50.27 57.94 62.54
54.18 54.21 53.83 53.16 53.56 53.75 53.33 53.91 55.39 56.82 58.25 59.94 60.47 59.32 59.46 59.71 55.74 53.06 58.89 62.67 63.68 64.14 58.33 55.84 51.65 52.79 47.43 47.70 47.98 44.51 39.95 42.01 46.10 45.83 44.30 47.15 46.91 48.05 47.31 46.58 45.83 46.95 55.27 60.62 61.72
55.04 54.41 54.18 54.24 54.28 53.76 53.17 52.91 53.02 54.35 56.28 58.39 60.25 59.54 59.48 58.72 51.61 50.89 62.76 63.99 64.73 63.92 58.56 57.34 53.68 50.67 46.38 46.55 46.19 44.62 40.55 46.42 47.88 49.35 48.24 47.30 47.31 49.07 46.13 44.49 46.19 45.89 51.90 55.67 55.63
55.21 54.64 54.40 54.26 53.85 53.04 52.94 53.21 52.94 53.02 55.08 56.94 58.26 59.64 58.96 55.58 40.87 55.07 63.46 65.06 64.98 61.12 57.10 54.10 51.45 46.82 44.58 43.77 47.08 41.91 45.95 47.42 48.21 49.62 47.87 45.84 48.69 46.37 47.25 47.84 50.41 49.95 50.17 50.13 53.11
54.54 54.50 53.90 53.68 53.41 53.46 52.69 51.95 52.65 53.07 53.40 55.52 57.22 59.34 55.07 48.89 49.66 59.13 63.56 64.31 61.03 57.65 54.17 51.98 48.54 46.50 42.60 44.11 45.21 41.94 44.51 47.29 48.69 48.75 47.32 48.04 46.51 46.56 47.16 50.34 51.54 50.98 51.74 51.19 51.08
53.43 52.93 52.77 53.09 53.09 52.81 52.46 52.16 52.17 52.45 52.58 53.78 55.98 58.28 51.37 42.96 56.22 59.40 59.61 59.52 59.12 57.15 54.19 52.79 50.25 49.30 45.94 44.80 43.42 44.86 45.98 45.91 46.85 46.98 47.15 46.31 45.89 46.33 46.86 49.79 49.60 49.75 49.64 48.91 50.77
52.82 52.60 52.36 52.39 52.20 52.04 51.88 51.78 52.02 52.26 52.46 53.28 55.17 55.50 48.70 46.01 55.95 57.51 58.82 57.31 58.81 57.34 53.39 55.18 53.94 49.77 48.23 44.86 47.87 46.43 42.04 43.83 44.73 45.66 45.06 46.71 43.81 43.14 48.55 49.30 48.08 48.07 48.30 49.91 49.11
52.08 51.77 51.68 51.55 51.53 51.38 51.47 51.50 51.70 51.66 52.34 53.25 55.20 54.04 44.24 54.27 54.12 55.21 56.28 55.03 56.46 57.81 56.78 56.92 54.59 49.86 46.99 46.91 45.00 42.06 41.49 36.43 42.96 44.99 45.86 45.50 38.48 44.39 47.85 45.83 46.52 47.48 47.44 48.56 50.61
51.46 51.17 51.06 51.07 51.23 51.08 51.17 51.29 51.57 52.13 52.68 52.89 51.99 50.00 42.41 55.43 50.64 54.68 55.51 53.41 55.82 56.87 56.92 57.40 54.54 48.37 45.92 40.96 36.70 37.65 31.78 35.11 39.07 44.90 44.22 42.96 38.45 45.53 48.40 45.65 44.16 44.36 44.52 46.50 48.66
51.18 51.01 50.92 50.85 50.88 50.89 50.90 51.15 51.40 51.10 50.34 51.20 52.67 44.33 45.84 45.81 50.98 51.65 52.48 55.42 53.02 53.61 51.89 51.65 49.09 44.09 41.38 39.54 30.89 32.10 31.91 34.71 35.29 40.22 41.36 39.12 39.79 43.06 44.34 44.08 42.80 42.88 43.13 43.59 45.72
50.70 50.53 50.64 50.78 50.73 50.55 48.36 44.22 40.14 40.29 44.67 43.02 44.65 44.16 45.14 50.82 52.69 49.92 51.59 52.94 52.65 49.42 43.77 46.66 41.50 38.62 39.26 38.77 38.33 38.97 35.56 33.36 36.34 40.80 37.47 36.32 35.79 38.69 41.83 40.01 40.19 42.21 42.17 42.83 44.33
50.20 49.93 50.21 50.41 50.29 50.31 46.67 39.21 41.81 42.73 36.85 45.69 46.81 47.01 49.62 50.69 45.43 48.22 52.39 47.07 47.15 40.71 42.47 40.11 37.87 41.39 41.80 41.76 39.30 38.66 34.69 32.77 36.22 38.84 36.85 35.46 35.17 39.05 40.77 41.69 42.45 43.16 43.76 44.22 43.79
49.56 50.03 50.22 50.51 50.56 46.19 43.55 42.69 47.95 46.40 37.93 40.69 46.47 45.62 47.42 49.11 44.47 45.05 49.18 46.60 43.76 40.20 39.43 35.94 37.95 42.06 40.35 37.84 37.13 34.11 32.61 32.26 32.92 36.05 34.61 33.51 32.89 34.34 38.24 40.13 41.73 43.95 44.84 44.80 44.44
50.40 50.36 50.50 50.44 45.38 43.04 41.85 48.16 49.15 45.64 27.53 36.56 40.84 45.21 47.59 48.17 42.69 49.05 50.87 45.97 43.62 39.18 39.31 38.54 41.00 39.56 37.76 36.90 36.70 30.91 36.35 36.35 34.71 30.86 25.23 32.78 23.28 29.10 34.72 36.60 38.74 38.78 38.62 40.78 41.90
50.76 50.97 50.94 50.88 45.50 41.78 44.88 46.25 46.70 41.38 19.77 38.80 41.66 50.95 47.76 43.50 43.73 44.69 50.08 46.94 39.99 39.75 40.55 36.16 37.39 36.74 35.24 36.90 38.08 34.16 37.94 35.24 33.71 28.66 25.84 26.59 24.31 26.89 31.39 32.70 35.38 37.32 39.04 38.40 40.01
50.55 51.02 51.42 49.03 47.72 46.06 46.66 46.08 42.59 27.16 18.76 34.56 41.51 41.16 41.10 42.12 42.49 44.73 45.29 47.42 46.48 41.85 40.49 36.88 40.35 39.04 37.75 38.94 38.60 39.35 34.54 32.20 30.50 26.48 17.02 24.20 25.31 23.88 28.50 32.54 33.78 36.11 37.62 38.49 39.15
51.27 50.86 49.51 49.50 42.80 47.53 47.18 41.36 23.50 19.82 32.95 34.14 37.17 39.75 38.84 38.24 39.19 41.49 39.79 37.88 35.70 31.97 33.13 36.23 34.77 38.09 39.73 34.86 37.11 34.92 28.87 17.70 14.73 12.90 17.71 27.03 24.62 26.20 32.89 35.45 35.63 37.25 37.47 38.15 38.69
50.70 49.14 48.50 48.13 47.48 45.45 43.53 32.41 21.03 29.82 33.03 39.92 38.75 38.51 35.79 37.73 38.67 39.37 37.53 34.60 37.33 33.37 31.54 26.22 23.09 34.56 37.75 34.90 32.43 31.53 29.46 20.24 16.57 16.31 19.55 27.53 23.05 28.19 35.76 38.27 37.80 38.35 37.98 37.49 38.28
49.67 46.56 46.88 46.75 46.70 44.02 38.04 25.51 26.32 31.07 38.48 37.22 37.51 33.81 34.31 36.36 37.75 36.90 35.99 35.23 35.11 35.10 27.69 24.99 26.90 37.00 37.43 38.08 36.63 31.15 24.61 31.06 22.50 20.64 14.73 22.04 26.03 32.97 35.45 34.76 35.35 37.58 38.49 38.85 39.90
41.69 41.83 42.92 47.21 46.00 42.44 34.87 31.42 32.43 36.19 39.97 38.69 31.74 34.32 31.18 33.22 33.03 34.67 34.30 36.62 35.35 37.47 36.83 32.90 25.02 35.13 36.84 38.17 36.85 33.11 34.55 22.52 17.95 9.02 14.16 20.26 21.75 26.52 31.20 31.91 35.82 35.99 35.89 37.84 39.19
40.16 35.86 43.25 48.41 46.33 38.38 31.83 32.24 36.30 42.12 41.86 37.97 33.30 32.80 33.23 32.91 33.14 32.14 32.67 35.70 37.50 36.91 37.73 34.62 29.57 29.12 34.60 31.19 30.12 30.68 26.31 27.42 26.38 22.69 16.33 18.50 22.36 30.85 31.88 32.53 34.14 35.29 37.12 37.46 39.01
38.84 28.71 44.70 48.54 36.69 37.05 33.01 34.83 39.95 40.00 41.51 40.58 37.50 35.47 33.94 34.63 32.41 31.68 31.75 34.37 39.36 38.69 33.84 36.25 31.30 20.42 28.71 33.96 35.70 33.51 30.70 29.03 18.90 17.44 21.17 20.53 23.59 35.81 33.64 34.48 36.48 39.49 42.03 43.09 43.66
34.98 35.20 44.27 44.03 33.12 35.07 37.40 39.15 41.09 41.03 40.53 40.02 37.20 37.96 37.90 33.95 30.66 32.91 34.75 38.71 40.32 39.04 35.28 36.79 29.90 19.60 25.05 32.09 34.34 31.17 32.15 32.22 30.08 26.93 17.85 21.95 24.01 35.44 35.32 39.24 40.81 40.87 43.34 43.81 42.63
34.75 27.84 34.89 40.29 38.72 36.25 36.75 35.96 36.57 41.44 40.48 40.58 37.42 39.30 36.50 34.26 35.78 33.82 34.14 38.44 41.38 41.16 43.60 40.60 31.73 23.65 21.06 23.12 30.31 26.22 31.21 32.14 30.51 25.78 24.61 26.19 28.92 34.35 37.12 39.00 41.96 43.54 44.09 43.32 42.32
37.03 36.40 38.61 30.76 34.25 37.38 38.99 38.29 36.29 36.58 40.87 40.46 37.91 37.42 36.23 33.18 33.65 33.37 35.59 35.96 39.33 43.50 41.53 37.77 25.69 26.68 30.72 32.35 31.67 30.88 31.05 31.65 28.60 30.84 27.74 30.28 31.22 34.82 37.92 40.19 42.89 43.74 41.31 40.99 40.31
38.13 37.51 38.79 34.67 37.20 35.74 36.30 34.76 36.77 37.97 38.55 37.33 37.40 39.01 38.02 35.60 35.34 33.17 35.50 34.18 33.74 35.90 35.68 37.95 30.71 32.13 29.62 31.33 31.68 28.83 31.70 32.15 32.66 32.83 33.21 33.20 32.50 39.50 42.95 43.88 41.15 40.05 40.03 40.34 41.52
38.77 42.64 40.69 35.68 34.63 33.79 33.83 36.36 37.73 39.13 39.87 40.88 39.47 39.11 38.34 39.32 40.83 39.66 39.13 38.72 37.37 35.20 33.79 33.75 31.17 28.11 18.78 29.41 29.52 25.92 30.34 32.06 32.45 33.86 33.64 32.46 36.91 42.87 41.91 41.59 38.77 37.57 36.09 37.88 40.66

GFSSW_sfc_wetblb_021.txt.gz
Wetbulb
55.46 54.83 54.57 53.94 53.89 53.60 54.00 53.98 53.99 54.88 56.14 57.71 59.15 60.61 59.26 59.32 58.94 56.01 51.33 54.70 57.40 62.64 62.57 57.93 55.94 54.52 53.23 49.33 50.23 47.91 40.12 37.84 38.92 39.51 41.37 45.55 44.70 48.14 48.39 45.88 47.15 46.95 52.84 56.63 61.10
55.85 56.05 55.65 54.77 54.42 54.01 53.20 52.96 53.85 53.81 54.25 55.86 57.77 59.33 59.54 59.71 55.03 51.20 56.54 61.05 62.53 62.72 59.23 55.13 51.67 51.74 47.56 47.55 47.56 44.34 39.82 41.14 45.16 44.62 43.36 45.73 45.56 46.18 47.03 45.67 44.77 46.29 56.09 59.93 61.17
54.63 54.93 55.25 55.30 54.93 54.52 53.46 52.59 53.07 53.08 53.30 54.49 56.61 58.39 59.60 58.05 49.22 48.52 60.18 62.04 63.29 62.86 59.32 56.69 53.29 50.57 46.09 45.93 45.53 44.17 40.54 45.12 46.83 48.56 48.02 45.96 46.31 47.73 45.30 44.50 45.05 44.60 48.65 53.85 58.36
54.01 54.16 54.09 53.96 54.37 53.71 53.50 52.98 52.42 52.16 52.79 53.78 54.68 56.82 58.67 54.86 39.31 53.43 62.25 63.13 63.82 60.84 57.16 53.51 50.79 46.52 44.28 43.20 46.32 41.37 45.23 46.73 47.92 49.57 47.42 44.86 46.92 45.10 46.49 47.28 48.70 49.44 50.07 50.47 53.07
53.39 53.37 53.33 52.74 52.90 53.25 53.10 52.75 52.54 52.65 52.73 53.00 53.77 55.26 55.53 47.34 47.19 57.27 62.76 63.59 60.90 58.56 54.06 50.99 47.63 46.33 42.67 44.19 44.39 41.93 43.71 46.55 47.89 48.15 46.64 47.40 45.22 44.90 45.50 49.70 50.75 49.94 50.78 50.29 50.28
52.72 52.70 52.52 52.65 52.40 52.28 52.30 52.16 52.32 52.35 52.46 52.84 53.23 54.19 51.30 41.30 53.66 57.15 59.32 59.60 58.86 56.19 52.75 51.43 48.56 48.47 44.74 43.51 43.63 44.56 45.27 45.37 45.98 45.92 46.30 45.40 44.91 45.23 45.58 48.79 48.75 48.19 48.64 48.74 49.15
52.56 52.13 51.78 51.68 51.79 51.76 51.85 51.92 51.81 51.94 52.28 52.48 52.94 51.83 49.33 45.45 54.13 55.08 59.24 58.46 58.24 56.25 52.14 52.96 52.43 48.51 47.10 44.05 46.82 45.66 41.23 42.70 44.24 45.25 44.69 45.50 42.79 41.81 47.41 48.66 47.09 47.21 47.43 48.23 48.53
51.89 51.75 51.44 51.27 51.31 51.35 51.50 51.61 51.70 51.68 51.77 52.08 52.82 50.87 44.90 53.66 53.92 51.83 56.03 55.97 58.28 57.89 55.70 56.00 55.26 49.49 46.38 46.36 43.93 41.68 40.27 36.06 41.92 44.52 45.25 44.81 38.05 44.08 47.19 45.65 45.78 46.47 46.72 47.38 48.33
51.49 51.25 51.23 51.15 51.18 51.10 51.12 51.37 51.59 51.59 52.03 52.32 48.89 50.20 42.72 55.38 50.58 52.03 55.28 52.94 54.23 56.12 56.23 56.94 53.35 46.86 45.00 40.16 36.03 37.85 31.59 34.58 38.36 43.96 43.24 42.10 37.46 43.98 46.65 45.93 44.85 45.36 44.25 45.28 46.13
50.78 50.54 50.48 50.71 50.94 50.77 50.83 51.18 51.27 50.68 49.48 49.74 49.63 44.73 46.52 45.06 50.60 52.30 54.46 55.76 53.07 53.04 51.89 51.22 48.54 41.11 39.04 36.58 30.43 31.45 31.73 33.72 34.41 38.53 39.78 37.35 37.09 42.79 45.48 43.09 42.48 42.86 43.52 43.12 44.83
50.52 49.92 50.01 50.17 50.54 50.41 47.97 43.29 38.56 37.97 42.47 40.37 44.40 43.56 45.44 50.70 52.49 49.73 52.05 52.63 52.27 49.88 44.63 46.48 42.51 38.82 38.88 37.64 36.75 35.81 34.46 32.40 35.47 39.80 36.74 35.43 34.82 38.04 40.65 39.55 38.85 39.80 41.51 43.18 44.07
49.92 49.84 50.29 50.55 50.56 50.57 45.30 38.56 41.65 43.05 34.09 42.85 46.48 46.81 49.17 50.70 44.83 47.72 53.53 47.94 47.08 41.81 43.35 41.66 38.68 43.38 43.68 41.48 39.80 39.77 36.95 32.22 35.66 37.95 35.88 34.33 33.93 38.34 40.43 41.14 42.45 42.97 43.59 44.13 43.12
50.32 50.78 50.57 50.54 50.16 46.71 43.36 41.87 46.76 46.48 36.89 40.21 44.27 45.50 46.91 49.19 44.32 44.98 49.89 47.64 42.94 41.18 40.87 38.77 39.40 43.21 41.70 39.60 37.93 33.48 32.59 31.47 32.19 35.12 33.63 32.26 31.07 33.85 37.13 38.73 39.98 42.21 43.42 44.15 43.39
50.36 50.62 50.57 50.55 45.59 44.65 40.78 47.11 47.57 44.76 24.28 34.29 38.73 44.93 47.35 47.25 41.95 49.04 50.89 46.56 43.78 39.14 40.41 39.08 41.24 41.60 38.22 36.38 36.15 30.45 35.64 35.53 33.63 30.15 25.21 31.91 22.93 29.32 34.17 35.44 36.30 37.17 37.33 39.11 40.55
50.31 50.33 50.78 50.21 44.78 41.62 43.87 46.12 46.89 41.57 10.85 36.97 39.34 50.33 47.62 42.52 43.15 44.68 49.99 47.26 40.36 40.23 40.43 35.74 37.14 37.36 35.82 36.80 37.65 33.78 36.81 34.08 32.54 28.07 24.69 25.77 23.75 27.56 29.55 31.74 34.31 35.70 36.57 37.80 39.20
51.42 50.72 50.27 48.71 47.00 46.46 46.00 45.28 42.97 20.55 20.88 33.92 41.68 41.52 40.89 41.62 42.42 45.03 45.13 46.96 46.45 41.44 39.90 36.65 39.72 38.66 36.75 38.04 38.05 38.14 33.47 30.60 28.84 26.01 17.28 23.00 23.69 24.77 27.79 29.90 33.01 34.07 37.04 37.49 37.59
50.20 50.51 48.43 48.58 42.57 46.50 45.34 40.88 20.91 17.87 33.08 33.71 37.41 39.99 38.90 38.55 40.23 41.30 39.68 37.06 35.99 33.29 32.89 35.50 34.39 37.66 39.23 34.59 36.82 34.09 28.42 17.04 14.80 13.55 17.21 25.55 23.96 27.09 32.07 33.86 33.79 35.93 36.42 36.66 36.68
50.62 49.51 48.18 46.67 46.20 45.11 41.34 31.06 21.26 29.95 29.69 39.88 39.16 38.74 35.71 38.37 39.26 39.55 37.05 34.08 36.24 34.30 31.46 28.47 25.06 34.50 37.10 34.71 32.83 30.20 29.13 19.19 15.38 14.36 18.89 26.47 22.53 28.29 33.45 34.60 35.62 36.34 35.86 37.57 38.88
48.83 45.01 44.86 44.68 45.28 43.58 37.32 26.54 27.05 30.62 35.18 37.49 37.51 34.06 34.72 36.40 38.04 37.56 36.47 34.35 35.40 34.17 28.27 24.59 26.88 36.38 36.94 37.34 35.86 30.23 23.23 29.76 22.49 19.97 14.36 20.97 25.11 31.42 34.11 33.79 35.99 36.29 36.44 36.58 38.39
42.62 40.05 40.54 45.90 45.88 41.91 34.81 31.33 32.03 36.26 39.72 36.65 30.83 33.68 31.16 33.01 34.27 34.49 34.31 36.92 35.99 36.83 35.95 31.84 25.22 34.41 35.94 37.35 36.44 32.61 33.80 23.12 17.68 9.12 14.02 18.73 20.93 24.46 29.12 30.72 34.31 34.07 35.61 36.93 38.16
41.27 35.42 42.34 47.67 46.11 36.94 31.26 31.76 37.58 42.40 41.32 36.24 33.05 32.48 32.69 32.41 33.76 32.38 32.24 34.42 37.21 35.83 36.56 33.88 29.73 31.23 34.02 31.07 30.15 30.76 26.61 26.75 25.44 21.67 14.72 16.32 21.78 29.80 30.36 31.16 33.09 35.36 37.21 37.53 39.04
37.10 28.97 42.54 46.87 34.30 35.81 33.48 35.13 39.74 40.31 40.56 39.34 36.41 35.79 34.33 34.05 31.82 30.60 30.88 33.80 38.28 37.41 33.15 35.67 30.24 21.98 28.83 33.39 35.01 32.79 30.11 28.11 19.18 15.72 19.43 19.13 22.83 34.40 33.19 33.22 34.74 39.17 39.80 40.03 42.14
34.32 34.15 42.43 41.86 33.12 35.25 36.84 38.76 39.86 39.39 39.22 38.71 35.65 37.79 37.00 33.08 30.37 31.79 33.65 37.84 39.17 37.15 34.24 35.73 27.09 17.99 25.20 30.27 33.19 30.37 30.99 30.39 27.84 24.53 17.09 19.62 23.50 34.89 33.46 37.57 39.68 40.29 42.15 44.80 43.83
33.93 28.76 35.53 37.38 39.27 37.10 35.26 34.79 35.75 40.26 39.40 38.27 36.96 38.29 35.51 33.74 34.33 32.40 33.11 37.79 39.08 39.79 42.99 39.82 30.03 23.57 20.31 23.00 28.36 25.39 29.58 30.86 28.53 22.44 23.62 25.57 26.82 34.15 36.01 36.86 40.65 43.14 41.04 41.74 42.55
35.38 35.31 38.75 33.76 37.12 38.35 37.40 36.93 35.29 35.78 39.43 39.16 36.00 36.37 35.11 31.67 32.85 32.28 34.36 35.42 39.97 42.93 39.47 35.91 25.51 26.22 29.77 31.46 30.04 30.09 30.23 30.67 26.31 30.09 24.49 27.20 28.83 33.85 36.93 39.33 42.47 41.08 40.86 40.25 39.00
34.94 37.39 39.24 34.69 34.68 34.07 35.23 33.97 35.73 36.86 37.73 36.43 35.56 37.54 36.44 33.87 33.93 32.46 34.68 33.44 34.31 37.64 37.16 37.08 29.94 30.25 27.63 30.70 30.43 28.59 30.99 31.42 31.60 31.72 31.12 31.56 31.18 38.88 40.77 43.77 43.23 39.69 37.60 36.34 36.91
36.59 40.19 37.60 34.61 32.95 31.97 32.78 35.33 37.16 37.91 38.84 40.06 38.75 37.83 37.22 38.46 39.30 37.77 37.62 37.75 36.59 35.17 33.53 32.85 30.90 28.09 21.37 27.65 28.74 25.59 29.42 30.91 31.48 32.66 32.32 28.41 34.56 40.73 41.58 42.75 40.17 36.59 36.07 35.62 36.31

GFSSW_sfc_wetblb_024.txt.gz
Wetbulb
55.40 55.56 55.70 56.06 56.11 55.28 54.73 53.85 53.28 54.19 54.42 54.81 55.98 57.71 59.18 60.16 59.37 55.46 50.70 54.30 57.41 62.35 63.31 58.81 58.19 54.98 52.57 48.92 49.39 47.38 39.83 36.32 38.10 39.22 40.46 44.31 43.19 47.47 47.22 44.92 46.68 46.39 48.85 54.65 60.57
54.66 54.76 55.00 55.25 55.27 55.53 55.18 54.75 53.23 52.97 53.60 54.24 54.73 56.27 58.13 59.51 54.87 51.51 55.54 60.27 61.70 61.58 57.79 55.40 51.95 51.68 47.95 47.01 47.11 44.45 39.34 40.27 43.92 43.24 42.52 44.38 44.24 44.81 45.81 45.05 44.48 45.07 55.31 58.99 62.10
53.95 54.09 54.27 54.23 54.60 54.70 53.62 53.96 53.86 52.96 52.20 53.29 53.80 55.27 56.27 57.11 48.98 47.33 59.27 60.68 62.18 61.75 59.25 56.34 53.65 50.27 45.89 45.65 44.88 43.76 40.45 44.46 46.48 47.47 47.82 45.30 45.25 46.29 43.79 43.03 44.65 43.55 47.04 53.08 56.74
53.40 53.29 53.45 53.81 53.62 53.48 53.58 53.39 53.54 53.68 52.90 52.62 53.17 54.27 55.30 55.10 38.41 50.99 59.61 61.43 61.97 59.60 57.76 54.51 51.13 45.74 43.87 42.72 45.73 41.10 44.95 46.10 47.64 49.11 47.41 44.59 45.66 43.63 45.14 45.91 48.35 48.18 48.80 49.51 51.29
52.76 53.03 52.93 52.78 52.92 52.83 52.68 52.82 53.06 53.08 52.84 52.75 52.76 53.71 51.83 48.58 45.35 55.56 60.41 62.73 58.51 58.06 55.35 52.84 48.44 45.33 42.27 43.91 44.29 42.32 43.53 46.25 47.58 47.78 46.41 46.91 44.52 44.13 44.18 47.76 48.95 49.40 50.12 48.89 49.01
52.55 52.38 52.21 52.03 51.96 51.84 51.91 51.95 52.08 52.34 52.12 52.30 52.46 53.11 49.27 42.88 53.44 53.71 56.73 59.04 57.08 56.93 53.23 50.79 48.58 48.19 44.82 43.44 42.92 44.68 45.21 45.16 45.54 45.50 45.56 44.39 43.71 43.90 44.89 46.93 47.17 47.14 47.97 48.57 48.14
52.72 52.18 51.88 51.83 51.73 51.55 51.71 51.69 51.82 51.94 51.98 51.64 51.84 50.20 46.83 46.48 53.48 52.18 57.86 57.67 58.87 56.70 51.71 51.49 50.75 47.79 46.01 43.12 46.05 44.77 40.76 42.15 43.56 44.76 44.26 44.94 41.33 41.11 46.26 47.86 46.56 46.02 46.00 47.75 48.70
52.24 51.70 51.14 51.37 51.14 51.25 51.36 51.51 51.44 51.58 51.55 51.39 50.98 49.39 43.68 54.09 54.99 52.62 53.94 56.70 58.07 56.97 55.18 54.47 53.61 48.56 45.54 45.56 43.36 41.22 39.89 35.56 41.74 44.15 44.78 44.19 35.52 42.92 46.41 45.13 44.86 45.33 45.33 46.16 47.92
51.89 51.44 50.92 50.60 50.90 51.01 51.12 51.20 51.28 51.51 51.53 51.33 46.98 46.01 42.86 54.21 49.99 52.29 53.63 53.58 55.76 55.98 55.62 56.26 53.44 47.88 43.98 38.89 37.52 37.92 31.42 33.79 38.13 42.94 42.38 41.23 36.47 42.75 44.40 43.32 42.90 43.34 43.86 45.17 45.35
51.44 50.77 50.22 50.21 50.40 50.67 50.79 51.13 50.83 49.58 48.77 49.19 47.57 44.25 47.00 44.78 50.16 52.09 54.83 55.47 53.08 53.28 51.03 50.00 48.44 42.16 38.17 39.07 29.39 31.63 31.33 32.93 33.93 37.39 39.16 37.17 35.81 40.26 42.00 42.65 42.13 42.43 42.45 42.70 44.39
50.35 50.44 50.64 50.23 50.56 50.56 47.99 42.24 37.60 35.94 41.59 37.30 40.57 43.21 45.67 49.73 52.27 50.42 53.41 53.02 52.30 49.50 42.02 46.58 41.34 38.18 39.11 37.74 36.53 35.25 33.56 32.35 35.14 39.24 36.29 35.34 33.87 37.47 40.65 38.66 38.86 39.56 40.97 42.07 43.76
50.20 50.28 50.65 50.85 50.29 50.17 44.34 37.87 41.39 41.30 33.05 40.72 41.64 46.18 48.82 50.22 44.06 47.97 53.54 48.18 47.15 42.52 44.00 42.29 38.92 41.67 41.43 40.32 38.44 36.86 34.18 31.57 35.58 37.06 34.90 33.83 33.18 37.56 40.29 39.38 41.04 42.16 42.14 42.87 42.75
50.50 50.27 50.20 50.51 50.02 46.74 41.50 40.84 45.82 46.26 34.74 40.33 44.35 45.40 46.73 48.77 44.24 44.86 50.62 47.94 43.93 41.64 41.66 38.77 40.50 45.13 42.33 39.75 39.07 36.79 35.83 32.08 32.59 34.43 32.75 31.43 30.79 32.55 36.42 37.43 38.74 39.92 40.52 40.93 41.65
52.24 51.07 50.10 49.73 44.59 44.60 40.04 45.94 47.22 43.75 21.23 31.20 39.53 44.73 47.30 47.43 42.00 49.18 51.49 47.13 43.62 38.08 38.51 39.05 41.49 42.18 40.49 38.98 37.68 33.03 35.25 34.93 32.93 29.65 25.91 31.15 23.39 29.47 33.06 33.20 35.27 35.15 34.74 36.97 38.20
50.88 50.89 50.97 49.62 43.86 40.79 43.26 46.93 44.64 40.13 6.75 34.82 38.49 49.80 47.48 42.08 43.19 44.71 50.16 46.82 40.23 40.05 39.60 36.00 37.72 39.77 37.42 38.05 37.93 34.31 36.31 33.42 31.48 27.67 23.83 25.69 23.67 27.82 29.17 30.65 32.07 34.40 35.51 35.72 36.06
51.23 51.23 50.26 47.02 46.08 46.24 45.10 44.02 40.78 19.52 15.85 33.52 40.74 41.18 39.63 41.19 42.03 44.66 45.10 47.51 46.57 40.36 39.42 37.36 40.82 39.53 37.29 37.87 38.91 36.70 32.67 29.79 27.69 25.60 17.37 22.48 22.53 24.58 26.98 28.18 31.92 33.76 34.99 35.09 35.66
50.39 50.17 47.60 47.08 41.56 46.33 44.15 37.28 20.04 18.04 32.67 33.47 36.32 39.24 37.91 38.75 40.38 41.25 39.56 37.64 36.70 32.74 32.35 35.32 34.95 37.45 38.47 34.33 36.48 33.77 28.46 17.93 14.58 13.66 17.57 24.82 23.38 25.86 30.48 32.81 32.70 34.05 34.54 35.91 37.28
49.59 48.52 46.82 45.31 45.42 44.05 40.26 28.40 22.83 29.59 30.53 39.48 38.87 37.96 35.31 38.47 38.98 39.24 37.04 34.07 36.10 34.85 30.38 28.39 28.20 35.22 36.95 34.30 32.44 30.32 28.45 19.53 14.16 12.92 17.79 25.65 22.02 27.36 32.59 33.35 33.92 34.86 33.97 36.41 38.47
49.18 42.12 42.03 43.89 44.95 42.16 33.68 21.94 23.48 30.55 34.59 37.04 37.13 34.39 35.06 37.17 38.18 37.81 35.51 33.35 34.33 33.02 27.75 25.05 26.38 35.67 36.52 36.59 34.98 30.12 23.81 28.79 20.73 17.81 14.23 20.33 24.53 29.99 32.45 32.42 33.75 34.76 36.65 37.36 39.41
40.33 38.29 39.85 46.66 47.38 39.77 32.57 31.72 33.00 36.48 39.32 35.77 30.94 32.94 30.99 33.96 34.04 35.50 33.53 35.84 34.75 35.57 34.64 30.46 25.48 33.92 35.54 37.04 36.05 32.94 33.53 23.78 18.79 10.25 14.23 18.52 19.54 23.61 27.65 30.80 33.42 34.72 35.54 37.19 40.69
38.73 34.73 41.46 45.33 43.27 38.16 31.09 32.70 38.40 42.16 40.57 35.10 32.05 31.81 32.14 32.11 33.56 31.88 32.40 33.79 35.89 34.90 36.22 32.70 29.39 31.41 33.89 30.99 30.18 30.74 27.61 26.73 24.74 20.90 14.79 15.04 21.55 28.86 29.26 29.87 31.26 34.11 36.78 37.91 39.46
35.84 29.87 41.69 44.57 35.31 36.86 34.54 36.64 40.13 39.26 39.91 38.32 35.87 34.53 32.20 32.73 29.88 29.71 30.81 32.75 37.73 37.12 32.63 34.34 29.66 21.33 29.39 32.97 34.42 32.15 29.43 27.04 18.01 16.10 20.74 18.50 22.15 32.75 32.41 32.40 34.72 37.16 39.12 39.79 41.26
33.34 33.44 41.30 40.94 33.56 34.97 36.03 37.46 38.97 38.64 38.15 37.63 34.82 37.00 35.70 32.36 29.83 31.21 32.95 36.88 38.44 36.45 34.03 35.20 26.93 18.28 25.45 29.88 32.61 29.30 30.03 28.93 26.45 23.22 16.45 16.81 22.88 33.76 32.72 35.05 38.08 40.41 43.12 42.22 41.05
33.73 29.38 35.87 40.55 40.25 37.60 35.17 34.05 34.80 39.54 38.37 37.29 35.86 36.53 34.28 32.70 34.19 31.69 32.12 37.41 37.98 38.24 42.20 38.90 29.39 24.08 19.80 22.47 28.62 26.06 29.28 29.44 27.30 18.41 22.05 23.12 25.57 32.78 34.81 37.37 40.20 41.65 42.45 41.48 40.37
35.13 35.19 38.69 32.41 33.41 36.52 35.91 35.77 34.14 34.73 38.42 37.96 34.95 34.94 33.78 30.46 31.85 31.48 33.60 34.82 38.54 42.02 38.18 35.15 24.56 25.69 29.31 30.69 30.22 29.87 29.86 29.55 25.88 26.93 21.61 25.42 27.32 32.65 36.93 38.91 40.48 42.27 41.04 38.82 36.24
34.88 35.05 38.72 33.73 33.20 32.23 33.65 33.22 34.98 35.89 36.64 34.87 34.56 37.87 35.30 32.23 33.05 31.80 33.67 32.62 33.36 36.91 34.82 35.30 28.35 27.57 23.39 29.60 29.86 27.86 30.11 30.44 29.94 30.14 30.31 31.07 30.31 37.82 39.94 40.84 41.69 41.96 37.50 36.02 34.88
35.98 40.98 39.14 33.35 31.53 30.24 31.33 34.18 36.27 37.02 37.98 39.27 37.77 36.88 35.84 37.16 37.94 36.85 37.39 37.45 35.92 34.43 33.33 34.30 30.86 24.87 21.05 27.07 27.63 24.19 28.29 30.34 30.80 31.91 32.20 27.94 33.16 38.76 37.80 40.72 42.26 38.07 36.57 35.48 35.65

GFSSW_sfc_wetblb_027.txt.gz
Wetbulb
55.02 55.07 54.77 54.97 54.87 55.25 55.65 55.77 55.35 53.84 53.34 54.23 54.92 55.31 56.65 58.18 59.75 55.67 51.38 54.87 57.32 62.30 62.10 57.51 58.34 57.46 53.94 50.71 51.12 49.21 43.10 38.83 41.47 40.53 43.29 47.63 46.51 50.45 51.06 49.86 50.25 51.13 53.04 57.91 63.45
53.95 54.13 54.16 54.27 54.37 54.21 54.60 54.58 54.74 53.59 53.91 52.79 53.86 54.25 55.80 56.97 53.83 52.32 56.21 60.12 61.37 62.04 57.16 54.17 53.90 53.14 50.21 48.66 48.97 47.02 41.98 41.30 44.75 45.62 44.70 47.45 48.38 48.83 49.55 48.58 49.52 50.68 53.23 61.25 64.61
53.47 53.43 53.56 53.74 53.87 53.61 53.68 53.47 53.18 53.15 53.42 54.02 53.01 53.47 54.50 55.06 50.55 50.14 60.37 60.98 61.37 61.43 58.23 57.13 54.89 52.04 48.08 47.51 46.66 45.87 42.09 45.48 47.09 47.47 49.03 47.88 48.21 49.69 48.35 47.17 49.55 49.11 51.79 57.45 62.33
53.03 53.02 53.20 53.22 53.17 52.96 52.90 52.95 53.08 53.31 53.59 53.59 53.04 52.84 53.99 52.72 40.56 51.39 59.52 61.51 61.54 59.33 57.73 53.53 50.93 48.16 45.62 43.89 46.84 43.47 46.07 46.95 48.59 49.94 48.78 47.67 49.10 47.35 48.67 49.58 51.50 52.21 52.68 53.39 59.87
53.11 52.88 52.79 52.64 52.52 52.19 52.14 52.30 52.29 52.58 52.89 52.77 52.54 51.80 50.79 46.82 47.11 55.01 58.52 58.98 58.32 57.66 55.39 52.71 49.45 47.70 44.57 45.24 45.50 43.99 45.09 47.42 48.69 48.62 48.25 48.63 47.08 47.44 47.15 49.89 51.20 51.15 52.20 52.76 53.15
52.77 52.98 52.25 52.01 52.00 52.00 51.69 51.97 51.85 51.99 52.16 52.08 51.41 51.59 47.03 41.06 53.77 54.26 53.47 58.12 56.01 56.31 54.72 53.16 50.56 49.07 46.07 45.39 44.74 46.19 46.31 46.32 47.13 47.05 47.46 45.85 45.93 46.42 47.81 49.78 49.35 49.20 50.73 51.65 51.82
52.77 52.68 52.05 51.41 51.58 51.49 51.61 51.47 51.41 51.57 51.82 52.12 51.60 48.76 44.90 44.10 53.05 54.40 53.50 56.31 56.49 56.78 53.34 53.66 52.64 49.05 46.57 43.75 47.16 45.46 42.52 44.20 44.62 45.70 45.52 46.69 42.87 42.71 48.42 49.41 48.90 49.15 49.39 50.66 51.66
52.64 52.35 51.94 51.55 50.88 51.16 51.16 51.45 51.28 51.26 51.23 51.26 51.09 47.79 39.86 53.72 54.73 53.75 53.14 55.81 57.63 58.09 56.21 54.41 52.94 49.49 47.63 47.08 44.79 42.39 42.74 38.15 43.63 44.68 45.66 45.61 37.02 44.90 47.92 47.06 47.49 48.46 48.53 48.39 49.80
51.77 51.18 50.30 50.83 50.35 50.66 51.08 51.26 51.24 51.25 51.08 51.02 46.58 44.43 40.65 54.50 49.61 52.98 53.21 51.83 55.72 55.79 55.28 55.78 52.77 48.45 46.23 41.06 38.82 39.78 33.96 36.01 39.65 44.73 44.10 43.29 39.19 44.77 46.67 46.17 45.85 46.83 47.07 47.17 48.14
51.73 50.98 50.33 50.41 50.39 50.57 51.00 51.12 50.30 49.33 48.72 48.88 46.96 40.73 44.81 44.33 50.36 51.47 53.75 55.35 53.10 53.24 51.03 50.34 48.21 43.38 42.18 39.26 31.54 34.06 34.29 36.19 36.48 40.10 41.33 39.67 38.87 42.54 44.16 42.86 43.80 45.29 46.32 46.18 46.75
52.60 50.37 50.63 50.55 50.43 50.26 47.31 41.69 37.08 35.85 41.72 35.91 37.78 41.13 45.72 49.92 52.36 50.89 53.92 53.38 52.43 49.00 42.93 46.39 41.08 36.64 40.02 40.30 37.82 37.08 35.76 35.60 37.86 40.24 38.69 37.74 36.83 39.30 42.20 41.35 41.65 42.48 43.78 45.10 45.92
52.07 51.50 49.17 50.17 49.63 49.37 44.11 37.86 39.01 40.82 32.63 39.73 40.37 42.03 46.04 50.31 44.82 48.42 53.75 48.68 43.12 40.74 44.11 42.12 38.35 41.89 42.36 40.21 38.13 37.20 34.91 34.45 37.55 38.76 37.58 35.40 35.01 39.36 41.57 41.06 42.46 43.25 43.35 43.79 44.62
51.70 50.90 47.44 49.34 49.14 45.96 41.23 40.19 45.50 44.83 34.88 40.01 44.26 41.60 45.80 48.50 44.38 45.07 50.84 48.60 40.89 37.72 39.32 38.34 41.24 43.20 41.82 39.49 38.00 36.84 35.09 34.10 35.03 36.24 35.67 33.47 33.81 35.24 38.92 39.45 39.94 39.88 39.69 41.34 42.43
51.94 51.39 50.12 48.77 44.49 43.13 39.26 45.94 45.73 43.15 21.15 34.16 39.37 44.38 47.22 47.02 42.54 50.13 51.50 47.03 43.57 38.41 41.08 39.67 42.56 42.02 40.79 38.87 39.70 35.20 38.51 36.52 34.25 32.96 29.62 33.39 28.17 32.89 34.40 36.13 38.19 37.10 37.44 37.96 39.13
51.06 51.16 50.66 48.59 42.96 39.93 43.09 46.82 43.99 37.12 10.13 34.77 38.91 48.21 47.75 42.14 43.77 44.74 49.67 47.53 39.72 38.23 39.85 35.51 39.02 40.70 39.21 39.87 39.69 35.74 37.26 34.42 32.92 30.24 29.09 29.02 27.73 31.42 33.00 33.92 36.15 36.57 37.45 38.51 39.85
50.34 50.65 49.76 45.67 44.40 44.77 44.43 43.74 38.97 20.07 12.90 32.73 39.07 40.26 39.86 42.29 42.63 45.08 44.65 47.74 46.06 40.43 39.68 37.54 42.98 40.17 39.01 40.45 39.58 36.96 33.29 31.09 29.87 28.42 23.47 25.92 26.67 28.64 30.93 33.47 35.35 36.80 37.34 38.75 40.39
50.50 49.54 46.62 46.08 40.58 44.78 43.49 36.14 20.34 19.70 32.23 33.39 36.33 39.40 38.61 38.61 39.78 41.01 39.48 37.46 36.89 32.85 32.41 36.09 35.38 38.70 39.27 35.41 37.71 35.75 31.81 23.43 20.78 20.76 22.99 26.97 25.97 29.14 33.34 35.32 36.58 36.70 37.82 39.94 40.59
51.38 47.84 46.04 45.09 44.36 42.56 39.16 27.58 17.88 29.36 29.62 39.01 38.69 37.60 36.27 38.12 38.50 38.90 37.32 34.74 35.63 34.94 32.10 30.01 28.95 35.28 37.88 36.23 33.57 32.40 31.63 24.33 19.28 18.34 21.67 26.81 24.16 30.59 34.97 36.00 37.34 37.98 39.49 39.79 42.03
48.38 40.83 40.97 43.80 46.09 42.79 34.48 24.83 20.74 30.00 34.79 36.87 36.86 32.87 34.47 37.43 38.08 37.82 34.55 33.74 34.51 34.13 30.30 28.36 28.28 36.01 36.46 37.15 36.33 31.87 26.89 30.22 22.02 20.07 19.86 23.19 26.79 32.08 35.13 35.23 36.47 37.69 39.37 40.19 41.15
39.59 37.63 38.50 44.40 45.67 40.00 35.18 32.59 34.26 37.26 38.49 35.56 30.67 33.12 30.10 34.69 34.54 34.86 33.06 35.42 34.85 35.76 35.26 31.72 26.99 34.60 35.64 37.41 36.22 33.77 33.35 26.18 22.67 14.40 17.10 21.74 22.89 27.64 31.68 33.59 35.95 37.47 38.06 39.43 41.66
37.70 34.54 40.93 45.27 42.40 37.04 31.77 33.67 37.81 41.05 39.31 34.52 31.49 30.92 31.83 32.08 32.86 32.23 32.52 35.10 36.96 35.79 35.56 33.00 30.71 31.72 35.32 32.05 30.38 31.21 28.84 27.31 26.64 23.91 20.30 19.29 25.14 31.26 32.63 34.45 35.91 37.34 38.87 40.30 42.11
35.01 31.06 41.67 43.33 35.25 37.98 35.13 36.90 40.48 38.89 39.82 36.47 35.70 33.89 31.73 31.78 30.11 30.09 31.29 33.44 38.19 37.74 33.10 34.61 30.46 26.91 30.39 33.98 35.35 33.39 30.52 28.14 22.50 20.34 22.30 21.91 25.17 35.43 34.82 35.19 36.59 37.86 40.32 43.16 43.76
32.82 32.69 40.77 41.16 33.57 34.88 36.89 37.11 38.34 37.68 37.36 36.90 34.22 36.27 34.76 32.01 29.55 31.34 33.17 37.29 38.43 36.86 34.61 35.22 27.83 21.21 27.38 31.07 33.44 31.09 31.07 29.89 27.16 25.75 22.09 22.16 26.40 34.86 34.40 36.25 38.01 39.42 42.10 43.40 42.27
33.02 29.27 35.62 37.71 38.04 34.97 33.59 33.05 34.19 38.85 37.12 36.68 35.24 35.74 33.30 32.26 33.73 31.35 32.02 37.38 37.74 38.04 42.39 38.38 29.78 25.28 21.50 24.51 30.02 28.34 30.08 30.04 28.78 23.48 23.62 24.32 26.77 33.56 35.12 36.13 38.77 40.45 43.31 41.61 39.50
34.61 35.54 38.47 31.41 32.65 32.94 33.93 34.43 32.80 33.97 37.79 37.04 34.20 34.18 32.82 29.72 30.95 30.63 33.41 34.96 37.83 41.91 37.80 35.63 26.07 25.71 29.71 30.58 30.60 30.55 30.47 29.71 26.70 28.20 24.77 27.28 27.26 32.77 35.75 37.36 38.99 41.68 41.91 39.87 37.60
34.27 35.63 38.19 33.13 32.30 30.68 32.03 31.11 33.58 34.96 35.46 33.71 33.74 36.46 33.90 31.69 32.01 30.94 33.28 32.35 32.62 35.70 34.86 35.15 28.71 28.04 24.35 30.46 30.63 28.96 30.72 30.51 30.48 30.63 29.58 30.44 30.51 38.18 39.17 38.91 41.72 42.62 38.24 37.77 36.78
39.77 40.85 38.92 33.22 30.10 28.98 30.78 32.80 34.88 35.78 37.10 38.28 37.84 37.49 35.17 36.31 37.36 36.59 35.90 36.38 36.36 34.72 33.21 34.28 30.73 23.45 21.54 28.23 28.13 24.84 28.54 30.50 31.38 31.64 32.34 28.47 33.75 37.60 37.57 38.92 41.19 38.61 36.62 35.33 35.83

GFSSW_sfc_wetblb_030.txt.gz
Wetbulb
55.03 54.72 54.38 54.45 54.68 54.76 54.76 55.02 55.48 55.70 55.25 53.79 53.21 54.24 55.02 56.35 57.11 55.61 53.18 55.82 58.08 61.71 61.98 57.45 59.56 60.00 56.92 54.52 55.19 55.07 49.09 46.34 47.60 47.79 49.41 51.88 50.47 53.16 54.22 52.88 54.19 54.52 55.76 61.49 64.58
54.86 54.60 53.95 53.86 54.25 54.15 54.05 54.12 54.27 54.75 54.51 53.58 52.71 53.07 53.93 55.71 52.25 50.40 58.97 61.08 60.88 61.51 59.14 53.91 55.38 57.00 52.92 52.52 52.89 50.65 47.28 47.35 51.37 51.59 50.31 51.10 51.14 52.54 52.24 52.51 52.75 54.17 58.01 64.64 65.81
54.57 54.40 53.82 53.52 53.43 53.28 53.24 53.39 53.69 53.50 53.77 53.55 54.30 52.51 53.36 54.41 48.20 49.07 61.63 61.44 61.87 61.34 58.94 56.77 57.76 55.35 50.69 51.56 50.77 49.91 46.28 49.92 49.79 51.04 51.13 51.10 51.48 53.62 51.81 50.66 53.07 52.82 55.33 62.24 64.14
54.29 53.99 53.51 53.11 53.00 52.86 52.38 52.62 52.74 52.67 53.35 53.79 53.14 52.62 52.08 51.16 36.99 53.59 59.73 62.61 61.97 59.89 57.67 55.98 55.05 51.30 49.25 47.11 51.07 46.25 49.08 49.92 50.65 51.58 51.11 50.58 52.84 51.35 52.48 52.23 55.25 56.33 55.97 56.76 63.21
53.90 53.52 53.28 52.47 51.99 52.33 52.01 51.95 52.33 52.14 52.43 52.36 52.69 51.30 49.61 44.71 44.06 56.09 57.77 58.42 59.47 57.60 55.52 53.71 51.64 51.13 47.49 48.87 49.08 47.30 48.52 50.17 51.09 51.73 51.77 51.86 50.81 51.05 51.64 54.63 55.62 55.48 55.55 56.31 56.91
53.36 53.10 53.00 52.56 52.07 51.90 51.78 51.48 51.93 51.73 51.79 51.96 51.99 51.03 46.47 38.66 52.26 55.43 54.95 55.80 58.19 56.06 55.16 54.82 51.67 53.33 49.84 48.92 47.70 49.47 48.81 49.58 50.83 50.54 50.56 49.31 50.19 50.38 51.84 54.30 53.81 54.10 54.31 55.77 56.68
52.87 52.51 52.13 51.37 52.42 51.96 51.55 51.37 51.67 51.61 51.45 51.68 51.34 49.63 44.07 42.07 54.65 56.35 55.36 54.32 58.25 56.54 53.93 55.96 55.24 51.90 51.09 47.22 51.05 49.27 45.77 47.68 48.27 49.19 48.82 50.12 46.70 47.15 52.28 53.52 52.17 52.66 53.66 54.91 55.99
53.18 52.54 51.34 50.47 50.42 51.09 51.00 51.28 51.43 51.52 51.46 51.48 51.55 47.92 39.11 50.88 53.04 53.94 54.91 54.81 57.48 58.30 57.19 57.29 55.99 52.22 50.10 50.62 48.08 45.58 45.45 40.44 46.64 48.44 48.77 48.02 41.59 47.45 51.38 51.50 50.89 51.86 52.71 53.55 54.59
53.40 52.94 51.09 51.08 50.62 50.50 50.73 51.29 51.55 51.51 51.28 50.53 47.63 45.30 39.25 53.64 49.93 53.68 55.04 51.98 54.90 56.31 57.31 56.85 54.33 50.45 48.93 44.60 41.40 43.02 37.73 39.39 41.92 47.81 46.77 45.87 41.91 47.21 50.01 49.52 49.62 50.90 51.85 52.57 53.41
52.70 52.48 50.40 50.36 50.32 50.30 50.53 50.13 50.23 50.46 49.96 49.57 48.15 40.78 44.16 44.41 51.02 52.95 54.66 53.91 52.64 52.89 52.06 50.96 49.18 46.24 45.60 42.56 34.23 36.71 37.69 39.55 39.24 43.60 45.38 44.28 43.58 47.34 49.72 49.02 48.69 50.05 50.96 51.64 52.57
52.72 52.23 49.98 49.82 49.79 49.28 48.75 47.33 42.82 41.25 43.80 38.16 38.69 39.96 45.21 50.43 53.72 50.97 53.31 51.81 52.85 50.23 42.98 47.31 42.71 39.87 42.29 44.00 42.33 41.82 39.23 38.70 41.34 42.84 42.55 42.72 43.12 45.28 47.84 48.24 47.79 48.88 50.20 51.12 51.89
52.35 51.28 48.88 49.96 49.57 49.22 47.66 42.44 42.17 43.11 35.53 41.60 41.65 41.12 44.78 48.06 45.70 49.04 54.40 47.49 46.93 41.92 45.11 42.83 39.10 44.47 45.29 43.88 42.25 41.81 38.72 38.35 41.13 41.69 41.94 41.49 41.27 44.80 46.65 47.07 47.74 47.96 48.69 49.95 50.77
51.77 49.94 47.65 50.04 49.88 48.01 44.62 43.44 48.80 47.05 37.65 40.67 42.37 41.99 43.19 49.03 44.81 46.36 49.63 45.99 44.26 41.56 42.29 38.74 42.03 44.81 43.42 41.35 40.70 40.81 38.62 37.64 38.37 40.47 40.58 39.63 40.28 41.10 41.76 43.75 43.39 43.55 44.19 45.71 46.82
51.86 51.28 50.03 49.50 46.34 46.28 43.24 48.27 49.10 46.81 33.21 34.37 39.16 43.25 46.77 47.11 44.01 50.42 49.83 46.94 41.83 37.83 41.42 40.32 43.65 42.43 41.27 40.42 41.97 37.35 42.41 40.52 37.94 38.32 35.64 38.73 35.28 39.59 40.02 40.43 42.12 43.20 44.14 46.04 47.91
51.12 50.59 49.73 49.10 45.92 43.47 45.40 48.96 47.91 43.91 23.72 36.42 38.15 47.52 47.44 43.61 44.61 44.61 50.74 47.02 39.38 37.15 40.31 35.78 40.70 41.59 40.04 41.05 43.68 38.94 42.14 39.75 37.89 36.73 35.29 34.87 34.49 37.23 39.33 38.83 40.56 43.05 44.71 46.50 47.77
50.33 49.69 49.09 48.78 48.47 46.98 48.37 47.46 44.63 31.87 23.60 34.19 39.66 40.65 41.07 43.56 43.23 44.94 45.38 47.23 45.43 39.54 39.97 38.69 42.44 40.64 39.79 41.39 43.27 40.52 38.98 37.72 37.13 35.78 30.88 32.77 32.46 34.92 37.35 39.09 40.09 42.18 44.72 46.75 48.16
52.37 49.21 48.04 48.82 43.66 48.38 48.08 44.06 32.84 27.63 34.20 34.59 36.59 40.59 40.30 39.55 39.86 40.43 39.50 38.71 37.33 33.36 33.36 36.00 36.24 39.29 40.59 37.17 38.91 38.51 36.63 31.91 29.56 30.03 30.34 31.65 30.73 36.39 38.65 40.24 41.05 42.53 45.18 47.15 48.80
51.69 48.28 47.47 48.08 49.57 47.74 45.41 37.74 29.42 31.49 32.83 39.55 39.79 40.24 37.02 39.66 38.74 39.50 38.72 36.15 38.85 38.13 36.25 33.25 30.76 36.02 38.72 37.82 35.68 37.09 37.39 33.70 25.41 26.15 28.91 30.74 29.34 35.78 39.84 41.68 41.66 43.66 44.67 47.26 48.12
48.51 47.79 47.51 47.94 48.38 47.70 41.31 32.23 30.90 32.18 37.09 37.57 38.14 34.67 35.66 38.84 39.02 38.86 38.37 37.14 38.01 39.08 34.32 32.60 30.81 38.24 38.29 39.27 40.21 35.82 34.47 35.16 29.71 27.29 29.19 32.21 33.75 37.37 39.11 39.37 41.53 42.95 45.23 46.39 47.49
46.74 45.59 45.54 47.94 48.99 46.13 41.23 33.56 35.25 37.79 39.87 39.14 33.35 36.01 31.92 34.88 35.64 37.29 36.96 39.02 37.53 39.46 40.07 35.90 30.77 36.66 37.35 39.99 39.38 38.32 38.38 31.70 32.99 25.12 25.14 29.49 30.56 34.00 36.27 38.31 40.94 43.05 45.30 47.08 48.92
45.34 43.54 46.46 48.66 48.25 45.18 34.46 35.77 39.10 42.64 41.92 37.88 35.81 35.05 36.07 34.62 36.98 35.99 35.52 38.42 40.08 38.73 40.13 38.42 36.33 33.32 37.36 35.98 34.96 34.49 34.32 32.95 34.08 31.02 28.72 28.62 31.86 39.54 39.70 41.51 41.69 43.49 45.21 46.04 48.30
43.06 42.19 47.41 48.42 43.16 42.59 38.12 38.03 40.97 41.44 43.17 39.87 39.88 38.07 36.90 36.67 35.69 35.84 34.88 38.07 41.89 41.39 37.18 37.99 35.56 30.91 32.93 37.05 38.54 37.13 35.35 35.01 31.50 27.60 29.75 29.96 33.16 40.65 41.65 41.57 41.85 43.47 45.43 47.04 47.76
41.71 41.96 48.28 48.14 38.71 39.24 40.08 39.52 40.55 40.55 40.32 39.46 38.05 39.62 39.21 36.72 33.96 35.99 36.84 39.85 41.51 40.60 38.38 39.21 34.05 28.05 29.32 34.35 36.69 34.69 35.44 34.54 32.58 32.46 28.81 29.73 33.42 39.89 40.64 41.29 43.75 43.61 45.87 46.84 45.26
42.21 39.34 44.44 45.72 43.06 40.22 38.21 38.18 38.09 42.05 40.22 40.07 39.20 39.91 38.06 36.37 38.30 35.29 35.59 39.37 40.46 40.53 42.16 41.69 34.22 31.87 29.07 31.41 35.01 31.93 34.00 34.38 34.09 30.53 30.33 31.79 34.09 37.80 40.34 41.75 44.53 45.38 46.30 46.36 44.43
42.50 36.73 39.39 38.76 39.62 39.20 39.11 38.69 37.30 37.52 41.44 40.92 38.63 38.33 37.42 34.56 35.50 35.12 37.37 37.81 39.65 42.10 40.35 39.65 33.35 32.49 33.48 33.88 33.98 33.78 33.50 33.36 31.25 34.03 31.41 33.47 32.98 38.40 41.19 42.60 43.86 45.36 45.92 44.73 42.98
37.71 37.07 40.34 38.49 37.01 37.70 37.50 38.15 37.49 38.73 39.42 37.59 37.42 38.75 39.09 36.62 37.30 35.24 37.94 38.09 37.04 39.98 38.77 38.83 33.03 32.90 30.49 32.93 33.42 31.71 34.40 34.84 34.29 34.61 34.28 35.35 34.89 42.37 44.05 43.77 44.51 45.59 43.46 42.37 40.64
41.49 41.90 39.60 36.38 36.66 37.44 37.66 37.71 38.46 39.95 41.09 41.70 41.24 40.40 38.98 40.15 42.38 42.29 42.38 42.48 41.69 38.87 37.42 37.18 33.90 32.14 28.93 31.35 31.44 28.80 32.35 34.21 34.88 35.95 35.63 31.92 37.75 42.09 41.22 42.31 43.68 43.83 42.05 39.90 39.60

GFSSW_sfc_wetblb_033.txt.gz
Wetbulb
56.14 55.97 55.63 55.33 54.65 54.34 54.98 54.92 54.67 55.09 55.95 56.22 54.33 53.06 54.33 55.04 56.27 54.45 52.14 57.46 59.14 60.18 62.06 56.43 58.67 60.18 57.85 55.03 56.78 57.12 47.50 45.91 49.08 49.17 50.60 54.96 52.75 55.18 55.71 53.60 54.38 55.86 57.24 62.65 68.21
55.55 55.50 55.30 54.75 54.32 54.08 53.78 53.87 54.16 54.17 54.61 55.05 53.79 53.08 53.17 54.13 52.43 49.60 56.44 61.53 61.71 60.64 58.65 53.31 54.56 57.37 52.58 52.56 53.80 51.41 48.72 49.43 53.23 53.30 52.01 53.90 52.84 53.20 52.25 52.02 52.53 54.41 59.35 64.56 66.85
54.95 54.74 54.74 54.31 53.76 53.11 53.41 53.48 53.66 53.45 53.50 53.59 53.48 54.05 52.30 53.21 47.34 47.83 59.72 61.97 62.41 61.29 58.72 55.55 56.57 55.69 50.64 52.14 51.53 50.38 46.78 51.56 52.40 52.42 53.40 52.96 52.03 53.71 52.48 50.47 52.86 52.59 56.47 63.35 64.87
54.52 54.18 54.27 53.73 53.13 52.31 52.74 52.90 52.97 52.70 52.67 52.89 53.37 53.08 51.40 50.99 36.55 52.39 61.41 62.47 62.16 60.40 57.72 54.95 53.99 51.48 49.40 47.73 51.51 46.66 49.83 50.85 52.27 51.90 50.90 50.82 53.30 51.77 52.74 52.78 55.60 56.60 57.32 58.59 63.67
54.41 53.63 53.31 53.08 52.65 52.33 52.66 52.47 52.39 52.28 52.04 52.23 52.42 52.45 50.16 44.25 44.79 58.01 58.46 61.28 59.66 58.04 54.50 53.73 50.53 51.12 47.74 49.17 49.96 47.65 49.33 50.82 51.68 51.78 51.54 52.43 51.03 51.52 52.01 55.23 56.65 56.97 56.60 56.94 57.93
54.39 54.16 52.89 52.32 51.55 51.58 52.53 51.99 52.03 51.72 51.42 52.11 52.09 51.71 46.78 39.54 51.12 55.96 55.41 55.43 56.69 56.78 54.37 54.37 51.16 53.85 49.81 48.95 48.45 49.99 50.08 49.96 50.73 51.01 51.65 50.28 50.82 51.81 52.80 55.42 55.03 54.99 54.96 55.85 57.11
54.21 53.89 53.07 51.40 50.26 50.12 51.01 51.79 51.63 51.79 51.41 51.81 51.91 50.74 45.00 43.57 53.09 56.58 55.18 53.86 55.25 56.51 52.46 55.15 54.72 52.04 51.45 47.65 51.67 50.02 46.62 48.48 48.72 49.84 49.42 51.37 47.77 48.86 53.71 54.63 53.37 53.52 54.39 54.78 55.32
53.78 53.44 52.80 51.55 51.14 50.73 50.96 50.61 51.34 51.40 51.45 51.46 51.50 48.91 40.51 50.37 52.59 50.64 54.55 53.56 55.21 57.34 55.22 56.25 56.18 52.40 50.00 51.41 49.46 45.92 46.26 41.37 46.73 48.43 49.70 49.06 42.94 50.34 53.59 53.03 52.35 52.94 53.52 53.77 54.24
53.50 53.07 52.49 50.55 50.05 50.16 50.38 50.71 51.47 51.58 51.01 50.61 48.45 46.21 39.85 53.15 47.07 49.90 53.61 51.97 53.03 55.92 55.95 57.48 55.05 50.34 49.63 44.84 42.30 44.08 37.67 40.82 42.75 47.97 47.90 46.82 43.98 49.50 51.53 50.59 50.70 51.82 52.59 53.10 53.82
53.03 52.73 51.77 50.46 50.11 49.76 49.86 49.81 50.33 50.48 50.44 50.12 48.62 40.74 44.22 43.27 48.87 51.98 54.87 53.13 52.19 52.68 51.46 50.76 49.68 45.01 44.79 42.49 34.45 37.57 37.97 40.46 40.88 45.17 46.19 45.00 44.23 47.87 49.82 49.47 49.83 50.51 51.40 52.09 52.55
52.41 51.53 50.82 50.58 50.19 49.97 49.65 49.38 44.30 41.85 44.70 39.66 39.73 40.90 43.67 48.11 52.49 50.49 52.82 52.29 51.96 49.53 43.93 48.90 43.72 40.22 42.40 43.73 43.47 42.44 40.33 38.96 42.51 44.67 43.81 43.18 44.10 46.04 49.11 49.34 48.99 50.06 50.47 50.95 51.85
51.69 49.89 50.94 50.65 50.48 49.14 49.75 43.10 43.14 44.37 37.15 42.63 42.30 42.29 45.11 47.09 45.18 48.76 53.09 45.45 46.01 42.55 45.18 42.21 40.40 44.77 46.01 45.12 43.32 42.20 39.89 38.66 42.69 44.70 43.13 42.72 42.35 45.78 47.28 47.72 48.58 49.03 49.76 50.47 51.33
51.45 49.36 50.26 50.25 48.97 49.07 46.59 45.17 50.18 48.32 38.40 39.63 42.59 41.12 44.31 48.52 44.56 45.70 48.47 45.10 42.66 41.89 42.12 39.95 41.69 46.16 44.17 42.69 41.18 41.25 39.48 39.37 38.65 42.02 43.64 41.74 39.67 42.23 45.51 46.24 47.18 46.30 47.27 48.12 49.51
51.47 50.67 50.04 49.68 47.57 48.26 44.40 48.95 49.78 48.01 33.81 35.47 39.07 42.84 46.96 47.64 43.30 49.40 49.30 44.31 39.51 40.90 42.37 40.75 44.84 43.53 42.46 41.17 42.30 37.71 43.43 41.84 39.75 38.31 34.73 42.18 34.13 41.19 42.21 41.91 43.40 44.43 45.90 47.05 48.38
52.40 50.94 50.36 50.69 47.97 45.20 46.07 49.52 49.77 45.91 25.33 38.08 37.68 47.87 47.17 44.02 43.70 43.56 49.83 46.93 37.43 37.86 40.38 36.04 40.46 41.57 40.27 41.45 44.06 40.27 44.40 41.98 40.80 38.18 37.44 37.78 35.56 39.94 41.99 39.58 41.65 44.40 46.35 47.77 48.93
51.58 52.08 50.19 50.20 50.33 48.04 50.04 49.57 46.37 32.52 25.65 34.19 39.89 40.75 41.21 43.45 43.08 44.88 44.65 46.95 44.31 39.44 39.38 38.81 42.76 41.45 40.82 43.83 44.66 44.27 41.48 40.65 40.41 37.88 31.52 37.43 36.20 36.53 38.52 40.99 42.16 44.36 46.58 47.85 49.10
51.21 51.87 49.37 50.19 45.96 50.27 49.86 46.16 32.98 29.31 35.46 34.87 37.38 41.16 41.21 39.25 40.09 41.07 38.13 37.44 35.00 32.46 32.45 34.64 35.38 39.88 41.21 39.29 42.12 42.20 38.90 32.34 30.10 30.59 30.33 35.07 32.56 38.47 41.22 43.29 43.72 44.21 46.42 48.12 49.79
51.16 51.50 50.40 49.72 51.80 50.29 47.93 39.52 30.76 33.22 35.40 40.87 40.40 41.14 37.88 39.21 38.22 40.11 38.93 36.86 40.52 39.79 35.49 33.84 29.90 35.82 37.80 38.82 36.88 38.48 39.72 34.45 26.67 28.74 31.34 32.72 29.60 36.95 42.33 43.66 44.84 45.92 46.77 48.81 49.67
50.48 50.75 48.96 51.25 50.56 49.71 43.07 34.11 33.06 34.46 38.68 38.28 39.61 36.59 36.46 39.05 40.33 40.14 39.80 37.54 39.98 40.55 34.88 33.65 32.00 38.61 37.89 40.25 42.38 37.79 34.99 38.22 32.13 32.77 31.53 33.28 36.13 39.08 40.67 41.14 42.39 44.06 45.64 47.76 49.07
48.44 48.35 48.72 50.43 50.80 46.80 41.95 34.17 36.48 39.39 41.33 40.90 34.89 37.22 33.06 36.41 37.95 39.32 38.95 40.88 39.35 41.05 42.28 38.30 31.39 37.55 37.47 40.59 39.84 38.89 41.29 33.04 34.57 27.17 26.67 31.51 33.02 34.57 36.89 38.64 41.67 42.90 45.87 47.87 49.54
47.91 45.17 49.53 50.90 50.30 46.12 35.73 37.60 39.99 43.87 43.26 39.55 37.72 36.78 36.52 35.52 38.23 37.63 37.68 40.22 42.14 40.18 42.54 41.26 37.97 34.47 37.98 36.68 35.93 35.51 34.78 35.54 35.78 33.27 29.82 29.60 32.51 41.08 39.64 41.54 42.73 44.50 46.05 47.21 48.90
46.87 43.70 50.10 51.41 44.89 45.34 40.02 39.64 41.25 42.50 44.25 41.64 41.55 39.78 38.85 38.96 37.69 37.79 37.22 40.23 43.78 42.94 38.45 39.90 38.18 31.87 34.19 38.95 40.42 39.67 37.93 38.12 32.46 30.07 32.89 31.80 32.78 43.09 43.67 43.67 43.63 44.48 46.37 47.77 49.00
44.29 45.46 51.10 50.86 40.86 40.13 42.16 41.35 42.52 41.63 41.53 40.76 39.48 41.18 41.47 38.91 35.79 38.63 38.87 42.00 43.23 42.15 39.86 40.50 35.67 29.14 29.69 35.96 38.38 35.89 37.83 37.72 35.59 35.08 31.41 30.43 32.88 42.95 43.49 43.12 45.16 45.44 47.24 47.96 47.86
44.66 40.70 47.45 48.69 46.51 42.94 40.36 39.95 39.77 43.71 41.72 41.91 40.92 41.84 40.18 38.23 40.27 37.43 38.04 40.77 42.39 42.41 42.14 43.29 36.67 33.29 30.90 33.48 37.64 33.35 36.38 37.15 35.15 31.46 32.76 33.37 35.74 39.01 41.39 42.63 45.36 46.53 47.58 48.20 47.38
44.02 38.67 40.86 41.23 42.61 42.45 42.15 41.06 39.02 38.87 43.02 42.68 40.26 40.08 39.09 36.25 37.19 36.74 39.26 39.23 41.06 42.02 42.05 41.26 34.55 33.84 35.11 35.91 35.81 35.61 35.50 35.67 32.71 34.70 32.80 35.72 35.81 40.00 42.04 43.94 44.99 47.14 47.58 46.39 45.23
38.03 37.78 41.07 41.91 41.22 40.95 39.54 40.06 39.25 40.26 40.75 38.96 38.79 40.35 40.56 38.00 38.78 36.89 39.14 39.26 38.03 41.28 40.10 40.88 33.49 34.84 32.34 35.14 35.01 32.89 35.72 36.58 35.90 35.58 35.82 36.68 36.11 42.88 44.49 45.24 45.29 46.64 45.33 43.74 42.95
42.23 42.69 39.45 39.63 40.37 40.09 40.58 40.07 40.01 42.00 42.58 43.11 42.56 41.23 39.81 41.32 43.76 44.21 44.48 43.89 42.81 39.99 38.73 38.12 35.52 32.98 30.37 33.27 32.82 29.60 33.89 35.56 36.65 38.03 37.55 33.39 38.83 43.50 42.55 43.27 44.02 45.37 44.26 42.46 42.00

GFSSW_sfc_wetblb_036.txt.gz
Wetbulb
55.76 56.11 55.81 55.67 55.49 55.10 54.84 54.48 54.39 54.93 54.58 55.25 56.34 54.25 53.26 54.80 54.88 53.24 49.62 56.21 58.88 62.56 60.53 56.09 57.02 58.86 59.66 55.42 55.72 56.01 46.04 42.53 45.26 47.32 49.52 53.56 51.12 52.56 52.18 50.39 50.51 51.86 58.03 64.20 67.14
55.83 55.71 55.27 55.00 54.72 54.67 54.15 54.01 54.10 54.25 54.29 54.33 54.98 54.92 52.75 53.76 50.48 47.60 55.94 60.94 63.03 62.89 56.98 52.20 52.95 56.68 52.72 52.24 52.55 49.58 45.15 45.35 49.61 51.45 51.22 52.72 52.09 51.42 49.25 49.13 48.03 51.41 60.21 65.25 65.81
55.40 55.23 55.06 54.45 54.19 53.93 53.51 53.09 53.50 53.61 53.42 52.81 53.69 53.81 52.57 52.34 45.31 45.29 57.77 61.27 62.85 62.10 57.86 54.30 55.46 54.75 51.17 51.05 50.12 49.22 44.93 50.11 50.45 52.94 51.78 52.39 50.76 51.96 49.17 47.10 49.30 49.21 56.29 61.39 62.95
55.53 55.37 55.01 54.02 53.53 53.36 53.08 52.97 53.15 52.93 52.84 52.22 52.46 53.41 52.54 49.39 36.10 53.05 58.25 61.44 63.26 60.17 57.30 54.84 51.23 50.48 48.90 46.63 50.31 45.25 49.12 49.81 51.53 52.17 50.58 49.60 51.81 49.36 49.83 49.67 52.57 52.40 55.47 61.11 61.33
54.85 54.65 54.50 54.03 53.20 52.78 52.49 52.61 52.54 52.31 52.13 51.88 52.04 52.88 49.63 43.14 43.00 55.61 59.85 60.93 59.91 58.30 53.97 53.02 48.38 49.71 46.81 48.20 48.44 46.47 47.83 49.63 50.77 50.57 49.84 51.60 49.11 48.30 48.78 51.87 54.40 55.13 55.17 53.03 56.62
54.36 54.14 54.07 53.38 51.96 51.18 51.41 51.07 52.36 51.34 51.39 51.47 51.83 52.41 46.10 37.93 51.40 55.72 56.49 57.17 57.29 55.87 53.15 53.74 49.22 51.84 49.22 48.69 46.79 48.60 48.90 48.97 49.26 49.50 50.56 49.01 48.02 48.12 49.23 51.92 52.15 52.59 52.05 52.71 53.57
54.47 53.70 53.42 52.46 50.39 50.43 49.93 50.47 51.58 51.45 51.61 51.16 51.52 50.13 43.99 41.77 52.96 55.78 54.55 52.96 55.79 55.48 52.18 53.49 53.47 50.33 50.56 47.40 50.73 49.29 44.71 47.12 46.90 48.63 48.35 49.76 45.46 45.76 49.97 51.04 50.77 50.33 50.52 52.02 52.24
54.12 53.67 53.17 52.15 50.45 50.29 50.73 50.37 50.68 51.17 51.28 51.33 51.23 48.21 39.29 49.85 50.96 49.77 53.88 52.97 54.26 55.64 55.37 55.49 54.89 50.90 50.32 50.03 48.03 45.19 44.18 39.54 45.99 47.45 48.58 47.64 39.82 47.68 50.71 49.40 49.11 49.66 49.40 50.24 51.81
53.15 53.08 52.21 51.39 50.80 50.26 50.39 50.40 50.73 51.39 50.96 50.82 47.43 44.89 38.25 52.92 45.71 48.71 50.36 49.95 52.16 54.26 54.46 55.40 53.68 48.63 49.26 42.99 41.10 42.57 35.97 38.82 41.99 47.79 46.84 45.45 41.14 47.53 49.35 48.93 47.38 48.59 49.53 49.53 49.74
52.22 52.03 51.79 51.26 50.65 50.32 49.91 50.18 50.68 50.56 50.07 49.72 47.74 40.13 43.11 41.38 47.36 48.02 51.15 53.20 50.27 51.21 48.74 49.68 48.37 43.67 43.98 40.54 33.02 36.45 36.40 38.85 38.85 44.22 45.26 43.27 42.18 45.69 46.56 45.43 44.80 45.64 46.64 47.27 48.86
51.28 51.44 52.04 51.19 50.92 49.93 49.43 48.86 43.88 41.66 44.20 39.44 39.42 39.46 42.29 46.77 50.93 48.19 52.47 50.91 49.40 48.20 42.98 46.88 40.56 37.35 40.14 42.24 42.17 40.91 39.00 37.36 41.06 45.26 42.51 41.59 42.73 44.42 45.87 45.68 44.54 45.61 46.15 46.78 47.70
52.11 51.23 51.38 51.34 50.61 51.07 49.82 42.61 42.66 44.36 36.68 42.86 42.24 41.83 44.71 46.53 42.48 46.84 51.72 43.77 44.75 41.66 44.68 42.34 37.24 42.66 44.93 43.34 41.80 40.14 37.86 37.02 39.88 43.53 41.47 40.58 40.33 43.69 44.52 45.52 46.10 45.57 45.34 45.83 46.79
52.82 51.74 51.21 51.28 51.15 49.88 46.11 44.53 49.68 48.26 38.09 40.28 42.58 42.02 43.95 46.55 42.65 44.03 47.26 43.02 42.17 41.41 41.18 38.35 41.17 45.58 42.86 40.99 39.57 38.30 37.33 36.72 36.62 40.56 41.42 39.07 35.99 39.45 43.62 45.48 45.97 43.81 42.71 43.84 44.57
51.70 52.30 51.77 51.34 47.23 47.80 43.98 48.79 50.16 48.58 32.70 35.29 39.57 43.16 45.93 47.15 42.38 49.15 48.85 44.65 41.93 40.12 41.67 40.40 44.76 43.39 42.39 40.73 41.44 35.32 41.68 40.79 39.11 35.88 30.16 39.23 26.43 36.49 40.71 40.46 41.74 39.63 40.34 41.90 43.43
51.06 51.91 52.33 50.72 47.61 45.17 46.36 49.64 49.53 45.64 22.56 37.73 39.13 47.85 47.12 43.12 42.91 44.30 50.00 44.45 38.54 40.66 41.22 36.76 40.86 40.92 40.34 40.98 43.39 39.39 42.91 40.60 39.51 35.80 32.58 34.85 29.52 33.39 38.13 36.92 38.31 39.96 42.15 43.47 44.75
50.53 51.62 51.82 50.39 49.76 48.31 50.12 49.56 46.25 32.01 24.95 34.32 40.02 40.31 41.35 43.23 42.81 43.52 44.03 45.50 43.80 40.49 39.97 39.06 42.87 41.39 40.83 43.71 44.21 44.77 40.12 39.19 37.62 34.99 24.94 33.33 32.11 30.89 34.65 36.90 38.76 41.17 42.24 43.82 44.34
50.36 50.93 50.53 49.15 45.51 50.73 49.90 45.13 32.00 26.66 35.76 34.87 37.95 41.10 40.09 39.01 40.07 40.37 37.75 36.71 34.54 32.05 32.09 35.75 35.08 40.17 41.45 39.30 42.25 41.57 34.96 27.79 24.42 24.25 23.23 33.07 30.85 32.34 36.94 39.67 40.37 40.67 42.43 43.71 45.01
51.08 50.61 51.54 49.16 51.03 50.44 46.62 38.29 26.99 33.22 34.88 41.12 40.60 40.43 36.77 39.47 38.88 39.09 36.92 35.07 39.91 38.18 34.34 31.92 27.70 35.57 38.86 39.22 37.04 37.40 35.45 28.43 21.56 22.21 23.50 30.59 26.10 31.67 38.95 40.65 42.38 43.45 43.56 44.33 44.65
51.15 50.40 49.12 51.25 51.26 48.99 41.64 31.52 31.04 32.63 38.83 38.48 39.75 36.48 36.30 39.25 39.63 39.37 38.15 37.60 39.70 39.68 34.40 32.81 31.19 37.64 38.60 40.13 41.07 36.94 32.60 34.85 28.13 27.44 22.77 25.61 30.86 35.37 38.12 38.44 40.36 41.23 42.69 43.90 45.23
46.90 48.08 48.66 51.22 51.07 46.38 40.55 32.99 36.48 39.95 41.51 40.82 34.57 37.26 33.78 36.93 37.50 38.39 37.47 40.29 38.43 40.87 41.25 36.79 31.07 37.11 38.01 41.04 40.53 38.17 39.82 30.21 28.39 19.38 20.63 25.48 27.35 28.75 33.22 35.68 38.25 39.64 40.50 44.05 46.26
47.01 44.06 48.06 51.67 50.01 43.63 34.91 37.45 39.73 43.63 43.30 39.01 37.61 36.70 36.11 35.51 37.54 36.76 36.90 39.54 41.65 39.92 41.73 39.98 35.18 34.80 37.09 35.14 34.29 34.47 32.62 33.76 31.96 28.75 23.51 21.07 24.79 34.26 35.77 37.29 37.87 39.71 42.77 43.17 44.95
46.46 40.75 49.44 51.09 43.14 43.69 38.85 40.74 42.15 42.43 44.49 41.88 41.54 39.85 37.92 38.07 36.18 36.05 36.15 38.82 42.92 41.88 37.21 38.63 35.40 30.90 34.00 38.87 40.87 39.26 36.82 36.21 30.24 25.82 26.11 24.63 25.22 39.43 38.49 39.69 41.19 41.58 42.33 43.79 46.14
42.41 44.11 50.44 49.66 38.20 38.09 41.53 41.24 42.97 41.76 41.81 41.11 39.73 41.26 41.10 37.84 34.83 37.41 37.93 41.53 42.87 41.18 37.79 38.82 32.81 27.20 29.84 34.56 36.95 34.19 36.53 37.62 34.26 32.85 28.54 22.59 24.70 39.60 39.06 39.50 41.09 41.66 43.28 44.82 45.12
43.43 38.33 45.66 47.31 45.30 41.92 39.70 39.65 39.65 44.02 42.25 42.27 41.01 41.64 39.39 37.24 38.73 36.16 36.98 41.00 41.43 41.61 42.96 41.43 35.15 29.61 23.76 26.99 34.14 30.72 34.55 35.37 32.02 26.29 28.48 28.13 29.92 34.59 37.59 38.53 41.83 42.55 44.14 44.31 43.75
42.58 37.78 40.25 38.06 40.43 41.20 41.89 41.16 39.40 39.07 43.14 42.77 40.01 39.86 38.71 34.96 35.85 35.43 38.03 38.29 40.77 41.29 40.17 38.82 28.24 29.01 32.95 35.11 34.19 33.52 33.83 34.61 30.15 33.16 26.79 31.10 32.18 35.96 37.95 39.32 41.35 43.67 44.09 43.77 41.81
37.14 36.46 39.22 38.90 41.16 39.96 38.70 39.62 39.25 40.23 40.43 38.89 38.41 40.54 39.29 36.90 37.19 35.26 37.66 36.29 35.09 38.49 36.98 38.51 30.16 30.37 27.49 34.44 32.91 30.10 34.16 34.81 35.05 34.14 33.68 34.19 33.29 38.69 39.67 41.52 42.48 42.84 43.38 41.66 40.93
38.90 42.02 38.90 39.78 39.72 38.19 38.29 39.19 39.47 41.79 42.38 43.12 42.03 40.71 38.85 40.08 42.50 42.12 41.15 40.86 39.41 37.25 35.59 35.21 30.78 26.66 23.46 31.82 30.35 25.57 31.38 33.49 34.55 35.48 34.88 30.37 35.69 40.00 39.34 41.63 41.73 42.27 42.41 40.69 39.77

GFSSW_sfc_wetblb_039.txt.gz
Wetbulb
56.17 56.44 56.24 55.60 55.29 55.07 55.33 55.01 54.56 54.60 54.54 54.86 55.00 55.87 54.44 54.01 54.99 51.87 48.73 55.08 58.27 61.17 61.19 55.07 55.14 56.95 58.77 55.03 55.37 54.80 44.88 40.77 43.20 45.61 48.03 52.94 50.54 50.15 51.06 48.65 51.44 54.79 59.76 63.86 66.25
56.19 56.21 56.05 55.65 54.94 54.31 54.57 54.18 53.57 53.86 53.73 54.04 54.57 55.24 53.84 53.46 50.34 47.11 53.49 59.70 61.96 62.77 54.86 50.86 50.30 55.08 51.78 52.10 52.87 49.93 44.89 43.72 48.19 48.84 48.51 51.02 51.02 48.70 47.51 47.08 47.45 56.74 63.50 65.26 65.03
55.52 55.00 54.94 55.16 54.62 53.75 53.69 53.41 53.03 52.93 53.08 53.40 53.34 54.65 53.34 52.18 44.89 44.68 56.78 59.46 62.09 62.57 56.44 53.36 53.65 53.69 49.99 50.12 49.72 49.08 44.41 48.50 50.01 51.11 52.30 51.12 50.94 51.95 47.67 44.72 47.46 54.23 60.10 62.17 62.71
55.04 55.21 54.86 54.77 54.25 53.18 52.95 52.67 52.75 52.48 52.14 52.49 52.42 53.59 53.40 49.16 34.72 49.54 58.34 59.88 62.56 60.32 55.23 51.58 51.14 48.52 47.93 46.02 49.99 44.68 49.11 50.10 51.07 52.38 51.20 49.40 52.14 49.39 48.10 47.63 50.96 52.97 60.04 61.02 61.40
55.44 54.95 54.28 54.17 53.47 52.38 51.96 51.76 52.29 52.03 51.76 51.88 52.25 53.42 49.34 42.03 41.86 52.15 57.87 59.46 59.61 57.43 53.46 51.59 47.40 48.14 45.67 47.38 47.72 45.47 47.43 50.26 51.06 50.61 50.50 51.40 49.06 48.32 47.69 51.24 52.89 53.55 56.69 59.53 60.47
54.56 54.55 53.96 53.45 52.27 51.67 51.25 50.88 51.67 51.65 51.60 51.93 52.26 53.06 45.91 38.05 50.63 54.86 56.48 56.23 56.98 55.89 52.62 52.36 46.56 50.17 47.07 47.36 45.61 47.65 48.28 48.33 48.77 49.07 49.95 48.16 48.47 48.23 47.61 50.33 51.20 52.02 50.71 50.08 54.07
54.38 54.13 53.65 52.46 51.97 51.15 51.05 51.00 51.37 51.54 51.54 51.45 51.67 50.05 43.98 41.38 49.89 53.69 54.61 53.16 55.96 55.40 51.96 52.89 51.34 48.79 48.07 45.87 49.77 47.66 44.37 46.07 46.73 47.87 47.74 48.91 45.12 44.86 47.88 49.27 49.15 48.93 49.09 50.33 50.57
53.27 52.81 52.70 52.20 51.65 51.32 51.31 50.80 50.65 51.15 51.19 51.26 51.24 47.37 38.58 48.92 47.60 48.08 52.56 52.10 54.30 55.01 55.03 54.60 52.95 49.26 46.87 48.41 46.80 44.32 43.23 38.31 44.60 46.89 47.97 46.66 38.14 46.04 49.06 46.57 47.14 47.50 46.70 48.57 50.60
52.58 53.05 52.45 51.96 51.46 51.25 50.92 50.65 50.72 51.11 51.20 50.76 46.58 43.15 37.62 51.64 45.70 47.13 48.34 48.94 51.48 53.59 54.85 55.32 52.32 47.00 46.77 41.35 39.06 41.03 34.66 37.08 41.28 46.57 46.15 44.43 39.49 46.30 48.40 47.31 47.02 46.74 47.37 48.13 48.14
52.64 51.92 52.52 52.17 51.67 50.88 51.22 51.33 50.70 50.01 49.48 49.49 47.18 39.59 42.37 40.97 46.88 46.77 50.27 52.69 49.85 50.68 49.22 49.07 47.18 40.62 41.21 40.29 32.87 35.67 35.21 37.35 37.99 43.05 44.80 41.71 40.97 44.88 44.77 45.49 45.32 44.76 44.87 45.17 47.01
53.58 52.27 51.82 51.79 51.89 51.88 49.44 45.76 41.74 38.91 42.50 39.12 39.43 39.17 41.23 46.53 50.34 45.97 51.96 49.84 49.19 46.74 40.56 45.31 41.76 36.50 39.13 40.10 39.42 39.43 37.85 36.19 39.77 44.05 42.66 40.30 41.86 44.75 44.39 42.46 42.80 43.46 44.64 45.26 46.26
52.05 52.74 52.51 51.76 52.14 52.41 48.91 39.96 42.39 42.87 35.98 42.92 42.65 41.44 43.49 46.76 42.01 46.51 51.31 43.10 43.86 39.73 43.33 40.64 36.57 40.63 42.64 42.11 40.60 37.88 36.32 35.82 38.70 43.49 41.57 39.69 39.20 43.40 43.86 42.76 43.74 44.53 44.42 44.69 44.36
50.81 51.66 52.38 52.39 52.11 48.19 44.91 44.52 48.98 47.21 37.68 40.17 42.69 41.82 43.71 45.81 41.71 43.20 46.77 43.28 40.87 39.66 40.84 36.60 39.09 43.65 42.09 39.39 38.23 35.92 33.97 34.90 35.96 39.27 39.22 37.01 34.89 38.27 41.96 43.23 45.09 43.56 42.91 43.19 43.93
50.77 50.93 51.64 52.58 46.44 44.43 42.43 47.79 48.24 46.72 31.53 35.43 39.30 42.51 43.99 43.94 40.56 47.80 48.27 45.03 42.71 38.36 40.37 39.47 43.54 41.51 39.33 38.18 38.31 32.24 39.24 38.85 37.89 34.94 29.53 37.77 25.78 33.48 39.05 41.31 41.55 40.12 39.41 40.54 40.97
50.58 50.73 51.32 51.84 44.00 43.09 45.16 47.48 47.02 43.08 20.51 37.45 39.77 48.14 45.89 41.76 41.40 41.93 49.45 45.00 39.77 39.98 41.38 37.29 39.75 39.80 38.35 38.89 40.68 37.14 41.05 38.68 37.74 34.13 32.41 32.32 27.46 32.25 37.06 35.49 36.70 37.37 37.96 39.02 41.76
50.09 50.63 50.83 48.09 46.63 48.00 47.45 46.22 45.10 29.10 22.23 34.09 40.65 38.98 40.80 40.74 41.43 42.78 44.19 45.66 44.66 40.45 39.96 39.27 41.66 40.40 39.66 43.01 43.24 42.69 38.55 37.12 35.81 33.12 25.01 30.53 29.27 28.97 32.60 36.37 35.68 38.36 40.00 41.79 42.94
49.99 50.95 49.41 48.95 43.81 48.41 46.84 43.58 28.68 20.79 34.94 34.60 37.46 40.54 39.95 38.97 39.42 39.54 38.25 38.19 36.19 30.69 32.57 36.02 35.87 40.13 41.02 37.79 41.64 39.66 32.70 24.26 23.33 22.02 21.93 29.87 28.96 32.71 36.51 36.93 38.17 38.74 39.87 41.72 42.42
50.83 51.82 49.87 49.08 47.25 47.13 44.57 35.97 23.47 33.27 34.22 40.24 40.50 39.91 36.50 39.47 38.45 38.28 37.29 35.97 38.96 35.55 34.18 31.06 29.58 37.08 38.96 37.33 35.07 35.62 33.40 26.39 20.53 18.94 23.11 28.84 25.59 31.18 36.32 40.04 42.24 41.05 41.26 41.76 43.20
50.40 46.30 45.11 47.25 48.23 46.51 39.83 24.56 26.07 31.48 36.42 37.76 39.30 35.76 35.83 39.21 38.29 38.74 37.47 37.14 39.33 39.26 31.46 30.98 28.79 37.93 39.19 39.73 39.27 36.90 32.93 34.09 26.25 24.76 18.99 25.02 27.86 34.36 35.93 37.85 40.11 40.81 41.44 41.68 43.66
42.36 42.46 43.79 48.79 47.61 44.29 34.45 28.23 30.99 38.52 40.33 39.99 33.65 34.54 32.14 35.46 36.70 37.52 36.63 39.62 38.31 40.68 40.92 36.72 30.33 36.48 38.67 41.23 40.90 37.70 39.18 30.78 27.73 17.56 19.04 22.37 24.43 26.93 31.47 34.73 38.82 39.44 39.70 41.34 43.76
41.64 38.78 45.01 48.82 46.22 41.16 27.92 28.05 37.89 42.50 42.01 37.90 36.27 33.84 33.05 32.86 35.34 33.91 33.53 38.83 41.08 40.59 40.78 38.36 34.86 33.96 37.37 36.06 35.17 35.19 32.68 33.04 31.62 26.00 20.11 18.20 23.39 32.71 34.79 36.24 37.38 38.71 40.03 41.08 43.69
39.45 39.08 45.52 47.53 37.21 35.68 29.98 37.13 41.92 41.20 42.13 40.30 38.65 37.38 34.47 34.96 33.77 33.45 32.97 36.41 42.01 41.26 37.23 39.04 34.44 30.74 34.13 39.65 41.33 38.51 34.35 33.38 26.80 24.62 24.04 22.51 25.25 35.82 35.69 36.76 37.92 38.60 41.55 43.00 44.22
36.12 37.93 45.90 45.72 36.29 32.66 37.25 40.12 41.38 40.34 39.62 39.28 37.89 39.24 38.41 35.45 32.42 34.63 35.41 40.13 41.36 39.75 37.18 38.41 31.96 26.59 29.26 34.39 37.48 34.51 35.85 37.00 33.45 31.59 26.00 20.39 23.77 36.57 37.37 38.32 40.14 40.38 41.64 43.58 43.39
39.05 36.35 41.56 41.48 42.95 40.56 36.10 36.58 37.70 41.66 40.54 40.51 38.77 39.02 36.60 34.32 35.73 33.91 34.75 39.48 39.99 39.75 43.84 41.33 33.74 27.54 23.70 26.18 32.64 30.01 34.19 36.64 34.33 28.57 28.42 29.37 28.34 32.46 36.35 38.00 38.98 40.18 42.49 42.75 42.01
37.67 36.87 39.08 35.58 36.16 36.80 40.49 40.46 38.73 38.32 40.86 40.22 37.62 37.76 36.85 31.97 33.19 33.29 35.52 36.02 39.07 41.75 38.46 36.73 25.88 27.42 31.32 33.89 32.97 32.54 32.79 33.04 29.33 31.55 26.56 30.42 30.13 34.48 36.42 36.94 39.88 42.21 42.57 41.26 40.23
35.56 33.85 37.73 33.80 37.10 35.48 36.97 38.76 38.44 38.63 38.65 36.99 37.88 38.23 36.88 36.54 34.93 32.39 35.44 33.62 33.26 35.65 34.89 35.91 25.48 27.26 23.12 33.14 32.21 28.86 32.55 33.25 33.97 33.51 32.64 32.99 31.19 38.16 38.45 39.25 40.88 41.23 42.02 40.27 39.56
33.63 36.29 37.06 36.85 34.91 34.18 37.25 38.06 39.16 39.08 40.47 41.43 40.58 38.95 37.11 38.18 39.51 38.66 37.79 38.13 37.12 35.27 33.47 33.54 26.90 21.93 20.01 29.83 28.88 24.56 30.06 32.15 33.27 35.42 34.61 29.98 34.33 38.55 38.02 40.51 40.89 40.48 41.17 39.65 38.80

GFSSW_sfc_wetblb_042.txt.gz
Wetbulb
56.29 55.83 55.84 55.84 55.41 55.61 55.01 55.09 54.64 54.45 54.27 54.71 55.00 55.07 55.57 55.98 55.66 52.79 47.80 53.31 57.52 62.62 62.55 54.22 53.77 54.98 57.58 54.75 54.73 53.91 44.68 40.86 42.70 44.33 47.02 51.33 49.07 52.12 51.48 51.06 54.36 58.71 58.74 63.03 65.60
55.87 56.04 55.90 55.31 55.08 54.83 54.11 54.08 53.43 53.52 53.62 53.66 54.18 54.63 54.95 54.13 50.31 47.40 53.05 58.15 60.69 62.12 53.27 50.18 48.80 54.37 50.79 52.23 52.79 48.67 43.69 42.64 47.26 48.58 48.01 50.34 50.19 50.93 47.82 47.25 53.45 59.05 63.09 64.52 64.60
55.45 55.07 55.05 55.04 54.84 54.03 53.35 53.01 52.78 52.49 52.84 52.94 53.20 54.09 54.44 52.80 44.55 44.04 56.50 58.42 60.38 61.40 54.70 51.67 52.98 54.28 47.72 50.16 50.85 49.62 43.72 47.97 48.72 50.40 51.34 49.87 49.87 52.36 48.54 45.39 51.98 57.50 60.66 61.72 61.83
55.35 55.21 54.93 54.73 54.26 53.34 52.81 52.43 52.24 52.71 52.04 52.56 52.51 54.02 52.95 49.13 34.36 49.01 57.51 58.73 60.35 59.66 55.98 49.93 51.14 48.33 45.90 45.69 50.28 46.27 49.06 49.58 50.31 52.98 51.51 49.93 51.30 49.43 48.33 48.00 50.58 58.73 61.83 61.16 60.80
54.53 54.81 54.38 53.72 53.18 52.58 52.37 51.75 51.85 51.58 51.95 51.82 52.31 53.36 49.51 41.67 41.39 51.96 58.41 57.37 56.01 57.42 54.31 48.26 48.27 47.23 44.04 45.48 47.87 45.35 48.22 50.43 51.50 52.26 52.19 51.71 49.54 49.44 49.23 51.81 50.80 59.13 60.48 59.89 60.47
53.68 53.51 53.24 52.92 52.43 51.93 51.71 51.54 51.76 52.06 52.02 52.45 52.89 51.97 46.08 37.48 49.63 50.18 53.57 54.24 55.90 55.87 53.43 49.79 47.90 49.70 46.80 45.93 45.89 47.72 48.00 49.17 50.59 50.61 51.03 48.60 49.03 49.98 49.02 49.91 51.72 54.74 57.36 58.39 59.24
53.37 53.44 52.78 52.43 51.90 51.85 52.09 51.50 51.37 51.96 52.03 51.85 52.59 48.68 43.92 41.63 50.07 49.55 53.42 53.26 56.10 55.41 51.80 52.65 49.78 48.79 46.63 44.79 48.00 47.63 44.46 45.81 45.76 47.88 47.49 49.84 45.41 45.03 49.92 48.61 48.19 48.44 49.79 50.40 52.89
52.84 52.70 52.75 52.44 51.84 51.56 51.08 51.13 51.26 51.41 51.27 51.22 51.25 47.47 39.01 49.07 48.81 48.60 52.25 51.88 54.47 55.57 54.85 53.74 52.28 48.26 45.72 47.11 45.34 42.93 42.83 37.78 44.06 46.39 48.00 47.49 40.08 47.37 50.92 46.48 46.51 47.20 46.85 48.49 49.16
53.59 52.59 52.32 52.52 52.15 51.51 51.70 51.24 50.53 51.06 51.21 50.71 45.74 42.79 36.62 50.52 45.42 47.51 49.67 48.97 51.99 53.91 55.14 55.38 51.24 45.70 44.76 41.82 37.90 39.70 34.69 36.95 40.43 46.69 46.05 44.41 40.55 46.53 48.67 46.00 45.86 46.02 46.60 47.68 47.41
52.69 53.59 52.53 52.02 52.38 52.40 52.71 51.81 50.95 49.83 49.00 49.49 47.15 38.24 41.57 40.38 46.11 46.55 49.49 51.64 49.33 50.73 50.06 49.33 46.22 40.17 39.68 40.09 32.30 34.84 34.62 38.23 38.35 43.35 44.73 42.11 40.83 45.06 45.04 44.05 44.80 45.33 45.53 45.64 46.12
51.44 52.14 52.87 52.78 52.41 52.83 50.26 44.49 39.70 37.46 41.41 37.80 38.58 38.51 40.77 44.56 49.58 48.35 50.53 46.68 47.71 47.55 38.65 45.52 39.44 36.00 36.77 39.08 38.49 38.27 36.56 36.41 39.35 43.75 42.58 41.81 40.64 44.36 44.73 41.18 41.41 43.35 43.56 44.23 45.24
51.43 50.84 52.06 52.67 52.57 52.72 46.80 39.79 41.80 41.11 35.16 42.40 42.08 41.28 43.12 45.89 41.88 46.10 49.25 39.48 43.22 38.08 39.80 40.69 36.61 39.33 41.84 42.07 39.28 38.33 36.02 35.03 38.65 42.92 42.24 40.57 40.27 43.45 43.91 42.24 42.06 42.92 42.92 44.30 43.67
50.82 50.70 51.27 51.93 52.65 46.95 43.57 43.54 48.09 46.85 37.36 39.94 42.85 41.57 43.52 45.36 41.36 42.82 46.38 41.40 41.42 38.24 37.71 36.87 39.31 42.53 41.23 39.11 38.14 34.60 34.42 34.44 35.46 39.11 39.38 37.44 35.13 38.80 42.04 41.41 43.26 43.27 43.73 43.86 44.04
50.89 50.55 50.98 51.40 46.36 43.61 41.66 47.06 47.29 46.80 31.19 34.99 38.90 41.98 43.75 43.95 39.61 47.50 47.85 44.58 41.99 38.76 39.66 38.68 42.88 40.67 39.50 37.99 37.80 31.87 37.66 37.20 37.42 35.01 30.42 36.85 27.28 32.67 39.74 40.41 41.34 41.77 39.91 41.69 41.76
50.59 50.48 51.06 50.61 42.70 42.47 44.59 46.83 45.80 42.71 20.59 36.62 39.88 46.89 44.29 40.15 41.13 42.28 48.59 44.50 39.41 39.57 38.70 35.73 39.61 39.50 38.12 38.48 39.07 35.41 39.38 37.40 36.17 33.20 32.13 31.66 27.70 31.71 34.81 34.14 38.12 37.68 37.80 38.78 40.33
50.15 50.34 50.75 47.58 46.46 46.54 46.61 45.37 45.00 24.78 19.02 32.98 38.47 36.13 36.50 39.59 40.18 43.38 43.72 45.93 45.33 39.70 41.16 39.04 42.13 40.20 38.91 41.03 40.71 40.49 36.91 35.42 33.44 30.79 23.39 30.64 28.22 28.20 31.41 34.31 34.22 35.56 37.56 38.84 41.07
49.83 50.77 49.28 48.25 42.51 47.01 46.26 42.33 24.39 21.34 34.75 34.54 37.38 34.99 35.44 35.25 38.06 38.87 38.01 38.13 36.58 31.04 32.98 36.93 37.21 40.25 40.02 37.34 41.36 37.40 31.55 22.06 24.20 20.59 22.28 29.73 27.35 32.98 35.30 36.45 36.70 37.64 37.80 39.93 41.23
50.26 50.99 49.61 48.73 46.61 46.22 45.22 35.41 20.68 31.62 33.78 40.97 39.89 39.30 35.27 38.32 38.07 38.17 37.42 35.90 38.00 34.93 34.62 30.63 30.59 37.33 38.75 36.33 34.63 33.19 31.22 23.14 19.22 19.45 21.69 27.42 25.76 29.85 36.04 36.96 39.07 41.00 40.82 39.83 40.70
49.52 44.72 44.84 46.94 47.30 45.54 39.33 20.39 23.09 26.56 34.88 37.51 37.65 34.46 35.55 38.60 38.58 37.84 36.60 36.30 39.17 36.71 31.78 28.49 28.74 38.65 39.49 39.25 38.28 34.91 31.53 32.71 24.73 22.17 18.23 24.27 27.97 34.23 35.24 35.11 37.57 38.83 39.77 39.78 41.77
41.39 40.98 42.60 47.74 46.74 43.56 31.12 27.30 29.04 37.43 38.81 38.61 32.07 33.97 31.88 35.93 36.83 36.78 36.57 39.49 38.69 38.90 38.46 33.46 28.77 37.05 38.55 40.96 39.09 36.01 37.47 28.29 24.43 16.75 17.49 21.94 22.90 26.46 30.33 34.37 37.47 38.60 39.33 40.87 43.17
41.29 38.12 44.01 47.52 45.83 39.04 24.28 26.41 36.35 41.37 40.96 36.89 34.15 32.51 32.58 32.22 34.94 33.24 34.80 39.11 40.49 39.06 38.92 36.13 32.23 33.42 37.85 36.86 35.29 34.16 32.12 31.67 31.36 28.09 20.54 18.22 22.75 30.70 32.45 35.91 37.77 39.70 40.29 40.80 42.63
37.52 34.80 44.77 46.64 38.94 33.25 28.37 36.07 41.56 39.95 40.97 39.26 37.39 36.02 33.00 33.60 32.29 31.82 32.73 36.24 42.23 40.57 36.49 36.84 34.67 30.51 33.61 39.75 41.22 38.50 34.11 34.55 29.72 23.77 22.72 21.19 23.89 34.14 35.05 36.11 38.28 38.81 39.75 40.24 43.93
37.76 36.51 44.60 44.78 29.00 30.71 35.81 38.87 40.06 39.13 38.19 37.89 36.50 37.88 36.82 33.70 31.27 33.08 34.15 38.77 41.62 40.21 37.38 37.41 31.33 25.21 29.36 34.02 37.63 36.40 36.55 35.84 33.42 29.77 21.78 19.50 23.72 35.83 33.27 35.96 38.33 38.55 40.01 42.78 42.57
37.12 34.81 38.05 42.58 40.49 36.04 34.42 35.15 36.50 40.41 39.31 39.20 37.36 37.91 35.66 33.18 35.33 32.92 33.37 38.18 39.24 39.18 43.51 41.21 32.18 26.35 24.68 28.03 33.88 31.71 34.60 35.51 32.61 24.01 27.21 25.45 27.48 32.68 34.90 36.21 38.08 39.36 41.26 42.07 41.96
35.15 35.83 38.18 34.51 37.76 37.36 38.52 38.08 37.26 37.55 39.45 39.02 36.35 36.37 34.66 30.40 31.99 31.91 34.21 35.15 38.42 41.14 37.93 35.68 26.57 26.83 30.76 33.19 31.64 31.53 33.40 34.75 32.37 34.29 30.68 33.18 32.71 35.52 37.19 37.95 38.93 40.99 41.61 40.75 39.79
31.41 33.59 35.74 34.50 36.42 35.44 37.74 37.56 38.43 38.23 37.42 36.26 37.56 38.00 36.47 34.42 33.36 31.40 34.06 32.78 32.42 34.96 34.01 34.44 24.93 26.60 23.14 31.35 30.57 28.93 31.87 34.40 35.54 35.56 34.10 31.53 30.72 37.59 39.39 36.68 40.01 40.59 40.85 40.26 39.63
32.55 34.19 35.49 35.39 32.53 36.18 36.31 37.45 37.87 37.75 39.45 40.33 41.02 37.70 35.68 36.45 37.73 37.98 36.86 36.98 35.71 34.33 32.56 32.28 26.46 21.12 18.58 29.03 28.48 24.42 29.80 31.32 32.80 34.50 34.65 29.62 35.87 36.77 35.94 38.58 40.25 40.14 41.00 40.20 39.36

GFSSW_sfc_wetblb_045.txt.gz
Wetbulb
56.03 56.21 55.84 55.84 55.70 55.34 55.29 54.98 54.48 54.04 54.09 54.27 54.72 55.28 55.41 55.88 56.68 53.78 48.98 51.95 55.98 61.55 61.72 53.71 52.76 55.39 56.59 54.45 54.73 53.91 44.58 40.64 42.68 44.10 46.18 50.40 48.21 51.48 53.30 47.71 54.23 59.37 58.08 61.52 63.69
55.66 55.86 55.51 55.18 55.23 55.00 54.05 53.91 53.86 53.66 53.31 53.54 53.86 54.50 54.93 55.03 50.68 48.11 54.19 57.30 59.99 61.61 53.50 50.33 47.78 54.18 52.59 51.22 52.84 49.32 44.01 43.03 47.22 48.25 47.74 49.95 49.33 49.25 48.97 49.31 51.63 56.61 62.36 63.52 63.95
54.73 54.73 54.88 54.72 54.69 54.24 53.79 52.95 52.65 52.79 52.77 52.92 53.27 53.91 54.61 52.82 44.60 44.50 55.78 58.42 58.70 60.29 55.71 51.03 50.27 53.53 50.05 51.38 49.73 49.02 43.65 46.92 48.32 50.30 50.90 49.50 49.88 51.24 48.12 45.66 48.43 50.02 60.28 61.34 61.61
54.25 53.89 54.04 53.66 53.45 53.27 53.11 52.87 52.57 52.04 51.96 52.19 52.59 53.77 53.39 49.77 35.04 49.10 55.79 58.39 59.24 57.16 55.18 50.14 49.92 48.06 47.03 47.26 50.77 45.60 48.09 49.18 50.66 51.57 50.58 49.06 51.66 49.65 48.52 47.81 51.86 51.73 59.30 60.96 61.22
54.23 53.75 53.38 52.96 52.67 52.80 52.50 52.44 52.56 52.08 52.58 52.09 52.09 53.29 49.65 42.20 41.65 51.35 55.05 53.43 56.10 54.83 53.01 47.46 47.37 48.29 44.40 45.34 47.30 45.65 48.29 50.23 52.05 52.02 51.68 52.05 49.72 49.76 49.15 52.45 52.70 51.44 60.48 60.12 61.03
53.67 53.77 53.10 52.73 52.38 52.37 52.53 52.04 52.10 52.22 52.12 52.28 52.37 51.81 45.86 37.32 49.56 50.34 49.10 52.83 53.84 53.30 52.84 48.39 48.08 50.47 46.50 44.99 45.79 47.40 48.94 49.43 50.52 50.18 50.86 49.01 48.66 49.91 50.09 50.96 50.37 58.57 58.41 57.90 59.36
53.75 53.06 53.25 52.96 52.39 52.14 51.80 52.10 51.73 51.85 52.00 52.00 51.11 48.31 43.61 41.23 49.75 48.95 50.20 53.19 53.77 54.09 51.82 51.35 50.55 48.15 46.08 43.81 47.42 47.05 45.30 47.55 48.73 49.43 49.25 50.73 46.18 46.64 50.72 51.98 48.75 48.29 56.53 58.11 58.27
53.82 53.51 52.64 52.75 52.60 52.08 52.21 51.73 51.51 51.70 51.28 51.07 51.30 48.18 38.72 49.21 49.11 48.34 51.16 52.48 55.83 56.13 54.89 54.54 51.24 48.07 45.06 45.90 44.72 41.88 43.71 39.30 45.34 48.17 48.82 46.92 39.55 47.64 51.08 48.54 47.81 46.53 46.71 49.41 51.11
52.22 53.08 53.52 52.52 52.52 52.45 52.84 52.43 51.51 51.56 51.59 50.62 44.38 41.98 35.74 49.88 45.46 47.54 47.80 49.55 52.62 53.85 54.91 54.97 50.60 45.16 43.66 39.95 36.76 37.30 33.56 35.99 40.12 46.97 46.37 44.70 40.30 46.80 50.21 48.93 45.75 45.60 45.64 46.99 47.53
51.86 51.40 52.18 53.02 52.74 52.78 53.07 51.54 51.37 50.02 48.56 49.08 46.73 36.76 40.41 39.47 45.00 47.80 49.70 50.32 49.40 50.02 50.01 48.60 45.39 39.47 38.15 37.35 31.57 33.79 31.94 36.82 37.63 43.04 45.11 42.91 40.48 45.83 48.36 48.29 45.70 45.69 45.21 45.32 46.83
51.88 50.91 51.24 52.10 52.80 52.88 48.85 43.16 39.30 36.13 40.86 36.57 37.62 37.47 39.79 43.59 48.56 48.31 48.61 47.45 47.27 47.05 39.88 45.42 38.11 36.03 35.97 37.40 36.78 37.24 34.89 34.97 38.67 43.75 42.54 42.23 41.28 43.74 46.86 46.29 41.48 42.12 43.40 44.65 45.09
52.06 50.82 50.95 51.54 52.08 52.90 45.24 38.55 41.39 40.07 34.19 41.71 41.09 40.82 42.92 45.83 41.44 45.11 46.75 41.69 42.15 37.97 39.05 38.86 35.44 39.05 41.39 41.56 38.26 37.66 34.15 33.44 38.14 42.64 42.67 40.89 40.30 44.30 45.18 45.43 43.71 42.11 41.16 42.65 43.02
51.43 50.83 50.45 51.18 51.78 46.53 42.35 42.47 47.29 45.87 37.14 39.17 42.15 41.16 42.91 44.72 40.86 42.13 43.83 40.67 39.88 37.56 37.39 35.01 39.13 41.51 40.83 39.44 37.50 33.55 33.82 32.74 34.42 38.79 39.18 38.41 36.22 40.09 43.61 43.01 44.36 42.76 42.47 41.88 43.02
51.03 50.46 50.19 51.17 45.88 42.78 40.90 46.19 46.67 45.68 28.49 34.73 38.42 41.05 43.82 43.32 39.01 47.17 46.41 42.42 41.88 37.19 37.83 35.46 42.59 39.99 38.49 38.33 37.65 31.22 36.40 36.56 36.30 34.44 30.67 38.33 28.68 33.91 40.29 41.14 41.52 43.73 41.06 41.74 41.55
50.75 50.34 50.30 50.74 42.10 41.76 43.73 46.13 44.99 42.54 20.57 36.92 39.17 46.19 43.34 40.45 40.57 41.90 48.46 43.91 38.95 38.84 38.96 35.39 38.49 37.77 36.67 37.55 38.90 35.08 37.73 35.86 35.04 31.97 31.17 31.39 28.84 33.02 35.15 34.78 39.90 40.38 40.00 40.37 40.04
50.28 50.02 50.41 47.50 47.69 45.72 45.77 45.01 44.82 22.87 15.12 31.86 38.08 36.91 36.60 39.85 39.87 43.00 42.85 46.36 45.20 40.03 40.62 39.01 41.71 40.78 37.98 39.73 40.12 39.46 36.07 34.18 32.25 29.99 24.22 30.23 29.20 28.60 32.81 33.98 36.07 38.11 37.79 38.56 38.66
50.27 50.66 49.19 47.69 41.55 46.89 46.73 41.59 25.43 18.46 33.90 32.83 34.13 35.95 35.75 35.70 37.16 39.17 37.36 37.61 35.41 31.73 32.32 37.23 37.91 40.50 39.90 36.88 38.57 38.60 31.75 27.65 23.59 20.37 20.97 28.41 28.00 33.64 36.22 36.29 36.16 37.37 36.91 36.92 39.58
50.37 50.78 49.34 47.87 46.04 45.65 44.04 33.34 16.63 30.16 34.15 40.32 36.31 35.52 33.61 36.32 35.59 35.90 35.38 34.58 38.65 35.66 34.05 31.80 29.38 36.87 38.72 35.87 33.90 32.94 31.44 23.35 19.79 19.67 21.66 27.29 24.91 30.81 36.33 38.29 38.90 38.36 37.58 37.74 39.38
48.70 43.76 44.54 46.51 46.40 45.51 38.33 17.14 22.06 24.91 33.94 36.71 35.85 33.17 34.77 37.74 35.84 35.91 34.33 35.37 37.89 37.46 31.87 28.35 31.27 39.10 38.63 39.85 37.29 34.51 27.58 30.92 23.34 20.04 17.69 23.42 27.46 32.97 35.12 36.30 36.08 37.35 37.81 37.76 40.11
40.55 40.62 42.03 47.15 47.89 44.64 30.91 26.56 27.88 35.93 37.72 37.67 31.23 34.21 32.94 34.72 34.37 35.96 35.22 38.25 38.04 39.35 37.87 32.93 28.85 37.42 38.94 40.24 38.81 34.74 35.69 26.97 22.55 13.87 16.91 20.79 22.61 26.50 30.90 34.08 36.00 36.79 37.77 38.21 41.10
40.21 38.32 43.23 46.44 47.22 39.92 22.94 26.33 35.05 40.19 39.98 35.90 33.06 31.55 32.44 34.75 36.54 34.51 35.21 38.90 41.36 38.64 38.43 34.92 31.18 33.37 38.24 36.76 33.66 32.84 30.92 29.95 29.49 24.32 18.47 18.57 22.91 29.82 31.45 33.53 35.65 37.63 38.95 39.76 41.24
37.04 33.45 44.02 45.57 39.41 36.60 26.25 34.70 41.10 38.82 39.92 38.35 36.19 35.06 32.08 33.37 32.88 32.46 34.02 35.57 42.09 39.74 34.81 35.65 32.92 29.19 33.85 39.68 41.17 37.20 32.60 31.95 24.31 21.65 21.50 20.21 23.55 32.91 32.95 33.24 37.30 38.88 40.40 41.89 43.01
36.84 35.87 44.52 45.78 28.50 29.73 34.83 37.88 39.01 38.22 37.44 36.85 35.51 36.79 35.63 32.05 30.62 32.16 33.96 38.84 42.06 39.58 36.11 36.43 29.27 27.98 29.75 35.60 37.98 36.11 35.71 34.07 31.78 28.17 21.98 20.93 25.52 34.80 32.70 31.82 36.46 38.56 39.46 40.82 42.46
35.59 30.58 36.23 42.43 38.49 33.73 33.52 34.50 35.64 39.73 38.28 38.31 36.27 36.68 34.02 31.85 34.27 31.69 32.58 37.37 40.22 40.71 43.70 40.77 31.92 26.91 23.67 26.46 34.13 32.99 35.61 35.25 32.02 25.38 28.07 27.55 29.10 32.67 34.46 32.96 35.79 37.85 39.78 41.28 41.47
34.05 33.12 34.93 28.92 35.82 36.76 35.90 37.10 36.21 36.58 38.38 38.27 35.57 35.70 33.38 29.30 30.99 31.46 33.48 34.46 37.52 40.86 37.71 36.49 29.80 27.59 30.75 33.30 32.19 31.15 33.35 35.38 31.93 34.04 28.27 33.34 29.37 34.76 35.24 35.20 35.70 37.06 39.35 40.23 40.06
30.10 30.69 33.98 33.12 35.68 36.12 37.54 36.90 36.95 38.42 36.84 35.61 36.23 36.58 35.32 32.89 32.14 31.27 33.22 32.03 32.44 33.93 33.64 33.58 25.27 26.20 22.79 30.56 31.03 29.18 31.21 34.18 34.97 35.09 34.45 33.31 32.56 37.86 38.86 36.89 37.25 39.30 40.75 40.26 40.08
31.12 33.18 33.74 32.19 32.57 35.92 32.66 36.15 35.70 38.04 38.78 39.78 40.35 36.14 34.39 35.34 36.72 36.79 36.05 35.65 35.11 33.68 32.01 31.15 26.25 21.79 19.07 27.46 27.60 23.73 28.75 30.46 33.14 36.10 35.60 30.98 37.26 35.86 35.32 36.48 39.06 38.28 39.54 40.11 39.80

GFSSW_sfc_wetblb_048.txt.gz
Wetbulb
55.10 55.67 55.78 55.46 55.49 55.30 54.98 54.49 54.46 54.02 53.89 53.81 53.86 54.67 55.46 55.73 55.63 53.60 49.74 52.06 55.74 60.94 61.34 54.24 52.98 55.81 57.33 54.41 54.66 54.20 44.93 41.37 41.82 43.91 45.68 49.22 47.23 50.31 51.19 47.73 48.48 59.76 58.48 60.91 63.82
54.82 54.36 54.50 54.33 54.24 54.74 54.55 54.01 53.87 53.61 53.35 53.65 53.69 54.07 54.68 54.98 51.28 49.35 54.73 57.22 59.56 60.87 54.46 50.82 48.18 53.71 52.60 51.77 52.80 48.65 44.25 43.36 46.61 47.79 47.49 49.45 48.47 48.60 48.02 47.76 48.85 50.83 58.02 62.01 63.88
54.75 54.45 54.17 53.79 53.57 53.61 53.34 53.68 53.54 53.30 52.96 53.01 53.14 53.47 53.81 53.05 45.02 45.11 55.22 58.84 58.52 58.73 55.40 52.28 49.85 51.29 48.61 51.51 50.47 49.77 44.35 46.70 47.94 49.72 51.00 49.59 49.39 50.31 47.61 45.45 45.88 48.37 51.17 58.16 60.54
54.10 54.31 53.93 53.57 53.19 53.51 53.24 53.15 53.11 52.75 52.76 52.39 52.66 53.83 54.21 49.77 34.29 49.78 55.04 57.54 58.68 56.74 54.86 50.11 48.16 44.94 45.52 45.40 50.59 44.99 48.78 48.98 49.75 51.69 50.14 48.85 51.43 48.38 48.30 48.76 51.47 51.53 52.33 57.47 60.42
54.20 53.48 53.47 53.20 52.94 52.86 53.04 52.88 52.92 53.12 53.09 52.56 52.36 53.06 49.07 42.48 42.37 51.16 54.72 52.68 52.96 54.07 52.16 49.52 45.56 43.79 43.16 46.85 47.97 46.10 47.45 49.59 51.07 50.79 51.16 51.58 49.29 49.12 48.71 51.18 51.38 51.52 54.58 55.33 60.90
54.84 53.45 52.90 52.78 52.92 52.53 52.26 52.44 52.59 52.87 52.70 52.33 52.12 51.74 46.21 37.17 49.18 51.16 50.36 51.43 52.22 52.66 51.43 50.01 46.47 47.84 45.37 46.95 47.15 48.30 47.89 49.54 50.66 50.53 50.97 48.69 48.68 49.83 50.63 51.35 50.99 51.66 50.20 58.13 59.17
53.89 54.18 53.57 52.77 52.98 52.55 52.66 52.06 52.23 52.24 52.43 52.22 51.28 48.68 43.71 41.41 49.80 49.32 49.02 51.77 53.69 52.38 51.05 50.11 50.32 47.11 45.42 45.24 48.14 48.11 45.83 47.63 48.42 48.97 48.56 50.01 45.51 45.97 51.06 51.79 49.26 49.11 49.46 51.69 58.11
52.26 52.72 53.32 53.73 52.60 52.73 52.91 53.27 51.45 51.37 51.95 51.43 51.60 46.15 38.74 48.81 48.55 49.06 49.32 52.15 54.07 53.91 53.78 53.80 51.76 48.16 44.40 45.75 44.25 43.61 45.13 41.15 46.66 47.69 49.26 47.42 40.63 47.04 51.36 49.50 48.08 48.18 47.34 47.34 50.60
52.96 51.50 51.89 52.59 53.25 52.63 53.12 53.33 51.49 50.92 51.65 50.93 43.46 41.05 34.61 49.64 45.47 48.24 48.40 49.72 53.21 53.46 54.35 55.06 50.74 45.35 43.24 40.01 36.21 37.11 33.53 37.30 42.20 47.38 47.23 44.32 40.22 46.38 50.42 49.79 48.01 47.42 45.94 46.51 47.08
52.74 52.08 51.05 52.00 52.58 52.98 53.06 51.88 51.48 49.35 47.99 48.28 46.40 35.68 39.62 38.69 44.69 47.19 50.20 50.76 49.25 49.68 48.14 49.09 46.66 40.57 37.80 37.50 30.74 32.63 30.78 34.95 37.30 44.22 45.51 42.65 40.55 45.10 48.21 48.62 48.11 46.37 45.22 44.89 46.30
52.02 51.88 50.72 51.46 51.68 52.56 48.80 42.07 38.11 35.13 39.47 35.73 37.02 36.69 39.33 43.57 49.06 46.39 47.36 47.62 48.23 45.66 37.77 42.44 38.60 35.36 35.56 36.87 35.51 35.93 34.07 34.04 37.29 44.04 42.73 42.37 41.87 43.66 46.29 46.95 47.20 47.16 43.10 43.38 45.43
51.59 51.56 50.60 50.83 51.34 52.19 44.11 37.97 39.60 39.14 32.93 40.83 40.33 40.14 42.43 45.51 40.28 44.28 46.37 42.69 42.65 37.41 36.34 37.00 34.41 38.41 40.73 39.91 37.57 36.30 33.18 32.53 36.86 42.43 42.18 41.91 41.30 42.97 44.97 45.51 47.58 48.30 44.55 43.02 42.45
51.86 51.22 50.06 50.80 51.03 46.17 41.22 40.81 46.52 44.76 35.47 38.16 41.10 40.93 42.32 44.12 40.17 41.60 43.39 41.82 38.20 35.66 33.60 36.20 37.46 41.55 40.72 38.95 35.70 32.51 33.08 32.32 34.23 38.07 39.24 38.70 37.54 40.36 42.47 44.63 46.23 47.06 44.13 41.90 42.67
51.13 50.63 50.21 50.90 45.36 42.18 40.20 45.64 45.87 44.58 29.96 33.59 37.78 39.92 43.19 42.50 38.27 46.21 45.82 43.65 40.82 34.97 36.89 37.10 41.33 39.52 38.50 37.81 36.67 31.31 36.48 36.04 35.66 34.50 29.89 36.10 28.38 34.60 41.56 41.94 42.98 45.33 46.13 43.17 42.16
50.54 50.41 49.69 50.90 41.56 40.99 42.92 45.63 44.32 41.19 20.25 36.18 38.24 45.49 43.17 39.63 39.21 41.46 46.57 43.89 36.88 37.86 37.76 34.56 39.04 37.36 36.47 37.98 39.91 34.22 37.46 35.32 34.34 31.10 30.69 29.73 28.91 33.12 35.67 36.64 42.60 45.14 45.33 42.72 42.64
50.24 50.21 50.12 47.91 47.66 44.97 45.16 44.55 44.07 21.98 19.88 32.45 37.52 36.77 35.88 38.83 39.24 42.25 42.29 46.06 45.00 39.82 39.91 39.19 42.35 39.35 37.89 38.79 39.41 38.14 34.85 33.57 32.50 29.49 22.29 28.44 29.21 30.44 31.74 35.63 35.48 40.50 42.74 42.83 40.41
50.06 50.99 49.35 47.28 41.46 46.03 46.06 40.81 24.76 18.79 34.06 32.13 33.73 35.60 34.54 34.74 36.55 38.53 37.51 35.88 35.48 30.98 32.04 36.59 37.85 39.18 39.10 36.06 37.39 35.23 30.76 21.81 20.16 19.06 20.36 26.89 26.47 33.02 35.55 36.63 37.37 39.41 40.13 40.06 37.74
50.18 49.81 49.08 46.66 45.20 45.07 42.77 31.10 17.26 28.81 33.61 37.28 35.20 35.32 32.23 35.23 35.17 35.43 34.24 34.09 38.16 36.86 32.30 32.23 28.02 36.87 38.19 34.91 32.66 32.59 31.50 23.09 19.12 19.33 21.27 26.27 24.10 29.92 36.57 37.50 38.03 39.51 39.12 38.68 37.60
48.09 43.19 43.89 47.22 47.03 46.57 37.79 16.79 20.48 22.78 34.67 36.37 35.41 33.28 31.82 35.90 34.81 34.38 33.81 34.39 37.82 37.78 31.45 31.29 31.08 38.99 38.55 38.70 36.37 32.55 26.60 30.02 22.09 18.43 16.50 23.21 26.36 31.98 34.16 35.65 36.33 36.98 36.82 36.89 38.85
40.31 39.90 41.46 46.42 48.00 44.54 33.58 26.53 27.99 34.47 36.98 37.94 33.09 35.45 31.52 33.81 31.35 32.50 32.60 37.87 38.08 38.40 36.39 31.97 30.45 37.93 39.07 39.32 38.13 34.00 35.10 29.37 23.55 14.20 16.70 20.12 20.94 25.15 31.52 33.86 35.34 36.04 36.22 36.98 40.00
39.78 39.96 42.81 47.15 46.99 39.61 22.58 27.88 33.61 38.92 39.15 35.27 33.57 32.42 34.94 33.47 34.30 33.62 31.98 37.58 39.51 37.78 36.72 33.30 32.03 34.23 38.48 35.19 33.07 32.94 28.70 28.93 28.55 23.77 18.19 17.44 22.84 29.16 30.82 32.01 32.86 35.43 36.98 37.61 40.26
36.84 36.01 43.33 46.94 38.93 36.83 25.38 33.02 40.61 37.95 38.98 37.27 35.98 35.11 33.51 35.57 33.55 30.91 32.01 34.71 41.01 39.77 34.34 35.13 31.94 30.34 34.47 39.30 38.69 34.02 30.84 30.54 23.25 20.79 20.90 19.71 23.41 33.19 31.90 32.79 32.75 35.14 37.83 39.09 41.68
34.68 38.05 45.76 45.82 33.33 28.83 33.21 36.42 38.07 36.92 36.72 35.99 34.96 35.92 34.66 31.70 30.61 32.72 33.00 37.63 41.20 38.52 35.66 36.59 31.21 27.29 28.22 34.72 36.43 36.01 36.00 33.30 30.50 26.64 20.96 20.20 25.79 33.41 32.25 32.91 35.28 35.32 37.51 39.83 41.64
34.01 29.54 36.89 42.51 39.97 32.07 31.28 33.56 34.53 38.49 37.15 37.22 35.40 35.79 33.16 32.06 33.20 30.80 32.62 39.09 41.33 40.71 43.55 40.11 30.77 26.54 23.50 25.64 31.65 31.06 34.69 35.39 32.25 29.50 30.03 28.38 29.84 34.08 34.80 34.51 34.12 35.60 37.05 38.38 40.29
32.67 31.84 33.16 27.55 33.40 33.31 34.27 35.52 34.74 35.64 37.39 37.73 35.23 34.82 32.25 28.72 30.16 30.29 32.63 34.37 38.87 42.54 39.19 36.20 25.78 25.93 29.55 31.44 32.05 30.88 31.34 34.27 33.35 33.38 29.59 33.29 32.18 36.61 37.79 37.84 35.78 35.66 36.39 38.45 38.96
29.97 30.07 32.78 30.86 32.24 31.26 33.79 34.46 35.15 37.06 36.65 35.07 35.84 35.71 34.47 31.89 31.06 30.33 32.68 30.64 31.93 33.10 34.30 34.11 26.67 26.48 24.12 30.24 31.08 29.19 30.82 33.01 34.60 34.93 34.34 34.39 33.50 39.44 37.82 35.52 35.21 35.43 36.54 38.42 38.81
30.14 32.22 31.60 29.22 29.95 35.05 30.30 33.49 32.32 34.90 37.97 40.47 40.25 36.53 34.49 35.29 36.13 35.31 35.25 34.54 33.87 33.15 31.72 31.04 25.53 21.02 18.77 26.69 26.92 23.49 29.10 30.35 31.60 34.88 34.89 31.81 36.67 36.89 36.36 37.33 36.89 36.23 36.73 38.70 39.58

GFSSW_sfc_wetblb_051.txt.gz
Wetbulb
55.50 55.35 54.88 54.65 54.29 54.29 54.69 54.66 54.51 54.33 54.26 54.48 54.27 53.92 54.71 54.87 55.46 52.97 49.82 53.35 55.95 59.68 60.19 55.95 54.71 57.40 57.12 54.34 55.40 54.49 45.38 41.89 43.41 44.61 46.34 50.40 49.15 51.76 52.79 51.28 55.74 58.38 56.65 61.87 64.70
54.56 55.30 54.50 54.37 53.79 54.22 53.67 53.82 54.19 54.02 53.95 54.06 53.92 53.97 54.14 54.69 50.79 48.47 54.93 57.53 59.37 59.86 54.35 52.00 49.91 54.97 52.67 52.54 52.63 49.18 42.47 43.81 47.75 48.96 47.94 49.71 49.71 50.12 50.59 48.65 49.17 52.44 54.79 56.88 64.12
55.03 53.93 54.38 53.90 53.75 53.76 53.78 54.17 53.52 53.46 53.34 53.21 53.33 53.62 53.45 53.05 44.73 44.51 56.27 57.68 58.96 58.34 55.49 53.37 51.76 51.72 49.61 51.67 50.70 49.32 44.08 47.86 48.71 50.49 51.47 49.89 50.13 51.50 49.69 48.05 49.19 50.04 51.22 54.74 62.08
55.64 54.50 53.22 53.92 53.49 53.28 54.02 53.57 53.45 53.50 53.44 53.25 53.29 54.38 53.96 49.34 34.06 49.71 56.09 55.70 58.45 56.81 54.73 50.75 49.20 47.66 46.01 46.33 50.22 46.05 48.14 48.49 49.87 51.74 50.38 48.96 51.64 49.65 50.02 50.93 53.05 52.30 52.83 54.99 58.76
54.73 55.10 54.22 52.70 53.39 52.97 52.86 53.25 53.16 53.37 53.13 53.55 52.99 52.66 48.97 42.42 42.04 51.17 53.62 52.89 51.13 52.32 51.29 49.31 46.41 45.72 44.26 46.52 48.66 46.42 47.94 49.77 50.89 50.83 51.16 51.62 49.38 49.69 49.85 52.79 53.13 53.33 53.05 54.04 57.66
52.75 53.69 54.32 53.64 52.54 52.86 52.95 52.54 53.06 52.92 52.92 52.44 51.87 51.97 46.14 37.17 49.24 50.83 50.62 49.41 49.68 51.11 50.90 50.77 47.08 47.10 45.44 46.57 46.21 48.17 48.68 48.30 49.83 49.86 50.56 49.19 49.00 49.94 50.70 52.65 52.46 52.52 52.21 51.88 56.39
54.49 52.13 53.01 53.36 54.03 52.82 52.92 53.50 52.47 51.82 51.95 51.93 52.49 49.24 43.86 41.33 49.45 49.85 49.79 48.22 51.87 52.93 49.81 51.84 50.62 47.60 47.38 44.92 48.96 48.28 45.28 47.98 48.60 49.52 48.87 49.92 46.07 46.66 51.24 52.42 50.82 51.28 51.75 51.58 51.19
53.65 53.23 51.73 52.52 52.90 53.37 52.89 53.51 52.66 51.27 52.00 51.15 51.31 45.87 38.63 48.79 50.34 49.50 49.46 48.21 52.43 54.35 53.77 53.23 52.44 48.57 46.78 47.56 46.30 44.85 45.40 40.58 46.70 48.41 49.40 47.64 41.12 48.29 51.05 51.06 49.99 50.52 51.24 50.74 51.24
53.39 52.97 51.76 51.73 52.67 52.91 53.22 53.35 51.94 51.08 51.58 50.76 44.00 41.48 35.80 49.16 46.09 48.04 48.64 49.00 51.72 52.50 54.08 53.46 51.53 46.74 45.39 41.91 39.72 41.81 37.05 39.65 43.22 48.22 47.48 45.91 41.72 47.27 50.81 49.94 49.61 50.39 49.94 49.36 49.91
52.67 52.56 51.98 51.16 52.06 52.14 53.10 52.21 51.32 48.83 47.62 47.80 46.08 36.18 39.44 38.36 44.18 47.32 50.30 51.56 48.50 49.54 48.41 48.92 46.61 40.85 39.88 39.29 31.61 35.27 35.59 37.81 39.80 45.08 45.77 43.22 41.74 45.64 48.90 49.37 49.90 51.23 50.01 48.70 48.94
52.37 51.96 52.10 50.68 51.42 51.78 48.76 41.52 38.35 35.21 39.60 36.00 37.02 36.66 39.48 43.87 48.93 46.05 47.45 48.10 48.24 45.32 39.85 43.66 39.62 35.41 38.73 38.57 38.09 36.88 36.78 36.13 40.11 46.00 43.97 42.19 42.02 44.29 47.55 47.86 48.89 50.65 50.42 50.87 49.13
52.35 51.82 51.71 49.97 51.05 51.07 43.88 37.26 39.05 39.32 32.52 40.35 39.92 39.93 42.44 45.68 39.95 43.77 47.53 41.33 42.93 36.73 39.17 36.51 35.10 39.16 41.55 40.17 38.11 37.54 35.07 36.07 39.39 44.76 43.78 42.69 41.89 44.96 45.83 47.01 48.80 50.02 51.17 50.96 49.59
51.82 51.17 51.22 49.88 51.34 46.12 40.72 40.13 46.32 44.78 35.16 38.03 40.80 40.92 42.34 44.10 40.28 41.47 44.10 42.00 39.03 35.67 36.29 35.78 37.88 41.95 41.33 38.24 36.69 35.12 34.42 34.20 35.99 41.34 41.85 41.50 39.39 42.02 44.30 46.09 48.33 49.90 51.08 51.14 47.96
51.38 50.91 50.67 49.84 44.58 41.99 39.84 45.14 45.89 44.65 29.19 33.52 36.80 39.63 42.91 42.57 38.31 45.59 46.16 43.28 38.93 35.23 35.85 35.83 41.33 40.77 40.12 37.80 37.52 33.80 37.80 37.50 36.88 37.13 33.00 39.69 30.78 36.46 42.71 43.49 44.87 46.97 48.79 50.20 45.72
50.47 50.30 50.06 49.73 41.31 40.54 42.40 45.40 44.59 40.35 17.53 36.15 38.21 45.16 42.94 39.20 39.11 40.26 46.46 43.88 37.05 36.51 36.96 34.45 38.84 38.71 37.86 38.41 39.13 35.85 38.12 36.78 36.24 33.47 33.51 33.39 32.88 35.62 39.31 40.39 42.45 45.28 47.04 48.64 46.77
49.99 50.19 50.07 48.48 47.09 44.16 44.89 43.69 43.87 22.14 18.60 32.42 37.11 35.99 36.11 38.38 39.34 42.06 41.99 46.11 44.67 38.34 38.48 38.17 42.37 40.60 39.28 40.72 38.99 37.85 35.78 35.10 34.44 33.78 28.71 30.92 32.27 32.44 34.58 37.40 40.33 44.91 47.08 47.82 49.37
50.10 51.39 49.14 46.70 40.98 45.50 44.58 40.11 25.54 16.82 33.67 31.47 33.13 34.88 34.22 34.56 36.59 37.40 37.80 37.20 34.65 31.18 31.83 36.91 38.05 39.53 39.54 36.87 39.11 36.55 32.31 27.50 26.65 25.25 25.30 29.04 28.73 34.38 38.28 38.78 39.61 40.83 42.44 43.90 45.00
49.83 49.56 48.74 46.29 44.89 45.65 43.02 31.28 20.19 28.12 32.97 36.36 35.01 34.55 32.36 34.97 34.63 35.51 35.90 35.14 38.05 36.56 33.62 31.96 29.72 36.97 38.47 37.20 35.70 34.68 32.47 25.94 20.09 21.52 25.07 28.49 26.81 33.19 38.48 39.70 39.65 39.97 40.44 41.02 41.16
48.52 42.93 45.83 47.16 47.14 46.48 37.82 17.54 19.46 27.10 37.10 33.83 34.09 30.40 29.87 34.65 33.35 33.56 33.27 34.41 37.52 37.79 31.39 31.90 31.53 39.02 38.79 39.10 37.71 34.67 32.45 31.90 23.69 22.11 22.19 26.44 29.12 34.29 35.90 37.01 38.38 39.03 39.62 39.29 40.14
40.31 39.60 40.86 46.74 47.79 44.43 33.63 26.46 29.45 34.39 38.23 36.12 31.85 33.37 26.75 31.78 29.55 31.38 31.70 36.85 37.69 39.33 37.27 33.78 30.59 38.33 38.89 39.56 38.05 35.30 35.77 29.04 25.99 17.96 19.33 23.27 24.26 29.16 33.29 35.39 36.48 37.26 37.94 39.52 39.99
39.58 39.79 42.30 47.62 46.88 39.94 27.18 28.81 33.56 38.60 39.13 36.36 34.44 34.43 32.79 30.89 30.85 30.30 30.78 37.66 40.26 38.25 36.72 34.39 33.16 34.51 38.34 35.81 33.12 33.23 30.75 30.62 30.14 26.27 22.40 20.47 26.08 31.80 33.76 35.44 35.21 36.16 36.69 38.93 40.45
37.27 37.37 44.32 47.17 38.68 37.05 29.21 31.71 40.09 37.43 38.98 38.39 37.11 35.96 35.92 36.26 32.55 30.21 31.60 35.47 41.00 39.19 34.35 35.32 32.89 30.96 34.34 39.43 39.08 35.61 32.21 31.46 26.14 23.57 23.28 22.88 26.28 35.76 34.65 35.26 34.91 36.28 38.18 39.74 41.72
34.50 40.28 45.99 45.81 32.59 28.53 32.09 35.38 37.38 36.05 35.91 35.79 34.44 35.98 36.38 35.04 31.49 32.72 33.57 38.52 40.40 38.10 35.31 36.28 29.61 27.87 30.26 34.35 36.69 36.44 35.39 33.26 30.60 28.13 22.94 24.53 27.57 35.16 35.12 36.12 37.28 38.49 39.69 40.47 42.18
34.01 29.69 38.89 42.51 40.71 34.25 31.64 33.22 33.58 38.22 36.68 36.42 34.74 35.13 32.50 31.58 33.03 32.09 32.53 39.61 40.60 40.44 42.74 39.26 30.89 27.11 23.98 26.43 31.69 31.55 34.49 34.70 31.32 25.38 27.40 29.00 31.28 35.75 38.21 37.96 38.60 38.85 40.07 40.26 41.80
32.28 30.31 32.56 34.41 34.22 31.33 32.79 34.35 33.86 34.82 36.61 37.90 34.59 34.42 31.58 29.20 29.76 30.28 32.53 36.80 39.77 42.26 38.48 35.80 26.78 27.41 30.07 31.40 32.96 32.22 32.33 34.44 32.90 33.45 30.10 33.30 32.87 37.09 38.62 39.61 40.28 39.90 38.33 38.64 40.12
31.02 30.96 31.63 29.36 30.48 30.44 32.84 32.94 33.72 35.08 36.18 34.44 34.75 34.30 33.80 31.58 30.50 30.05 32.49 32.40 34.67 36.48 38.09 35.11 27.32 28.11 25.50 30.11 31.43 30.31 31.51 32.35 34.32 34.47 34.04 34.55 33.75 40.77 42.23 39.92 37.48 37.86 37.24 37.61 39.39
29.49 31.49 31.22 28.01 28.72 32.92 30.14 31.42 32.01 34.26 36.95 40.16 39.21 35.54 34.79 35.33 36.13 35.42 34.80 34.14 34.13 33.20 31.61 32.39 29.82 26.30 23.42 27.11 27.47 25.10 29.74 30.62 32.00 34.71 35.04 31.96 36.67 40.70 38.85 38.89 39.51 39.41 37.26 37.69 39.65

GFSSW_sfc_wetblb_054.txt.gz
Wetbulb
55.82 55.04 55.02 54.56 54.42 54.39 54.31 53.98 54.59 54.55 54.63 54.81 54.83 54.21 54.12 54.61 55.25 53.84 49.89 54.33 57.03 59.74 60.20 58.67 57.70 58.85 58.03 57.03 57.32 56.28 47.35 44.58 45.90 46.20 47.93 52.30 51.59 53.59 55.75 57.00 57.11 57.05 56.26 58.82 66.23
56.37 55.41 54.44 54.69 54.14 54.10 54.64 55.02 54.19 54.05 54.02 53.80 53.98 54.03 53.92 54.69 51.23 49.15 54.50 58.77 59.16 59.53 55.92 54.88 53.03 56.39 52.55 53.96 54.68 50.84 45.64 46.94 51.00 51.02 50.12 51.19 52.16 52.09 53.06 53.86 54.13 55.74 57.90 61.18 65.41
55.48 56.05 54.55 53.61 54.33 53.72 54.23 54.06 54.16 54.25 54.04 53.95 53.83 54.63 53.70 54.15 46.58 46.35 54.52 56.10 58.93 58.73 56.10 55.44 55.08 53.83 50.34 51.45 52.68 51.01 46.98 50.21 51.16 52.54 53.05 51.15 51.59 53.20 52.17 51.32 53.99 53.55 55.69 57.84 63.34
53.74 54.70 55.37 54.04 53.26 53.63 53.40 53.99 53.78 53.88 53.68 54.15 53.84 54.37 53.66 51.03 35.95 50.81 56.17 56.28 56.39 56.97 54.91 52.18 52.27 49.85 48.46 46.33 51.32 46.57 50.83 50.66 50.95 52.82 51.95 50.73 52.67 51.11 52.20 53.14 56.10 55.84 56.99 58.66 57.75
55.40 53.19 53.78 54.67 53.63 52.86 53.26 53.24 53.64 53.62 53.51 53.00 53.16 53.46 50.83 44.09 43.86 52.55 53.60 54.16 52.12 53.69 51.52 50.21 49.12 48.80 45.65 48.96 50.08 47.09 47.57 50.15 51.51 51.73 52.09 52.63 50.62 50.63 51.74 55.16 55.87 56.16 56.73 56.98 58.90
54.80 54.38 52.24 53.30 53.94 53.81 53.08 53.27 53.42 52.61 52.87 53.05 52.85 51.72 47.55 38.24 50.78 52.07 51.28 50.98 50.75 51.10 50.48 51.19 49.76 50.67 48.19 48.56 48.49 50.64 50.17 48.85 50.37 50.67 50.36 49.87 50.85 51.01 52.56 54.95 54.70 55.16 55.76 56.74 56.06
54.46 53.97 52.96 51.84 53.02 53.77 53.14 53.15 54.03 52.30 52.57 52.39 52.29 49.84 45.01 42.28 51.36 51.68 50.90 49.20 50.13 51.65 49.55 52.19 52.64 49.98 49.90 47.54 51.59 50.75 46.96 48.49 48.98 49.66 48.01 49.92 47.18 48.45 53.82 55.06 53.77 54.55 55.07 55.67 56.37
54.14 53.63 52.94 51.54 52.21 53.17 53.58 53.30 53.67 51.81 51.93 52.36 51.50 48.38 40.82 49.65 51.83 50.29 50.56 48.71 50.07 52.34 53.25 54.11 53.38 50.90 49.65 51.22 49.29 46.59 46.89 41.42 47.92 49.53 49.98 48.91 42.18 50.18 53.41 53.25 52.74 54.24 55.08 55.06 55.50
53.58 53.09 52.62 51.72 51.48 52.59 52.67 53.56 53.09 51.88 51.73 51.91 47.75 45.35 39.17 50.80 46.12 48.25 50.40 48.54 50.68 52.30 53.71 53.78 52.09 47.76 48.75 44.73 42.29 44.24 39.22 41.19 43.69 49.46 48.78 47.33 44.76 50.14 51.94 52.51 52.66 53.96 54.60 54.97 55.30
53.27 52.69 52.51 51.51 50.99 52.25 52.16 52.68 51.47 50.22 49.52 49.54 48.13 40.99 42.79 40.47 44.95 47.94 51.03 51.65 48.80 49.46 48.79 47.91 46.98 43.76 44.13 41.83 34.39 37.61 39.70 42.05 41.56 45.69 47.14 45.86 45.87 48.71 51.27 51.82 52.29 53.75 54.78 55.14 54.66
53.08 52.34 52.03 51.50 50.34 51.78 51.18 48.49 44.55 41.69 43.44 39.44 39.74 39.28 41.12 46.84 49.45 46.55 49.10 48.67 48.24 46.61 41.20 43.70 38.80 38.29 41.06 43.16 42.57 42.98 41.44 41.10 42.36 47.26 45.19 44.96 45.50 48.09 50.46 51.02 51.25 52.32 53.52 54.80 55.43
52.27 51.67 51.45 51.20 50.10 51.47 49.84 43.21 42.16 43.98 36.49 42.66 42.29 42.37 44.61 47.17 40.87 44.47 49.43 39.72 42.29 38.58 40.59 37.55 34.82 42.93 44.62 43.66 42.61 42.26 40.80 40.92 43.97 46.71 45.32 44.12 43.81 48.30 49.64 50.03 51.13 51.59 52.89 54.71 55.81
51.97 51.30 51.19 50.74 50.32 49.66 46.68 43.73 49.40 47.57 39.37 39.58 42.71 42.52 43.71 45.81 40.87 42.02 45.34 40.15 40.57 38.00 37.81 35.77 38.37 44.02 42.88 41.99 39.72 40.89 39.87 40.71 40.70 44.89 46.13 43.95 42.48 45.28 48.94 50.10 51.39 52.19 53.40 55.04 55.90
51.08 50.76 50.58 49.66 46.75 47.56 44.54 48.30 49.61 48.22 34.89 34.07 37.89 41.45 44.19 44.56 39.33 46.23 46.87 41.23 39.70 36.95 37.90 36.96 42.11 41.93 41.04 40.01 41.12 36.36 42.81 42.48 41.17 40.24 35.43 44.26 34.71 42.26 45.93 46.98 48.95 50.78 51.92 53.03 55.24
50.68 50.54 50.22 49.22 47.01 44.78 45.97 49.57 49.11 45.92 24.47 36.42 38.01 46.87 44.67 40.61 41.09 41.48 47.19 43.93 37.76 37.68 39.08 34.78 39.34 40.24 39.73 40.63 42.89 38.99 42.83 42.02 41.43 39.57 38.73 38.55 36.26 40.04 43.81 43.71 46.68 49.55 51.30 52.66 53.89
50.56 50.76 50.10 49.28 48.57 48.06 49.48 48.83 47.35 32.40 23.74 32.69 38.15 37.16 37.81 40.10 40.20 42.23 43.27 46.58 44.82 39.92 39.74 38.46 43.60 42.54 42.07 42.89 43.13 42.52 41.57 41.33 41.18 39.86 31.95 37.58 37.04 38.10 41.10 42.28 45.44 48.90 51.02 52.21 53.13
50.55 50.67 49.61 49.31 45.38 49.77 49.18 45.33 32.50 29.26 35.00 30.64 32.37 36.66 36.27 35.67 37.51 37.89 38.52 37.53 36.02 32.79 33.17 37.74 38.36 41.53 43.93 38.95 41.67 42.49 39.30 31.21 29.36 30.09 29.89 35.35 35.16 39.10 43.48 45.08 44.48 45.60 47.35 50.69 52.85
49.69 50.04 49.05 48.92 49.15 49.16 47.31 36.83 29.06 32.22 32.55 36.74 35.67 36.02 32.69 35.90 35.58 36.69 36.53 35.26 38.84 37.88 34.19 33.32 30.47 38.36 41.96 41.02 38.46 38.70 39.19 33.07 24.48 26.36 30.62 33.55 32.01 39.08 43.86 43.60 44.72 44.86 46.50 47.38 46.89
49.77 49.60 48.53 48.00 48.30 48.85 40.47 33.00 31.59 33.08 36.21 34.51 35.06 30.95 32.32 35.59 35.05 35.00 35.12 35.98 38.54 38.92 34.55 33.15 32.31 40.64 41.29 42.07 42.11 37.86 34.82 37.21 32.09 29.65 31.56 34.66 36.51 41.60 42.73 43.40 43.74 43.70 44.40 46.26 46.99
48.10 47.18 46.49 48.45 48.99 46.73 37.91 32.72 34.82 37.03 37.98 36.54 30.92 33.47 30.25 33.38 32.23 33.80 34.69 38.90 38.17 41.25 41.87 37.44 31.86 39.50 39.74 42.55 41.77 40.30 41.05 33.25 34.95 26.26 24.55 30.30 32.24 36.24 39.74 41.77 43.16 43.37 43.27 44.72 45.81
47.15 43.37 47.16 48.98 49.37 41.83 33.25 34.13 36.60 40.38 40.78 36.57 35.74 33.63 34.62 33.26 33.80 33.01 33.93 38.80 41.39 40.33 40.70 39.86 37.30 35.33 40.33 38.53 37.47 37.34 36.58 36.92 36.64 33.74 29.09 28.31 33.01 41.04 41.44 41.78 42.23 43.33 43.93 45.06 45.50
46.31 39.97 47.56 48.55 40.41 39.26 35.30 36.88 40.86 40.69 42.03 40.56 39.29 37.69 36.66 36.06 33.42 34.43 34.31 37.75 43.54 42.71 37.86 39.43 38.45 32.30 34.95 40.44 41.70 39.94 38.67 39.14 33.12 30.61 32.72 31.73 33.62 41.55 42.23 42.08 41.56 44.56 45.35 45.43 45.94
43.55 41.72 47.65 46.45 36.52 37.64 38.33 38.33 40.67 39.61 39.20 38.99 37.97 38.74 39.63 37.26 33.44 35.69 37.20 41.56 43.20 41.63 39.24 40.30 35.33 29.59 31.68 35.63 39.21 37.93 38.64 38.49 37.67 35.69 32.03 30.11 34.39 40.70 41.22 41.60 42.69 44.18 46.17 47.01 46.75
43.17 36.97 41.03 43.17 42.25 37.16 37.57 37.97 37.96 41.70 40.32 39.96 38.85 40.13 37.73 35.94 37.60 35.51 36.86 41.10 42.73 42.51 42.39 42.97 36.35 33.74 31.68 33.77 37.80 34.84 37.57 38.43 37.28 33.16 33.65 34.25 36.34 40.33 41.87 43.49 45.64 47.03 47.99 47.38 47.33
41.24 38.91 39.89 35.77 38.48 38.59 38.79 38.64 37.43 37.22 40.93 41.90 38.92 37.96 37.21 34.51 35.42 35.29 37.29 38.92 41.11 42.82 41.10 40.40 34.08 33.62 34.35 35.68 36.43 36.30 36.82 38.00 35.05 36.69 33.90 36.49 37.36 40.78 43.06 44.01 45.37 46.57 46.83 46.06 45.96
38.70 38.68 38.78 36.96 36.34 38.32 37.55 36.78 36.99 38.13 39.51 38.67 37.34 38.39 38.59 36.09 35.79 35.05 37.31 37.26 38.08 40.54 39.59 39.13 33.64 33.25 31.24 33.38 34.67 33.31 36.06 36.46 37.52 37.85 37.28 37.29 36.62 43.38 45.17 45.84 45.21 45.67 46.07 45.72 45.65
37.81 39.28 40.08 32.46 35.88 37.50 35.67 34.86 35.25 37.78 40.57 41.64 41.07 39.64 38.79 39.33 41.57 41.52 40.83 41.12 41.00 40.05 37.45 37.59 34.72 32.54 28.99 30.91 31.36 28.90 33.18 34.89 36.20 37.95 38.09 34.38 39.53 43.08 42.15 42.81 43.67 44.62 45.48 45.67 46.23

GFSSW_sfc_wetblb_057.txt.gz
Wetbulb
55.91 56.71 55.81 54.63 54.97 54.50 55.33 55.11 54.86 54.57 54.62 54.54 54.68 54.85 54.99 54.58 54.28 52.65 48.28 54.14 56.62 58.55 60.27 58.34 58.33 57.01 57.64 57.61 58.80 57.67 46.69 43.76 46.28 47.02 49.03 53.68 52.03 54.62 57.66 57.81 58.75 58.67 58.88 61.34 67.07
54.69 55.84 56.32 55.15 54.18 54.39 54.09 54.76 54.94 54.85 54.45 54.48 54.25 54.76 54.52 54.89 52.03 48.93 55.46 57.17 59.19 59.19 56.26 54.82 53.43 55.56 52.02 54.15 54.61 51.97 46.52 47.10 51.36 51.77 50.87 52.77 53.18 53.58 54.62 55.64 56.28 56.88 60.40 65.71 66.55
56.00 54.39 55.04 55.68 54.48 53.90 53.87 54.20 54.20 54.28 53.94 54.62 54.33 55.01 54.11 54.33 47.57 46.94 56.52 56.75 58.17 58.05 56.94 56.08 55.23 54.24 47.57 51.72 52.05 50.96 47.32 50.79 51.01 52.96 54.11 52.22 52.48 54.61 53.78 52.81 55.81 54.62 57.88 64.10 64.18
55.49 55.54 53.71 54.16 55.17 53.80 53.55 53.59 53.87 54.09 53.91 53.62 53.77 54.34 54.33 52.37 36.31 51.27 56.22 56.32 56.32 56.54 55.17 53.65 52.42 49.43 47.90 45.40 50.69 47.76 51.58 51.52 52.78 53.16 52.46 51.67 54.10 52.59 53.84 54.45 57.00 57.20 58.50 61.16 63.51
55.14 55.20 54.32 52.85 53.89 54.52 53.69 53.52 54.19 53.34 53.30 53.50 53.34 53.00 52.24 45.33 44.70 54.00 53.36 54.45 54.71 53.22 51.74 50.42 49.75 49.83 46.24 47.41 46.29 47.52 50.11 51.69 51.96 52.72 53.42 53.16 51.36 50.88 52.45 56.26 56.63 56.82 57.71 57.99 62.14
55.34 54.77 53.79 53.08 52.30 53.49 54.29 53.34 53.83 54.03 52.45 52.90 52.97 52.74 48.79 39.78 51.71 52.61 52.41 51.94 53.24 51.18 50.65 51.51 50.05 52.06 48.26 48.00 45.43 48.35 49.93 51.08 52.19 51.98 52.20 50.41 50.94 51.21 52.79 55.86 55.37 55.40 56.17 57.50 57.38
55.29 54.26 53.45 53.02 52.14 52.70 53.75 54.20 53.48 53.92 51.99 52.93 52.55 51.15 45.65 42.86 51.93 52.51 51.51 50.04 52.96 51.34 47.41 52.28 53.46 50.42 50.00 47.10 50.95 47.65 43.79 49.11 49.50 50.61 49.51 49.80 45.72 47.92 53.32 55.23 54.03 54.97 55.74 56.48 57.09
54.46 53.78 53.26 52.79 51.86 51.83 53.11 53.39 53.76 53.40 51.65 52.60 52.10 49.48 41.39 50.61 53.11 50.86 51.58 50.40 52.00 52.37 50.94 52.50 53.15 50.35 49.23 50.77 48.80 45.65 46.27 40.99 47.68 49.01 50.20 48.38 41.69 49.06 53.37 53.31 53.13 54.20 55.44 56.16 56.63
53.70 53.39 53.18 52.53 52.04 51.31 52.53 52.67 53.59 52.98 52.03 52.33 49.51 46.41 39.84 51.54 46.79 49.98 50.69 47.80 50.05 50.78 51.19 53.01 52.62 49.03 49.38 44.47 42.23 44.10 37.90 40.76 44.35 49.71 49.00 47.56 43.74 49.82 52.71 52.89 52.11 53.56 54.55 55.63 56.42
53.31 53.01 52.40 52.07 51.61 50.99 52.30 52.45 52.25 52.00 50.67 50.25 48.74 42.35 44.15 41.54 44.90 47.42 50.71 49.34 48.50 47.72 46.03 47.08 46.54 44.37 44.51 42.46 34.70 38.34 39.31 41.54 42.26 46.92 48.10 45.76 45.48 49.70 52.43 52.50 52.24 53.26 53.91 54.88 55.80
52.80 52.24 51.98 51.59 51.21 50.64 51.34 50.43 46.00 43.74 44.82 40.67 40.90 40.45 42.14 47.88 49.96 46.81 49.77 48.67 47.94 45.25 39.98 40.86 39.17 38.25 42.03 44.13 43.67 42.70 41.34 40.82 44.26 47.80 45.96 44.57 45.16 47.76 51.19 51.59 51.38 52.60 53.59 54.32 55.69
52.20 51.93 51.75 51.50 50.84 50.81 50.88 45.39 44.42 46.08 38.59 43.56 43.29 43.19 45.13 48.00 41.29 44.15 49.13 39.43 42.73 39.04 41.57 38.47 35.15 42.94 44.67 44.60 42.76 42.41 40.80 40.42 44.44 47.42 45.93 44.85 44.55 48.28 50.60 51.53 52.03 52.01 53.20 54.06 55.33
51.69 51.30 50.97 50.78 49.88 49.84 48.40 45.35 50.67 49.03 40.25 40.99 43.41 43.02 44.03 46.65 41.17 42.15 45.67 41.31 41.07 39.59 39.45 36.85 38.46 43.84 43.50 42.35 40.50 42.07 40.66 41.16 41.23 44.78 46.21 44.03 41.80 44.14 49.33 51.67 52.14 52.75 53.39 54.57 54.90
51.05 50.80 50.44 50.39 45.96 49.37 45.98 49.26 51.25 49.83 35.28 35.25 39.14 42.38 45.09 45.36 39.80 45.65 46.73 41.40 40.53 37.20 39.03 37.78 41.43 41.28 42.26 40.63 42.16 37.74 44.38 43.51 42.55 41.24 36.29 44.58 34.84 43.14 46.36 48.03 49.94 51.29 52.39 53.01 54.23
50.57 50.63 50.83 50.13 47.68 46.12 47.92 51.08 50.74 47.61 26.13 37.16 38.69 47.45 45.54 41.27 41.67 41.86 47.96 43.66 38.92 39.34 39.42 36.21 38.37 39.81 39.88 41.11 43.35 39.68 44.28 43.16 42.76 40.94 39.73 39.90 36.60 40.52 45.43 44.06 47.23 50.33 51.52 53.15 54.18
50.23 50.92 50.71 48.64 49.15 49.54 51.10 50.24 48.45 32.21 23.86 33.97 38.80 38.18 38.66 40.80 41.10 42.83 43.47 46.12 45.81 41.51 39.52 39.18 43.84 43.15 42.45 44.48 44.42 44.47 41.95 41.75 41.50 39.64 32.51 37.60 37.12 37.91 41.58 43.66 45.23 48.42 51.10 52.69 53.88
50.34 50.60 49.58 50.07 45.53 51.37 50.67 46.46 33.59 29.20 35.21 31.53 33.82 37.67 37.48 36.55 37.23 38.82 38.83 38.18 36.38 33.17 32.30 36.22 37.17 42.46 44.88 40.89 43.46 43.31 39.30 31.68 29.38 30.25 30.24 38.48 36.77 39.95 44.42 46.09 46.39 46.40 48.26 50.30 53.14
49.45 49.95 49.20 50.39 52.45 50.96 48.39 38.48 29.73 33.01 32.67 37.98 37.00 37.19 33.88 37.09 36.29 37.62 36.58 35.12 39.80 39.30 34.54 33.08 29.56 38.98 43.95 41.58 38.88 39.92 39.36 32.69 24.94 27.44 31.34 37.10 32.55 38.86 45.69 46.46 46.86 47.27 48.15 48.88 50.02
50.04 50.35 49.64 49.47 50.62 51.02 42.37 33.24 32.88 34.53 37.05 35.31 36.23 33.33 33.81 36.37 36.37 36.94 36.13 36.58 39.35 41.04 34.65 33.72 33.22 40.76 43.53 43.86 43.25 38.96 36.25 39.47 34.15 35.62 33.25 35.59 38.61 43.08 45.17 44.67 45.40 45.52 46.16 46.72 48.45
48.95 47.99 47.99 49.81 50.76 47.89 39.39 34.52 36.48 38.74 39.64 38.38 32.25 35.20 32.30 34.69 35.19 36.40 36.19 39.50 38.62 41.83 42.51 38.48 32.71 39.97 41.35 43.22 43.06 41.69 42.89 33.52 35.93 26.78 25.75 32.26 34.07 36.72 40.49 42.50 44.40 45.26 46.29 47.48 47.75
48.38 43.86 48.57 51.40 50.56 43.56 36.18 37.07 38.41 41.80 40.26 36.89 35.10 33.60 36.04 34.95 36.39 35.24 35.90 40.03 41.76 40.88 42.73 41.56 38.04 36.47 40.10 38.83 37.89 38.46 36.76 38.48 38.34 35.23 29.93 29.16 33.34 42.37 42.32 43.82 44.01 45.63 46.83 47.72 48.55
47.95 39.86 48.84 51.06 40.24 42.42 37.47 40.16 41.29 41.35 43.56 40.76 40.20 38.39 37.45 36.93 35.23 35.90 35.75 39.27 44.65 43.61 38.44 41.47 38.36 32.59 35.64 40.99 43.16 41.89 39.29 39.38 33.12 31.20 34.39 33.14 33.87 43.57 44.81 44.16 44.47 45.85 47.31 48.93 49.11
43.39 43.35 48.79 48.31 37.03 37.95 41.03 40.72 42.02 40.88 41.05 40.51 38.68 40.13 40.95 38.29 34.38 37.96 39.03 42.91 44.62 42.94 39.79 41.91 36.48 30.41 31.32 37.13 40.94 38.55 40.36 40.25 40.05 37.86 33.24 30.67 34.35 43.71 44.14 43.69 45.22 45.17 47.33 49.26 49.32
45.26 37.48 42.53 44.34 43.11 40.24 39.77 39.46 38.96 43.19 41.57 41.72 40.42 42.13 40.04 38.33 40.22 37.08 38.40 42.00 44.20 43.71 42.52 43.65 38.00 34.89 30.99 34.78 38.61 34.81 37.81 39.38 37.95 33.01 33.37 34.11 36.30 41.26 43.23 44.28 46.13 47.21 48.32 48.85 49.19
45.30 42.20 43.28 36.28 39.55 41.46 41.61 41.01 38.78 38.20 42.60 42.97 40.18 40.08 38.90 36.30 37.40 36.51 38.69 40.49 42.96 42.93 43.01 42.36 36.04 34.97 36.44 38.09 38.39 37.89 37.59 38.62 35.93 37.00 33.68 36.50 37.60 41.74 44.28 45.15 46.16 47.43 47.84 47.77 48.04
42.10 41.25 42.60 42.49 42.88 41.63 39.43 39.65 39.03 40.22 41.04 39.18 39.01 40.03 40.35 38.03 37.87 36.39 38.77 39.10 38.57 42.16 41.28 41.82 34.29 35.61 33.70 35.77 36.25 34.50 37.61 38.58 39.18 39.26 38.75 39.15 38.38 44.77 46.04 46.71 45.22 45.56 46.03 45.96 46.64
43.79 44.41 43.74 38.61 41.13 40.80 39.98 39.45 39.32 41.51 42.56 43.46 42.14 41.46 40.03 40.55 42.68 43.33 42.98 43.53 42.38 40.22 39.84 39.05 36.19 33.90 31.00 33.11 33.00 30.14 34.97 36.72 37.78 39.40 38.61 34.84 39.75 42.63 42.67 43.61 44.51 45.50 46.23 46.07 46.66

GFSSW_sfc_wetblb_060.txt.gz
Wetbulb
56.91 55.71 55.87 56.59 55.61 55.12 54.74 55.19 55.51 55.24 55.17 55.08 55.04 54.89 55.30 55.16 54.55 52.42 47.68 51.23 55.08 59.21 59.14 57.05 56.47 56.32 55.98 55.48 57.12 56.31 45.97 42.06 44.64 46.36 47.78 52.29 50.19 53.50 56.05 55.33 56.22 57.08 57.38 62.29 66.79
55.85 56.69 55.42 55.51 55.90 54.93 54.48 54.28 55.30 55.07 54.90 54.89 54.87 55.05 55.49 54.69 51.14 48.40 54.49 57.45 58.78 59.19 55.08 53.03 51.75 53.91 50.71 52.64 53.91 50.59 45.54 45.24 50.08 50.10 49.34 51.54 51.35 52.04 53.17 53.47 53.07 55.73 63.34 65.47 66.50
55.97 56.13 55.90 54.64 54.67 55.44 54.36 54.12 54.18 54.90 54.62 54.22 54.41 54.52 54.97 53.90 46.52 47.05 56.79 57.09 58.01 57.52 55.61 55.10 54.18 52.61 47.64 50.66 51.21 50.52 44.80 49.14 50.19 52.58 53.48 51.62 50.95 53.73 52.21 51.21 52.74 52.18 59.43 63.63 64.90
56.02 55.79 55.45 54.63 53.82 54.14 55.10 54.20 53.97 54.36 53.92 54.00 54.15 54.37 54.18 51.33 36.06 50.94 56.36 56.66 56.56 56.19 53.69 52.77 51.62 48.41 46.46 45.96 50.81 46.35 50.67 51.04 51.40 53.24 52.59 51.16 53.04 51.40 52.87 52.26 55.04 55.03 58.20 63.27 62.95
55.77 56.09 55.08 54.25 53.74 53.10 53.75 54.97 53.85 54.59 53.74 53.32 53.55 54.03 50.95 44.92 44.25 53.48 53.48 55.01 54.65 53.77 49.82 49.99 48.98 48.11 45.18 45.78 49.09 46.97 48.68 51.46 52.65 52.71 52.00 53.07 51.01 50.02 51.19 54.35 55.03 55.62 56.68 58.00 62.88
55.65 55.48 54.56 53.82 53.59 52.92 53.02 54.24 54.39 53.87 54.31 52.82 53.50 53.10 47.85 39.03 51.54 52.69 52.26 51.88 52.64 51.89 49.36 50.26 49.28 50.63 47.65 47.05 46.56 46.53 47.85 48.90 50.98 50.89 51.94 49.94 50.07 50.50 51.15 54.10 54.12 54.31 54.34 54.92 56.19
54.90 54.44 54.23 53.81 53.50 52.57 52.37 53.78 54.06 54.01 53.78 52.57 53.43 50.27 44.99 42.74 51.40 52.03 51.60 50.23 51.96 51.45 47.92 49.76 50.73 48.95 48.39 45.95 49.86 46.94 43.70 46.28 48.91 49.68 49.30 49.21 45.80 46.67 51.25 53.32 52.17 52.78 53.17 54.54 55.09
54.50 53.96 53.84 53.57 53.22 52.54 51.72 53.06 53.28 53.88 53.55 52.42 53.39 48.70 41.08 50.73 51.82 50.62 51.31 49.63 51.19 52.66 50.65 50.94 51.50 49.26 48.13 49.71 46.34 42.05 42.26 37.61 46.59 49.14 48.91 47.85 40.23 48.51 51.54 49.33 50.29 51.55 52.16 52.75 54.64
53.63 53.65 53.24 52.84 52.59 52.32 51.34 52.53 53.03 53.69 53.46 52.60 48.72 46.36 39.78 51.12 46.36 48.77 50.05 46.95 48.92 50.38 50.24 50.46 50.00 47.71 47.82 42.78 39.97 41.33 33.63 35.24 41.66 48.61 47.28 44.64 40.52 47.42 50.46 50.49 49.58 51.08 51.93 52.88 53.50
53.10 53.35 52.61 52.23 52.12 51.76 51.09 52.45 52.82 52.18 51.89 50.06 48.04 41.20 44.45 41.85 46.00 47.38 50.46 49.37 46.56 47.11 45.69 43.01 44.58 42.68 42.67 40.10 32.80 35.81 36.04 37.29 37.89 44.61 45.73 42.90 41.82 46.95 49.41 49.50 49.25 50.60 51.80 52.63 52.67
53.35 52.51 52.30 52.10 51.87 51.22 50.27 49.60 44.87 42.77 44.78 40.29 40.45 40.30 42.34 47.52 49.46 46.63 49.32 46.52 47.29 44.56 35.23 39.13 37.30 35.72 38.50 41.53 41.83 41.36 38.94 37.15 40.44 45.90 43.67 42.87 43.01 45.31 47.79 48.91 48.63 49.47 50.65 51.71 52.36
52.30 51.94 51.59 51.24 51.27 50.40 49.90 44.54 44.78 45.99 38.54 43.52 43.39 42.95 45.05 47.46 41.50 44.65 48.52 40.71 40.27 37.06 38.13 35.53 34.51 40.08 43.43 43.79 42.00 41.01 38.61 38.34 43.23 46.39 43.85 42.51 41.62 45.30 47.06 47.57 48.89 49.38 49.89 51.60 52.91
51.67 51.30 50.99 50.77 50.41 48.73 46.82 46.58 50.96 49.34 39.72 40.69 43.15 43.08 43.60 46.22 41.08 42.08 45.13 40.62 38.75 36.75 36.55 35.36 38.82 42.88 42.05 41.65 39.46 39.31 38.01 39.12 40.05 44.07 44.91 41.87 39.59 42.71 46.94 48.98 49.37 50.20 50.58 50.78 52.74
51.17 50.72 50.51 50.81 46.05 47.71 45.78 49.71 51.51 50.10 34.02 35.44 39.23 42.51 44.97 45.23 39.62 46.06 45.88 41.56 40.90 36.53 39.20 37.31 40.97 40.18 40.29 39.42 40.44 35.94 42.30 43.28 41.85 39.09 33.36 42.07 28.51 40.06 44.36 45.41 47.54 48.49 47.97 48.99 49.20
50.60 50.26 50.82 50.66 46.51 45.20 48.00 51.20 50.87 46.92 23.64 36.63 38.72 47.20 45.54 41.06 41.36 41.98 47.75 44.37 38.84 38.56 39.29 35.30 37.61 37.71 38.90 40.29 42.16 38.69 43.93 41.79 41.92 38.52 36.05 36.95 30.95 34.04 44.10 41.66 44.97 47.76 47.74 48.72 49.95
50.32 50.93 50.83 47.85 48.40 49.41 51.26 50.81 47.30 31.57 21.61 32.38 38.87 38.27 38.59 40.91 40.40 42.96 42.88 45.91 46.11 39.92 40.55 39.32 44.10 42.24 41.82 43.34 43.52 43.10 40.64 40.08 38.46 35.88 25.06 33.15 32.41 32.68 36.95 39.87 42.72 44.14 47.69 49.23 49.55
50.28 50.86 49.44 49.94 45.50 51.37 50.54 45.67 32.22 26.80 34.81 31.28 33.80 37.73 37.61 35.69 37.51 39.69 38.40 37.89 35.82 29.27 32.20 36.09 37.51 42.38 43.93 39.19 42.14 40.44 35.82 25.99 24.86 22.82 23.54 34.68 31.89 34.61 39.90 42.76 42.33 42.03 44.14 44.79 45.47
49.69 49.93 49.29 50.05 51.78 50.90 47.64 38.63 28.24 31.78 32.91 37.81 36.92 37.14 34.45 37.17 36.21 38.18 35.78 34.29 39.28 37.86 33.94 32.23 28.36 38.73 43.89 40.42 37.43 37.10 36.23 28.55 22.06 21.04 25.56 34.33 26.74 33.85 41.34 42.60 43.98 43.89 43.49 44.32 44.44
50.24 49.27 48.39 49.29 51.18 50.46 42.33 32.05 31.75 34.06 36.51 35.27 36.54 33.15 33.75 36.10 36.51 37.05 36.11 35.77 38.29 40.13 32.87 32.91 32.16 41.14 42.78 43.26 41.36 36.83 31.42 36.76 29.99 29.65 25.87 30.06 33.90 38.66 41.85 40.65 41.10 41.33 42.21 41.39 43.01
48.28 47.38 46.55 50.29 51.14 47.37 39.13 34.70 35.77 39.63 39.46 38.01 32.10 34.95 31.17 33.90 34.19 35.70 35.61 39.11 38.38 41.68 41.26 36.83 32.13 39.35 41.50 42.94 41.93 38.98 39.87 29.81 30.07 20.31 21.43 27.78 29.27 30.68 35.88 37.86 41.00 40.92 41.30 42.56 43.22
47.63 43.47 47.45 51.26 50.16 43.02 34.58 36.19 38.74 42.00 41.00 37.45 35.16 33.91 35.13 34.02 36.01 34.35 35.74 38.56 40.98 40.51 41.16 39.74 36.07 35.65 39.35 37.39 35.83 36.12 34.21 35.58 34.96 30.08 25.65 22.24 25.24 35.97 37.26 39.44 39.79 40.71 41.92 42.31 43.27
47.68 39.40 48.31 50.53 39.94 41.20 37.33 40.01 41.27 40.70 42.75 40.38 39.90 38.39 37.12 36.53 34.70 35.18 35.65 38.62 43.51 41.94 37.85 40.56 36.39 30.85 34.84 40.75 41.89 39.61 37.08 36.32 27.93 26.51 28.69 26.29 27.44 38.84 39.57 40.36 39.99 40.68 41.48 42.98 44.91
43.39 41.80 48.63 47.79 36.42 36.25 40.73 40.56 42.14 40.54 40.80 40.32 38.73 39.74 40.57 37.08 33.27 37.11 38.37 42.80 44.69 42.52 39.42 40.84 34.33 26.67 28.84 35.40 39.22 36.73 38.29 38.67 36.99 34.15 27.75 23.60 27.05 40.23 39.03 38.58 41.17 41.09 41.92 43.51 44.78
43.46 36.02 41.12 43.91 42.49 38.73 38.56 38.70 38.16 43.39 41.47 41.95 40.87 41.97 39.75 37.45 39.70 36.32 37.29 42.22 43.28 43.51 43.24 41.77 36.68 30.74 25.91 29.73 34.94 31.91 35.85 37.65 34.72 26.35 29.55 29.61 30.84 35.13 37.82 38.33 40.11 41.57 42.34 43.01 44.04
44.32 39.86 41.12 35.02 37.40 39.82 41.64 40.31 37.96 37.44 42.48 42.64 39.53 39.90 38.66 35.40 36.21 35.33 38.00 39.75 42.37 42.20 41.20 40.29 32.77 30.34 34.67 37.07 36.44 35.72 35.05 35.73 31.81 33.73 27.83 32.33 33.48 36.98 39.26 39.26 40.51 41.19 42.66 42.96 42.90
40.59 39.82 41.84 40.55 41.41 39.96 39.85 39.25 39.08 39.81 40.81 38.70 38.61 39.91 39.19 36.72 36.97 35.26 37.67 37.94 35.84 39.23 38.02 39.46 31.22 31.01 27.45 34.75 34.32 30.93 35.50 37.04 37.68 37.64 36.65 36.01 35.12 39.65 40.21 41.12 41.40 41.23 42.29 42.83 43.25
42.49 43.76 41.92 40.58 40.08 38.85 38.85 39.48 39.95 41.53 41.87 42.82 41.93 40.36 38.63 39.49 40.20 41.16 40.68 41.65 41.04 39.13 37.71 36.48 30.99 27.44 25.18 30.27 29.57 24.55 31.30 34.57 35.59 36.58 35.93 32.33 34.59 39.07 38.55 40.36 40.34 40.28 41.60 41.70 42.83

GFSSW_sfc_wetblb_063.txt.gz
Wetbulb
56.40 56.40 56.96 55.93 55.83 56.01 55.46 55.03 54.71 55.63 55.54 55.07 55.45 55.30 55.53 55.65 55.34 52.04 47.06 50.55 52.33 57.26 59.14 55.52 55.81 54.44 55.48 53.45 56.07 54.22 44.79 39.72 41.05 42.70 46.82 50.79 49.60 52.19 53.80 53.21 56.56 56.75 58.29 63.73 66.76
56.71 56.75 56.49 56.07 55.15 55.16 55.69 54.97 54.47 54.79 55.41 54.98 54.68 54.87 55.04 55.32 50.32 47.61 54.36 58.15 57.90 57.72 53.35 51.48 50.55 52.27 49.18 51.10 52.47 49.71 44.32 42.53 46.87 47.80 47.96 49.61 49.90 50.70 51.41 51.73 55.70 60.48 64.10 65.47 66.25
56.68 56.39 56.58 55.71 54.89 54.56 54.30 55.44 54.74 54.48 54.61 54.22 54.43 54.76 54.92 53.81 46.18 45.70 56.39 56.42 57.67 56.90 54.68 53.10 52.91 51.06 46.93 49.81 49.85 49.12 44.76 47.72 49.28 52.21 51.34 49.77 49.21 52.37 51.26 49.30 51.20 58.07 60.98 64.25 63.09
56.54 56.35 56.40 55.44 54.70 54.38 53.73 53.84 55.52 54.27 55.32 53.89 53.71 54.01 54.50 50.38 35.01 50.37 56.27 56.48 56.68 55.62 53.36 51.00 50.33 47.04 45.94 44.90 49.94 45.99 49.67 49.66 51.96 52.85 50.74 49.56 51.59 49.82 51.36 50.43 53.86 58.73 62.75 63.67 62.94
56.46 56.01 55.81 55.13 54.34 54.02 53.52 53.45 54.88 54.55 54.37 54.54 53.26 53.86 50.26 44.37 43.87 53.18 53.91 54.84 54.75 53.71 49.32 47.77 46.70 46.54 43.45 44.61 47.96 46.53 48.57 50.51 51.93 52.80 50.89 51.93 49.39 49.13 49.40 52.47 54.08 57.27 62.20 62.14 63.11
56.18 55.42 54.64 54.56 54.16 54.02 52.84 52.70 54.43 54.68 53.94 54.18 52.82 53.47 46.76 38.47 50.61 53.35 51.80 51.51 52.28 51.52 48.38 47.70 47.61 49.38 45.51 44.88 46.64 47.97 48.71 50.23 51.25 51.31 51.53 49.19 48.26 49.43 49.68 52.55 52.74 53.58 53.95 58.62 62.35
55.89 55.21 54.22 54.12 54.02 53.79 52.59 52.19 53.60 53.78 54.12 53.78 52.57 50.26 43.83 41.11 49.85 51.82 51.01 50.04 51.62 50.95 47.75 49.36 50.39 47.43 47.78 45.22 48.50 47.96 44.94 46.26 49.20 50.19 49.34 49.42 45.20 45.88 49.25 51.57 51.24 52.14 52.32 53.56 57.52
55.37 54.15 53.84 53.47 53.13 53.26 52.45 51.83 52.53 53.29 53.75 53.64 52.52 47.95 39.15 50.40 48.94 49.13 50.27 49.67 51.27 52.10 50.69 51.03 50.47 47.98 47.52 48.91 46.27 43.91 43.29 38.18 45.02 47.46 48.99 46.84 40.79 47.56 49.83 47.63 48.58 50.13 49.40 52.00 53.42
54.49 53.32 53.73 53.02 52.53 52.41 51.95 51.70 52.25 53.18 53.69 53.31 46.91 44.38 38.29 51.16 45.80 47.48 47.95 46.66 48.90 50.14 49.79 50.14 47.42 46.05 47.12 42.23 39.33 40.32 34.18 36.63 38.48 46.66 47.02 45.47 40.56 47.20 49.45 49.06 47.36 48.34 49.87 51.15 52.15
53.12 53.31 52.93 52.71 52.34 52.11 51.44 52.02 52.09 52.21 50.36 50.71 47.85 38.65 42.68 41.38 45.76 47.99 49.34 48.83 46.19 46.60 44.26 44.05 41.69 41.00 41.92 38.99 32.31 34.66 32.57 36.53 36.88 43.94 44.90 43.52 41.46 44.43 47.13 47.45 46.60 47.41 48.96 49.75 50.92
52.86 52.39 52.00 51.91 51.32 51.05 48.56 46.21 42.80 40.29 42.92 38.36 39.07 39.43 41.87 47.36 49.02 46.50 48.74 46.16 46.17 43.75 35.52 39.46 34.91 33.62 35.58 39.04 40.10 39.66 36.68 35.88 39.77 44.87 43.50 42.61 42.71 43.01 45.41 44.98 45.47 46.23 47.36 49.02 50.48
52.47 51.64 51.39 50.87 50.78 49.91 47.65 42.30 42.78 43.11 37.04 42.54 42.92 42.25 44.35 47.47 41.59 44.46 47.91 40.17 40.82 36.44 38.16 35.81 32.96 38.64 41.21 41.11 41.02 40.01 37.09 36.41 40.77 43.63 43.58 41.79 41.10 43.14 44.84 44.92 46.27 47.74 47.78 48.34 50.19
51.66 50.93 50.42 50.42 50.03 46.51 44.20 44.92 48.43 46.80 37.63 40.81 43.22 42.39 43.49 46.05 40.77 41.89 44.74 41.36 38.15 35.85 36.01 34.15 37.45 41.88 40.55 39.42 39.39 37.33 36.35 37.91 39.02 43.21 44.33 41.26 38.27 40.40 44.76 45.87 47.17 48.05 48.75 48.93 49.99
50.94 50.31 50.14 50.40 45.01 45.16 44.59 48.34 48.61 46.58 31.24 33.36 39.21 42.08 44.42 44.23 39.05 46.63 46.04 42.03 39.92 34.43 37.31 37.66 41.59 40.39 39.15 38.86 39.65 33.54 40.46 41.54 41.39 38.95 34.86 40.43 28.63 36.27 42.36 43.58 45.60 45.54 46.16 47.71 48.05
50.58 49.91 50.29 50.54 43.67 44.95 46.75 48.48 47.12 43.32 11.86 34.60 37.79 46.75 44.82 40.92 41.13 42.40 47.67 43.65 37.39 37.22 38.50 34.64 38.13 38.75 38.59 39.73 41.44 37.94 41.06 41.43 41.11 38.33 36.07 37.01 29.69 32.46 39.87 40.04 42.92 45.74 45.60 46.89 48.51
49.87 50.38 51.06 47.09 47.12 48.70 48.05 46.77 44.27 27.95 9.07 26.53 38.80 37.89 38.52 40.53 40.17 43.22 43.02 45.56 45.31 39.83 39.66 39.02 43.54 42.33 41.20 42.87 42.82 42.22 39.19 38.51 38.69 36.50 26.67 33.59 30.14 29.22 35.17 38.99 40.93 43.50 45.97 47.13 48.07
50.18 51.22 49.53 49.38 44.73 47.75 46.99 42.27 31.02 14.78 33.35 28.17 33.29 37.29 36.77 35.31 37.90 39.16 37.96 36.84 35.45 29.75 31.62 35.83 35.57 42.25 43.05 37.26 40.64 38.74 33.11 26.91 25.98 22.53 24.76 32.42 29.97 32.33 37.09 39.26 40.58 41.13 42.03 42.92 43.30
50.85 50.86 48.98 49.88 48.61 47.00 43.90 37.57 17.86 30.49 28.04 36.44 36.40 36.19 33.29 36.52 36.33 36.53 35.07 32.25 38.85 37.19 33.66 30.87 28.67 38.28 42.08 39.44 34.97 34.30 32.77 25.24 22.34 20.38 23.83 32.14 26.57 32.04 37.39 40.41 42.36 41.17 40.73 42.00 42.24
50.78 45.94 47.38 46.69 48.35 47.23 41.65 31.60 30.08 29.69 34.51 34.56 35.78 31.16 31.58 35.17 35.13 35.49 34.54 35.53 38.18 39.05 31.74 32.64 31.95 40.83 41.52 41.40 39.32 34.85 27.51 34.09 27.50 26.57 22.30 27.42 31.42 36.19 37.37 37.76 39.08 40.24 40.95 40.59 41.45
44.18 44.22 45.91 47.84 47.79 44.10 38.17 33.68 34.79 37.97 38.19 36.75 29.62 32.81 28.23 31.83 31.86 33.91 33.70 36.89 37.73 40.69 39.10 36.29 30.85 38.71 40.57 41.59 40.72 37.61 37.97 28.82 25.49 17.60 19.89 25.14 26.60 28.96 32.86 36.07 39.06 39.53 40.25 41.37 42.49
44.26 42.00 46.42 48.43 46.30 42.05 33.64 35.00 38.21 40.96 39.69 36.25 32.12 31.27 31.60 31.11 33.28 34.01 33.70 36.57 39.31 39.73 39.43 37.57 34.83 34.74 37.22 36.15 34.44 34.91 33.11 34.19 32.72 29.14 23.16 20.29 24.26 33.88 36.50 38.36 38.11 39.10 39.93 39.96 41.06
42.68 35.57 47.33 46.67 38.56 39.41 35.16 39.22 41.69 40.00 42.11 38.74 37.59 36.12 34.50 33.44 32.76 33.21 35.17 35.89 40.93 40.02 35.05 38.42 34.83 31.44 34.15 39.93 40.89 38.19 35.93 35.20 26.57 26.10 26.61 23.79 25.16 37.45 38.30 39.02 39.77 40.02 40.23 40.64 41.65
40.06 40.52 47.56 46.71 31.17 34.06 39.03 39.93 42.11 40.09 40.38 39.25 36.99 37.97 38.04 34.88 31.02 37.04 37.06 41.58 44.21 40.49 36.56 38.09 33.32 27.80 28.99 33.80 37.21 35.90 37.24 37.73 35.99 33.00 26.45 21.91 26.39 37.25 37.54 37.42 39.08 38.79 40.48 41.39 42.22
39.43 34.58 40.93 42.67 40.74 36.35 35.18 36.37 36.95 43.08 41.50 42.24 39.23 39.32 38.19 34.99 36.51 35.36 36.25 41.84 43.28 40.90 43.74 41.17 33.96 27.57 24.27 29.37 33.87 31.71 35.24 36.75 33.30 25.39 29.37 29.57 29.70 33.91 36.36 37.73 38.75 39.25 39.83 40.37 41.35
40.19 34.48 37.52 33.40 33.50 36.64 39.80 38.00 36.31 36.14 40.19 40.16 37.75 38.42 36.20 32.41 35.43 35.18 37.71 39.93 40.94 42.11 40.18 38.21 28.83 27.70 33.32 35.97 35.50 34.19 33.81 34.85 31.48 32.35 28.01 31.00 31.32 34.61 35.32 36.68 37.81 38.36 40.08 41.01 40.79
38.30 36.75 36.98 34.57 36.94 37.48 37.84 37.90 36.90 38.73 38.25 37.11 37.73 37.93 37.57 34.63 35.49 34.03 36.87 37.02 36.92 37.69 36.60 37.28 27.60 29.20 25.21 33.74 33.20 30.57 34.04 34.63 34.95 34.83 34.22 33.70 33.34 37.96 38.14 37.90 38.89 38.10 39.73 40.08 40.71
39.52 39.45 37.86 36.81 35.27 34.47 34.92 36.85 38.42 39.48 39.67 40.43 40.48 37.99 36.73 37.23 37.19 38.52 39.59 38.63 39.30 36.43 35.17 34.39 28.35 24.56 21.84 29.24 28.31 24.26 30.50 32.47 34.23 35.56 36.18 32.24 33.80 36.59 36.57 37.90 37.58 37.63 37.45 37.89 39.50

GFSSW_sfc_wetblb_066.txt.gz
Wetbulb
57.18 57.20 57.05 56.43 55.85 55.49 55.39 56.06 55.24 54.56 55.18 55.53 54.89 54.95 55.10 55.24 55.22 51.51 47.00 50.43 52.42 57.31 56.06 51.72 52.49 53.69 53.89 52.37 53.31 54.61 44.22 39.48 40.49 39.91 45.06 49.42 48.38 51.86 54.11 54.20 58.11 56.76 59.59 62.26 65.47
57.02 57.09 56.81 56.96 55.89 54.98 54.91 54.61 55.80 55.02 54.69 54.86 54.41 54.65 55.05 55.15 50.02 46.96 53.29 57.74 58.96 56.55 50.56 48.45 48.91 51.68 48.38 49.16 51.80 49.10 43.41 41.95 45.08 45.86 45.48 48.75 49.06 50.97 51.30 53.74 57.92 60.84 63.71 64.55 64.55
57.05 57.04 56.65 56.69 55.76 54.97 54.72 54.08 54.28 55.66 54.43 55.56 54.02 53.98 54.28 53.33 45.92 44.54 56.50 57.51 56.71 56.45 53.42 52.07 51.30 50.39 46.52 47.99 49.20 49.01 43.95 47.50 48.02 50.50 50.21 48.40 48.28 52.30 50.32 48.65 53.65 58.23 61.57 63.70 64.02
57.14 56.77 56.30 56.06 55.61 54.70 54.27 53.85 53.69 55.13 54.49 54.92 54.21 53.66 54.38 49.93 33.11 49.62 55.37 56.68 57.04 55.32 52.37 49.72 49.36 46.85 44.65 43.04 49.04 44.45 49.15 49.09 50.45 52.04 49.86 48.20 50.61 49.98 50.00 49.61 55.95 60.94 63.01 63.68 63.21
56.92 56.41 55.83 54.97 54.89 54.36 54.28 53.17 53.38 54.92 54.42 54.13 54.10 53.47 49.64 43.69 43.27 52.31 54.25 53.53 54.86 52.72 48.25 46.62 46.47 46.28 43.30 44.85 46.11 45.92 47.31 49.77 51.16 52.18 50.77 50.86 48.45 47.61 48.36 51.34 57.45 62.06 62.27 62.51 62.89
56.73 56.13 55.57 54.32 54.46 54.43 54.07 52.35 52.65 54.33 54.36 54.12 53.13 53.00 45.66 37.64 49.15 53.04 51.79 50.97 51.36 50.37 48.42 47.02 47.40 48.50 45.87 44.93 42.63 47.77 49.08 49.08 50.60 50.98 51.06 48.88 47.26 48.50 48.99 51.28 54.97 58.24 60.21 61.19 61.54
56.26 55.71 54.50 53.91 53.72 53.44 53.83 52.40 52.21 53.05 53.78 53.98 52.66 50.01 43.07 39.81 48.29 50.24 50.28 48.81 51.21 50.67 47.05 49.33 49.35 46.56 47.39 43.59 48.59 48.54 44.64 46.94 49.01 49.35 49.54 49.80 45.45 45.32 48.86 50.27 50.91 51.61 53.54 58.95 60.95
55.69 54.85 53.63 53.75 53.39 52.72 52.30 52.33 51.98 52.45 53.41 53.66 52.15 47.01 38.33 49.40 47.82 48.25 48.19 48.69 51.02 51.96 50.39 51.26 49.91 46.52 46.35 47.39 46.26 43.66 43.00 38.99 42.52 48.46 49.32 48.11 41.32 46.25 48.27 48.02 48.06 49.11 49.29 51.61 57.40
55.01 53.43 53.25 53.48 52.96 52.77 52.20 52.10 52.13 52.26 53.35 53.22 46.22 43.36 37.83 50.55 45.21 47.07 46.92 45.77 48.62 49.45 49.86 50.48 47.75 44.21 46.54 42.27 39.82 40.96 33.47 37.41 37.63 45.93 46.97 45.21 42.67 46.10 48.45 48.05 46.38 47.04 48.07 50.12 50.66
54.14 52.46 52.81 52.13 52.12 51.70 51.47 51.73 52.07 51.52 49.52 50.42 47.85 37.50 41.14 40.22 44.82 47.43 48.75 47.87 45.97 46.15 44.14 44.28 42.24 39.37 41.11 39.88 32.12 34.08 33.91 35.70 35.10 43.22 43.93 43.63 42.34 45.65 46.09 47.07 46.16 46.59 47.67 48.61 49.86
53.58 52.55 51.68 51.44 51.14 50.84 47.79 45.18 41.43 39.34 41.80 37.99 38.59 38.50 40.88 46.45 49.10 46.56 48.48 45.41 45.19 42.73 35.85 40.50 36.28 34.47 36.63 39.90 38.61 38.23 36.59 36.09 39.88 45.14 43.06 42.25 42.64 43.79 45.37 42.58 43.30 43.93 45.79 47.95 49.30
52.68 51.78 50.95 50.61 50.46 50.14 46.42 41.33 41.62 42.24 36.01 42.56 41.14 41.39 43.32 46.33 40.66 44.36 46.96 41.28 39.96 36.20 37.90 35.91 33.58 38.03 39.82 41.07 40.40 39.41 36.52 36.01 40.75 44.00 42.53 42.16 41.10 43.56 44.37 43.85 44.08 44.62 44.89 46.40 48.69
52.39 51.34 50.44 50.04 49.90 46.06 42.97 44.18 47.43 45.71 36.13 40.06 42.26 41.20 42.87 44.32 39.82 41.52 44.10 41.58 38.55 35.94 35.64 32.84 34.75 40.16 39.35 39.20 39.21 38.10 36.07 36.29 36.45 41.57 43.77 41.88 39.01 41.13 43.91 44.80 46.02 46.62 46.84 47.16 48.03
51.93 51.19 50.33 50.07 44.80 44.23 42.80 47.61 47.37 45.58 24.17 31.05 38.30 41.49 43.70 44.27 39.24 46.63 46.16 42.35 38.81 35.74 37.44 37.14 40.86 38.31 38.36 37.98 38.50 34.75 40.41 41.21 39.53 37.94 33.06 41.66 29.07 35.09 41.88 42.62 44.01 44.78 44.87 46.18 46.81
51.58 50.86 50.24 50.56 43.22 42.86 45.46 47.49 46.01 41.11 8.52 32.71 36.62 45.90 45.11 40.60 40.84 42.67 47.27 43.41 36.58 36.50 38.15 34.69 38.24 37.45 36.25 38.28 40.15 37.05 41.58 41.03 40.65 37.68 37.06 37.08 31.38 31.75 37.32 38.54 42.33 44.58 44.41 45.48 46.98
51.15 50.61 50.77 48.34 44.68 47.02 47.01 45.49 43.20 22.23 8.28 25.75 37.86 36.70 37.77 39.91 40.43 41.38 42.82 45.63 44.81 38.66 39.61 39.07 43.48 39.73 40.24 41.66 41.24 41.66 38.16 37.66 38.65 36.44 29.72 34.74 31.05 29.01 33.45 38.28 40.34 43.09 44.24 45.55 46.52
50.78 50.86 49.06 47.67 42.75 46.98 45.91 41.49 22.67 13.16 30.24 26.73 32.21 36.12 35.80 35.32 37.80 38.47 37.81 36.67 33.42 29.92 31.51 36.39 36.43 41.95 43.12 37.73 41.73 40.19 34.15 27.75 27.20 27.12 26.18 33.25 29.50 30.96 35.75 37.94 40.32 40.61 39.07 39.79 41.29
51.24 51.40 49.19 48.95 47.28 46.01 42.86 33.91 13.55 26.36 26.03 35.12 35.17 35.02 32.12 35.56 35.74 36.18 33.73 33.54 39.05 36.88 31.79 30.76 28.99 38.07 41.70 38.61 36.26 36.36 33.66 27.02 22.73 22.06 25.64 31.53 26.01 31.41 36.10 37.55 38.33 38.83 38.31 39.36 40.09
51.59 45.36 45.23 46.03 47.51 46.03 36.79 22.24 23.21 25.68 33.15 33.45 34.31 29.88 29.94 34.10 35.18 34.14 33.91 35.27 37.87 38.12 31.66 30.63 31.96 40.65 41.15 40.78 39.58 35.65 31.32 35.97 27.94 26.27 22.96 26.28 29.59 33.65 36.05 37.04 38.63 39.15 39.67 39.32 39.96
45.00 43.21 43.70 46.96 47.04 42.64 34.51 31.94 31.48 35.70 37.11 35.86 28.39 31.73 26.76 30.34 31.25 33.20 33.01 37.17 37.55 39.42 38.86 34.80 29.94 38.19 39.63 39.93 39.09 35.51 37.01 28.26 28.23 18.81 20.62 24.83 25.41 28.40 32.04 34.75 38.03 38.02 38.37 39.06 39.77
44.27 39.29 45.03 47.41 45.94 38.61 28.36 34.07 36.49 39.67 38.78 35.00 31.00 29.98 30.31 30.29 32.66 32.46 31.96 36.94 38.54 38.76 38.73 35.93 32.22 33.64 35.41 35.17 33.40 34.00 31.27 32.34 30.92 28.12 21.71 19.87 24.34 31.05 33.97 36.41 37.12 37.18 39.01 39.54 40.73
42.91 34.37 45.22 46.28 37.27 38.25 34.76 38.60 41.34 38.27 39.64 37.47 36.49 35.01 32.56 32.01 31.54 32.35 33.31 34.95 39.46 38.99 34.95 36.50 33.39 29.48 30.44 37.47 39.84 38.02 34.39 32.08 23.60 23.71 24.42 21.41 24.84 35.22 35.90 36.75 37.87 36.74 38.15 39.95 41.70
39.43 40.65 46.58 45.50 33.07 33.20 39.08 40.16 40.51 38.74 38.72 37.85 35.93 37.07 36.71 33.46 31.36 36.01 36.42 40.33 41.80 38.77 35.06 36.53 31.07 20.92 26.44 31.70 36.08 35.51 36.24 37.01 34.92 31.49 27.21 21.99 25.74 36.19 36.11 36.55 37.98 37.80 38.51 39.76 40.73
38.62 34.51 40.55 42.29 40.23 36.25 36.05 37.38 37.87 41.51 39.81 40.62 37.93 37.84 35.45 33.81 35.06 35.40 36.56 41.80 42.56 39.31 44.04 40.65 31.79 26.95 22.69 26.78 33.06 30.63 34.65 35.40 32.39 25.83 28.06 28.76 29.73 34.11 35.57 36.88 37.38 37.87 38.63 39.13 39.67
38.11 33.28 37.56 33.10 35.20 34.49 35.88 36.92 36.25 35.73 38.75 38.73 35.94 37.06 34.67 30.40 32.40 33.55 38.07 39.17 40.20 41.71 38.83 36.60 27.35 26.73 31.81 33.92 33.36 32.26 33.34 34.34 31.09 32.26 29.60 32.15 31.38 33.06 34.89 36.29 37.22 37.84 39.29 39.49 39.69
37.60 34.76 35.46 32.65 35.42 34.28 36.63 35.28 35.56 37.20 36.54 35.39 35.04 36.45 35.75 33.30 33.00 31.95 36.98 35.07 33.80 36.85 35.30 35.54 25.89 28.23 24.96 32.33 31.89 30.31 32.90 33.35 33.87 33.18 32.94 33.67 31.86 35.45 36.66 37.89 37.80 36.79 36.90 36.50 36.97
39.91 38.42 37.18 35.17 33.21 33.43 35.25 37.78 37.53 38.40 38.19 39.40 39.26 36.72 35.14 35.45 36.13 36.88 37.59 37.33 37.36 35.59 33.90 32.74 28.13 23.79 22.59 27.93 27.99 24.51 29.06 31.71 33.62 33.93 33.93 31.60 34.17 35.55 35.13 35.25 35.51 33.55 34.04 34.04 35.34

GFSSW_sfc_wetblb_069.txt.gz
Wetbulb
57.49 57.68 57.46 57.01 57.20 56.29 55.46 55.28 55.09 56.24 55.40 54.81 55.11 54.56 54.82 55.16 54.89 50.31 46.22 50.00 52.20 57.37 57.29 51.95 50.44 51.23 52.44 51.20 52.33 53.41 43.41 40.44 40.19 40.08 42.09 47.98 47.23 51.02 54.54 54.41 57.22 57.52 58.78 60.30 61.57
57.87 57.76 57.73 56.91 56.95 56.35 55.56 55.09 54.61 54.76 55.93 54.84 55.60 54.12 54.04 54.50 49.07 46.72 52.45 57.59 58.30 58.44 51.30 47.24 45.68 48.80 45.96 48.25 49.24 46.74 41.41 41.50 45.37 43.61 43.63 47.68 47.65 50.80 53.07 55.15 56.70 59.83 62.20 63.50 63.80
58.22 57.87 57.45 56.72 56.25 56.02 55.29 54.62 54.19 54.17 55.24 54.69 55.30 54.14 53.79 53.06 44.80 44.12 55.82 56.45 56.55 56.64 52.36 50.30 49.44 47.30 43.46 47.08 46.07 46.24 41.91 46.22 47.39 49.62 50.56 48.07 48.35 51.48 51.80 50.12 54.27 56.58 58.50 62.14 62.60
58.19 57.91 57.05 56.37 55.53 55.38 54.89 54.36 53.68 53.80 55.13 54.47 54.72 53.87 53.87 49.02 30.05 48.22 54.95 55.20 55.90 54.97 51.49 48.52 47.25 42.64 42.12 41.82 46.24 43.56 47.04 48.40 49.13 51.51 49.58 47.18 50.70 49.34 50.36 51.90 54.96 59.67 61.80 61.64 61.10
58.08 57.46 56.86 56.34 55.12 54.71 54.90 54.79 53.42 53.17 54.58 54.32 54.08 53.05 48.76 42.59 42.33 50.85 54.66 52.96 53.31 52.44 47.99 45.75 44.03 43.89 41.63 42.32 45.05 43.96 45.93 49.40 50.78 51.45 50.88 50.70 48.77 48.04 48.19 52.11 60.68 62.17 62.49 61.42 60.71
58.14 57.32 56.51 55.45 54.28 54.13 53.87 54.09 53.02 52.71 53.80 54.22 53.75 52.39 44.54 36.27 47.42 50.78 51.28 49.70 50.30 49.64 47.67 46.45 45.28 47.41 45.37 44.23 42.47 46.35 45.75 48.32 50.30 50.71 50.71 48.06 46.26 47.72 48.59 52.39 59.53 60.51 59.91 61.43 62.10
58.13 57.11 55.55 54.37 54.00 53.70 53.11 52.94 53.01 52.33 52.73 53.85 53.45 49.46 42.38 39.11 47.06 48.89 48.94 47.92 49.63 49.87 46.50 47.34 48.17 45.78 46.31 43.57 45.62 46.56 42.50 47.24 48.34 49.40 48.95 49.34 45.07 45.23 48.24 52.72 54.33 58.08 58.66 60.24 62.18
57.67 56.58 54.83 53.58 53.90 53.28 52.75 52.36 52.25 52.18 52.53 53.45 52.69 46.20 37.80 48.20 46.55 47.49 47.48 46.88 49.71 51.40 50.16 50.16 49.79 45.38 45.94 47.32 44.23 41.09 39.47 39.50 43.51 46.90 49.40 47.69 40.09 45.77 47.85 48.65 48.12 49.56 51.26 57.09 59.69
57.32 55.38 53.84 53.34 53.16 52.50 52.21 52.04 52.02 52.20 52.36 53.25 45.59 42.07 36.96 49.45 44.25 46.03 46.24 44.84 47.65 49.27 50.00 50.15 47.60 43.70 45.00 40.20 38.67 38.65 32.18 37.12 38.98 45.78 45.96 45.06 41.94 45.53 47.13 47.77 46.79 47.38 47.77 50.15 52.25
57.17 54.19 53.11 52.88 51.79 51.33 50.97 51.25 51.63 50.84 49.33 50.07 47.43 37.25 39.87 39.14 44.01 46.39 47.75 47.63 45.02 45.53 43.99 43.91 42.21 39.22 39.48 39.47 31.55 33.20 32.29 37.01 37.39 42.44 44.26 41.99 41.26 45.17 46.44 46.00 46.12 46.44 47.64 47.33 49.39
55.69 53.39 53.18 51.95 51.09 51.07 47.10 44.25 40.97 38.52 41.05 37.49 38.17 37.38 39.94 45.64 47.75 45.01 47.67 44.42 44.49 42.16 35.96 40.02 36.46 31.06 37.03 37.76 38.41 37.72 36.30 35.65 39.55 44.13 42.01 40.75 42.62 44.00 46.54 44.31 44.23 44.74 45.28 47.16 49.06
54.71 53.37 52.60 51.58 50.86 50.31 45.84 40.31 40.54 41.35 34.78 42.04 41.21 40.05 42.47 44.91 39.78 44.33 46.28 40.60 39.21 35.05 38.02 35.72 33.93 37.41 39.29 39.52 38.88 38.46 36.07 35.91 40.96 43.82 41.77 40.57 40.87 44.68 46.29 45.20 43.95 44.39 44.83 45.23 47.06
53.97 53.10 51.91 50.86 50.08 46.09 42.63 43.29 46.63 44.51 34.99 38.75 40.85 40.15 42.06 44.15 39.35 41.15 43.57 41.22 37.62 35.52 35.44 31.99 35.40 39.82 38.61 36.28 36.29 37.43 34.91 35.37 36.58 41.17 43.08 40.95 38.54 41.12 45.26 44.81 44.47 45.33 45.09 45.82 46.95
53.71 52.69 51.54 50.45 44.83 43.87 41.80 46.48 46.69 44.02 20.41 29.59 36.83 40.68 43.91 44.23 39.31 46.56 46.13 42.01 38.34 34.81 34.99 35.67 39.64 38.65 36.09 33.37 38.55 33.43 39.75 39.20 39.17 35.98 31.31 40.91 29.81 35.63 41.64 41.95 43.07 43.19 43.66 45.22 46.27
53.30 52.20 51.25 50.45 43.67 42.38 44.47 46.61 45.38 38.15 6.71 30.58 35.42 44.89 44.63 40.12 40.52 42.24 47.12 43.05 35.92 36.96 37.45 34.93 36.24 36.35 34.62 36.44 40.46 36.70 42.48 39.97 39.51 36.88 36.33 35.98 33.01 33.14 37.55 37.84 41.18 42.67 43.91 44.83 46.08
52.76 51.68 50.97 48.12 44.69 45.95 46.02 45.35 41.05 21.04 6.63 24.15 36.73 35.86 37.49 39.67 39.58 40.98 41.89 45.12 44.28 39.14 39.92 38.82 42.66 39.73 38.94 41.62 41.31 41.97 39.60 38.80 38.27 36.14 29.65 34.72 33.54 29.70 33.32 36.80 40.16 42.74 43.27 44.84 45.58
52.13 51.33 49.48 47.52 41.99 46.25 45.26 40.33 21.59 12.43 28.17 25.69 31.04 34.90 35.90 35.39 37.46 38.82 37.79 37.67 35.01 30.59 31.42 36.19 36.41 40.42 42.74 37.31 40.22 39.65 34.44 28.25 26.10 27.38 26.76 34.42 32.81 33.16 34.96 36.46 38.81 39.55 38.16 38.34 39.54
51.52 50.92 49.65 47.97 46.84 45.40 42.08 31.85 11.97 23.74 24.81 33.55 33.86 34.05 31.08 34.66 34.16 35.61 35.34 34.53 38.32 36.07 33.07 30.82 28.25 35.92 41.14 37.12 35.70 35.90 32.35 26.87 21.64 23.55 25.49 32.38 28.32 30.67 34.53 35.64 37.33 37.61 37.52 38.56 39.09
51.26 46.49 46.05 47.04 46.70 45.05 35.57 20.46 20.84 24.68 31.86 32.33 33.10 28.86 29.56 32.98 33.74 34.05 34.67 34.84 38.21 36.83 31.10 30.95 31.09 40.70 41.04 39.56 38.48 35.43 30.13 35.35 26.62 24.99 25.51 27.57 28.84 32.87 36.15 36.56 37.59 37.81 38.50 38.40 39.45
45.82 44.37 44.20 47.17 46.43 42.35 35.94 28.52 30.24 33.48 35.64 34.43 27.85 30.50 25.62 28.94 29.84 31.19 32.19 35.73 36.78 38.33 37.65 34.59 30.89 37.57 39.84 40.90 38.81 36.07 36.73 29.60 28.66 21.20 20.35 24.26 24.67 26.69 30.38 34.06 36.67 36.54 37.30 38.38 39.53
44.89 40.19 44.40 47.15 45.56 39.98 30.66 28.83 35.08 38.32 37.62 32.59 29.59 28.51 29.17 29.02 30.84 31.42 30.92 35.03 37.83 37.48 36.92 34.22 31.46 31.86 35.21 35.70 32.18 32.81 30.90 31.47 30.70 28.54 22.10 20.43 24.43 31.04 32.46 34.10 34.55 34.51 37.55 38.20 39.04
43.64 35.83 45.10 45.32 36.87 36.62 31.84 35.88 40.05 37.38 38.19 36.59 34.90 33.77 30.50 31.25 30.49 30.45 31.71 34.30 39.39 38.20 33.39 34.80 32.00 28.80 29.94 36.37 37.98 35.30 32.14 30.47 23.88 24.37 23.03 21.67 25.23 33.50 35.38 36.48 36.20 35.94 37.31 38.01 38.64
40.20 39.80 45.44 45.07 30.30 30.94 37.82 38.33 38.52 37.02 37.45 36.49 34.70 35.91 35.76 31.83 30.24 34.57 34.58 39.47 40.52 37.35 33.74 35.21 27.89 19.48 23.77 29.63 35.04 34.11 34.74 33.69 31.69 28.52 23.78 19.21 23.77 35.68 35.25 35.85 37.04 37.19 37.43 38.09 39.05
40.12 34.48 40.33 42.27 37.69 34.57 36.50 35.79 35.39 39.95 38.54 39.11 36.41 36.66 34.24 32.46 34.19 34.03 34.54 39.70 40.01 38.89 43.53 39.22 30.07 25.61 21.12 25.12 31.18 29.35 33.20 33.23 30.19 22.45 25.73 26.29 27.03 31.70 34.21 35.35 36.50 36.75 37.59 37.80 37.84
38.81 34.25 38.37 32.93 34.47 36.19 36.30 37.89 35.37 34.74 37.43 38.81 35.39 35.61 33.28 29.11 31.63 34.14 37.97 36.93 38.82 40.82 37.47 34.66 26.44 26.36 30.22 32.38 32.13 31.24 32.44 33.53 29.59 31.71 26.74 29.47 29.61 32.45 34.33 34.64 34.93 35.55 35.49 34.98 35.33
38.16 34.18 36.32 34.45 34.49 35.52 36.69 34.86 36.11 35.70 35.25 34.20 34.32 35.53 34.49 31.59 31.56 31.32 37.10 34.20 32.20 36.16 34.08 34.12 24.92 27.54 24.00 29.87 30.23 29.52 31.30 32.73 32.86 31.90 31.64 32.03 30.61 35.26 35.42 35.65 34.16 33.20 33.66 33.55 34.32
41.72 38.27 36.22 36.57 32.17 33.74 33.80 34.88 35.98 37.23 36.79 37.79 37.42 35.28 33.85 34.44 35.52 35.30 36.63 37.31 35.94 33.58 32.66 31.25 27.76 23.07 21.27 26.45 27.47 23.86 26.69 29.95 31.57 32.02 32.02 29.69 32.22 34.87 31.48 33.04 33.44 32.29 33.19 33.08 33.95

GFSSW_sfc_wetblb_072.txt.gz
Wetbulb
59.24 58.84 58.50 58.19 57.41 57.42 57.19 56.16 55.69 55.18 55.27 56.33 55.23 55.51 54.35 54.34 54.52 49.32 44.68 49.01 51.69 57.26 57.23 51.97 50.36 49.09 50.06 48.93 51.02 50.46 41.85 38.33 40.71 41.31 41.65 46.47 46.28 49.30 52.35 52.31 53.72 55.00 54.95 59.62 61.46
59.88 59.19 58.91 58.22 57.71 56.91 56.71 56.11 55.47 54.96 54.61 55.10 55.17 55.63 54.23 53.96 48.72 45.73 51.82 55.73 57.89 57.73 52.76 49.10 45.95 46.90 44.48 45.49 46.96 43.99 40.17 40.01 44.31 44.03 43.44 47.01 47.12 48.50 51.70 53.03 55.19 53.60 58.42 60.40 59.77
60.77 59.44 59.08 58.14 57.21 56.19 56.03 55.67 54.99 54.30 54.17 54.98 54.91 55.06 53.77 52.32 43.48 41.99 55.18 55.94 55.95 55.90 51.70 49.36 48.61 46.32 42.08 43.61 44.21 43.24 38.88 43.71 45.81 47.57 47.90 47.24 47.85 50.10 51.23 50.48 54.90 52.55 56.26 58.49 58.36
61.98 59.93 58.76 57.97 57.34 56.01 55.27 55.30 55.10 54.10 53.48 55.07 54.33 54.28 53.40 48.13 27.98 47.14 55.38 54.77 55.02 54.24 51.18 47.79 45.82 42.39 40.07 38.78 43.46 40.18 43.77 45.58 47.08 49.02 49.91 47.89 50.03 48.29 52.16 51.66 56.29 57.15 59.12 59.76 58.19
62.92 60.16 58.13 57.79 57.11 55.76 54.72 54.70 54.60 53.73 53.11 54.45 54.43 53.09 47.83 41.55 41.24 49.80 55.65 52.90 53.00 52.19 47.86 45.35 42.83 42.19 37.83 39.27 41.74 41.57 42.77 45.99 48.62 49.80 50.77 50.88 48.92 47.61 48.10 54.24 59.20 59.88 60.10 59.60 58.48
62.56 59.87 57.44 57.56 56.20 55.03 54.23 53.63 54.35 53.04 52.40 53.43 53.96 51.94 43.56 34.68 45.67 48.99 50.08 49.56 48.88 48.58 46.87 46.07 43.60 45.95 40.21 40.54 40.46 42.42 43.22 44.98 48.27 48.36 50.43 48.47 47.84 46.72 48.72 53.03 59.23 58.85 59.19 60.04 59.54
62.01 59.96 57.34 56.29 55.49 54.45 54.02 53.12 52.78 52.98 52.01 52.71 53.49 48.96 41.90 37.60 45.80 47.53 48.11 47.05 48.26 48.24 45.22 47.10 47.14 44.10 43.70 40.78 44.00 43.16 40.53 43.26 46.04 47.81 48.19 49.27 45.27 44.98 48.56 55.22 56.62 58.07 58.66 59.76 60.61
60.57 59.13 56.95 55.55 54.80 54.19 53.44 53.01 52.56 52.31 51.94 52.43 52.64 45.46 37.24 46.43 45.75 46.30 46.49 46.09 47.97 50.02 48.72 49.16 48.77 44.99 42.67 45.13 43.74 39.71 40.60 36.68 43.58 47.50 49.08 46.71 40.28 45.69 48.67 51.73 51.52 53.94 56.88 58.48 59.90
59.45 57.86 56.13 54.70 53.91 53.47 52.61 52.13 52.07 52.37 52.09 52.33 45.55 41.09 35.61 48.40 43.84 45.18 45.46 44.56 46.01 47.79 48.51 49.44 46.75 43.10 43.66 37.17 37.28 38.70 31.56 33.69 37.46 46.28 45.26 44.67 41.60 45.37 47.77 49.36 47.87 47.41 50.51 55.78 57.34
57.37 57.56 55.22 53.79 53.56 52.20 51.23 51.34 50.87 51.10 49.33 49.68 46.75 37.54 38.72 37.88 43.23 45.60 46.79 46.52 44.67 44.15 43.80 43.39 41.71 39.31 38.10 34.75 28.41 32.88 30.80 34.54 34.96 42.71 43.34 40.24 39.99 45.44 46.55 46.73 46.31 46.16 47.53 49.98 52.80
56.07 57.02 54.26 53.64 52.42 51.50 47.59 44.65 40.91 38.21 41.01 36.28 37.32 36.92 39.17 44.55 47.17 45.19 46.91 43.57 43.20 41.05 35.60 40.06 35.57 33.00 34.22 34.46 38.65 35.87 34.81 32.84 39.20 43.61 42.10 39.90 39.18 42.71 46.31 45.09 43.63 45.29 45.78 48.44 50.40
54.22 55.96 53.78 53.35 52.06 50.89 45.57 40.55 40.91 41.43 33.91 40.75 40.59 39.79 41.82 44.37 39.75 43.38 45.64 38.95 37.29 34.09 37.53 35.93 33.60 36.97 39.57 39.50 39.35 36.98 34.68 33.96 39.28 43.27 41.93 40.22 38.25 40.97 45.84 45.38 44.48 44.77 45.07 45.93 47.72
54.06 55.60 53.86 52.38 51.10 47.41 42.56 42.98 46.35 44.00 34.34 37.58 40.45 39.17 40.80 43.77 39.25 40.57 43.14 40.21 37.15 34.90 35.28 32.81 35.73 39.50 38.56 36.98 37.66 36.92 34.90 35.12 33.89 39.30 41.77 39.86 37.60 39.13 44.89 46.19 45.88 45.42 46.00 45.24 46.41
52.75 54.72 53.21 51.59 46.05 43.89 41.38 46.03 46.72 42.65 21.09 28.91 35.25 39.50 43.13 43.69 39.16 46.19 46.00 40.30 37.43 34.17 35.78 35.44 39.56 37.55 35.98 34.81 37.19 34.21 39.47 38.79 37.26 34.80 30.45 39.35 30.94 36.65 41.78 43.24 44.26 44.36 43.95 45.76 45.92
52.31 54.46 52.72 51.01 44.26 42.89 44.80 46.64 45.21 37.56 8.07 29.17 34.00 43.98 43.91 39.89 40.33 41.98 46.98 42.41 35.83 35.74 37.55 34.46 36.59 36.02 34.24 35.48 39.39 36.18 40.56 38.77 38.61 36.31 35.32 35.15 31.84 33.79 38.23 38.33 43.49 43.87 43.71 45.16 46.35
51.64 54.19 52.13 48.41 45.54 46.32 46.57 45.29 40.46 21.51 7.52 22.84 35.75 35.15 37.30 39.75 39.43 40.83 41.55 44.23 43.15 39.03 39.75 38.27 41.26 40.09 36.56 38.54 39.70 41.38 38.46 38.71 37.85 36.01 27.86 33.63 32.26 29.70 31.64 36.83 40.23 42.77 44.20 45.64 45.16
51.80 52.78 50.27 48.73 42.25 46.21 45.52 40.03 21.07 14.62 27.15 25.51 30.31 34.29 36.27 35.38 37.71 38.60 37.59 37.02 35.20 27.80 31.42 35.47 36.74 40.13 41.75 38.47 40.93 39.46 34.97 28.10 26.99 27.19 25.91 33.26 31.86 32.31 33.39 34.00 36.48 36.26 36.67 38.17 40.12
52.76 51.66 49.66 47.86 47.61 45.95 41.74 30.81 14.16 23.21 23.57 32.13 32.95 33.29 30.52 35.10 35.82 37.44 36.44 34.84 36.83 34.80 33.15 26.37 22.82 36.99 40.73 38.20 36.37 34.64 33.09 26.48 21.90 23.75 26.66 34.29 28.44 28.72 34.13 36.49 36.34 37.53 37.84 38.89 38.97
51.56 48.09 46.38 47.56 46.71 44.49 35.96 17.77 21.18 23.85 30.71 31.18 32.53 28.54 28.55 32.03 33.46 35.24 34.42 35.98 37.92 36.63 30.15 31.54 31.12 40.00 39.73 38.67 37.73 35.12 30.14 33.46 26.30 27.07 25.85 28.23 29.27 32.52 35.97 36.07 37.05 37.71 38.45 37.34 38.38
46.15 44.43 44.18 47.35 47.04 42.48 32.94 27.58 29.73 31.91 34.30 32.87 27.38 28.98 25.18 28.21 29.63 30.66 32.09 35.63 37.16 39.45 37.79 34.08 30.69 37.37 39.18 38.60 38.79 34.77 36.18 28.10 27.33 19.87 19.78 23.28 25.19 26.48 30.73 32.90 35.46 36.18 36.26 36.99 38.13
44.85 39.70 45.23 47.59 45.63 39.63 27.19 27.84 33.95 36.52 36.42 31.48 28.47 27.90 27.70 28.27 29.84 28.83 30.10 36.73 38.39 36.64 37.32 34.37 31.53 33.18 34.47 33.44 31.35 32.53 31.14 31.12 29.38 26.64 23.44 22.26 25.66 30.63 30.06 33.21 32.96 34.28 35.49 36.01 36.50
43.49 34.31 45.72 45.88 37.20 37.04 31.75 33.98 39.13 36.18 37.18 35.93 33.73 32.79 29.33 29.94 29.25 29.28 30.81 34.23 39.00 37.44 32.44 33.31 30.75 28.79 29.53 34.54 36.99 36.72 31.11 28.80 23.32 24.09 22.78 23.97 25.61 33.01 33.43 33.85 34.91 34.99 35.92 37.25 37.64
38.89 39.03 45.94 45.21 31.67 32.51 34.81 36.50 36.84 35.67 35.62 35.33 33.85 35.08 34.53 30.99 29.33 32.14 33.54 38.73 38.91 36.50 32.47 33.84 26.74 18.13 23.55 28.92 33.21 31.78 33.07 32.16 29.55 26.41 22.16 20.31 24.12 35.21 34.85 35.73 35.88 35.22 36.16 36.56 36.79
39.64 32.85 39.28 41.72 39.04 30.06 32.70 33.92 33.58 38.39 37.37 37.53 35.09 36.03 33.16 30.84 33.02 32.24 32.97 38.46 39.00 38.58 42.25 37.81 28.47 24.82 20.15 24.63 30.08 29.76 31.39 31.62 28.82 21.26 24.90 24.14 25.46 30.71 32.89 34.44 35.30 35.29 34.41 33.73 34.23
39.69 35.51 39.04 32.86 35.22 32.05 34.00 35.55 33.56 33.80 36.74 37.48 34.50 34.30 32.26 28.42 30.03 31.79 34.83 35.17 37.42 39.62 35.97 33.50 26.14 24.93 27.83 31.03 31.23 31.34 31.34 31.78 26.73 28.85 24.53 28.10 28.43 31.59 33.47 33.51 33.23 32.81 33.09 33.31 33.39
38.08 35.87 36.65 35.02 33.40 32.24 36.70 33.65 33.89 34.62 34.75 33.14 33.36 34.75 33.36 30.96 30.28 30.60 34.61 31.99 30.69 35.05 32.39 32.93 24.11 26.70 24.04 28.40 29.16 29.25 30.15 31.63 31.30 30.90 30.57 29.27 27.71 33.35 33.84 33.72 31.99 31.31 32.57 32.75 33.11
41.76 40.07 37.14 36.23 31.69 31.45 33.31 35.79 36.23 36.34 36.17 36.84 36.21 34.08 33.16 33.77 34.43 34.08 35.85 35.18 34.36 31.80 31.31 29.88 27.03 22.42 20.83 25.62 26.66 23.61 26.38 29.37 30.30 30.47 31.63 28.48 31.72 33.49 30.96 33.89 32.23 31.37 32.29 32.27 33.09

GFSSW_sfc_wetblb_075.txt.gz
Wetbulb
63.00 61.58 60.56 59.62 59.16 58.61 57.73 57.30 56.79 56.35 55.69 55.24 55.72 55.57 55.83 54.58 54.00 49.46 44.96 48.20 51.84 57.01 58.11 52.63 51.08 49.88 50.09 48.49 50.83 51.05 40.74 37.21 39.00 40.97 43.43 48.66 46.74 50.42 54.03 53.05 54.86 56.46 55.72 58.56 61.11
62.92 63.05 61.49 59.93 59.34 58.33 57.11 56.71 56.58 55.75 55.06 54.68 55.13 55.14 55.02 53.79 49.00 46.02 51.55 54.84 57.27 57.42 52.44 49.83 47.03 47.21 44.79 45.79 46.86 44.38 38.84 38.67 44.10 45.74 45.24 47.14 47.84 49.32 51.26 51.78 53.16 54.54 59.76 60.40 61.29
62.35 62.52 62.23 60.32 59.43 57.83 56.84 55.95 55.63 55.34 54.63 54.26 55.48 54.43 54.04 52.00 42.40 41.25 54.72 56.72 55.83 55.64 51.48 49.73 48.38 46.02 42.08 44.37 44.85 44.04 38.72 42.58 43.93 47.04 48.09 47.48 47.89 50.48 50.46 49.23 54.04 52.82 56.44 59.21 59.04
61.31 61.39 62.68 60.47 59.22 57.45 57.06 55.89 55.35 55.63 54.09 53.55 55.11 54.03 52.84 48.51 29.39 47.11 55.38 54.56 55.13 53.91 50.95 48.04 45.96 41.81 40.17 38.47 42.74 39.07 43.30 43.88 45.38 47.77 48.52 47.22 49.43 48.11 49.64 51.38 56.13 56.39 58.10 58.47 56.88
59.48 60.84 61.73 59.91 58.57 57.15 56.47 55.27 54.42 54.16 53.41 53.03 54.36 52.74 47.98 41.89 40.85 49.11 54.02 53.35 53.73 51.66 47.73 45.24 42.39 41.73 38.16 39.80 40.79 39.71 41.23 44.37 45.84 46.58 48.86 50.40 48.71 48.20 49.01 52.31 54.54 58.25 58.73 57.52 57.74
57.70 59.50 59.92 58.88 57.89 56.50 55.46 54.65 53.68 53.82 52.68 52.78 53.50 51.90 44.60 32.67 45.15 48.99 49.30 50.20 49.13 49.59 47.21 46.46 43.22 44.30 39.99 40.11 38.90 41.38 41.67 42.08 44.52 45.44 48.06 46.98 47.90 49.17 49.96 52.88 51.75 57.69 57.59 58.04 57.69
56.88 57.67 60.34 58.09 56.98 55.69 54.99 54.24 53.00 52.58 52.55 52.75 53.29 48.90 42.49 36.45 45.75 46.81 47.95 47.27 48.57 48.14 44.96 47.43 46.93 43.17 42.14 38.43 42.87 42.08 38.35 39.93 42.28 44.65 45.94 48.86 44.79 46.13 50.32 51.54 50.98 56.00 57.82 58.84 58.56
55.14 56.55 59.35 57.56 55.64 55.03 54.46 53.23 52.72 52.05 51.73 52.65 53.00 45.82 36.08 45.63 46.42 46.43 47.29 46.62 47.84 48.71 48.66 48.91 48.40 44.10 40.77 42.51 40.94 37.53 38.16 32.57 39.52 44.33 47.00 46.36 39.55 47.11 49.68 49.32 49.98 54.58 54.99 57.25 59.23
53.39 54.73 55.66 56.60 54.91 54.02 53.25 52.07 51.69 51.89 51.89 52.31 47.34 41.10 34.26 47.72 44.07 45.94 46.65 44.91 46.32 47.13 48.25 49.24 46.34 41.26 40.99 36.20 33.82 36.91 30.22 30.92 38.03 45.43 45.93 44.98 41.04 46.18 48.29 49.25 49.26 50.24 52.91 55.69 56.56
53.29 53.12 54.68 55.81 54.01 53.63 51.65 50.80 50.98 50.96 49.89 49.99 46.24 37.63 38.71 37.71 43.37 45.71 47.22 46.73 44.16 44.16 43.24 42.93 40.96 36.81 38.25 35.60 28.68 30.64 32.64 35.22 35.61 41.96 42.71 40.22 41.58 45.53 47.61 47.45 48.13 47.98 49.95 54.61 56.52
51.87 52.40 54.01 54.45 53.56 52.58 48.81 46.89 41.84 39.09 42.04 37.48 36.74 36.16 39.10 44.05 47.19 44.68 46.94 44.30 44.00 41.17 34.71 39.40 34.91 31.67 35.76 36.01 34.21 35.30 34.41 33.68 38.37 42.48 40.68 38.28 39.12 43.11 46.67 46.72 46.12 47.99 48.45 50.22 54.18
51.06 51.39 52.67 53.52 53.27 51.96 46.62 41.91 42.34 41.71 34.64 41.09 40.68 40.06 41.72 44.30 39.65 42.87 46.05 39.25 37.85 33.20 37.36 34.90 32.67 37.21 38.82 36.64 34.36 36.17 34.72 35.37 38.21 42.89 41.46 39.56 37.59 41.67 44.52 46.32 47.03 46.82 47.12 47.98 49.74
50.51 50.95 51.80 53.63 52.48 48.82 44.12 43.02 47.09 44.41 35.49 38.04 40.41 39.05 40.30 43.57 39.23 40.35 43.35 40.43 36.95 34.15 35.45 33.18 35.42 39.47 37.28 33.10 35.58 36.24 34.58 34.99 34.09 38.43 40.16 39.35 36.45 38.81 44.69 46.72 47.51 47.83 47.63 47.65 48.91
50.26 50.18 50.40 52.94 46.64 44.85 42.67 46.23 47.00 43.11 26.42 30.34 35.06 39.28 42.35 43.12 38.67 45.79 45.66 40.72 37.43 33.70 35.95 35.48 39.54 37.58 36.37 36.01 38.14 33.85 39.26 37.51 36.37 34.96 30.62 38.09 29.81 36.54 41.05 42.95 45.39 47.37 47.16 47.64 48.41
50.02 50.32 50.14 51.56 44.47 42.14 45.59 47.04 44.72 38.79 16.22 29.67 33.81 44.12 43.53 39.56 40.70 41.64 46.85 41.50 36.22 35.81 36.54 33.63 36.80 36.22 33.77 36.10 39.20 36.25 40.95 38.45 37.70 35.72 34.63 34.61 32.42 34.42 40.25 39.38 42.70 46.09 47.05 48.24 48.87
49.85 49.82 49.92 48.45 46.21 47.01 47.35 45.28 40.45 25.66 12.97 23.27 35.67 35.04 37.37 40.11 39.95 41.24 41.37 44.10 42.98 38.28 39.08 37.67 41.42 40.07 36.91 38.28 39.04 40.97 39.31 38.54 37.83 36.18 28.76 33.67 32.63 31.12 33.20 36.09 39.76 44.38 44.77 45.47 46.27
49.91 49.51 49.64 48.35 43.17 48.12 45.92 39.37 26.58 18.34 27.72 26.16 30.18 33.79 35.20 34.92 37.22 38.65 36.48 35.92 33.77 26.97 31.42 34.72 36.57 41.02 39.22 38.34 40.99 39.40 35.04 27.83 25.84 25.77 26.74 34.48 32.76 29.69 34.11 35.19 36.56 40.83 39.51 40.03 41.22
49.67 50.93 50.55 47.82 48.49 46.77 41.59 33.10 20.71 23.81 23.89 31.54 32.43 33.09 30.80 35.18 35.89 37.65 36.63 35.26 37.79 34.95 32.44 24.22 26.27 36.53 40.97 38.26 36.51 35.49 33.85 26.33 22.77 23.87 28.83 35.26 27.79 30.71 36.28 38.09 38.92 39.15 39.67 40.71 41.23
50.44 48.33 45.93 47.41 48.19 45.92 37.19 27.36 23.59 25.93 29.57 30.39 32.10 28.70 29.06 32.50 35.23 35.33 34.79 35.25 37.38 37.47 30.13 31.95 31.72 40.15 40.21 39.98 39.35 36.29 31.37 34.62 28.58 29.38 28.37 28.39 30.47 35.51 37.50 37.56 38.45 38.86 39.44 39.32 39.82
45.83 43.82 43.13 48.04 48.00 43.02 34.83 29.28 29.89 30.44 32.90 32.26 27.10 28.65 25.82 29.30 31.04 32.13 31.52 36.35 37.75 39.78 38.99 35.33 31.11 37.35 38.71 39.34 39.02 36.88 36.77 28.93 30.16 24.19 23.07 26.28 26.93 26.78 33.30 34.74 36.26 36.66 37.17 38.09 39.34
43.83 38.08 44.98 48.11 46.79 38.89 30.23 28.81 33.38 34.86 35.14 31.06 28.26 27.91 27.93 28.89 30.98 29.52 30.70 36.81 37.83 37.40 37.35 34.02 31.93 33.83 34.71 33.99 32.63 33.32 31.68 31.09 30.41 28.68 25.76 23.86 25.18 32.62 33.50 35.47 34.60 35.42 36.76 37.75 38.21
42.39 33.87 45.93 47.05 35.48 36.81 31.15 33.12 38.51 35.26 36.51 34.75 33.78 32.20 29.58 29.60 30.05 30.32 31.05 34.51 38.53 38.45 32.79 34.86 32.40 28.33 31.30 35.39 37.00 36.18 32.36 29.63 27.43 25.04 24.25 25.09 25.92 34.35 34.00 35.51 35.99 36.30 37.35 37.57 37.55
37.30 38.37 46.21 45.27 32.04 32.71 35.29 35.21 35.86 34.73 34.37 33.93 33.56 34.77 33.91 31.26 29.71 32.87 35.72 39.08 38.62 36.61 33.22 34.17 28.16 20.56 26.33 30.67 33.96 33.39 34.09 31.65 29.39 27.96 23.99 23.25 25.87 35.04 35.72 35.68 36.47 36.45 35.72 35.99 36.29
38.88 32.09 37.99 41.47 39.15 33.86 34.56 32.04 32.22 37.17 36.54 36.19 34.75 35.38 32.78 31.09 32.60 32.76 32.89 38.03 38.41 38.44 41.31 36.89 28.96 25.72 22.35 26.70 31.29 31.42 32.73 32.13 29.66 24.94 26.43 26.06 27.67 32.22 34.21 34.93 35.90 34.99 34.57 34.73 35.17
39.19 35.43 38.17 32.08 35.01 34.66 35.29 33.67 32.55 32.33 36.19 36.53 34.26 33.61 31.84 28.07 29.17 31.54 34.44 35.07 36.96 38.61 35.51 33.58 26.84 25.33 27.80 30.33 32.69 32.32 32.40 32.02 28.50 29.34 27.17 28.83 29.16 32.30 34.71 35.17 35.69 34.21 34.44 34.55 34.67
37.34 36.03 38.28 34.98 35.21 34.23 35.97 30.87 32.63 32.93 33.84 32.49 33.22 33.68 32.57 30.04 29.88 29.04 33.88 32.09 30.90 34.51 32.71 32.54 25.02 27.00 24.00 28.88 30.47 30.38 31.75 32.04 32.59 31.31 30.63 29.73 30.65 34.78 35.07 34.35 33.35 33.21 33.96 33.43 33.86
42.15 40.82 37.59 35.91 33.58 33.61 34.27 32.87 34.25 35.15 35.77 35.83 35.62 33.51 32.58 33.14 34.09 34.00 35.12 34.13 33.87 32.55 30.87 29.65 27.06 22.74 21.48 25.67 27.30 24.47 27.34 30.89 31.84 32.00 31.48 29.08 32.34 33.89 33.31 34.54 33.45 32.94 33.07 32.96 33.53

GFSSW_sfc_wetblb_078.txt.gz
Wetbulb
62.28 62.72 62.81 63.05 61.42 59.91 59.43 58.06 57.30 56.88 56.05 55.46 55.16 55.41 55.49 55.34 54.51 51.49 45.03 48.61 52.06 55.65 58.03 54.85 53.67 52.55 51.69 48.38 51.48 52.28 42.05 39.15 40.99 42.16 44.40 50.23 49.66 53.70 55.23 53.60 55.21 57.41 58.16 60.63 62.98
60.58 61.55 62.09 62.16 61.92 60.31 58.73 57.34 56.90 56.51 55.58 54.71 54.71 55.31 54.79 54.11 50.58 46.56 50.98 54.30 56.09 57.12 51.69 49.95 47.65 49.10 46.67 46.73 46.42 45.02 40.59 40.63 45.72 46.58 46.07 48.43 50.11 51.41 51.20 51.81 53.17 56.01 59.40 61.56 62.13
58.84 59.91 60.44 61.12 62.79 60.42 58.42 57.13 56.28 55.70 55.35 54.15 54.63 54.99 53.93 53.05 44.25 43.35 55.22 56.31 56.97 55.65 52.44 50.92 49.80 47.19 43.50 45.12 44.87 43.23 39.26 44.15 45.60 47.58 48.70 48.00 49.36 51.80 50.19 48.68 53.08 53.82 57.44 60.75 61.04
57.05 58.01 59.58 60.79 61.67 60.32 58.30 57.32 56.15 55.15 55.34 53.47 53.24 54.35 52.77 49.16 33.94 49.27 55.95 54.89 57.74 54.64 51.17 48.52 47.03 43.13 41.09 39.90 44.73 39.84 43.58 43.74 45.57 47.65 47.34 47.23 50.39 49.83 50.92 51.28 55.34 56.94 58.22 60.54 60.02
55.37 56.31 58.31 58.28 60.93 59.98 57.93 57.02 54.83 54.15 54.25 52.75 52.75 52.99 49.43 42.93 42.30 50.74 53.94 54.81 54.68 52.24 47.26 45.02 43.27 42.61 38.80 40.63 42.32 40.59 42.39 44.79 45.44 46.63 47.56 49.34 48.41 49.03 50.44 53.44 54.77 56.23 57.37 60.14 60.06
53.89 54.42 57.09 57.53 61.07 58.95 57.20 55.64 54.00 53.11 53.53 52.51 52.29 52.71 46.26 38.17 48.07 51.51 51.40 52.55 51.41 50.27 47.62 47.01 43.60 44.79 41.48 40.59 39.56 42.61 42.93 43.22 44.64 45.45 46.99 45.85 47.91 49.71 50.96 53.40 53.48 54.81 56.03 59.59 59.58
53.67 53.35 55.25 56.30 59.93 57.95 55.85 54.62 53.67 52.62 52.52 52.40 52.17 50.19 44.06 42.84 48.49 50.70 49.37 49.89 50.59 49.67 46.09 48.09 47.75 44.11 42.91 38.79 43.00 41.69 38.02 41.09 42.55 43.88 44.83 47.31 44.00 45.98 51.79 53.92 52.74 53.77 55.25 58.77 59.26
52.89 52.92 53.51 55.04 58.52 55.99 55.14 54.89 53.66 52.65 51.68 51.85 52.77 48.23 41.21 47.65 50.87 49.63 50.30 48.95 50.43 50.33 49.14 49.61 49.37 45.49 42.31 43.54 40.47 37.86 36.81 33.56 41.42 42.66 44.59 45.19 39.00 46.84 52.01 52.21 51.85 53.30 54.26 55.94 58.58
52.45 52.24 52.67 54.11 56.61 54.90 54.43 53.27 52.53 52.23 51.96 52.69 48.81 45.69 38.20 48.93 45.86 49.51 50.14 46.53 48.11 48.94 49.38 49.68 47.39 43.04 41.87 36.46 33.66 35.78 31.97 33.53 36.57 42.69 43.07 43.56 39.51 47.95 51.79 51.57 51.05 52.57 53.35 54.64 56.79
52.00 51.83 51.81 53.29 55.26 54.01 53.14 51.79 51.86 51.98 51.31 50.85 47.38 40.45 42.56 40.10 45.57 47.68 49.95 48.55 45.37 45.55 44.19 43.93 42.51 38.18 37.05 34.88 27.65 32.64 31.94 34.07 34.23 40.77 42.00 42.14 42.07 46.93 49.88 50.43 51.08 52.65 53.16 53.24 54.02
51.83 51.13 51.45 52.66 53.91 53.48 50.69 48.99 41.89 41.07 45.55 40.86 40.50 38.58 40.81 45.54 48.80 45.99 48.61 46.48 45.51 42.67 36.83 40.87 35.44 31.86 35.55 36.37 37.36 34.05 34.32 34.11 35.44 39.46 41.70 39.13 41.31 41.37 44.68 49.18 50.23 50.65 51.89 54.32 55.23
51.53 51.00 50.72 51.89 53.85 52.54 48.18 43.55 42.24 44.27 38.00 43.33 42.57 41.59 44.43 45.22 40.46 44.18 48.40 41.37 39.76 35.45 38.15 36.08 32.81 37.67 38.99 38.94 36.96 35.07 33.74 35.73 39.20 42.46 42.27 39.33 39.63 40.78 42.95 46.90 49.47 49.23 50.40 51.37 52.37
51.12 51.11 50.69 51.25 52.91 49.84 45.40 44.00 48.31 47.66 38.95 39.31 41.77 40.74 42.46 44.50 40.91 41.62 44.89 42.28 38.44 35.35 35.34 33.27 35.91 39.13 38.78 35.45 34.99 34.46 36.51 35.98 35.44 39.42 41.01 40.13 37.28 38.02 42.48 46.51 48.52 48.27 49.86 49.51 50.70
50.67 50.85 50.23 50.46 48.20 46.97 43.97 47.19 48.24 46.60 34.10 33.92 38.11 41.20 43.73 44.29 39.09 46.31 46.70 42.29 38.35 34.45 36.04 35.12 39.62 37.85 37.60 34.01 37.89 33.70 40.00 37.12 35.20 34.80 33.65 38.77 30.94 35.02 37.48 44.29 46.38 48.46 49.06 48.83 48.83
50.36 50.37 50.29 49.46 45.79 43.67 45.77 47.86 47.98 44.55 23.56 34.26 37.24 46.61 44.53 40.41 41.92 42.08 47.06 41.69 36.49 35.87 35.86 34.97 36.82 37.00 35.62 35.33 40.30 36.96 40.93 37.54 37.28 36.46 36.99 35.09 33.76 34.19 40.71 40.88 43.86 46.78 47.59 48.97 49.86
50.04 50.08 50.06 48.05 47.55 47.36 47.92 47.21 44.63 32.09 21.89 29.46 37.46 37.19 37.75 40.58 40.71 41.44 41.80 44.03 42.92 37.20 38.44 37.74 42.67 41.01 38.39 39.93 40.93 41.61 40.32 39.32 39.12 37.45 31.26 34.21 34.69 31.59 32.30 35.85 42.04 43.82 42.86 43.24 44.70
49.32 49.10 48.21 48.83 43.11 48.63 47.02 42.55 31.55 25.77 30.47 29.62 33.20 36.19 37.61 35.98 38.43 39.18 37.00 36.21 34.93 31.87 33.33 36.32 36.83 38.75 38.74 38.34 41.14 40.25 37.44 30.79 30.00 31.15 29.38 35.55 32.73 31.45 37.94 38.74 40.92 41.10 40.17 42.40 43.77
49.38 49.34 47.92 48.59 49.20 47.63 44.86 36.58 26.04 28.84 28.55 34.80 35.85 36.24 34.83 37.46 35.12 36.47 35.99 33.96 38.27 37.11 34.17 31.65 30.23 35.56 40.76 38.87 37.97 38.11 36.39 31.91 25.26 28.24 30.03 35.36 29.28 30.63 39.51 41.18 40.83 41.37 41.36 42.15 42.40
50.89 48.92 46.20 48.91 48.82 47.28 39.41 30.31 30.32 30.19 33.28 34.19 35.31 33.38 33.30 35.69 36.44 34.94 34.43 36.10 37.97 39.05 33.07 33.69 31.86 40.02 40.80 41.84 41.62 37.55 34.84 37.91 33.96 33.80 30.61 31.10 33.12 38.47 40.33 40.29 40.11 40.12 40.65 40.14 41.51
46.05 44.04 43.92 48.49 48.54 44.17 36.47 31.27 32.20 33.72 36.23 37.64 31.99 34.29 31.45 33.98 34.38 34.63 34.45 37.80 37.86 40.77 40.99 37.38 31.97 38.81 40.23 41.44 41.46 39.21 39.95 34.41 35.59 27.73 24.95 29.05 30.97 32.15 36.77 37.56 39.32 39.26 39.60 40.41 42.40
45.14 37.25 44.96 48.61 47.26 39.19 32.02 32.77 35.31 37.24 38.46 35.46 33.82 33.19 34.40 33.84 35.53 33.99 34.06 37.61 40.06 39.93 41.14 38.71 36.31 35.49 39.40 37.29 36.18 37.41 36.89 35.66 35.93 32.94 29.84 27.35 29.65 38.84 38.98 40.01 39.17 39.76 40.85 40.94 40.21
42.60 33.83 44.93 47.92 35.15 36.49 34.39 35.73 39.02 38.25 40.38 38.54 38.45 36.39 35.67 36.03 35.45 35.20 34.99 37.39 42.01 41.28 37.09 39.49 37.82 32.91 34.80 39.30 39.87 39.58 37.20 36.04 34.60 28.84 30.72 33.23 30.57 39.02 40.71 41.16 41.24 40.48 40.07 39.70 39.42
37.67 38.14 46.48 46.15 32.16 33.70 37.36 37.10 38.53 37.63 37.73 37.88 36.99 38.69 38.39 36.57 34.18 37.18 37.80 41.88 42.45 40.88 38.56 39.41 35.65 32.09 33.55 37.42 39.35 37.91 37.58 36.37 35.54 36.10 29.85 31.19 30.81 38.49 40.66 40.72 41.51 40.72 40.57 40.44 40.46
40.28 32.60 37.41 39.81 40.35 36.73 35.71 35.34 35.07 40.32 39.18 39.44 38.20 39.69 38.05 36.67 39.03 36.67 37.50 40.91 42.04 41.80 40.82 40.60 35.42 32.01 30.75 31.89 36.37 35.52 36.61 37.45 36.74 34.36 33.32 32.91 32.43 36.20 38.47 39.41 40.59 40.17 40.46 40.68 40.51
40.02 35.36 38.06 33.62 36.03 36.74 36.87 36.70 35.13 35.12 40.16 40.23 38.24 38.30 37.38 34.66 36.06 36.19 38.61 39.21 40.86 40.73 40.17 39.83 33.05 32.60 33.93 34.78 36.32 36.24 36.18 36.91 34.96 34.76 33.87 34.27 35.39 37.94 40.11 41.06 41.70 40.49 39.59 39.59 39.55
38.06 37.54 39.16 38.12 38.58 35.60 37.31 36.01 35.74 36.67 37.81 37.01 36.99 37.61 39.17 35.82 36.70 35.55 38.07 38.35 37.37 40.78 38.44 39.00 34.13 32.98 32.86 34.79 36.28 34.36 36.27 37.02 36.77 35.85 35.87 36.23 35.34 41.78 42.39 42.07 39.49 39.47 38.68 38.09 38.36
43.59 43.02 41.10 36.94 36.82 36.11 36.56 37.47 37.41 39.39 39.51 39.50 39.88 39.13 37.65 37.61 40.69 41.22 42.20 40.62 39.62 38.68 36.41 36.25 35.03 33.47 29.82 32.03 33.38 32.26 32.22 35.17 36.16 36.92 36.49 34.94 36.93 40.03 39.06 39.90 39.52 38.96 38.84 38.18 37.87

GFSSW_sfc_wetblb_081.txt.gz
Wetbulb
59.51 60.27 61.20 61.64 61.92 62.42 60.95 60.13 58.52 57.45 56.79 55.87 55.35 55.10 55.96 55.51 55.04 53.53 48.45 50.80 52.09 54.78 57.14 55.27 54.29 52.87 52.47 49.22 50.34 51.67 41.21 38.70 40.62 41.82 43.83 48.84 48.04 52.18 54.26 52.64 54.50 55.78 55.30 57.99 63.94
57.27 58.20 59.19 60.22 61.24 61.37 61.73 60.21 58.01 56.89 56.48 55.27 54.50 54.76 54.90 54.51 51.97 48.76 53.51 53.03 54.75 57.44 54.13 51.32 49.03 50.23 47.25 47.61 47.36 44.82 40.47 40.31 45.19 46.23 45.37 47.79 48.19 49.54 50.35 51.22 52.50 54.14 57.18 59.31 63.87
55.68 56.72 57.18 58.50 60.04 59.92 61.80 59.51 57.45 56.13 55.81 55.26 53.72 54.79 53.99 54.02 47.01 45.53 56.78 54.76 57.00 55.77 52.45 51.20 50.13 48.10 44.76 46.20 45.60 44.03 38.44 43.22 45.04 46.87 47.92 47.31 47.76 50.29 49.29 48.29 51.99 52.25 54.83 58.22 62.17
54.65 55.12 56.00 56.95 59.08 58.95 61.03 59.26 57.39 55.91 55.49 55.02 53.18 54.25 53.40 51.61 37.24 50.32 56.53 56.64 57.39 53.80 50.90 48.39 47.05 43.93 41.74 40.83 45.26 40.25 43.99 44.95 44.70 45.95 46.81 46.29 49.23 47.73 49.35 50.33 53.89 55.34 56.40 58.14 60.22
54.51 54.09 54.58 55.34 57.18 57.93 60.84 59.00 57.41 55.41 55.17 54.22 52.96 53.72 51.25 45.70 45.42 53.76 53.81 55.28 55.37 51.81 47.95 45.74 43.51 43.30 39.44 41.16 42.45 40.66 42.25 44.23 45.85 46.67 45.69 47.20 46.44 47.16 48.65 52.70 54.10 55.51 55.17 57.36 58.68
53.07 53.95 53.11 54.66 55.07 56.84 59.93 58.15 55.76 54.45 54.75 53.78 53.26 53.64 48.82 40.29 49.88 51.32 51.80 52.03 52.07 50.57 47.99 47.37 44.47 45.33 41.91 41.08 40.24 42.36 42.13 42.75 44.44 43.71 45.87 43.94 45.08 47.06 49.50 52.43 52.72 53.99 54.17 55.36 56.98
52.98 53.13 53.03 53.04 53.71 55.96 58.42 55.55 54.87 53.74 54.25 53.46 52.98 51.93 45.84 44.91 50.08 51.56 50.88 50.51 51.54 50.24 46.81 48.56 48.07 43.98 43.83 38.84 43.58 42.08 37.37 40.01 41.49 42.64 41.95 45.15 41.97 42.97 49.14 51.85 51.88 51.94 54.26 55.10 56.63
52.43 52.49 52.42 52.60 53.70 55.52 55.86 55.40 54.54 53.37 52.86 52.55 53.04 50.24 43.03 50.05 51.04 48.78 49.36 48.19 50.56 51.18 49.58 49.98 49.16 45.49 42.04 43.09 41.49 37.66 37.72 31.71 40.35 42.50 43.85 43.03 36.96 44.65 48.95 50.17 50.57 52.46 53.20 53.41 55.85
52.36 52.37 52.42 52.04 53.44 55.85 55.05 54.85 53.79 52.83 52.38 53.31 50.07 47.50 41.48 49.94 45.42 48.91 50.80 47.02 48.48 49.47 49.69 49.48 47.42 42.71 42.45 36.49 33.03 35.65 30.12 33.29 36.55 43.00 42.03 41.10 38.88 45.32 49.55 48.89 49.81 51.82 53.19 53.79 56.07
52.37 52.18 52.12 51.83 53.60 54.67 54.18 53.06 52.38 52.00 51.46 51.61 48.91 42.81 44.04 41.73 46.85 47.74 50.07 48.69 46.27 45.78 44.40 44.06 41.56 37.38 37.18 34.34 25.96 30.94 32.60 33.94 34.65 40.43 41.09 39.50 40.09 46.02 48.83 50.09 49.46 50.80 52.55 53.50 55.57
51.83 51.74 51.82 51.69 51.89 54.21 51.65 49.38 42.33 41.68 45.01 42.49 43.01 41.06 41.91 46.49 49.12 46.67 49.25 47.50 46.81 42.98 36.47 41.14 34.57 32.42 36.12 37.48 36.94 34.78 33.86 33.25 36.81 41.25 39.57 38.60 40.60 43.55 46.02 47.41 49.37 50.70 51.95 54.08 55.22
51.37 51.38 51.61 51.72 51.47 52.67 50.40 42.36 42.37 44.84 39.06 45.31 43.54 43.35 45.09 46.56 41.50 45.07 49.21 41.89 40.95 35.74 39.86 36.32 32.42 38.20 39.35 38.65 36.92 34.61 33.49 34.10 37.56 40.73 39.87 39.00 40.19 43.80 45.20 44.75 47.01 49.78 51.38 53.61 54.35
50.83 51.00 51.14 51.13 51.67 50.15 45.99 44.81 49.06 47.94 40.91 40.96 43.70 41.97 43.28 45.36 41.39 42.56 46.31 43.10 38.51 36.29 36.50 34.05 36.92 39.85 37.91 36.61 35.98 35.08 32.38 34.11 34.26 39.36 41.19 40.43 37.35 40.31 44.57 45.59 47.52 50.11 51.19 53.34 54.30
50.43 50.57 50.65 50.63 47.60 47.18 43.99 47.61 48.94 49.60 36.20 36.49 39.01 42.12 44.32 45.07 39.56 47.22 46.95 43.09 39.58 35.75 37.30 36.11 39.87 38.07 37.47 34.07 35.28 31.38 38.36 36.87 36.67 37.28 33.27 40.66 30.99 36.59 39.78 41.68 45.98 47.79 49.58 49.74 51.05
50.26 50.32 50.47 50.00 46.85 43.03 47.60 49.39 48.19 46.36 26.45 37.70 38.69 47.50 45.18 41.14 41.93 42.86 47.27 42.88 37.15 36.94 36.61 35.47 36.72 37.51 36.51 35.72 39.97 36.44 40.61 38.87 37.01 36.22 35.52 35.89 34.37 34.31 37.05 39.41 44.43 46.78 48.28 48.96 49.86
49.97 49.87 49.91 48.56 48.20 48.24 48.91 47.80 45.62 32.77 25.44 31.57 38.47 38.03 38.11 40.41 41.38 42.54 42.42 44.31 43.76 38.22 38.06 37.00 43.42 41.10 39.26 41.19 41.76 41.60 38.84 38.41 38.08 37.56 31.02 34.78 34.40 32.18 33.96 35.16 37.81 43.52 43.92 45.82 47.35
49.45 49.52 48.58 49.05 43.03 50.61 47.91 42.66 32.21 28.70 32.83 30.42 33.58 37.73 37.33 36.33 38.53 38.41 37.10 36.91 35.50 32.23 31.06 37.21 37.29 39.07 40.06 37.32 40.59 40.51 36.53 31.18 31.16 31.09 28.92 35.02 33.50 32.88 36.44 38.10 38.10 41.13 42.67 44.48 46.23
49.20 49.42 48.14 48.01 49.85 49.48 44.75 34.54 28.47 31.94 29.61 36.45 37.40 37.92 34.59 37.46 35.45 37.45 36.66 34.80 38.87 37.43 34.88 32.44 30.83 36.48 40.92 39.60 38.25 38.95 36.76 31.09 26.18 28.59 29.09 35.20 28.52 32.07 38.27 40.98 41.18 41.07 42.23 42.46 43.28
51.29 46.65 45.08 47.53 48.89 48.36 37.92 30.62 31.80 31.94 33.93 35.57 37.33 33.64 33.93 37.59 37.01 36.15 36.33 36.25 38.33 39.80 34.36 33.31 32.23 40.07 41.96 42.91 41.81 38.36 35.49 40.12 35.07 36.26 31.16 31.78 33.83 38.14 39.43 38.65 40.05 39.91 40.46 40.57 42.09
45.39 44.04 43.19 49.17 49.26 44.14 34.68 32.69 32.55 35.75 39.00 39.46 33.47 36.24 32.81 35.26 35.54 36.37 36.51 38.99 38.30 41.51 41.78 37.19 32.82 39.31 41.57 42.86 43.02 39.45 41.30 35.14 37.48 28.12 25.61 30.02 32.10 32.74 37.55 37.07 39.04 39.36 39.43 40.52 41.48
45.63 38.67 45.60 49.77 47.13 38.07 32.84 33.97 34.67 38.95 41.31 37.69 36.00 35.17 36.71 35.85 37.51 36.25 34.68 38.50 40.81 41.28 41.89 39.53 37.21 36.23 41.05 38.51 36.93 38.85 37.23 37.95 37.48 34.48 30.69 27.71 30.16 40.61 39.49 40.92 40.43 40.92 41.50 40.82 40.81
43.88 32.90 45.82 47.18 34.79 36.20 34.82 37.00 40.09 39.68 42.05 40.10 40.00 38.96 37.97 38.02 36.61 36.96 35.63 38.38 43.37 42.80 38.66 40.96 38.90 34.05 35.71 41.06 41.84 41.08 38.05 38.32 34.50 31.75 34.78 34.72 31.15 41.69 42.49 42.56 42.05 40.73 40.06 40.10 40.63
38.10 36.21 44.16 45.90 33.74 35.11 38.58 37.95 40.34 39.43 39.76 39.53 38.49 40.16 41.09 38.60 35.51 38.72 39.45 43.05 43.88 42.21 40.11 40.97 37.76 33.54 34.75 38.83 42.16 39.02 40.05 40.36 38.99 39.19 32.28 32.90 31.83 42.44 42.95 42.19 42.75 41.13 41.15 41.22 41.55
41.38 33.45 38.30 39.48 41.28 38.07 36.78 36.70 36.74 42.42 41.10 41.41 40.21 41.93 40.43 39.05 41.56 38.42 39.12 42.09 43.44 43.03 41.26 42.87 38.00 34.56 31.77 33.47 38.11 36.52 38.37 39.85 39.06 35.03 34.88 34.42 34.03 38.39 40.59 41.06 41.91 41.90 42.15 41.95 42.04
42.05 36.81 38.98 35.17 38.06 39.75 39.48 38.73 36.92 37.05 41.74 42.59 39.84 40.03 39.15 36.75 38.74 37.93 40.37 41.30 42.91 42.04 42.14 42.51 34.32 35.27 36.79 37.91 38.41 37.83 37.68 38.37 36.08 37.49 34.19 36.06 36.23 38.99 41.44 42.31 42.99 42.93 42.41 41.98 41.50
40.71 40.06 41.80 38.01 38.87 39.30 38.57 37.80 37.23 38.83 39.85 38.65 38.52 40.39 41.39 38.11 39.80 37.29 39.60 40.27 39.25 42.79 40.89 42.13 35.72 35.63 35.37 37.27 38.02 35.36 37.93 38.80 38.23 38.46 37.80 38.10 37.18 43.56 44.70 45.27 42.60 42.31 41.59 40.87 40.59
46.90 46.52 44.00 38.63 39.37 38.44 38.28 38.37 38.84 41.21 41.35 42.64 41.99 40.95 39.16 40.36 43.61 44.13 44.24 43.38 41.96 40.64 39.64 39.35 37.39 36.28 31.48 35.43 35.27 33.06 33.70 36.39 37.72 39.15 38.35 35.86 38.87 43.36 41.79 42.07 42.11 42.25 41.64 40.88 40.61

GFSSW_sfc_wetblb_084.txt.gz
Wetbulb
56.26 56.71 57.55 58.45 59.08 60.16 61.46 61.84 61.10 59.44 58.13 57.30 56.09 55.25 55.01 55.75 55.60 52.93 48.84 52.20 53.08 55.90 55.87 54.65 54.09 52.37 52.13 48.34 48.85 49.08 39.41 36.06 38.09 38.84 41.07 46.48 44.86 48.37 50.15 48.90 51.01 51.63 51.68 53.69 63.84
55.35 55.95 56.28 56.66 57.71 58.82 60.47 60.28 61.59 59.10 57.84 56.95 55.38 54.58 55.34 55.39 51.39 48.69 54.46 55.87 54.67 55.90 53.89 51.39 48.18 49.95 46.20 46.14 46.23 41.88 37.16 37.96 42.89 43.26 42.23 45.15 45.21 46.26 46.11 47.03 48.01 49.81 53.50 56.17 62.99
54.51 55.22 55.02 55.59 55.82 57.63 59.46 59.40 61.15 58.36 57.53 56.60 55.19 54.85 55.31 54.30 47.01 47.90 55.27 55.69 57.01 57.20 53.13 51.24 50.12 47.73 43.27 45.46 43.90 42.58 36.65 41.21 42.24 43.85 45.18 44.10 44.38 47.13 45.64 44.07 47.86 49.07 51.26 53.10 60.87
53.86 53.92 54.96 54.82 54.62 56.35 56.85 58.36 60.21 57.93 56.58 56.63 54.99 54.71 55.00 51.73 37.38 52.15 58.75 57.97 58.37 54.40 50.49 48.01 46.32 42.70 40.55 39.02 44.37 38.39 42.11 42.73 43.46 45.06 44.29 41.98 44.78 43.93 46.04 46.42 50.26 50.63 53.10 54.41 54.89
53.56 53.43 54.06 53.82 54.05 54.08 54.91 57.37 59.67 57.71 56.17 56.42 54.38 54.65 51.07 45.46 45.09 55.37 57.29 57.66 55.27 51.43 47.34 45.02 42.27 41.55 37.63 39.50 40.77 38.57 40.64 42.78 43.86 44.10 43.81 45.21 43.10 42.34 44.11 48.38 50.90 52.17 52.39 53.43 55.20
53.69 53.56 52.99 53.28 53.31 53.66 55.65 56.45 59.42 56.68 55.60 54.82 53.92 54.24 48.11 39.22 50.29 53.35 53.10 52.68 51.61 50.05 47.25 46.48 43.48 44.84 40.39 39.35 37.99 40.46 40.30 40.33 41.63 41.61 42.78 41.59 41.87 43.61 44.14 48.58 49.34 50.72 50.99 52.79 52.98
53.56 53.33 52.67 53.01 53.28 53.86 55.05 57.54 56.96 55.33 55.66 54.64 53.85 51.55 46.03 43.70 50.53 51.09 50.74 49.61 51.16 49.81 45.93 48.04 47.31 43.28 42.43 37.96 42.30 40.74 36.04 38.70 39.48 40.00 39.13 42.25 38.18 39.43 45.15 46.94 46.97 49.34 50.52 51.30 53.45
53.07 52.76 52.85 53.12 53.15 53.55 55.96 56.61 55.29 54.44 54.76 54.26 53.88 50.08 42.12 50.91 51.01 49.14 49.39 47.69 49.55 50.34 48.94 49.45 48.64 44.28 41.08 42.59 39.56 35.74 36.03 29.74 37.47 39.71 40.60 39.70 31.79 41.34 45.54 45.50 44.75 47.34 50.29 50.77 52.81
52.91 52.66 52.50 52.75 52.67 54.64 56.32 55.37 54.59 53.95 53.32 53.22 49.44 46.51 41.58 49.65 44.11 47.57 47.89 45.71 48.12 48.68 49.02 48.86 46.64 41.21 41.18 35.52 32.08 33.94 27.31 29.57 33.70 41.02 40.61 38.21 33.50 40.62 44.87 45.33 44.14 46.14 48.38 50.77 51.77
52.31 52.13 52.19 52.25 52.32 52.33 55.11 54.35 53.36 52.39 51.42 51.31 48.79 41.76 44.70 41.29 46.53 48.12 50.07 48.32 45.18 45.76 43.82 43.08 41.56 36.35 36.65 33.17 23.77 25.51 29.22 32.83 32.84 38.28 39.92 37.22 36.01 40.80 44.35 46.98 45.94 45.21 48.64 49.63 51.02
51.83 51.70 51.62 51.71 51.94 52.17 51.31 48.33 43.35 42.04 45.95 41.64 41.86 41.06 42.60 46.46 48.52 46.10 48.98 47.01 45.79 42.08 35.23 40.34 34.54 29.84 33.02 34.69 34.54 32.80 31.42 30.86 34.39 38.60 37.67 36.68 37.33 38.92 43.83 44.84 44.68 46.09 46.92 47.86 50.01
51.49 51.38 51.27 51.53 51.48 51.49 50.77 42.63 43.16 44.96 38.87 44.58 44.40 43.68 45.58 46.99 42.00 45.03 49.18 41.45 40.50 34.53 37.98 35.79 32.26 35.93 37.76 37.75 35.87 34.04 31.87 31.39 35.97 38.95 38.21 36.75 36.09 40.19 42.76 43.13 43.33 46.18 47.37 51.05 52.99
51.10 51.08 50.96 51.12 50.91 50.62 46.90 45.38 49.43 48.02 39.26 41.12 43.82 42.11 42.84 44.81 41.48 42.48 45.65 43.10 38.08 35.01 35.36 32.68 34.79 38.62 36.78 35.85 35.09 33.46 32.42 33.53 32.41 36.65 38.84 36.84 33.29 37.60 42.77 43.43 45.51 48.22 48.74 51.07 52.50
50.76 50.72 50.49 50.57 47.10 47.01 43.84 48.99 49.50 48.77 33.49 34.95 38.46 41.31 43.93 45.14 39.96 47.59 47.44 43.14 39.71 34.89 37.20 36.14 39.63 37.28 35.87 35.34 36.21 31.22 37.15 36.32 34.52 32.58 27.44 36.79 22.20 36.02 38.03 39.78 43.11 46.87 48.33 49.76 52.75
50.39 50.50 50.30 50.02 46.15 42.58 45.91 48.91 48.85 45.62 22.53 37.44 38.20 47.37 44.78 41.24 42.03 42.37 47.35 42.37 36.02 36.90 37.11 32.34 36.19 36.55 36.50 36.82 38.47 34.49 40.45 35.38 36.95 35.30 34.50 34.40 31.63 33.02 37.62 37.53 38.59 46.07 47.84 49.21 49.33
49.36 48.79 49.84 48.25 48.05 47.49 48.65 48.11 44.98 30.94 23.32 31.16 38.09 37.52 38.05 40.25 40.92 42.94 42.36 44.56 43.01 38.33 38.46 36.99 40.92 39.86 38.71 40.55 41.07 41.19 38.79 37.55 36.56 35.57 28.45 33.36 32.76 30.90 33.29 35.12 37.04 42.62 44.27 47.01 47.94
49.72 49.57 48.13 48.75 43.37 48.80 47.69 42.24 29.39 25.50 33.03 29.60 32.80 37.17 37.45 36.18 37.68 37.97 36.93 36.10 35.14 31.61 31.05 36.16 37.30 40.11 40.67 37.09 41.08 39.62 36.37 29.40 27.56 27.67 26.44 35.27 31.35 31.04 36.73 37.78 39.44 41.72 42.66 44.26 46.21
50.63 49.58 48.49 48.13 49.81 48.20 44.76 34.81 24.43 29.11 30.18 36.63 36.99 37.41 34.46 37.16 36.21 37.99 36.44 34.24 38.65 36.51 34.40 31.35 30.11 36.89 40.65 37.06 38.22 36.66 35.87 29.39 24.77 25.85 27.10 33.99 27.58 31.59 37.69 40.98 40.93 42.05 42.24 42.79 43.50
50.72 46.62 45.64 47.44 49.35 48.18 37.83 27.35 29.44 31.15 35.21 35.30 36.85 33.51 33.78 36.68 36.61 35.88 35.11 36.37 38.51 39.64 33.04 32.40 31.93 40.88 40.80 42.12 40.83 37.23 34.14 37.95 34.05 33.58 29.04 30.99 32.57 36.69 38.36 39.09 39.85 39.98 41.11 41.06 42.11
45.15 43.14 43.15 48.62 49.43 44.09 34.10 31.75 31.44 35.79 38.95 39.02 32.07 35.89 30.93 34.09 34.41 34.90 35.55 38.62 38.14 41.62 41.08 37.26 32.04 39.36 41.11 42.74 42.75 38.65 40.60 32.39 34.46 27.07 24.68 29.37 30.51 32.62 35.30 36.43 38.92 38.71 38.98 39.77 41.09
44.16 39.12 44.30 49.50 47.06 38.56 31.16 33.10 33.87 39.83 41.50 37.38 35.96 35.12 35.88 35.11 36.26 35.35 34.25 38.35 40.92 40.51 41.30 39.02 36.73 35.78 40.22 37.11 35.35 36.41 34.03 35.10 33.60 30.81 25.99 24.80 28.08 38.29 38.75 39.26 38.97 39.18 39.46 39.22 39.49
41.50 33.51 45.90 47.67 35.59 35.94 32.94 36.73 40.20 39.88 42.71 40.27 40.03 39.16 37.17 37.32 35.94 36.11 35.84 38.29 42.99 42.04 37.21 38.56 36.11 30.71 34.69 39.87 41.20 38.93 35.55 34.52 28.00 27.32 29.69 28.00 26.44 39.64 39.18 40.08 39.27 37.89 38.28 38.94 39.84
37.40 36.99 45.66 45.65 32.95 33.41 37.90 38.46 40.63 39.71 39.84 39.96 38.46 40.30 40.24 37.96 34.32 37.58 38.36 42.37 43.56 41.64 37.23 38.47 33.15 28.25 27.87 34.38 38.71 36.49 37.45 37.75 36.91 34.72 27.51 25.22 25.44 39.34 38.75 37.92 38.52 36.60 37.43 38.00 39.40
40.69 32.74 39.34 41.30 41.72 36.64 36.11 36.86 36.79 42.70 41.19 41.88 40.25 41.32 39.85 38.50 40.03 37.56 37.59 41.73 42.01 41.91 42.08 40.69 34.51 30.16 25.34 28.42 34.86 32.22 35.51 36.76 34.52 26.59 28.17 28.46 30.08 34.57 36.72 37.05 37.32 37.12 37.68 37.99 38.61
42.27 37.08 39.44 34.72 37.91 38.66 38.63 39.09 37.31 36.94 41.61 42.05 39.26 39.83 38.81 36.40 37.01 36.37 38.81 39.60 41.42 42.54 39.87 39.16 29.79 30.15 33.77 36.29 36.13 35.15 35.07 35.47 32.41 32.88 27.79 31.13 32.23 35.50 37.32 37.25 37.60 38.04 38.38 38.45 38.36
40.15 39.25 41.11 38.21 39.14 37.95 38.05 37.53 37.54 38.55 39.33 38.25 38.11 40.18 40.31 36.71 37.60 35.33 37.95 37.41 36.06 38.89 37.32 39.45 29.64 30.87 27.74 35.44 35.17 31.30 34.35 35.87 35.79 35.64 34.69 34.91 33.32 39.32 39.78 40.01 38.19 37.33 38.68 38.37 38.25
45.77 45.85 42.20 39.68 38.61 36.65 36.73 38.36 38.99 40.86 40.73 41.59 40.92 39.26 37.17 38.60 40.99 39.82 40.49 39.72 37.67 36.58 36.45 35.97 32.26 28.69 25.06 32.08 31.86 26.46 30.74 33.17 35.26 36.17 34.74 31.57 34.28 38.95 38.51 39.78 38.59 37.87 38.88 38.17 38.04

GFSSW_sfc_wetblb_087.txt.gz
Wetbulb
55.36 55.76 55.95 55.91 56.45 57.53 58.18 59.89 61.11 61.58 60.27 58.96 58.04 56.52 55.27 55.52 55.93 52.90 48.03 51.45 53.47 56.65 56.18 53.66 53.55 51.77 50.41 45.82 46.62 44.80 37.19 33.37 35.76 37.22 39.01 44.16 42.56 46.20 47.05 43.93 46.13 47.08 48.15 55.97 62.12
54.56 54.63 55.32 55.55 55.11 55.71 56.07 58.48 60.19 60.50 60.31 58.70 57.33 55.51 54.91 55.43 51.38 48.17 55.00 57.72 58.08 56.73 53.12 50.52 48.78 48.84 43.33 43.82 43.56 38.59 33.40 35.48 40.89 40.62 39.81 42.38 42.27 42.11 42.72 43.57 44.27 46.42 50.84 61.51 61.79
54.63 54.07 54.25 54.23 55.06 54.57 55.77 56.53 57.58 59.54 59.52 58.45 56.93 55.33 55.62 54.44 46.54 46.03 55.95 57.42 56.13 56.68 55.15 50.61 49.80 47.44 41.52 42.09 41.50 40.16 34.75 39.41 40.98 42.61 43.65 42.14 41.89 43.58 41.35 40.35 44.01 44.03 47.44 56.06 59.82
54.88 54.05 54.33 53.79 53.73 54.28 54.11 54.84 55.88 58.63 59.27 58.13 56.71 55.38 55.24 51.03 36.61 51.48 56.57 56.67 58.05 55.71 51.47 47.94 45.60 40.75 38.14 36.50 42.03 36.86 41.27 41.81 42.15 43.44 42.54 40.85 43.14 41.21 42.58 41.65 46.01 47.51 49.09 51.26 57.37
54.44 54.44 54.13 53.70 53.56 53.35 53.50 54.52 56.29 58.06 58.43 57.58 56.20 55.27 51.00 44.64 44.10 55.94 59.05 58.74 54.70 52.11 47.72 44.52 40.43 39.27 35.47 36.68 38.59 36.05 39.35 41.80 42.53 41.83 41.57 42.70 40.59 40.48 41.58 45.29 46.33 47.65 49.41 51.16 53.72
54.13 53.84 53.62 53.36 53.43 53.67 53.79 54.51 56.41 57.76 57.69 57.13 55.40 54.89 47.41 39.15 52.65 55.58 54.33 55.18 52.45 49.67 46.37 44.63 41.66 43.47 38.58 37.45 35.79 38.68 38.96 39.06 40.40 40.02 40.50 38.82 38.98 40.41 41.82 45.05 45.77 46.59 46.94 48.36 51.82
53.69 53.28 53.28 53.09 53.31 53.57 54.01 56.20 56.03 58.05 57.19 55.73 55.19 51.42 45.34 43.03 49.45 52.18 51.32 50.08 50.45 49.42 45.45 46.81 45.75 41.30 40.39 35.86 39.81 39.18 34.31 36.79 37.38 39.34 38.53 40.34 35.07 35.89 41.91 44.20 44.15 45.55 46.35 47.72 49.40
53.07 53.02 52.76 52.90 53.02 53.14 53.31 57.18 58.17 56.34 56.14 55.33 55.07 49.63 40.81 50.53 47.60 48.68 48.38 47.42 48.51 49.12 48.12 47.67 47.04 42.73 38.74 40.38 37.93 34.05 33.56 26.90 36.22 38.71 39.83 37.76 29.21 37.08 41.82 42.06 41.83 43.76 45.95 46.87 48.74
52.44 52.55 52.33 52.45 52.52 52.96 54.09 55.77 55.37 55.79 55.56 54.49 49.62 46.32 39.82 49.52 44.81 46.83 46.27 44.94 45.81 46.91 47.86 48.46 46.35 39.20 39.49 33.81 28.53 31.08 19.86 27.19 31.26 39.43 38.87 37.85 32.29 37.85 41.27 41.83 41.73 42.95 44.29 45.54 47.73
51.97 52.10 51.98 51.85 51.98 52.75 54.39 55.01 54.36 52.88 51.68 51.15 49.11 41.07 43.63 40.42 44.74 45.72 46.62 47.72 44.64 44.16 44.04 42.14 38.62 35.44 35.45 29.83 17.53 19.37 20.74 28.98 29.50 36.41 37.78 36.53 34.67 39.20 40.80 41.59 40.43 40.95 42.85 44.41 47.04
51.56 51.55 51.43 51.35 51.54 51.53 49.18 48.33 43.30 41.69 46.07 42.21 41.36 41.26 43.03 46.00 47.73 45.96 48.30 46.00 45.04 41.80 33.43 38.95 32.67 29.24 30.41 32.74 32.68 30.16 28.84 27.75 31.91 36.66 36.27 35.16 36.30 38.01 39.99 40.70 41.31 42.78 42.98 45.71 48.66
51.10 50.99 50.92 50.93 51.29 51.24 49.42 43.19 43.39 44.72 38.32 45.18 44.83 43.59 45.14 46.32 40.89 44.43 48.87 41.29 39.43 32.62 36.02 34.59 29.86 34.22 35.91 35.37 33.84 33.63 31.60 29.88 33.32 37.02 37.42 36.14 35.56 38.62 40.12 40.62 42.96 43.67 44.75 46.78 50.12
51.07 50.86 50.42 50.43 50.71 48.53 46.07 45.59 49.33 48.06 38.41 41.16 43.86 42.41 42.40 44.52 41.61 41.89 45.27 42.26 36.55 33.50 33.42 29.23 32.63 37.85 35.76 34.14 33.09 32.71 32.19 30.79 30.76 35.80 37.50 35.43 33.40 35.07 39.22 42.06 43.82 45.29 47.01 48.06 50.48
50.48 50.42 49.93 50.09 45.44 45.63 43.72 48.85 48.63 48.27 32.69 35.12 38.24 41.08 43.50 44.20 40.28 47.31 46.87 42.16 38.26 33.72 35.73 33.78 38.48 36.77 35.39 33.58 35.34 31.61 37.42 36.30 34.76 33.87 25.75 34.78 18.08 30.92 36.23 38.18 40.51 44.87 45.03 47.06 51.54
50.25 49.52 49.63 49.32 44.73 42.20 45.30 49.05 49.02 44.36 19.64 35.89 37.82 46.86 44.27 40.99 41.61 42.39 46.04 41.16 34.76 35.50 35.98 28.86 34.38 34.70 34.68 36.24 38.41 34.72 38.93 37.29 35.39 33.38 33.85 29.34 30.49 32.65 37.72 35.31 36.98 43.18 46.47 47.32 48.89
50.06 49.38 49.43 46.44 45.09 46.16 48.16 47.41 44.44 27.96 18.70 31.41 38.13 37.47 37.25 40.38 40.92 42.86 41.85 43.16 41.86 36.82 36.91 35.57 40.20 38.07 38.38 39.63 40.01 40.90 38.69 36.78 36.76 35.14 26.16 27.63 30.66 30.19 33.05 35.39 38.12 42.66 45.35 47.23 48.33
50.00 49.23 47.27 47.77 41.06 47.38 45.79 40.39 21.90 16.89 32.11 30.03 32.52 36.73 36.65 35.98 36.98 37.08 36.52 34.41 32.75 31.23 29.91 33.75 36.56 40.23 40.67 36.13 40.54 38.88 34.33 28.25 26.19 25.56 26.67 33.95 29.57 30.59 36.70 38.25 39.62 41.62 42.41 44.08 45.08
50.37 49.36 47.50 47.67 48.44 45.93 41.91 29.87 21.21 28.99 28.64 35.53 35.88 36.32 33.75 37.13 36.34 36.94 34.64 30.79 36.52 34.72 32.37 29.54 22.38 36.90 40.70 37.08 36.70 37.29 35.10 28.11 23.56 23.45 26.52 33.87 26.39 31.90 38.36 40.58 41.83 42.35 42.34 43.55 43.82
49.62 46.48 43.56 47.26 47.33 44.98 36.05 25.68 26.90 29.74 34.85 34.78 35.87 32.20 32.38 36.06 34.53 33.30 31.73 35.47 37.38 38.92 32.63 30.63 31.31 41.05 40.42 41.44 40.63 35.91 33.66 37.75 32.99 31.18 28.55 29.91 32.51 35.12 37.15 38.69 39.95 40.48 41.16 41.00 41.64
43.86 42.86 41.74 47.27 47.12 43.06 31.36 30.75 31.19 35.49 37.71 37.75 30.52 33.57 29.30 32.52 31.72 32.48 34.55 37.47 37.93 41.41 40.79 37.16 31.07 38.36 40.92 42.36 42.13 37.78 39.66 30.85 32.39 25.67 24.57 29.35 30.31 31.09 33.34 35.46 37.95 38.27 38.37 39.44 40.47
40.13 36.65 43.88 47.62 46.30 36.28 28.61 32.02 35.00 40.65 40.82 37.05 34.18 33.14 31.88 33.02 34.64 34.90 32.52 36.88 40.42 40.04 40.78 38.06 36.53 34.81 39.25 35.72 34.95 35.98 32.84 34.11 33.93 30.79 25.22 22.94 28.17 38.78 37.52 37.81 37.20 37.27 38.27 38.74 39.54
37.91 32.57 45.53 46.87 35.13 35.43 32.87 35.12 38.39 39.60 41.33 39.00 37.85 36.95 33.98 35.07 33.86 34.04 33.61 37.91 42.41 40.54 36.71 38.91 34.57 26.87 32.15 38.77 39.32 36.59 34.39 31.79 26.36 26.20 26.50 25.73 27.73 40.19 39.20 38.44 38.00 37.10 37.54 38.65 39.64
37.36 38.10 43.33 42.54 27.01 30.76 37.18 38.20 39.53 38.48 38.30 38.24 36.95 38.50 38.08 36.17 32.55 34.90 36.08 41.38 42.29 39.92 36.12 36.57 31.53 24.71 27.73 32.17 36.30 33.90 35.31 34.56 34.51 30.37 25.38 22.15 26.54 36.61 36.36 36.65 37.70 36.90 37.85 38.40 38.77
38.41 32.03 37.01 40.83 38.05 35.24 32.48 34.31 35.44 40.90 39.55 40.36 38.57 38.96 37.03 35.57 36.64 34.94 36.88 40.64 40.87 40.19 43.23 39.70 31.93 27.96 23.08 28.08 32.93 30.56 33.39 34.99 31.04 23.97 25.35 25.59 28.72 32.47 33.55 33.79 34.54 34.73 35.69 36.20 37.06
38.21 31.12 35.01 28.73 33.19 34.82 35.09 36.76 35.60 35.33 39.25 39.54 37.14 38.29 37.73 33.44 34.22 33.58 36.21 37.53 39.81 42.48 38.39 36.64 28.02 27.12 31.58 34.25 33.75 31.93 32.48 33.53 30.64 29.60 25.21 28.93 29.99 32.85 34.42 33.88 34.34 35.22 35.85 36.24 36.29
35.23 34.27 36.05 33.92 35.89 33.46 35.66 34.91 35.62 36.75 37.10 36.15 36.03 37.31 36.77 33.44 33.92 32.53 35.24 34.16 33.49 36.96 35.02 36.64 27.11 29.11 25.79 32.88 32.26 28.69 31.65 33.40 33.77 33.35 31.94 32.02 30.80 37.01 37.07 36.14 35.13 34.96 36.23 36.12 36.30
40.69 40.59 36.84 36.27 33.84 31.57 33.62 36.25 37.20 38.05 38.72 39.34 38.14 36.41 35.12 36.12 37.06 37.07 37.05 37.03 35.69 33.98 33.70 33.73 29.12 24.71 22.57 29.86 29.48 24.98 28.96 31.07 32.85 33.79 32.67 29.44 32.49 36.35 35.70 37.02 35.90 35.38 36.77 36.04 36.25

GFSSW_sfc_wetblb_090.txt.gz
Wetbulb
54.87 55.23 55.05 55.20 55.97 55.17 55.87 56.44 58.10 60.23 60.76 61.10 60.21 58.37 56.55 55.13 55.53 52.93 47.29 51.40 53.04 57.03 55.76 52.75 52.32 50.77 48.99 44.61 45.38 43.42 34.95 32.17 34.64 35.86 37.62 42.39 39.70 43.03 43.86 41.71 43.42 44.96 45.44 55.65 60.58
55.49 55.62 54.57 54.41 54.60 55.20 54.80 55.30 56.85 58.60 59.41 60.86 59.66 57.88 55.55 55.68 51.27 48.08 54.17 58.55 58.70 57.52 52.36 49.50 47.77 47.91 42.16 42.53 42.47 37.45 32.17 34.24 39.47 38.50 37.37 40.47 40.23 40.73 40.41 41.20 41.22 42.50 47.28 57.54 61.50
55.35 55.50 55.10 54.65 54.15 54.11 54.10 54.51 54.74 56.05 57.62 60.56 59.03 57.02 56.02 54.37 46.12 45.67 57.02 58.62 58.38 56.31 54.33 51.59 49.64 47.50 41.01 41.16 40.35 38.85 33.30 37.99 39.49 41.07 42.63 41.42 40.44 42.49 39.85 38.98 40.27 41.23 43.81 46.37 53.78
54.98 55.18 54.70 54.71 54.40 53.64 53.74 53.88 54.36 55.27 56.81 59.95 58.41 56.37 56.19 50.48 34.38 50.52 57.72 58.96 57.23 55.70 52.39 46.88 44.88 39.99 36.92 35.59 40.43 35.85 40.32 40.78 41.64 42.99 41.56 39.41 41.64 39.69 40.42 40.30 44.27 44.57 45.59 45.94 50.34
54.35 54.63 54.25 54.17 53.77 53.69 54.02 54.10 54.09 55.14 56.56 59.19 57.60 56.40 51.40 44.10 43.05 53.78 57.86 57.35 53.94 51.03 46.85 43.29 39.44 38.98 34.91 35.34 37.58 34.82 37.36 40.27 40.84 40.56 39.84 40.55 38.35 37.77 38.81 42.28 44.18 45.57 46.59 44.97 48.75
53.64 53.78 53.57 53.68 53.53 53.29 53.65 53.88 54.81 55.45 56.24 58.56 56.80 55.70 47.44 38.37 51.31 55.79 55.67 52.68 51.52 48.10 45.07 43.35 40.35 42.24 37.44 36.19 34.61 37.49 38.03 37.93 39.30 38.83 39.55 37.86 37.71 38.06 38.97 42.24 42.85 44.36 44.80 45.37 46.11
53.02 52.97 53.02 53.16 53.32 53.39 53.57 53.90 54.72 55.59 56.65 58.73 56.68 51.53 45.52 43.21 52.86 53.39 55.05 52.16 50.85 48.43 44.27 45.65 44.59 40.24 39.38 34.84 38.87 38.24 32.86 35.50 36.35 37.31 37.00 39.09 34.28 34.91 39.91 41.02 40.79 42.40 44.40 45.61 45.75
52.46 52.73 52.51 52.73 52.70 52.82 53.56 55.64 56.75 56.86 57.55 57.09 55.92 49.33 41.17 50.21 50.75 49.52 48.93 47.24 48.95 48.71 47.07 46.75 46.02 41.54 37.94 39.24 36.72 32.56 31.80 26.66 34.37 37.26 38.17 36.94 28.50 36.79 40.28 39.13 38.30 40.92 43.37 44.38 46.06
52.15 52.26 51.98 52.20 52.01 52.49 52.50 56.23 58.05 57.40 56.41 56.00 49.66 46.28 39.72 49.89 45.16 47.06 46.90 44.72 45.11 45.99 46.52 48.11 44.54 37.98 37.89 31.30 25.52 29.28 19.56 26.06 30.11 38.00 36.89 35.86 31.49 37.70 41.08 41.02 38.20 39.14 40.74 42.76 44.64
51.78 51.85 51.52 51.65 51.57 51.85 50.90 54.01 53.98 54.41 52.20 50.78 48.80 42.30 42.94 40.42 44.17 45.46 45.03 46.14 43.83 43.01 43.30 40.86 37.66 32.61 32.41 29.88 15.47 20.28 25.76 26.88 27.54 34.95 35.38 33.21 33.15 37.69 40.47 41.03 39.33 37.36 39.65 40.62 42.84
51.52 51.18 51.19 51.10 51.06 51.08 47.98 45.88 42.66 41.44 45.43 41.74 41.39 41.15 42.26 45.48 47.25 45.26 47.23 45.03 43.84 40.01 31.86 37.50 30.08 28.56 29.74 31.29 30.34 27.36 26.05 26.76 30.74 35.17 33.68 32.92 33.69 36.50 39.59 39.09 37.97 38.71 40.41 41.98 43.59
50.98 50.86 50.39 50.40 50.48 50.71 47.53 39.82 43.14 44.20 36.31 45.16 44.31 42.96 44.77 46.13 40.17 44.07 47.74 39.95 38.45 31.65 35.42 34.55 29.85 33.16 34.66 33.98 32.20 30.76 29.76 29.25 32.80 36.22 36.37 35.50 34.15 36.71 38.84 38.38 38.96 39.97 42.15 44.62 47.90
50.67 50.52 49.89 49.86 50.17 47.83 44.09 43.67 49.16 48.09 38.50 39.59 43.74 41.66 42.55 44.78 40.65 41.24 44.35 41.63 36.29 32.72 32.50 28.32 31.03 36.56 34.43 32.25 31.20 30.92 30.40 30.90 31.04 34.88 35.86 33.86 32.04 33.54 37.97 39.35 42.53 44.72 45.49 46.40 48.11
49.67 49.90 49.80 49.51 44.28 45.03 42.43 48.33 48.86 47.34 32.55 34.86 37.80 41.03 42.98 44.06 39.98 46.83 45.84 41.26 37.17 32.71 33.90 31.98 36.64 34.69 33.35 32.92 34.01 30.38 35.82 36.15 35.70 33.02 27.25 35.20 17.50 30.50 35.54 37.60 39.28 44.04 46.37 47.31 48.52
50.33 50.35 50.03 48.25 42.51 41.45 45.43 48.83 48.79 45.07 20.01 35.18 36.97 46.76 43.45 40.84 41.14 42.27 45.33 40.20 34.20 35.05 33.89 27.13 33.09 33.28 33.69 34.18 37.57 33.60 38.73 37.50 36.48 32.72 31.69 30.79 29.06 27.67 34.45 33.25 36.43 42.13 45.15 46.70 49.10
50.74 50.08 49.51 45.69 44.36 45.94 48.13 47.15 44.96 27.79 19.18 32.88 37.34 37.01 37.10 40.58 40.86 42.20 40.73 42.41 40.88 36.02 35.67 34.38 39.18 37.54 36.77 39.64 39.48 39.75 37.33 37.79 36.40 33.79 25.57 25.09 27.37 27.46 32.57 35.30 37.94 41.93 43.62 45.28 48.11
50.19 49.15 46.52 47.05 41.12 46.89 45.00 40.42 23.37 18.06 32.61 30.04 33.74 35.28 36.42 36.19 36.40 36.71 36.09 34.05 32.07 29.39 28.52 34.21 35.49 39.89 40.94 35.99 39.85 38.17 34.22 26.95 25.50 22.64 24.82 33.55 29.70 30.44 35.65 38.31 39.55 41.57 42.31 43.86 44.66
49.98 48.65 47.99 47.67 47.76 45.45 41.74 29.16 15.26 28.96 27.04 35.64 35.44 35.83 32.81 36.61 35.16 35.09 33.77 29.36 34.63 34.41 32.27 29.83 24.33 37.09 40.74 37.45 36.25 37.11 34.11 28.44 23.01 23.64 23.67 33.82 26.32 31.05 38.39 40.51 41.96 42.35 42.64 43.13 42.92
48.98 42.75 42.34 45.16 46.40 42.94 33.20 22.11 22.11 29.03 34.42 33.81 35.91 31.82 31.68 36.03 33.01 32.81 32.14 34.83 37.45 38.97 31.90 31.39 29.47 38.82 40.29 41.35 40.38 36.36 33.56 37.78 32.84 30.42 24.98 29.60 32.71 35.33 37.34 38.64 39.67 39.95 40.46 40.32 41.20
40.42 39.68 41.50 46.18 45.64 39.35 29.24 28.62 30.04 36.14 37.77 37.35 29.14 31.84 27.83 31.85 30.62 31.24 32.91 36.15 37.99 40.90 40.55 36.95 30.17 37.73 40.46 41.77 41.49 38.26 39.33 31.15 32.42 24.08 23.80 27.91 30.17 30.11 33.44 34.29 36.51 37.76 38.05 39.38 40.28
38.77 34.99 41.49 45.79 43.70 37.15 28.82 31.55 35.49 40.31 40.58 36.53 33.09 31.34 31.55 32.97 34.34 33.68 31.12 36.17 39.44 39.22 39.05 35.92 35.63 32.98 38.76 36.04 34.78 35.56 34.21 34.34 32.64 31.10 25.83 22.48 26.72 37.71 34.78 34.87 35.06 36.45 38.60 39.00 39.68
38.36 32.19 42.40 43.94 32.26 34.90 32.72 34.86 38.60 38.44 40.70 38.48 36.41 35.55 33.38 34.64 33.04 33.44 32.68 35.56 41.14 39.80 35.48 37.67 33.30 26.85 31.91 37.12 38.70 36.50 33.92 31.67 26.96 24.99 24.84 24.41 26.82 40.14 39.26 38.62 38.03 37.02 37.61 39.13 39.86
35.49 35.10 42.12 42.99 25.66 28.71 35.77 37.01 38.07 37.67 37.54 37.71 35.69 37.20 37.61 35.31 31.86 34.17 35.25 40.48 41.27 38.85 35.01 34.91 30.31 24.83 27.57 30.45 35.06 32.82 34.17 33.34 31.91 28.54 23.54 20.89 25.33 35.95 38.27 37.77 38.49 37.09 36.91 37.99 38.34
35.86 28.06 34.44 38.33 36.73 31.86 31.74 33.57 34.83 39.77 38.36 38.82 37.33 38.28 36.04 34.70 35.61 33.68 35.02 39.70 39.88 39.23 43.13 39.13 30.75 27.33 21.15 27.42 31.48 29.79 31.92 33.34 29.25 22.41 24.63 24.42 26.48 29.81 31.84 33.29 34.73 34.44 35.11 35.88 36.81
34.60 28.80 33.02 29.50 32.70 33.88 33.16 35.41 34.44 34.32 38.19 38.99 36.98 36.65 35.42 32.07 32.64 32.20 34.89 35.98 38.46 41.47 37.57 35.45 27.71 26.54 29.87 33.09 31.41 29.86 30.38 31.99 28.76 27.85 24.70 28.06 28.98 31.76 32.57 32.23 32.68 33.51 34.19 34.71 34.57
33.92 33.21 34.70 32.79 34.35 31.28 34.40 34.25 34.73 35.75 36.14 35.37 34.80 35.90 35.17 32.15 31.81 30.70 33.57 33.02 32.42 35.18 33.93 34.94 26.22 28.69 24.99 31.23 30.37 27.93 30.45 31.99 32.20 31.87 30.77 30.35 29.27 34.89 34.36 33.79 33.28 33.33 34.46 34.83 35.06
39.11 39.13 36.00 35.10 32.01 31.39 33.18 34.95 36.24 36.72 37.60 37.66 36.67 34.76 34.20 34.78 35.85 36.21 36.04 35.63 34.13 32.83 32.71 32.60 28.20 23.78 21.43 28.13 29.10 23.09 27.44 29.56 31.00 32.31 31.26 28.14 31.79 34.96 34.14 35.31 34.55 33.90 35.07 35.14 35.39

GFSSW_sfc_wetblb_093.txt.gz
Wetbulb
55.59 55.98 56.00 55.72 54.95 55.08 55.49 54.99 55.66 57.24 58.46 60.24 61.18 60.34 58.35 55.70 55.32 52.05 46.05 49.73 52.18 57.11 55.59 51.58 51.27 49.15 47.82 43.53 44.33 42.72 34.10 29.84 33.32 35.11 36.40 40.49 38.45 41.54 42.89 39.80 41.42 42.84 44.20 52.13 60.03
55.21 56.00 56.14 55.79 55.05 54.32 54.73 54.61 54.82 55.64 55.96 58.19 59.64 59.93 57.27 55.77 50.69 47.79 53.21 57.24 58.60 57.06 51.25 48.24 46.25 46.60 41.27 41.46 41.34 37.21 31.61 33.09 38.16 37.52 35.89 39.08 39.51 39.53 39.11 39.41 39.25 41.11 44.89 46.54 49.00
54.78 54.94 55.30 55.60 55.37 54.93 54.44 53.98 54.15 54.79 55.03 56.91 59.40 58.77 56.17 54.38 44.02 43.34 56.15 58.46 58.99 55.80 53.37 50.49 48.91 46.40 40.06 40.12 39.01 36.87 32.40 36.71 38.53 39.87 41.14 39.88 38.96 40.89 38.48 37.03 39.51 39.79 42.30 44.77 45.89
54.13 54.41 54.82 55.03 54.75 54.36 54.09 54.11 54.51 54.14 55.10 56.42 58.98 57.20 56.47 49.87 35.19 49.54 57.59 59.37 58.67 54.59 50.50 45.96 43.86 38.88 35.83 34.43 38.96 34.60 39.20 39.62 40.58 41.64 40.09 38.17 39.92 37.20 38.74 38.63 42.37 42.79 44.23 43.98 44.99
53.38 53.80 54.22 54.21 53.93 53.83 53.79 53.79 54.22 54.58 54.67 55.73 57.73 57.18 51.20 43.41 41.47 52.60 59.39 58.39 53.25 50.77 45.91 42.18 39.41 38.19 34.08 34.28 36.50 33.42 35.97 38.76 39.49 39.61 38.97 39.56 37.26 36.57 37.25 41.04 42.31 42.90 43.94 43.43 44.58
52.47 53.31 53.15 53.45 53.59 53.51 53.68 53.80 54.04 54.30 54.87 55.62 58.03 55.92 47.73 39.09 49.60 53.37 53.07 51.66 50.16 46.91 43.74 42.37 39.43 40.98 36.40 35.03 33.56 36.05 37.13 36.71 38.19 37.76 38.15 36.38 36.61 37.07 37.16 41.03 41.42 42.28 41.97 42.50 43.89
52.17 52.46 52.76 52.98 53.13 53.17 53.11 53.44 54.15 54.46 54.76 55.42 57.78 51.35 46.16 43.17 53.39 54.67 53.02 50.13 49.36 47.14 43.12 44.56 43.46 39.50 38.16 33.72 37.67 37.21 31.70 34.04 35.12 36.07 35.35 37.60 32.75 33.53 38.49 39.18 38.86 40.02 40.98 41.80 43.97
52.22 52.25 52.46 52.52 52.59 52.44 52.83 53.03 54.35 55.76 55.74 56.13 55.95 49.60 41.20 50.28 53.30 52.49 50.30 48.33 48.62 47.90 46.25 45.89 44.94 40.72 37.15 38.09 35.44 31.79 30.17 25.80 32.91 36.33 37.06 34.70 26.19 35.11 38.91 37.94 37.75 39.09 41.19 41.90 42.98
51.82 51.76 51.69 52.08 51.87 51.92 51.92 52.08 56.61 57.31 56.85 56.67 49.55 46.15 38.96 51.62 48.62 47.41 47.43 43.86 44.79 45.31 45.80 47.72 43.43 36.91 36.89 29.86 22.83 27.30 21.30 25.32 29.11 36.40 35.69 34.56 30.28 36.25 39.46 39.60 38.84 40.17 40.32 39.98 41.40
51.18 51.39 51.60 51.30 51.11 51.39 50.23 50.33 53.69 52.59 50.93 50.26 48.64 41.83 42.26 41.37 44.89 45.07 44.94 45.71 42.40 42.14 42.02 40.01 36.81 31.12 30.46 25.49 12.78 17.23 18.75 26.45 26.35 32.90 34.08 31.68 31.17 35.88 38.69 39.02 38.64 39.66 39.55 38.70 40.42
51.44 51.11 50.85 50.47 50.51 49.97 45.65 44.60 42.28 42.25 44.55 40.48 39.91 41.44 41.92 44.77 47.31 44.33 46.89 44.42 42.77 38.97 30.63 36.11 27.92 23.52 27.78 29.58 27.87 24.91 23.95 25.37 29.77 34.04 32.71 31.71 32.21 34.63 38.14 37.82 37.85 38.25 37.21 38.97 42.15
51.03 50.62 50.16 49.93 50.27 50.05 46.00 38.56 41.04 43.78 38.22 44.77 43.78 42.34 44.32 45.55 39.72 43.56 46.69 38.78 37.09 30.85 33.89 30.51 24.88 31.82 33.53 32.99 31.03 29.73 28.03 27.33 31.40 35.03 35.76 34.42 33.15 36.33 37.48 37.29 37.90 38.37 39.08 41.28 44.51
50.00 49.76 49.72 49.67 50.28 46.86 43.78 42.26 48.98 48.21 36.81 38.94 42.60 40.36 42.46 43.98 39.33 40.33 43.55 40.83 35.25 31.71 31.10 26.66 29.85 35.87 33.33 30.65 30.01 29.44 29.14 29.30 28.39 34.25 36.64 34.49 31.25 31.79 37.07 38.51 41.95 44.22 45.10 46.85 46.61
50.47 49.63 50.04 49.38 44.77 44.89 42.64 47.93 48.96 47.69 32.01 32.50 36.78 41.05 42.56 44.28 39.35 45.61 44.92 40.19 35.85 32.03 32.49 31.44 34.50 33.61 32.42 31.82 33.09 29.39 34.99 34.43 33.33 33.55 24.18 32.98 17.90 26.82 33.83 36.33 38.26 42.14 44.53 46.67 48.82
50.61 50.15 50.21 47.42 42.57 41.60 45.53 48.60 48.79 44.95 18.68 35.01 37.59 46.44 42.73 40.81 40.49 41.87 44.64 39.82 33.50 34.85 35.75 27.43 31.75 31.83 32.52 33.35 36.63 33.05 37.63 36.38 36.31 34.30 31.27 29.79 24.59 26.32 33.33 32.79 36.22 41.35 43.69 45.05 48.71
50.51 50.28 48.95 44.45 43.81 45.27 48.25 47.68 45.19 26.06 19.52 32.60 37.16 36.77 37.78 39.99 40.51 41.38 40.15 41.57 40.34 34.95 34.41 33.47 38.13 37.07 35.28 38.53 39.02 39.01 36.99 36.65 36.49 34.29 25.34 24.78 22.62 21.36 32.21 34.48 36.80 41.68 43.03 44.14 45.80
49.90 50.41 47.00 46.44 40.43 45.78 45.77 40.73 23.14 16.77 32.61 31.74 33.45 35.98 36.06 35.24 36.00 35.88 34.94 32.23 30.78 29.06 25.95 34.33 34.94 38.90 39.58 36.22 39.48 37.27 33.42 22.11 22.17 23.96 21.38 32.59 26.82 27.42 35.65 38.16 39.94 41.10 41.85 42.72 43.49
49.82 48.12 47.58 46.32 45.03 43.58 40.35 30.11 21.47 29.14 28.52 35.66 34.64 35.12 31.80 35.08 33.79 34.70 32.67 30.14 33.22 35.11 32.06 29.92 21.03 36.80 40.43 37.54 36.19 36.06 34.62 27.95 21.39 21.56 22.55 33.72 27.74 30.45 37.57 40.10 41.83 41.73 42.01 41.99 41.84
47.65 41.70 41.60 44.80 45.93 42.30 32.35 24.88 23.03 29.63 33.93 33.18 35.20 29.45 30.13 34.98 32.94 30.66 32.80 34.23 37.05 36.65 32.30 31.09 29.31 38.61 39.66 40.12 39.64 36.77 33.60 37.91 32.08 30.88 23.24 27.58 33.12 35.71 38.08 38.23 39.17 39.14 39.33 39.38 40.47
39.03 38.31 38.76 44.95 44.59 38.18 29.77 29.40 30.54 35.70 36.86 36.08 27.86 30.54 26.90 30.82 28.95 28.85 31.50 35.65 37.91 40.44 40.38 36.55 29.79 36.44 39.28 41.06 41.37 38.76 40.30 31.84 32.68 25.39 22.07 27.25 29.94 30.61 33.60 34.30 35.34 36.18 37.13 38.89 40.34
37.91 33.23 39.96 44.40 42.07 35.89 29.67 32.47 35.64 40.02 40.24 36.74 32.91 30.51 30.70 30.84 32.60 31.40 30.41 35.27 37.91 39.01 38.66 37.61 35.23 31.94 37.85 35.66 34.47 36.00 34.05 35.01 33.46 32.06 26.44 23.02 26.64 38.16 34.66 34.46 34.52 36.92 37.75 39.19 39.68
37.51 28.70 41.38 43.03 31.72 35.79 33.37 36.22 39.23 38.55 39.78 38.00 35.88 34.52 32.60 33.65 33.35 34.25 31.24 34.42 40.12 39.54 34.69 37.14 32.85 26.96 31.63 35.70 36.49 35.08 32.73 31.20 25.75 24.95 25.34 25.67 27.49 39.67 38.88 37.88 38.10 37.65 38.95 39.66 40.10
33.13 32.92 40.77 39.72 26.23 31.02 34.39 36.35 37.54 36.92 36.47 36.47 35.20 37.09 37.07 34.64 30.35 33.36 34.76 39.32 40.88 38.11 34.30 34.76 29.42 23.29 26.36 30.15 34.12 31.89 32.47 32.35 30.79 27.50 23.96 21.77 25.28 37.81 38.42 38.06 38.34 37.04 37.96 38.96 38.44
33.32 28.49 34.42 36.25 33.92 30.78 30.73 33.11 33.85 38.52 37.17 37.76 36.95 37.56 35.15 33.16 34.70 32.09 33.91 38.52 39.07 38.54 42.94 38.39 29.53 26.84 20.62 27.31 30.69 29.19 30.55 31.84 27.78 21.51 24.19 24.00 25.35 29.76 34.03 35.97 35.50 33.66 33.12 33.97 34.73
33.80 29.03 31.99 29.34 32.46 32.91 31.92 34.21 33.56 33.77 37.36 37.82 35.39 34.79 33.99 31.48 31.38 30.71 33.45 34.82 37.26 39.40 36.82 34.07 27.19 24.92 28.73 31.34 30.66 28.76 28.92 30.61 27.82 26.48 22.71 26.24 26.43 30.55 31.92 31.98 32.93 33.00 33.15 33.85 33.99
33.81 32.91 33.90 31.73 32.80 31.65 34.36 33.55 33.95 34.93 35.13 34.63 33.93 35.14 34.18 31.37 30.75 29.64 31.97 31.65 30.95 34.38 32.66 33.74 25.80 28.06 24.16 29.90 29.79 28.59 28.91 30.66 30.80 30.05 30.23 29.48 27.64 33.66 32.59 31.64 31.89 32.49 33.38 33.94 34.06
37.63 37.82 35.72 34.10 31.38 30.33 32.63 34.23 35.22 35.74 36.15 36.61 35.65 33.87 33.35 34.05 35.39 35.64 35.58 34.85 33.40 31.09 31.81 31.39 27.43 23.64 20.46 26.80 27.99 22.74 26.20 29.04 30.31 30.92 29.76 27.00 29.52 33.46 32.01 33.47 33.41 32.81 33.57 34.12 34.36

GFSSW_sfc_wetblb_096.txt.gz
Wetbulb
54.70 55.37 56.01 56.21 56.12 55.62 55.05 54.92 55.11 54.65 56.44 57.11 58.45 59.90 60.16 57.43 55.80 51.46 45.33 48.19 51.94 57.43 56.59 50.53 49.75 47.74 46.89 42.92 43.17 42.15 32.23 28.54 30.90 33.87 34.48 38.67 37.40 40.80 42.28 39.32 41.34 41.42 42.33 46.10 46.55
54.80 54.68 55.12 55.22 55.79 55.27 55.14 55.02 54.59 54.04 54.96 55.70 56.70 58.79 59.36 56.36 50.18 47.04 52.45 57.44 57.83 57.04 50.12 47.21 44.84 45.37 40.33 40.51 40.41 36.97 29.49 30.85 36.49 36.58 35.40 38.17 37.96 38.46 37.88 38.11 37.78 40.33 43.69 45.55 46.12
54.79 54.56 54.55 55.00 55.29 55.46 54.45 54.85 54.22 54.44 54.13 54.89 55.83 58.27 56.46 53.47 42.79 41.73 55.80 59.07 59.06 55.50 52.33 48.37 48.23 45.07 38.92 39.37 38.19 35.74 31.53 35.51 37.25 39.18 39.86 38.65 37.79 39.74 36.98 35.10 38.12 38.12 40.60 43.10 44.64
54.08 53.55 53.76 54.18 54.56 54.49 54.06 54.13 54.38 54.31 54.81 54.52 55.68 57.91 56.61 50.18 36.64 48.53 57.71 59.80 58.70 53.23 48.79 45.37 42.99 38.16 35.44 34.24 37.70 33.21 38.02 38.04 39.19 39.27 38.00 36.18 38.89 36.03 37.46 37.40 41.39 41.33 41.89 42.21 42.87
52.71 52.84 52.95 53.37 53.70 53.27 53.84 53.98 53.97 53.93 53.71 54.69 55.47 57.53 50.12 43.71 41.87 51.01 59.68 58.74 52.69 49.05 44.68 42.01 39.13 37.31 33.24 33.54 35.42 32.39 34.92 37.85 38.40 38.49 37.89 38.49 36.09 35.54 36.06 39.48 41.77 41.55 41.71 41.20 42.14
52.85 52.65 52.26 52.71 53.03 52.35 53.25 53.54 53.66 53.85 53.64 54.01 55.50 56.57 47.96 41.12 50.43 52.98 51.92 50.50 48.70 45.77 42.75 41.50 38.78 39.82 35.57 34.08 32.45 34.87 36.01 35.90 36.79 36.68 36.74 35.30 34.98 35.43 35.47 39.40 39.98 40.79 40.63 39.95 40.85
52.37 52.28 52.02 52.28 52.65 52.66 52.86 52.89 53.25 54.08 54.18 54.30 55.19 51.81 46.31 43.11 53.02 52.04 51.45 48.38 48.13 46.13 42.42 43.67 42.36 38.94 36.78 32.67 36.60 35.84 30.38 32.80 33.47 34.49 34.35 35.42 29.98 32.21 36.81 37.80 37.24 38.47 39.73 40.52 40.60
52.32 51.80 52.02 51.48 51.89 52.17 52.09 52.45 52.94 53.54 53.84 54.35 55.47 49.79 42.65 51.21 52.32 51.21 50.30 47.27 47.25 47.34 45.46 44.73 44.24 39.99 36.30 36.96 33.50 30.75 28.93 24.05 31.22 34.79 36.36 33.89 25.70 34.00 38.24 36.43 35.99 38.28 40.38 41.78 43.07
51.82 51.28 51.57 51.48 50.90 51.24 51.15 51.50 51.16 55.94 55.87 54.77 50.02 46.20 41.51 52.07 49.71 47.61 47.82 44.47 45.06 45.43 46.05 47.14 42.63 36.32 35.87 28.89 21.39 25.94 17.22 24.68 28.34 35.27 34.63 32.64 28.88 34.77 38.07 37.93 37.11 38.13 39.33 41.17 42.48
51.04 51.02 51.25 50.86 50.76 50.55 49.38 50.20 49.59 53.83 52.50 51.05 49.16 41.62 42.75 43.64 44.88 45.28 46.22 45.80 42.48 42.63 41.48 39.52 35.50 30.52 29.21 24.43 12.76 18.02 17.67 25.31 25.49 31.50 33.09 30.78 30.39 35.01 37.66 37.23 36.81 37.42 38.87 40.33 41.42
50.75 50.55 50.70 50.27 50.51 48.48 45.14 41.25 39.01 41.54 45.03 40.66 41.60 40.81 41.74 46.59 47.25 44.53 46.92 44.40 42.48 38.78 31.02 35.70 28.07 21.57 26.16 28.48 25.87 23.28 22.71 23.88 28.81 33.39 32.53 30.60 31.11 33.75 37.25 36.44 36.35 37.01 37.48 38.71 39.82
50.95 50.72 50.12 50.34 50.58 48.59 45.15 36.31 37.56 43.66 36.49 43.41 42.68 42.39 44.36 45.89 39.33 43.44 46.80 38.63 36.21 30.50 33.70 29.19 25.63 30.16 32.60 31.85 29.32 27.22 27.62 27.58 30.44 33.90 35.19 33.47 33.20 36.26 36.47 35.85 36.63 40.56 42.56 43.37 45.70
50.73 50.43 50.37 50.62 50.74 46.13 42.74 40.96 46.31 47.90 34.90 38.31 41.22 41.38 42.07 43.62 38.46 40.13 43.01 39.54 33.67 30.55 29.61 25.59 28.44 34.55 32.79 29.27 28.74 29.55 28.34 28.59 29.78 33.33 35.45 33.36 29.42 29.52 36.21 37.95 40.07 42.86 45.87 47.47 47.93
50.35 50.53 50.10 49.60 44.90 44.72 42.73 47.50 49.07 48.01 30.59 32.40 37.13 39.97 42.73 43.62 38.41 44.95 44.51 39.67 35.41 30.81 31.93 29.77 33.66 32.51 31.22 31.65 32.83 28.27 34.25 33.74 32.74 32.82 27.05 31.79 21.04 26.32 32.33 34.94 36.99 41.01 43.40 45.32 48.04
50.73 50.59 49.99 47.94 42.82 41.92 45.47 48.63 48.51 45.27 18.34 33.61 36.50 46.18 43.92 40.05 39.16 40.65 43.99 39.16 32.84 34.34 33.55 26.24 30.34 31.23 31.90 32.70 35.43 32.14 37.57 35.39 34.52 32.76 32.65 29.90 26.41 25.18 32.68 32.64 35.76 39.78 42.15 44.07 46.11
50.27 49.58 48.06 43.57 43.73 45.38 48.11 47.66 44.55 27.23 19.26 32.11 37.30 36.81 37.49 39.64 39.84 40.71 39.17 40.94 39.35 33.78 32.86 32.52 36.74 35.89 35.17 37.40 38.05 38.84 36.16 35.86 35.42 34.09 24.61 26.07 27.38 19.64 31.70 34.50 37.31 40.95 41.82 42.81 44.10
50.48 50.17 47.20 46.68 41.67 46.01 45.20 38.95 25.30 20.14 32.61 31.73 32.50 36.24 35.52 34.48 35.02 34.98 33.61 31.11 30.35 27.41 21.16 31.68 33.52 38.59 38.92 35.47 39.07 37.52 34.06 24.77 18.30 20.22 18.61 31.89 27.14 24.67 35.20 36.87 39.66 40.55 40.81 41.87 42.34
49.28 47.59 46.94 46.10 44.66 42.75 38.07 28.31 19.86 29.73 29.97 35.41 34.31 35.12 31.89 34.12 32.64 33.03 31.18 28.86 32.88 32.52 30.10 26.19 20.79 35.85 40.09 37.37 36.50 36.62 34.67 26.35 15.05 21.95 24.56 33.63 28.01 29.44 37.63 40.51 41.10 41.69 40.77 41.38 41.44
47.05 40.78 40.24 42.91 44.83 40.84 33.19 24.97 21.47 27.78 33.57 32.32 33.99 29.03 29.19 33.57 32.59 29.88 30.58 33.12 35.84 36.38 31.60 30.30 29.24 37.16 39.02 40.61 39.73 36.85 33.25 37.93 31.42 32.90 26.82 26.57 33.14 36.60 38.26 37.48 38.07 38.19 38.66 39.81 40.75
37.91 36.98 37.74 43.30 43.33 37.11 31.60 30.54 31.46 35.59 36.57 36.32 28.64 30.30 26.72 29.53 28.63 28.07 28.99 34.01 36.79 39.11 39.01 36.26 30.36 35.23 38.42 40.37 40.95 38.61 39.67 32.63 32.32 23.80 22.92 27.16 28.64 31.14 33.55 34.41 35.08 34.94 35.81 39.49 40.55
37.35 33.85 39.78 43.33 41.37 36.81 29.88 32.32 35.73 39.21 38.92 34.32 30.49 28.77 28.54 28.84 30.20 29.53 28.37 34.17 37.51 39.75 39.73 37.52 34.80 30.88 36.63 34.95 33.94 35.49 33.01 34.78 34.00 32.21 25.97 22.86 27.76 37.93 36.06 35.62 35.43 35.73 37.90 39.40 39.79
34.92 30.27 41.41 41.94 32.81 33.99 32.74 36.06 39.60 37.17 38.67 36.89 34.76 33.60 31.61 32.34 31.67 33.05 30.09 33.85 39.37 39.69 34.89 36.56 32.63 26.54 30.58 35.16 36.15 34.85 32.14 30.70 24.71 23.68 25.15 24.95 27.09 39.09 38.24 37.76 37.42 37.22 39.24 39.82 40.57
32.55 32.25 40.32 39.85 27.46 29.40 32.92 36.05 37.19 36.61 36.00 35.62 34.21 36.07 35.84 33.52 29.88 31.98 33.71 38.43 40.16 38.03 34.27 35.63 28.98 21.28 25.03 28.83 32.76 31.02 31.88 31.39 29.85 26.50 23.70 20.35 24.60 37.53 38.48 38.04 38.30 37.68 38.71 39.32 39.30
33.37 29.50 35.03 35.89 32.53 29.42 30.88 32.32 33.06 37.37 36.34 36.84 35.36 36.35 34.75 32.74 33.23 30.73 32.52 37.63 38.96 38.42 43.05 38.11 29.34 27.37 21.24 26.44 29.56 28.10 28.69 30.20 27.68 20.57 23.34 23.53 25.31 33.25 35.13 36.86 37.13 36.10 34.06 34.66 34.21
33.84 29.47 31.80 27.76 32.09 30.78 30.80 33.58 32.83 33.05 36.56 36.97 34.68 33.93 32.30 29.53 29.85 29.27 32.32 33.76 36.57 38.76 35.85 33.44 26.34 24.73 28.17 29.59 29.94 29.33 28.27 29.13 26.53 25.84 22.01 25.95 25.94 30.73 32.75 32.92 34.05 33.74 32.55 32.81 33.25
34.50 33.19 32.61 30.77 31.20 31.33 34.05 32.75 33.28 34.37 34.57 34.13 33.45 34.53 33.51 30.53 29.59 27.89 31.10 29.46 29.57 33.10 31.46 32.73 25.73 27.59 23.62 29.29 28.42 28.24 29.16 29.02 29.78 29.25 27.90 27.62 27.62 32.71 31.55 30.82 31.40 32.10 32.67 33.25 33.65
36.41 36.63 34.68 33.02 30.72 30.55 31.50 32.98 34.14 34.79 35.48 35.70 34.81 32.72 31.94 33.18 35.16 35.37 35.16 34.07 32.44 29.67 30.80 30.27 26.80 23.22 21.30 25.35 26.74 23.01 26.03 28.69 29.87 30.45 29.87 26.71 29.08 31.86 31.77 32.79 33.01 32.43 32.75 33.32 33.82

GFSSW_sfc_wetblb_099.txt.gz
Wetbulb
55.72 55.72 54.96 54.99 55.40 55.69 56.08 55.18 54.93 54.84 54.68 55.20 56.30 57.22 59.26 58.80 56.50 51.96 46.16 48.99 52.86 57.61 56.20 51.74 49.75 48.00 47.77 45.31 45.47 44.89 34.81 31.74 34.11 35.62 37.15 41.07 40.03 43.39 44.66 42.89 43.75 45.78 45.74 48.70 48.96
55.25 55.40 55.33 54.73 54.92 55.25 55.54 55.33 54.87 54.75 54.42 54.40 55.43 56.56 59.43 56.86 50.77 47.19 52.26 57.62 59.48 57.47 50.47 47.62 45.06 45.88 42.40 42.91 42.84 39.38 31.98 32.68 38.55 39.74 38.65 40.22 40.48 41.51 41.20 40.80 41.22 43.15 46.16 47.66 48.60
54.22 54.32 54.59 54.36 54.29 54.63 54.94 54.15 55.06 54.47 54.71 54.38 54.63 55.96 57.71 53.44 44.68 43.78 56.18 59.39 59.16 55.72 52.31 49.74 48.57 45.62 40.82 41.81 40.59 38.28 33.90 37.45 38.98 40.60 39.76 39.60 39.70 41.99 39.84 37.94 40.86 41.08 44.06 45.89 46.49
53.23 53.46 53.53 53.32 53.66 54.06 54.25 54.00 54.43 54.49 53.66 53.71 55.03 56.12 56.18 50.02 39.34 49.37 58.63 60.37 58.04 53.48 48.90 46.36 44.54 40.13 37.87 36.18 39.49 36.17 39.08 39.00 39.62 39.61 38.68 37.40 40.24 38.42 39.72 40.45 43.88 44.55 44.70 43.68 44.28
53.15 53.09 52.98 52.78 52.88 53.13 52.64 52.86 54.24 54.33 53.39 52.25 54.47 56.24 50.75 44.14 43.11 51.11 59.56 58.84 51.54 48.63 45.56 43.46 40.86 39.42 35.33 35.91 37.21 35.34 36.14 38.26 39.18 38.83 38.56 39.36 37.38 37.50 38.04 41.58 43.34 43.29 43.36 42.91 43.93
52.78 52.46 52.19 52.02 52.47 52.25 51.59 52.28 53.17 53.77 53.19 52.53 52.99 55.14 48.67 42.52 51.64 53.86 51.51 49.76 48.19 45.90 43.68 42.94 40.72 41.29 37.11 35.89 34.70 36.56 36.78 36.62 37.29 37.25 37.30 35.53 35.70 36.45 38.27 41.08 40.56 41.31 41.63 42.41 42.48
52.90 52.38 52.18 52.06 52.04 51.47 51.82 51.37 51.99 53.17 53.27 53.22 53.54 52.76 47.12 43.40 53.10 52.22 50.83 48.49 48.31 46.50 43.14 44.59 43.37 40.18 38.78 34.93 37.97 36.54 32.30 33.89 34.53 35.83 35.97 36.84 32.56 32.93 38.83 39.32 38.41 39.88 41.35 42.56 43.55
52.68 51.56 51.35 51.53 50.82 51.03 51.58 51.69 51.95 53.12 52.86 53.53 53.69 50.17 43.90 51.94 53.47 50.09 49.14 46.82 47.87 47.55 45.43 45.27 44.67 40.79 38.28 38.97 33.78 31.54 30.85 27.39 32.79 35.51 36.98 36.17 30.15 35.16 38.90 39.59 39.41 40.21 41.59 42.50 43.97
52.05 50.74 50.70 51.02 50.71 51.22 50.09 50.21 51.16 53.26 54.74 54.04 50.51 47.55 42.02 53.57 47.71 47.89 48.49 44.65 45.92 46.52 46.67 46.66 43.03 37.45 36.56 30.71 25.67 27.86 23.47 26.22 29.76 35.93 35.58 34.98 31.28 36.66 40.03 39.38 38.59 39.54 40.46 41.94 43.35
51.29 51.30 51.18 51.22 51.49 49.05 48.68 50.43 51.62 52.73 51.74 51.09 49.38 42.42 45.12 44.27 45.19 45.56 47.17 46.43 43.70 43.40 42.14 40.21 36.68 32.82 31.37 27.75 20.36 22.91 23.52 26.46 26.82 32.79 33.52 32.15 31.65 36.31 39.59 39.01 38.37 39.23 40.06 40.98 42.34
51.72 51.21 51.04 51.31 49.64 48.19 44.65 43.32 40.28 41.94 43.92 41.24 41.67 41.15 44.06 46.71 47.87 44.80 47.16 44.41 43.11 39.62 33.53 37.18 30.88 26.40 28.25 29.90 26.66 24.98 26.13 25.73 29.09 33.77 32.00 31.88 32.48 35.99 39.44 39.13 38.34 40.13 43.26 45.07 46.35
51.38 51.05 50.88 51.27 49.62 48.18 43.73 37.83 37.59 41.35 34.61 43.54 44.00 44.02 45.30 45.93 39.46 43.12 46.71 39.13 37.41 32.24 35.03 30.83 27.52 31.92 32.98 32.29 30.69 29.43 27.33 26.95 31.30 34.17 34.92 34.03 33.35 36.68 38.20 39.33 42.19 42.76 44.15 46.02 48.50
51.07 50.75 51.00 50.92 49.32 45.10 42.15 41.84 47.09 47.16 34.51 35.63 42.08 41.54 42.24 43.85 38.84 40.29 43.33 39.80 34.59 32.01 31.19 27.80 31.15 34.65 33.34 31.07 29.95 29.27 28.09 28.07 28.76 33.92 36.24 33.40 31.25 31.87 37.67 40.04 41.16 43.27 44.19 46.22 47.83
50.85 50.26 50.04 50.69 44.98 44.97 42.87 47.71 48.98 47.66 30.41 30.75 36.57 39.46 42.35 42.95 37.63 44.94 44.59 39.94 36.05 30.76 31.54 31.22 34.50 33.08 32.25 30.29 31.92 27.47 33.67 33.29 32.33 32.16 28.34 35.10 27.10 30.25 33.59 36.11 38.01 41.22 42.64 43.96 46.48
50.42 50.20 50.19 48.91 43.60 42.08 44.76 48.56 48.42 45.35 17.96 34.25 37.06 45.12 43.99 39.41 39.16 40.69 44.41 39.97 33.39 33.78 32.03 27.71 31.66 32.81 31.77 31.96 35.09 31.06 36.84 35.49 34.68 32.98 32.19 31.85 27.83 29.43 33.71 33.40 36.60 40.94 42.45 42.87 44.97
50.68 50.26 48.53 44.69 44.21 45.38 47.98 47.59 44.36 26.83 18.12 30.57 37.94 38.01 37.85 39.30 39.07 40.36 39.62 41.26 39.68 34.41 34.27 32.80 36.85 35.98 34.54 36.52 36.89 37.98 35.72 35.89 35.53 33.74 26.62 26.62 27.52 27.21 31.91 34.87 37.29 41.19 41.90 42.51 43.24
50.15 49.83 46.77 46.09 40.55 45.45 43.95 38.24 26.73 20.08 32.66 30.17 34.30 36.83 35.19 34.01 34.83 35.09 33.85 32.08 29.77 21.86 20.46 30.51 33.54 37.94 38.91 35.05 38.70 36.97 33.78 23.04 19.44 24.24 21.73 30.91 27.96 29.94 35.27 37.40 39.23 40.41 40.47 41.69 42.43
48.90 46.97 45.83 45.62 44.91 43.48 38.11 30.30 21.90 29.51 29.45 35.30 35.28 34.60 31.63 33.05 32.41 33.29 31.98 29.39 32.73 32.74 29.62 23.97 22.24 34.48 38.35 36.87 36.32 36.25 35.17 26.91 17.64 20.53 24.48 32.13 26.56 32.14 37.88 40.37 41.01 40.24 40.49 41.48 41.57
46.00 39.50 39.35 41.59 43.89 40.54 33.65 25.49 23.63 27.11 32.97 32.64 33.08 28.87 30.67 33.13 32.02 30.45 29.90 32.14 35.22 34.67 29.42 27.83 24.29 37.13 38.91 40.66 39.62 36.37 32.00 37.38 31.12 31.25 28.12 29.54 33.66 37.26 38.46 37.85 37.16 36.59 38.31 39.32 40.52
37.49 36.29 37.63 41.94 41.69 37.22 32.37 30.54 31.58 34.49 35.49 34.95 28.24 29.82 26.23 29.54 28.75 29.56 29.71 33.76 37.32 38.18 38.65 35.99 30.59 35.38 38.56 40.27 40.68 38.26 39.54 31.71 32.60 22.90 22.88 27.11 29.39 30.86 33.76 34.59 35.11 34.89 35.89 38.22 39.12
36.51 34.93 40.62 42.21 41.39 36.73 28.94 30.53 34.85 38.72 38.16 33.85 29.49 28.92 28.48 28.51 29.93 29.24 29.68 33.69 37.87 38.78 39.68 37.68 34.77 30.75 36.49 35.47 33.53 35.76 32.96 33.91 33.96 32.04 25.83 23.63 27.37 37.89 34.54 35.70 35.40 36.09 38.29 38.59 39.18
34.82 31.88 42.31 41.38 33.25 31.05 32.43 35.33 39.31 36.47 37.91 36.05 34.26 33.14 30.94 30.97 30.29 31.60 30.99 33.83 39.44 39.86 34.85 36.32 33.84 27.77 30.25 35.48 36.65 35.66 32.55 31.51 26.27 24.86 26.96 26.10 28.10 38.43 38.29 38.52 37.46 38.15 39.05 40.20 40.62
32.50 32.11 40.66 40.97 28.30 24.44 31.34 34.96 36.22 35.24 34.82 34.99 34.16 36.06 35.07 32.93 30.13 32.66 34.31 38.70 39.73 38.12 34.81 35.74 29.57 22.88 25.15 29.35 33.31 31.64 32.38 31.89 30.34 27.82 24.76 22.94 26.86 37.90 38.68 38.05 38.63 38.72 39.54 40.09 40.16
34.09 30.19 35.45 35.17 31.81 29.89 30.55 31.78 32.81 37.24 35.96 36.00 34.77 35.64 33.88 31.68 33.41 31.02 32.77 37.40 38.99 38.65 42.56 38.42 29.48 27.06 21.60 26.37 30.51 29.32 29.94 30.68 28.78 23.20 25.20 25.19 29.11 33.63 36.87 37.28 38.01 37.83 37.78 37.90 36.97
34.11 29.75 31.27 28.33 31.82 30.53 30.67 32.45 31.85 32.46 35.76 36.18 33.70 33.17 32.05 28.94 29.18 28.87 31.60 33.03 36.20 38.62 36.51 33.68 26.88 25.72 28.50 29.36 30.40 30.30 29.77 29.49 26.38 27.28 24.62 27.18 28.30 33.22 34.50 36.33 36.83 36.25 34.82 34.78 35.07
34.54 32.93 31.26 30.10 29.78 29.70 33.39 31.59 32.35 33.35 33.84 33.37 32.59 33.51 32.61 29.88 30.00 28.10 30.80 29.64 29.32 32.37 31.90 32.21 26.75 28.66 24.53 29.57 29.33 28.08 29.42 28.69 30.46 30.71 29.81 29.63 29.29 34.41 35.58 34.99 34.83 35.22 34.26 34.30 34.86
35.36 35.63 34.15 32.73 30.12 29.27 29.90 31.34 33.02 33.45 34.84 35.05 33.67 31.85 31.19 32.50 34.52 34.88 34.79 33.74 32.28 29.68 30.11 30.04 27.33 23.59 21.52 25.47 26.34 23.60 26.29 28.88 31.07 31.48 30.78 28.23 31.65 34.21 33.35 33.41 34.28 34.06 33.78 34.44 35.12

GFSSW_sfc_wetblb_102.txt.gz
Wetbulb
55.39 55.75 56.01 55.78 55.05 55.20 55.62 56.31 55.27 54.73 54.31 54.66 55.80 56.41 58.42 58.96 56.94 54.41 48.49 51.70 55.05 58.71 56.56 53.70 53.26 53.01 53.43 49.99 50.59 49.95 41.31 39.59 39.60 39.73 41.55 45.19 43.79 46.73 48.22 46.61 47.54 48.92 49.09 51.41 52.56
54.90 55.26 55.41 55.15 54.91 54.85 55.13 55.29 55.42 55.00 53.98 54.47 54.89 55.55 59.66 57.61 51.10 49.57 53.46 56.86 59.55 58.61 52.74 49.91 48.23 50.86 48.25 47.35 48.33 44.88 40.42 39.04 42.81 44.12 43.00 44.10 44.03 44.83 43.87 44.40 45.24 46.58 49.18 50.41 51.60
53.78 54.04 54.07 54.02 54.22 54.32 54.60 54.98 55.04 54.86 53.69 54.73 54.60 55.80 57.60 53.55 46.07 45.71 55.70 59.57 59.14 56.37 54.05 52.38 50.81 47.71 44.47 46.68 44.64 43.63 40.58 41.31 42.52 44.04 43.83 42.96 43.29 44.98 43.17 41.75 45.05 44.69 46.33 48.23 49.40
53.53 53.21 53.03 52.92 53.07 53.22 54.01 54.33 54.46 54.29 54.20 53.00 54.77 56.15 55.53 51.52 40.86 50.06 58.53 59.93 58.37 55.58 52.94 50.47 47.83 44.02 42.19 40.97 43.67 39.71 41.74 42.31 42.88 43.33 42.41 41.56 43.51 41.83 42.84 43.74 46.38 46.73 47.31 47.53 47.44
53.29 52.95 52.70 52.69 52.15 52.45 52.66 52.69 53.12 53.93 53.73 52.40 53.99 55.97 51.57 45.02 45.00 53.87 59.90 58.44 54.30 52.07 50.12 48.29 45.27 44.21 40.96 41.57 41.79 40.01 40.70 41.40 42.59 42.30 41.98 42.42 40.55 40.87 41.48 44.99 46.23 46.41 46.42 46.32 46.98
53.42 52.63 51.94 51.60 51.60 51.62 51.80 52.58 52.79 53.05 53.80 53.27 53.99 55.63 49.17 41.91 52.32 54.95 52.91 51.74 50.96 50.38 47.99 48.21 46.03 45.98 42.08 40.12 39.40 40.39 39.92 40.22 40.67 40.23 40.41 38.05 39.67 39.27 42.60 44.43 44.04 45.25 45.53 46.68 47.35
53.72 52.67 52.14 51.80 51.57 51.37 51.91 51.90 51.21 51.73 52.41 53.01 53.96 53.18 48.38 46.62 53.27 54.12 52.95 50.48 50.45 50.35 46.59 47.69 47.76 44.07 43.30 39.19 41.46 39.60 36.62 38.39 38.44 39.25 38.92 40.76 38.73 37.26 43.24 43.79 44.02 45.03 46.53 47.68 48.43
53.29 52.82 51.03 51.33 51.29 51.42 52.09 51.58 52.05 52.42 53.27 52.34 53.87 51.14 44.36 52.82 53.88 50.73 51.12 48.71 50.61 50.61 48.73 49.14 48.83 44.83 42.30 42.45 38.61 36.37 36.73 35.30 37.02 39.21 39.49 39.97 37.25 41.61 43.78 44.79 44.09 45.18 46.04 46.94 48.12
52.44 51.70 50.74 51.07 51.12 51.43 50.24 50.20 50.69 52.96 53.73 53.34 50.82 47.95 43.31 54.07 47.58 49.16 50.74 47.04 48.26 48.91 48.86 48.32 46.22 41.57 40.82 37.60 35.42 35.80 32.49 32.62 35.40 39.42 38.82 38.37 37.84 43.39 46.02 44.53 44.13 45.61 46.21 46.54 47.93
50.82 51.09 51.66 51.81 51.11 49.65 49.89 52.00 53.36 54.24 52.25 49.67 49.20 43.34 46.85 43.26 45.98 48.16 50.69 49.43 45.74 45.45 43.95 42.85 41.48 38.37 37.73 36.71 32.65 29.71 29.76 32.44 33.07 37.32 38.05 37.38 38.05 42.95 45.16 44.64 44.96 46.20 47.40 48.44 49.69
51.88 51.67 51.56 50.04 49.10 48.60 48.22 47.07 44.31 41.56 45.49 39.28 38.75 42.62 42.98 45.39 48.90 46.54 48.82 46.90 45.14 42.25 36.75 39.32 36.48 33.18 33.77 34.32 34.16 32.74 31.69 30.64 34.91 37.76 36.10 37.97 38.81 41.82 44.39 44.20 44.89 44.02 45.06 47.13 49.23
51.40 51.37 50.99 49.87 49.35 48.08 47.40 42.10 41.33 43.47 35.05 42.79 43.78 43.56 45.36 46.68 41.05 44.40 48.34 41.23 39.90 35.40 37.39 36.26 32.43 34.94 36.51 35.60 34.30 33.47 32.00 33.38 36.61 37.74 37.80 38.93 38.59 42.36 42.41 43.45 44.12 45.02 44.90 47.01 49.76
50.95 51.21 50.50 49.68 49.45 47.76 45.00 43.92 47.56 45.91 35.17 36.62 41.23 41.20 42.08 44.40 40.19 41.10 44.79 41.68 37.90 35.02 34.34 33.75 34.04 37.08 35.68 34.13 33.41 34.84 33.47 32.92 33.01 37.35 40.31 38.44 38.93 38.13 41.12 43.58 43.76 45.62 45.59 45.49 46.68
51.07 50.80 50.22 50.10 46.00 45.73 43.27 48.33 49.41 48.30 32.72 31.44 35.96 39.14 42.15 43.57 38.23 46.21 46.57 42.19 38.36 34.22 35.65 35.42 36.66 35.10 34.35 33.52 35.31 31.84 37.18 35.91 35.17 34.68 31.32 37.93 30.09 37.76 38.42 39.98 41.74 44.21 44.48 44.66 45.17
51.23 49.97 50.75 49.53 44.98 43.46 45.60 48.98 49.41 46.02 21.83 34.74 37.49 45.49 43.33 39.23 39.72 41.21 46.43 43.07 36.88 35.96 36.68 33.47 35.01 34.94 34.31 34.73 37.47 35.15 38.14 37.17 36.37 33.69 33.08 34.11 30.08 37.00 38.02 37.59 40.38 42.20 43.68 44.04 44.17
50.91 50.35 48.38 47.34 47.07 46.16 48.50 48.77 45.78 33.77 21.78 32.24 37.80 37.51 38.17 40.02 39.36 41.61 41.75 44.78 42.55 37.55 37.63 36.38 39.29 38.31 38.00 38.94 39.26 39.94 37.54 37.24 37.62 33.67 28.32 33.45 32.01 36.16 36.55 37.38 39.51 41.96 42.77 42.91 43.37
50.04 49.69 48.40 48.36 43.85 48.07 47.47 43.63 33.79 26.50 33.26 32.45 35.20 37.27 36.13 35.16 36.62 37.66 36.67 36.25 35.35 32.45 31.90 35.01 36.44 39.55 40.00 37.44 40.30 38.03 33.52 30.13 28.81 26.39 28.64 33.95 30.33 35.33 37.98 39.70 40.36 40.00 40.49 41.87 42.28
50.66 47.62 47.16 47.62 48.44 47.54 44.64 37.48 25.51 30.12 31.71 36.90 36.81 37.08 33.34 35.49 35.55 36.06 35.48 35.00 36.77 36.68 32.73 32.28 31.28 37.14 40.54 39.03 36.24 35.68 35.73 30.49 24.23 27.54 30.10 33.55 29.29 36.68 38.99 40.48 39.83 39.34 40.06 41.07 40.98
46.58 47.30 46.82 46.67 47.08 46.24 41.16 30.20 29.63 32.21 35.84 35.40 35.59 33.24 32.83 35.62 36.13 35.80 35.97 36.44 38.14 38.34 32.66 32.85 32.97 39.39 40.48 42.56 40.53 36.61 34.30 37.70 32.12 32.03 28.96 35.01 35.88 38.32 39.35 38.00 37.91 37.13 38.66 38.73 39.73
45.98 44.65 45.38 45.99 46.93 43.90 40.26 31.35 34.27 37.52 38.37 37.49 31.61 34.33 31.58 33.55 34.16 34.74 35.14 38.28 38.37 39.98 41.71 36.80 32.80 38.35 40.60 41.92 42.35 38.92 41.11 32.20 33.12 26.41 25.80 32.20 31.54 33.21 34.61 35.31 36.41 36.22 36.86 37.45 39.55
45.24 45.55 47.77 47.00 47.30 44.41 34.83 35.37 37.47 40.46 40.58 36.93 34.41 33.86 34.24 33.90 35.29 34.94 34.75 38.18 41.00 40.55 41.60 40.14 36.86 35.39 39.18 37.90 37.18 37.42 35.86 35.41 34.89 32.48 29.21 27.63 32.98 38.30 35.98 36.36 35.86 36.77 37.73 38.30 39.42
45.06 41.46 50.12 49.14 42.75 40.03 36.87 38.33 40.30 39.28 41.44 39.73 39.28 37.87 36.46 36.35 35.92 36.44 35.82 38.13 42.84 43.14 38.04 39.85 36.17 31.69 35.06 39.45 40.57 39.94 36.93 35.27 31.14 28.74 32.57 31.58 32.85 40.80 39.10 38.78 38.29 38.28 38.81 39.86 41.12
42.88 42.61 49.72 50.43 38.82 37.61 38.21 38.34 39.43 38.82 38.44 39.07 38.46 40.25 39.84 37.61 34.86 37.34 37.92 41.95 43.01 41.69 39.07 40.10 35.34 30.96 30.56 34.99 38.02 36.19 36.99 35.81 34.75 34.01 31.21 29.91 34.36 40.83 40.13 38.40 39.49 38.53 40.61 42.15 42.29
44.48 40.81 45.72 43.97 40.11 38.68 37.55 37.24 37.16 40.60 39.35 39.41 39.05 40.47 38.90 36.97 38.77 36.53 37.33 40.54 42.56 42.32 42.34 41.80 36.08 33.44 31.12 32.79 36.32 33.87 34.97 34.95 34.95 31.56 32.45 33.24 35.35 37.57 38.69 38.34 39.56 41.23 42.48 42.79 42.77
43.31 39.27 38.57 39.28 39.38 38.84 39.24 37.73 36.72 36.67 40.71 40.88 38.86 37.63 37.04 35.42 35.71 35.42 37.17 38.12 40.45 41.21 41.06 39.58 33.85 33.46 35.13 36.04 35.54 35.12 35.10 34.91 32.04 34.49 31.74 34.34 34.64 39.85 41.54 41.11 41.95 43.39 43.30 41.39 41.05
42.88 41.02 38.82 38.36 36.14 38.76 38.30 36.69 36.26 37.34 38.04 37.92 37.29 37.56 38.31 36.33 36.53 35.22 36.69 36.82 36.86 38.33 38.37 37.86 34.65 33.60 30.89 34.35 34.55 32.37 35.06 35.36 35.26 35.19 34.62 34.91 34.81 42.13 44.56 44.83 43.25 43.00 42.28 40.32 40.88
42.93 42.67 42.14 36.67 37.92 38.54 37.35 36.73 36.62 37.86 39.36 39.38 38.50 38.03 37.30 38.50 40.49 41.48 41.43 40.17 39.26 37.30 36.40 35.75 35.07 32.38 30.02 31.75 32.02 29.91 34.17 34.81 35.71 37.46 37.39 33.75 38.86 40.90 39.95 41.11 42.32 43.37 43.07 41.62 41.83

GFSSW_sfc_wetblb_105.txt.gz
Wetbulb
55.83 55.66 55.74 55.81 55.94 55.51 55.05 55.53 56.05 54.53 54.01 54.51 55.60 56.28 58.33 60.08 57.43 55.99 51.38 54.39 55.87 58.78 56.33 53.73 54.34 54.15 54.54 52.27 52.84 50.86 42.99 41.87 42.42 41.96 43.94 46.62 45.45 48.22 49.72 47.63 48.69 49.90 49.93 51.89 53.17
53.95 54.45 55.03 55.16 54.56 54.61 54.65 54.79 54.93 54.89 53.98 54.27 54.52 55.01 58.04 58.14 54.07 51.99 55.43 56.34 59.77 58.27 52.82 50.45 50.20 51.95 48.83 48.68 49.42 45.35 41.87 42.44 45.24 46.23 45.17 45.80 45.49 46.12 45.16 45.83 46.44 47.78 50.36 51.34 51.45
53.44 53.66 53.95 53.39 53.57 53.34 53.91 54.51 54.83 54.77 53.95 54.67 54.86 55.25 59.67 56.79 49.04 48.25 56.23 59.11 59.87 57.55 53.47 51.72 52.03 49.60 46.38 48.25 46.34 45.28 42.81 43.75 44.44 45.97 45.54 44.33 44.39 46.52 44.41 43.43 46.49 45.68 47.33 48.83 49.46
53.31 53.07 52.98 52.62 52.79 52.58 53.33 53.93 54.70 54.52 54.07 53.12 55.07 55.73 55.95 53.35 42.41 50.30 58.71 60.72 58.06 55.63 53.22 50.46 48.95 45.13 44.92 43.51 45.80 41.95 43.69 44.20 44.69 45.02 43.96 42.85 44.77 43.09 44.15 44.95 47.72 47.66 48.05 48.01 47.88
52.87 52.63 52.22 52.22 52.15 52.20 52.37 52.88 53.82 54.21 54.04 52.69 53.96 55.99 52.58 46.86 46.71 55.00 59.98 59.68 55.16 53.48 50.75 48.48 45.92 45.51 42.61 43.96 43.71 42.21 43.22 43.60 44.39 43.60 43.16 43.48 41.97 42.38 43.10 46.35 47.38 47.23 47.11 47.18 47.96
52.89 52.31 52.05 51.54 51.38 51.89 52.16 53.03 53.63 54.01 54.01 53.70 54.25 55.75 50.26 43.43 52.94 55.83 57.48 54.78 52.84 51.99 50.43 49.73 47.20 47.88 44.55 43.28 42.53 43.19 42.47 42.06 42.35 41.83 42.19 40.17 41.60 41.56 44.33 45.93 46.29 47.21 47.42 48.42 49.15
52.94 52.27 51.91 51.81 51.64 51.94 52.40 51.93 51.67 52.72 52.91 53.34 53.46 53.62 48.46 46.79 54.01 55.65 51.94 51.80 52.74 51.77 48.43 49.93 49.69 46.11 46.00 41.21 43.57 41.76 39.19 41.07 40.97 41.17 40.89 42.34 40.86 40.59 45.27 45.35 46.45 47.82 48.51 49.19 49.82
53.30 51.47 51.60 51.68 51.50 51.45 52.10 52.45 52.46 51.42 50.77 52.67 53.64 52.15 45.75 53.71 55.11 52.32 52.63 50.73 51.95 52.00 50.24 50.07 49.78 46.25 44.42 44.34 41.27 39.50 38.91 37.49 39.80 40.84 41.97 41.47 38.48 44.28 45.30 46.62 46.26 47.42 48.54 49.16 49.99
53.27 52.21 51.45 51.74 51.42 51.85 50.64 50.47 51.21 52.05 52.74 53.02 50.59 48.26 44.12 52.73 48.04 52.06 51.82 48.33 49.36 49.44 49.44 49.18 47.70 43.37 42.77 39.93 38.30 38.35 36.95 36.35 38.15 41.60 41.02 40.73 39.78 45.33 47.96 47.14 46.18 47.83 48.78 49.47 50.82
52.16 52.39 52.45 51.66 50.83 50.55 51.78 52.13 52.79 52.09 51.62 51.93 50.12 43.12 46.22 41.95 46.41 50.07 51.69 50.36 46.69 46.54 44.30 43.39 43.22 40.39 39.93 38.37 34.99 35.77 34.59 35.42 36.14 40.47 40.76 39.50 39.91 44.62 47.19 47.06 46.43 47.97 48.14 48.99 50.01
52.24 51.58 50.71 49.87 49.22 49.47 50.38 48.82 45.00 41.35 44.92 41.42 39.60 42.23 42.94 45.89 48.78 47.27 49.47 47.49 46.50 43.60 38.45 41.21 38.50 35.95 37.45 37.20 37.20 36.14 35.04 34.63 38.61 40.54 38.78 40.48 41.05 43.65 46.76 46.87 46.26 46.93 47.34 47.94 48.59
51.49 50.99 50.79 50.58 49.01 48.47 49.01 44.37 43.49 44.15 35.83 40.76 44.11 43.51 45.51 46.84 41.18 44.43 48.78 42.08 41.49 37.76 39.54 38.03 35.35 37.54 38.25 37.63 36.69 36.06 35.34 36.58 39.22 39.97 39.18 40.38 40.33 44.28 45.74 45.15 45.45 45.83 46.73 46.75 47.08
51.36 50.54 49.93 50.43 49.86 49.47 45.54 44.32 48.59 47.50 35.71 35.92 41.40 41.31 42.62 45.11 40.81 41.38 45.60 43.11 40.46 37.29 37.21 36.64 36.63 39.08 37.82 35.55 35.61 37.23 36.07 36.16 34.69 39.78 42.52 40.34 40.09 40.50 43.06 45.20 45.90 46.66 47.45 47.37 46.20
50.67 51.18 49.95 49.88 46.19 46.51 44.23 49.01 50.29 49.22 33.57 31.53 36.51 39.49 43.04 43.83 38.62 46.95 47.50 43.40 40.04 36.38 39.26 37.29 38.75 36.95 35.80 34.75 37.21 34.43 38.77 37.62 36.82 35.60 33.52 40.41 31.93 39.68 41.87 41.72 43.64 45.23 45.23 45.50 44.98
51.34 49.94 50.81 49.35 46.10 44.23 46.61 49.69 50.11 46.96 22.98 34.77 37.86 45.23 43.98 40.22 41.06 42.18 47.73 44.67 38.13 37.56 39.06 35.03 35.98 35.95 35.69 36.65 38.98 37.06 39.86 38.62 38.27 34.24 33.09 35.84 31.59 39.20 40.62 39.53 41.69 43.31 44.37 44.65 44.57
51.02 50.88 50.07 50.29 49.51 48.38 50.50 49.95 47.45 33.52 22.90 32.57 38.79 38.28 38.07 40.00 39.74 42.60 42.77 46.11 44.53 39.87 40.25 38.22 41.36 39.84 39.95 40.49 40.46 41.42 39.35 38.11 37.28 34.35 29.16 35.50 34.59 35.94 39.03 39.13 40.74 42.33 42.69 42.81 43.10
52.29 49.51 49.62 49.80 46.29 50.31 49.87 45.86 33.99 27.86 34.55 32.95 34.94 38.16 37.30 35.97 37.42 39.21 38.74 38.49 37.53 33.20 32.51 37.44 38.06 41.16 41.45 37.96 40.79 38.73 35.32 31.61 29.21 29.20 30.79 36.59 33.01 36.41 40.76 39.70 39.78 39.25 40.15 41.61 42.08
50.63 49.27 48.66 49.16 50.13 49.12 46.55 39.54 28.54 31.60 32.80 37.95 37.63 37.81 34.38 37.43 37.04 37.78 37.61 36.76 39.29 39.20 35.56 33.79 31.39 38.71 42.29 39.87 36.74 36.18 35.69 31.68 25.24 28.58 30.76 35.53 29.72 37.68 41.02 41.29 40.62 39.88 39.87 40.80 40.76
47.40 50.00 50.04 49.74 49.77 49.34 42.48 32.52 31.42 33.60 37.41 36.17 37.52 34.39 34.48 36.91 37.85 38.14 38.01 37.83 39.81 40.52 33.92 33.73 32.95 40.99 42.34 43.50 42.19 36.31 34.86 39.14 32.54 34.06 28.76 34.29 38.08 40.73 40.49 39.31 38.17 37.75 38.90 38.73 39.81
50.17 48.95 47.78 49.30 50.36 46.65 41.33 33.28 35.85 39.85 40.24 39.07 33.52 37.06 33.48 35.63 36.58 37.25 37.34 40.56 39.19 41.71 43.21 38.99 34.01 40.44 41.87 43.18 43.91 40.00 40.99 32.66 33.54 25.80 26.40 33.72 34.97 36.21 37.00 38.04 37.85 37.09 37.70 38.21 39.87
50.52 47.58 50.21 50.77 49.07 46.24 36.97 37.31 39.41 42.38 42.37 38.90 36.91 36.24 37.30 36.29 38.16 37.19 37.12 40.01 42.62 41.67 43.23 41.65 39.14 37.23 40.95 39.54 38.33 37.75 35.54 36.19 35.63 33.54 28.13 28.97 35.03 40.44 38.21 38.09 37.50 37.66 38.51 38.86 39.47
51.50 43.31 52.43 51.67 45.41 44.13 39.21 40.26 40.66 41.32 43.36 41.76 42.10 40.51 39.22 38.94 38.36 38.50 37.93 40.58 44.89 44.13 39.25 41.85 38.56 34.56 37.00 42.25 43.05 41.81 38.58 37.49 31.99 31.79 34.62 32.84 33.96 42.55 40.94 40.16 39.16 39.21 39.49 40.16 41.16
47.06 47.65 53.98 53.94 41.37 40.97 41.98 40.60 41.93 41.47 40.99 41.53 40.82 42.38 42.11 39.51 36.63 39.43 39.64 43.57 44.12 42.89 40.59 41.72 37.61 32.64 33.10 37.07 39.67 37.33 39.65 38.83 37.42 36.10 32.21 31.16 35.00 43.20 41.69 40.15 39.87 39.48 40.47 41.51 43.24
49.06 43.46 48.16 47.74 45.10 42.84 41.24 40.29 39.17 42.74 41.72 42.18 41.51 42.81 40.91 39.21 40.98 38.34 39.12 42.03 44.01 43.53 42.66 42.45 38.29 34.68 32.00 34.09 37.33 35.24 37.09 37.50 36.26 32.87 34.78 34.78 36.96 39.98 41.11 40.13 40.29 40.63 42.18 43.74 44.42
47.68 43.37 43.12 42.54 41.79 42.99 42.81 41.10 39.53 38.80 42.87 43.16 41.00 40.62 39.52 37.45 38.16 37.73 39.63 40.32 42.36 42.76 42.47 41.17 35.00 36.49 36.79 37.56 37.52 36.41 36.22 37.40 34.00 35.31 32.33 37.25 36.39 40.01 43.21 42.62 42.64 43.46 44.03 43.96 44.11
46.40 45.20 44.42 43.31 41.01 42.45 41.17 39.48 39.32 39.73 40.71 39.73 39.17 39.87 40.96 38.34 38.50 37.12 38.77 39.24 38.59 40.84 40.07 40.70 35.41 36.07 32.03 37.02 36.12 34.19 36.80 37.23 37.31 37.16 36.56 36.98 36.33 43.54 44.99 46.57 44.24 44.06 44.37 43.98 43.74
48.38 47.55 44.75 39.61 41.69 41.72 40.79 39.91 39.46 40.86 41.40 42.07 41.28 40.65 39.43 40.33 42.37 43.39 43.79 43.16 41.86 39.57 38.30 37.52 36.51 34.01 30.71 34.97 34.82 30.78 35.42 36.19 37.44 38.95 38.17 34.53 40.16 43.52 42.63 44.09 44.69 44.94 45.23 44.60 44.50

GFSSW_sfc_wetblb_108.txt.gz
Wetbulb
54.70 55.34 55.67 55.88 55.41 55.52 54.50 54.82 55.31 55.20 54.42 54.27 55.70 55.88 57.95 60.63 58.08 55.33 51.84 53.77 56.32 58.92 56.93 53.77 54.05 54.45 56.06 51.99 52.45 50.07 38.93 37.19 39.09 40.35 41.16 44.75 43.67 45.93 46.53 43.47 45.31 46.04 45.41 47.86 48.91
54.02 54.12 54.27 54.38 54.42 54.66 54.42 54.32 54.86 55.24 54.83 54.43 54.61 54.99 57.31 58.54 54.51 53.68 55.40 57.25 59.87 57.59 52.98 50.37 49.45 51.16 47.18 48.53 47.80 42.60 37.25 39.69 43.75 43.50 42.72 44.72 43.35 42.80 42.22 42.73 42.53 43.83 46.87 48.31 48.64
53.26 53.10 53.11 53.23 53.64 53.90 54.20 54.36 54.35 55.22 54.99 55.19 54.79 55.57 57.04 56.87 50.14 50.99 56.67 59.10 59.67 57.45 54.88 52.24 52.59 50.90 45.74 46.42 44.86 43.22 39.81 43.17 43.71 45.10 44.57 43.23 42.09 44.21 41.60 39.94 42.27 41.45 43.77 45.63 46.18
53.18 52.73 52.76 52.80 52.87 53.19 53.22 53.54 54.10 55.06 54.56 53.56 55.16 57.51 57.70 54.65 40.92 50.64 58.35 60.57 58.47 56.57 53.18 50.18 48.97 45.00 43.32 41.71 45.56 39.89 44.02 44.10 44.87 44.82 43.39 41.35 42.61 40.54 41.26 40.76 44.41 43.93 44.49 44.15 44.10
53.29 53.00 52.84 52.63 53.09 52.89 52.54 52.97 54.94 55.23 54.86 53.18 54.28 56.70 53.75 48.16 47.05 54.64 59.86 59.40 54.99 53.87 50.47 47.87 45.20 44.78 41.62 42.83 43.24 40.27 42.52 44.04 44.37 43.52 42.03 42.64 39.79 39.44 39.63 43.01 44.12 45.13 45.42 43.93 44.81
53.51 53.22 52.96 52.77 52.56 52.34 52.99 53.64 54.52 54.72 54.65 53.47 54.34 56.50 50.40 43.75 53.08 56.43 57.83 55.86 52.57 52.03 50.26 49.32 46.63 47.87 43.57 42.64 40.97 42.92 43.40 42.41 42.34 41.83 41.54 39.45 38.98 40.09 40.89 43.76 44.55 46.39 46.23 46.21 46.52
53.53 53.18 52.80 52.72 52.50 52.31 52.16 52.46 53.27 53.91 53.78 53.84 53.26 53.90 48.42 46.75 54.69 54.74 53.35 52.73 53.30 52.70 49.39 50.10 49.51 46.47 44.79 40.31 43.41 41.95 37.49 39.65 40.37 41.14 40.27 41.21 38.11 38.00 42.02 42.93 43.42 46.17 46.40 46.86 47.42
52.95 53.17 52.83 52.60 52.05 51.91 51.95 52.58 52.35 52.25 52.67 53.64 53.61 51.96 45.28 53.97 54.28 52.61 51.84 50.52 52.11 51.94 49.89 49.90 49.46 45.83 44.06 43.03 40.84 37.88 35.67 31.22 38.25 40.52 41.12 39.61 33.02 41.40 42.41 42.56 43.00 45.16 46.89 47.83 48.92
53.11 53.08 52.84 52.45 52.31 51.88 51.00 51.51 52.15 52.40 51.88 52.79 50.41 48.03 42.82 52.81 49.04 51.86 51.61 47.79 49.08 49.25 49.22 49.05 47.82 42.22 41.67 36.93 33.01 34.00 30.36 31.76 35.44 41.29 40.97 38.47 34.89 42.48 44.69 44.84 42.80 43.39 45.80 46.96 48.35
52.27 51.76 51.51 51.34 51.21 51.39 52.42 51.49 52.26 51.97 51.43 51.35 48.95 44.03 45.26 42.49 48.13 50.36 51.39 50.26 46.49 46.30 44.88 43.88 41.88 36.89 36.62 34.53 28.38 29.99 29.58 33.03 31.21 38.83 39.12 36.83 36.32 41.12 44.18 44.57 41.52 41.43 43.21 44.93 47.04
51.50 51.46 50.83 50.04 50.10 50.92 51.08 48.96 43.81 41.36 42.32 40.64 40.50 41.54 42.51 46.03 48.70 47.83 50.12 47.72 46.27 43.59 37.14 41.62 35.80 32.68 35.29 35.54 36.00 34.21 31.92 30.95 36.37 40.51 36.88 36.79 38.02 40.53 43.35 43.51 41.76 41.51 42.39 43.87 45.44
50.91 51.27 51.41 50.09 50.12 49.91 49.94 43.69 43.15 44.13 35.45 42.31 43.55 43.70 46.14 46.84 41.53 44.94 49.49 42.60 41.26 36.70 38.96 37.09 33.70 37.04 38.40 38.16 36.83 35.92 34.51 33.97 38.54 40.33 38.11 36.90 37.49 41.09 43.02 42.63 42.76 41.96 41.90 42.99 44.50
51.40 50.35 50.89 50.51 50.76 49.05 46.06 44.48 49.83 48.34 35.60 37.21 41.65 40.97 43.11 45.61 40.61 41.03 46.02 43.83 40.36 36.74 37.06 34.00 35.26 39.03 38.03 35.03 35.44 34.46 33.60 34.21 33.30 38.86 39.98 37.63 35.13 37.50 41.14 43.48 44.67 44.20 44.26 44.58 44.64
51.08 51.17 50.43 50.08 47.25 47.50 44.33 49.09 50.66 49.63 32.96 31.35 36.81 39.87 43.56 44.16 39.18 46.74 47.43 43.74 41.02 36.02 37.99 35.62 38.41 37.13 35.79 34.74 36.91 32.99 38.55 37.96 36.90 32.93 25.96 36.32 23.35 34.60 38.39 39.98 42.03 43.05 42.07 42.33 42.58
51.22 50.78 50.24 51.14 46.14 44.61 46.57 50.01 50.22 47.24 21.50 34.79 38.05 45.51 44.36 40.05 40.09 41.85 48.11 44.72 37.55 37.15 37.89 33.52 34.31 34.58 35.51 36.67 38.89 35.97 40.01 38.16 37.59 34.03 32.50 32.66 25.17 32.56 37.98 36.95 39.37 40.85 41.85 41.24 41.93
52.28 50.49 50.73 50.33 49.02 48.43 50.45 50.25 47.09 32.56 22.26 32.36 38.53 38.16 37.88 40.11 40.13 42.80 43.02 46.52 44.65 39.71 39.14 36.99 41.47 39.63 39.39 40.69 40.05 41.10 38.36 37.83 37.32 34.21 26.66 31.04 28.84 29.56 34.07 36.53 38.72 40.61 39.82 41.39 42.67
52.65 49.62 50.09 49.99 45.45 50.53 49.74 44.89 32.09 25.56 34.63 32.81 35.59 37.80 36.92 36.08 37.81 39.79 38.46 37.53 35.49 30.91 30.73 36.91 37.43 40.87 41.71 38.18 40.61 38.67 34.58 27.80 25.27 25.73 21.27 34.33 28.93 30.61 37.84 38.58 38.43 38.55 38.97 41.49 42.05
50.12 49.53 48.19 48.90 49.84 49.47 46.02 37.86 25.84 32.16 32.40 38.19 37.14 37.32 34.34 37.70 37.31 38.08 37.62 34.00 38.35 38.13 32.71 31.36 23.41 38.00 41.14 39.28 37.00 36.42 34.96 28.80 18.49 25.47 27.13 33.82 24.63 31.33 39.20 39.84 39.78 40.42 39.92 41.21 41.15
49.92 49.53 49.24 49.58 50.05 48.46 40.29 30.68 30.84 33.36 37.53 36.19 37.59 34.12 34.16 37.01 37.70 38.09 37.46 36.86 38.63 39.43 33.06 31.89 30.83 40.91 41.68 42.96 41.32 35.65 33.42 38.28 30.00 30.34 23.25 27.61 33.24 37.97 39.39 39.02 38.83 38.28 38.96 39.24 39.95
49.14 48.96 47.41 49.99 49.89 45.80 39.12 33.17 34.81 40.34 40.28 39.48 32.94 36.46 32.09 35.10 35.50 36.44 36.52 39.10 38.89 41.41 41.48 37.45 31.33 39.60 40.95 41.98 42.03 39.84 40.00 31.74 32.25 24.78 22.97 27.85 30.73 31.77 35.03 36.30 38.94 37.84 37.70 38.85 39.83
48.86 46.02 49.44 50.98 48.84 44.31 35.01 35.26 38.72 42.46 42.58 38.61 36.96 36.08 36.29 35.54 37.71 35.71 35.80 38.90 42.04 40.85 41.64 39.94 37.63 35.00 39.54 37.22 36.43 36.82 34.77 35.24 34.63 32.33 26.16 23.45 27.82 37.98 36.72 37.72 37.47 37.84 38.44 38.63 39.74
51.04 41.50 51.05 50.38 43.67 42.41 37.60 40.09 40.48 41.59 43.95 42.33 41.87 40.34 38.20 38.32 37.71 37.04 36.77 39.14 44.03 42.95 38.77 39.27 36.04 29.22 34.42 40.50 40.87 38.11 35.85 34.94 25.90 29.34 29.79 27.43 26.54 40.36 38.68 38.39 38.28 38.65 39.37 39.56 41.14
46.20 46.21 53.21 50.88 39.30 38.57 41.11 40.28 42.11 41.80 41.10 41.81 40.68 42.02 41.51 38.42 34.76 37.86 38.47 42.64 43.61 41.48 37.88 38.45 34.14 24.92 27.05 33.19 36.45 34.34 36.63 37.07 34.72 32.04 25.93 23.08 27.89 40.30 38.48 37.50 38.15 37.42 37.96 40.09 41.40
47.68 39.08 47.64 46.51 43.82 40.80 39.65 39.91 39.22 43.03 42.04 42.69 41.42 42.43 40.19 37.79 39.06 36.61 38.00 41.79 42.77 42.47 43.44 41.14 35.29 30.29 25.24 28.41 33.74 31.18 34.53 36.33 32.87 25.20 28.15 29.33 31.32 35.95 37.51 37.20 37.59 37.68 38.51 38.78 40.33
46.74 41.13 41.69 41.04 40.00 41.19 41.12 40.96 39.50 38.94 42.30 42.59 39.90 40.06 38.61 34.95 36.09 35.55 37.83 38.73 41.51 42.97 39.78 38.09 30.19 31.26 33.79 35.27 34.79 33.25 33.24 34.32 31.20 31.62 26.03 30.03 31.13 34.60 37.34 38.21 38.31 38.94 39.38 39.89 40.60
44.18 42.11 42.31 40.66 40.85 40.55 39.68 38.72 39.38 40.06 39.82 38.72 38.09 39.46 39.41 36.04 36.65 34.68 36.63 35.95 35.37 38.50 36.78 38.26 30.07 30.75 25.53 34.01 33.91 30.62 33.61 34.43 34.59 34.66 33.41 33.55 32.79 39.41 40.50 40.53 39.43 39.39 40.32 40.86 41.22
46.94 45.72 42.60 39.93 40.19 38.40 37.71 38.81 39.58 40.61 41.06 41.58 40.18 38.91 37.54 38.97 39.99 39.95 39.87 39.78 38.01 34.74 35.31 34.53 31.45 27.81 24.56 32.12 31.29 24.89 31.70 32.78 33.80 35.25 35.50 31.05 35.63 37.99 36.40 40.20 40.61 39.86 41.36 41.20 41.43

GFSSW_sfc_wetblb_111.txt.gz
Wetbulb
54.36 54.16 54.18 53.94 55.08 54.70 55.05 55.58 56.27 55.79 54.78 54.64 56.44 56.20 57.19 59.97 58.72 55.21 51.08 52.46 55.30 59.38 57.36 52.70 52.13 52.56 52.64 48.94 48.92 45.50 35.32 33.30 35.89 38.22 39.15 42.70 41.65 44.49 44.61 40.90 42.93 43.06 42.25 45.16 46.14
53.41 53.34 54.58 54.63 55.15 55.09 55.61 55.49 56.23 55.69 55.26 54.34 54.97 54.90 59.00 59.30 54.58 52.63 55.42 57.66 59.09 57.52 52.90 48.24 47.34 49.82 44.48 45.94 44.66 38.84 33.40 36.39 40.59 39.75 39.84 42.84 41.90 40.87 40.28 40.35 40.18 41.25 44.04 45.26 45.73
52.84 53.40 53.58 53.61 53.68 54.41 54.81 54.61 55.81 55.69 55.72 54.54 54.88 55.41 58.26 57.65 49.51 49.48 57.19 58.12 58.90 57.10 54.56 51.21 50.44 48.28 42.57 42.83 41.24 39.64 36.30 40.74 42.18 42.88 42.61 41.24 40.74 41.81 39.68 38.06 39.74 38.55 41.45 43.36 43.94
52.81 53.37 53.63 53.62 53.51 53.80 53.99 53.99 55.02 55.63 55.39 54.15 55.44 58.15 58.42 54.66 38.13 51.49 58.23 59.68 58.21 56.67 53.24 48.51 46.82 41.70 39.57 38.39 42.59 37.00 41.71 42.32 43.20 43.32 41.42 38.81 40.35 38.08 38.21 39.16 41.35 40.77 41.92 42.21 42.55
53.15 53.76 53.60 53.61 53.68 53.22 53.08 53.32 55.23 55.58 55.00 53.96 54.81 56.98 53.11 48.16 45.71 54.76 59.63 58.97 55.29 53.19 49.44 46.00 42.36 41.28 38.61 39.29 40.32 38.04 40.07 42.62 42.56 42.04 40.38 41.17 37.57 36.62 37.86 40.82 41.54 44.06 44.88 42.96 43.14
53.80 53.71 53.45 53.11 53.08 53.36 53.64 53.98 54.64 55.03 54.35 54.03 54.12 55.83 49.91 42.71 53.32 55.44 56.58 55.59 52.63 51.17 47.99 46.72 43.13 44.71 40.78 39.83 38.01 40.63 41.24 40.31 40.41 40.17 40.05 38.10 36.87 38.67 38.85 41.49 43.16 44.06 44.16 43.75 44.52
54.06 53.53 53.32 53.12 53.10 53.19 53.25 53.73 53.51 54.22 54.39 53.90 53.72 53.66 47.79 46.90 54.36 54.44 52.67 52.19 51.73 50.76 46.64 47.03 45.57 43.65 41.30 37.92 41.04 39.92 35.67 37.14 37.99 39.36 38.39 39.18 35.07 35.84 39.35 41.53 41.28 44.09 44.90 46.29 47.42
53.55 53.14 52.98 52.50 52.70 53.10 53.40 53.08 52.74 53.21 54.15 54.07 54.42 50.85 44.29 53.49 54.18 52.15 51.82 49.22 49.93 50.36 48.49 48.06 47.35 43.24 40.69 40.25 38.61 35.24 33.54 28.39 36.22 38.76 39.68 37.44 29.39 39.37 41.03 40.24 40.31 43.24 45.87 46.74 48.20
53.30 53.39 53.03 52.88 52.40 52.21 52.45 52.72 52.94 52.71 53.72 53.06 49.15 48.17 42.68 53.64 49.27 51.61 52.17 47.79 47.63 47.61 47.58 49.09 45.82 39.56 39.12 33.45 28.17 30.83 25.16 28.98 33.03 39.71 39.33 36.38 31.81 38.95 40.79 42.09 41.02 41.29 44.06 45.71 47.07
51.87 51.50 51.43 51.50 51.67 52.72 52.07 52.01 51.99 50.24 49.61 50.72 49.14 43.40 44.40 44.20 48.90 50.11 50.55 50.24 46.36 44.49 43.62 42.02 38.95 34.08 33.57 31.43 20.37 25.38 25.34 30.79 29.19 36.71 37.29 34.69 34.07 38.30 41.43 41.83 39.96 40.24 41.46 44.16 45.16
52.09 51.84 50.68 50.73 51.91 52.99 50.00 45.38 42.88 41.00 43.49 40.91 41.85 41.40 43.45 46.82 49.44 47.27 49.96 47.48 45.65 41.58 33.01 39.61 32.15 26.80 31.64 33.29 33.74 31.48 30.23 29.12 33.87 39.02 35.31 34.06 35.36 38.27 40.76 40.88 39.70 39.19 40.44 41.98 43.94
51.04 51.51 50.54 51.33 51.67 51.05 47.41 42.38 43.10 43.81 35.59 42.39 42.70 44.25 46.29 47.22 40.83 44.79 49.34 41.90 40.23 34.43 36.59 33.47 28.86 35.24 37.68 37.41 35.47 34.09 31.85 31.53 37.03 40.16 37.12 35.56 35.69 39.57 40.69 40.58 40.82 41.00 40.36 41.63 42.57
51.20 50.86 50.84 51.17 51.20 47.53 44.00 44.23 48.72 46.53 35.30 37.30 41.79 41.19 42.80 45.26 40.61 41.35 46.39 42.92 37.86 34.74 33.98 29.83 33.11 38.35 37.10 34.18 34.27 31.83 30.89 32.22 30.82 37.06 38.04 35.32 31.77 35.57 39.78 41.44 42.72 42.51 42.42 42.51 41.94
51.35 50.98 50.30 50.12 45.37 44.11 42.49 48.26 49.39 49.27 29.80 31.13 37.37 40.56 43.86 44.56 39.41 46.96 47.31 43.34 38.37 34.06 35.57 32.84 36.49 36.17 34.93 34.19 35.37 30.96 37.48 36.88 36.19 29.81 22.88 33.99 20.19 31.40 36.86 38.49 40.69 41.09 40.03 40.25 40.89
51.20 50.74 49.87 49.91 42.94 41.91 45.55 48.59 48.51 44.77 14.55 34.71 37.70 46.10 44.33 40.04 40.20 40.80 46.92 43.28 36.38 36.55 35.05 29.94 32.52 32.86 34.21 35.47 37.41 34.44 39.29 37.08 36.02 31.25 27.73 29.06 22.07 28.66 35.40 34.91 37.60 39.03 39.49 38.92 39.01
51.00 50.79 51.13 48.03 45.22 46.54 48.46 46.97 44.87 24.05 19.67 32.25 38.60 38.42 38.12 39.71 39.82 41.93 43.32 44.90 42.67 37.72 36.84 34.93 39.18 37.80 37.49 39.45 38.81 39.91 36.46 35.48 34.45 32.82 19.06 27.84 26.03 26.38 31.49 35.11 37.63 38.74 37.01 39.47 39.25
51.60 50.80 49.14 49.11 42.73 47.85 46.75 41.46 25.72 21.13 34.28 32.73 35.23 37.39 36.66 35.97 37.35 39.29 38.16 36.05 32.92 23.93 26.23 35.06 35.50 39.08 40.60 36.14 38.88 36.67 29.44 19.26 18.17 18.04 17.72 31.92 27.02 29.01 36.21 36.43 37.28 36.91 35.77 37.19 38.41
50.86 50.22 48.06 48.01 47.91 47.50 43.38 33.71 22.52 32.04 33.34 38.08 36.90 37.16 34.19 37.11 37.02 38.08 35.33 31.36 36.06 35.49 27.77 24.33 19.77 36.17 39.45 37.97 33.35 36.37 34.54 20.38 11.35 16.63 19.19 31.10 23.37 29.24 37.90 38.75 38.67 38.86 37.61 40.94 40.15
50.45 44.62 44.42 46.06 48.12 45.68 37.64 28.53 26.18 30.97 36.82 35.22 36.26 33.33 33.24 36.95 36.99 36.21 36.31 35.02 36.55 36.84 27.78 28.39 28.88 39.38 39.47 42.59 40.73 33.80 32.41 37.30 24.94 25.93 19.21 22.65 30.44 36.08 38.02 37.45 37.25 36.68 38.66 37.66 40.23
43.31 43.30 43.06 47.29 46.70 42.50 33.20 29.29 32.53 39.28 39.41 38.12 30.11 34.50 30.05 33.49 33.23 33.98 32.78 36.52 36.91 39.59 39.05 35.31 27.48 37.90 39.43 40.85 41.03 39.30 39.82 30.93 29.48 16.38 21.87 22.45 25.98 28.80 33.18 35.37 37.32 36.77 37.44 39.46 38.87
42.58 40.00 45.45 47.73 44.56 38.34 27.09 29.68 37.21 41.42 41.28 37.33 34.79 33.32 32.74 33.02 34.40 32.88 32.20 36.67 40.22 38.93 39.20 37.97 35.75 33.74 37.87 35.31 34.92 35.78 32.73 33.28 32.46 31.60 23.82 20.45 24.94 37.09 35.17 36.06 36.03 36.88 37.68 38.87 39.88
43.31 34.49 45.71 46.29 35.97 35.61 28.98 37.23 40.80 39.97 41.49 39.91 39.34 37.72 34.52 36.34 34.69 33.79 33.96 36.53 41.75 41.03 35.93 36.98 34.36 26.82 32.28 38.49 40.04 36.70 33.56 32.93 24.75 26.20 29.86 25.22 26.05 39.60 37.87 37.34 37.03 36.67 37.76 38.80 39.87
40.46 40.10 46.36 45.99 30.64 28.47 36.85 38.78 39.90 39.59 38.98 39.49 38.44 39.64 38.75 35.60 32.31 34.99 36.08 40.71 42.24 39.66 36.23 36.72 31.55 21.22 25.86 31.15 34.82 32.89 34.78 35.33 32.27 29.15 23.85 21.46 25.57 38.00 36.33 36.01 37.23 36.17 36.63 37.63 38.73
41.50 32.59 41.19 40.23 38.74 34.22 35.16 36.46 36.69 40.67 39.70 40.48 39.00 39.60 37.10 34.55 36.14 34.40 35.60 40.06 41.36 40.62 43.59 40.43 33.11 28.40 24.80 27.40 31.91 29.61 33.01 34.34 31.27 21.81 23.89 26.05 27.95 33.35 36.11 36.10 36.26 36.21 36.89 36.81 38.81
39.50 33.90 37.30 30.72 35.32 35.74 37.00 37.58 36.45 36.08 39.64 39.64 36.90 37.21 35.24 31.61 32.78 32.59 35.94 36.25 39.65 42.50 38.41 36.46 28.32 28.23 31.62 33.00 32.83 32.06 31.42 32.37 30.11 31.09 26.22 26.68 29.05 32.21 35.85 36.47 37.28 38.18 37.29 37.36 38.05
37.95 36.90 37.25 35.43 36.67 35.65 36.60 34.75 36.51 37.56 37.28 36.03 35.31 37.24 35.80 32.81 33.27 31.49 34.00 33.40 34.18 36.16 35.33 36.05 27.76 29.54 24.28 31.79 31.28 29.03 31.37 32.43 32.69 33.71 32.36 32.48 31.70 37.86 39.72 36.99 37.03 37.07 37.88 38.39 39.10
40.76 39.93 38.31 36.65 34.81 32.72 32.99 34.66 36.74 37.83 38.46 38.90 37.09 35.65 35.01 36.60 36.62 36.63 36.86 36.32 35.46 34.01 33.30 33.12 28.72 24.99 22.01 28.76 28.44 23.09 28.25 31.33 31.90 32.96 34.31 29.48 34.71 35.59 35.81 37.38 38.05 38.09 38.93 39.46 40.21

GFSSW_sfc_wetblb_114.txt.gz
Wetbulb
55.02 54.08 54.28 55.34 55.10 54.77 55.30 55.35 56.80 55.78 54.83 55.25 56.45 58.46 58.75 60.59 58.85 55.03 50.23 51.92 54.46 58.82 57.95 52.12 50.85 51.50 51.71 47.70 47.65 43.23 34.44 32.00 34.23 36.95 38.17 41.83 40.53 42.56 43.37 39.93 41.91 42.11 41.30 42.77 44.45
53.45 53.09 53.93 54.88 55.31 53.66 53.44 55.20 56.16 55.78 54.86 55.18 55.42 55.27 57.73 59.76 55.07 52.42 55.32 58.09 58.69 57.57 52.27 47.03 47.03 47.98 44.40 45.16 43.63 38.36 33.78 35.53 39.04 38.67 39.44 40.66 39.74 38.46 38.73 39.02 38.98 38.69 41.69 42.93 43.83
54.06 54.17 54.07 54.16 54.55 54.49 55.15 55.10 56.08 55.81 54.92 54.56 54.78 55.19 59.03 57.21 49.86 48.48 58.55 57.96 58.63 57.02 53.88 51.37 49.43 46.61 41.49 42.25 40.79 39.64 36.01 40.18 41.35 40.88 41.35 39.81 38.23 39.76 37.84 36.02 37.23 36.69 39.71 41.41 41.96
53.79 54.22 54.14 54.21 54.07 54.17 54.52 54.26 55.61 56.05 55.31 54.38 55.91 57.76 57.83 53.97 39.37 52.01 60.21 59.29 57.98 55.70 51.91 47.31 45.69 40.71 38.55 37.70 41.39 37.23 40.90 41.89 42.00 42.01 39.99 37.34 38.68 35.76 36.89 37.23 40.01 39.96 40.97 41.66 43.00
53.87 54.01 54.03 53.88 53.60 53.51 53.46 53.33 54.49 55.63 54.48 54.19 55.15 57.61 53.24 46.20 46.48 54.50 59.79 58.84 54.21 52.16 48.38 44.71 41.13 40.33 37.40 38.44 39.01 37.45 39.13 41.62 41.55 40.67 38.81 39.83 35.98 35.01 36.30 39.86 40.15 42.61 44.17 42.55 42.78
53.98 53.79 53.47 53.41 53.72 53.82 54.14 54.37 54.58 54.87 54.09 54.10 54.34 55.56 49.71 41.03 53.30 54.67 54.86 54.85 51.96 50.03 46.18 44.98 41.83 43.11 39.55 38.02 36.76 39.55 40.11 39.30 39.31 38.80 38.94 36.71 35.38 37.36 37.37 39.35 41.26 42.74 42.66 43.33 45.21
53.78 53.49 53.40 53.34 53.60 53.70 54.14 54.63 54.54 54.67 54.58 54.05 54.62 53.32 47.63 47.02 53.71 55.05 52.66 50.04 49.91 49.46 45.03 45.64 44.49 42.28 39.71 36.76 39.56 39.06 34.71 35.98 36.64 38.10 37.12 37.81 33.35 34.84 37.86 39.53 40.09 42.31 44.86 46.46 48.31
53.35 53.04 52.93 53.31 53.45 53.44 53.53 53.62 53.28 53.62 54.00 54.66 54.70 50.20 45.24 53.11 54.96 51.37 52.21 49.00 48.48 48.69 47.62 47.42 46.10 42.11 39.52 39.18 37.53 33.93 32.11 27.76 34.88 37.36 38.40 35.83 28.10 37.80 39.95 38.36 37.75 41.74 44.91 46.93 47.88
53.08 53.05 52.81 52.58 52.91 52.75 53.19 53.51 53.24 53.42 53.79 53.44 48.49 45.96 42.22 53.58 48.65 51.37 51.66 47.60 47.27 46.62 46.80 48.53 44.56 38.38 38.09 31.94 26.76 29.35 21.98 27.03 31.87 38.21 37.93 34.74 29.28 37.31 38.06 40.10 38.65 40.15 43.14 45.36 46.12
51.58 51.26 51.45 52.67 52.93 52.64 52.53 52.34 52.35 50.50 49.58 50.22 48.75 41.93 45.21 44.60 48.48 49.65 50.86 49.71 45.62 43.25 42.01 41.45 37.76 32.92 31.81 28.05 19.45 23.73 24.99 29.13 28.23 35.00 35.87 33.15 32.99 36.79 39.64 39.65 38.52 38.49 41.02 43.56 44.15
51.88 50.75 51.65 52.59 53.30 53.27 48.73 45.63 41.98 41.20 43.73 41.72 41.93 41.96 43.79 47.24 49.77 47.19 49.48 47.03 44.91 40.23 32.68 37.86 30.92 25.95 30.38 32.43 33.20 31.16 29.43 28.38 32.31 37.48 33.98 33.00 33.52 35.81 38.85 39.02 37.37 37.86 40.35 41.41 42.87
51.10 50.75 52.18 52.57 51.79 51.47 46.30 41.76 43.19 43.91 36.38 42.64 43.74 44.31 46.59 46.89 41.10 44.80 49.57 41.36 41.26 33.00 36.24 32.14 26.98 33.73 36.96 36.49 34.54 33.14 30.40 29.19 34.82 38.39 35.99 34.48 34.82 38.27 39.09 38.69 39.14 39.34 39.35 40.78 41.21
50.64 51.10 51.05 51.44 50.92 46.76 43.68 44.19 47.98 46.28 35.63 38.00 42.42 41.36 43.04 45.23 40.29 41.90 46.06 42.52 37.91 34.05 33.41 29.12 32.29 37.48 36.04 33.45 33.08 31.60 30.79 31.52 30.09 36.36 36.68 33.80 30.43 34.91 39.45 39.58 41.07 41.10 41.26 41.28 40.82
51.16 50.78 50.25 50.67 44.95 43.34 41.91 47.54 48.89 47.79 27.81 31.20 37.50 41.13 43.98 44.77 39.26 46.10 47.20 43.25 38.66 33.86 34.41 31.78 35.49 35.46 33.93 32.96 33.87 28.63 36.43 36.16 35.40 29.06 22.21 32.76 19.48 30.32 34.80 37.69 39.12 40.34 38.92 38.70 39.12
50.87 50.30 50.94 49.18 42.41 40.51 44.50 47.71 47.09 42.85 15.38 34.39 37.75 45.52 45.02 39.73 39.50 41.60 46.54 43.46 36.91 37.16 33.97 28.61 31.63 32.26 33.60 34.04 36.49 32.87 37.85 35.83 34.80 29.87 26.11 27.18 20.78 29.05 34.16 34.32 36.89 38.33 38.43 37.37 37.73
50.69 50.89 51.35 46.45 44.42 45.76 47.77 46.70 43.33 22.99 18.66 32.73 39.24 37.93 37.71 39.57 39.57 41.14 42.46 44.59 42.94 37.00 35.72 33.27 37.39 36.77 36.15 38.20 37.80 38.69 35.08 34.36 32.66 27.61 17.42 25.35 24.64 26.60 30.56 33.90 35.78 38.08 37.30 39.11 38.64
50.40 52.00 48.47 48.53 41.64 47.39 46.13 40.98 25.06 20.49 33.64 33.42 34.51 37.03 36.54 35.31 37.17 38.42 36.76 35.13 32.87 24.20 23.19 33.39 34.28 37.78 39.49 35.01 37.69 35.39 26.86 15.28 16.43 20.28 16.06 29.38 25.70 28.96 34.37 36.58 37.00 37.66 36.98 37.73 39.73
51.22 49.90 48.07 47.53 47.24 46.27 42.17 31.38 21.78 31.51 33.08 37.40 37.02 37.14 33.49 36.57 36.88 36.94 34.14 30.81 34.86 32.86 25.84 20.00 19.72 34.63 38.37 35.83 32.40 32.70 28.64 18.05 12.44 16.77 18.28 28.42 22.92 29.18 36.19 37.37 37.69 38.54 37.64 38.36 39.21
50.40 43.76 43.58 45.16 47.81 45.37 35.94 27.03 24.62 31.01 36.15 35.29 35.80 32.84 32.41 36.29 36.09 35.19 33.20 33.43 34.94 35.35 27.55 25.21 25.53 38.09 38.46 42.30 38.49 31.89 25.53 34.20 23.98 23.23 20.97 21.53 27.93 34.60 36.69 37.04 36.73 36.34 37.22 36.84 37.99
42.84 42.24 42.48 46.29 45.96 41.13 31.62 29.18 32.05 38.06 38.30 37.63 30.30 34.65 30.34 33.48 33.58 33.49 33.28 36.21 35.95 38.06 37.33 33.67 25.61 36.53 38.08 40.21 40.30 36.17 38.06 27.52 26.76 17.26 17.94 19.96 24.02 27.45 32.08 35.08 36.93 35.89 36.21 37.03 38.07
42.03 38.46 44.57 46.36 43.74 37.06 25.74 29.01 36.27 40.22 40.31 36.58 33.81 32.40 32.15 32.19 33.54 32.30 31.61 35.99 38.65 37.56 38.33 36.02 32.20 34.16 38.55 34.40 33.05 34.91 31.29 31.99 29.71 26.17 18.74 19.44 22.82 33.88 34.87 35.46 35.69 36.54 37.67 37.01 37.28
41.13 34.59 44.60 45.26 34.99 32.97 27.98 36.05 40.63 38.76 40.17 38.55 37.61 36.37 33.43 33.94 32.56 31.87 32.24 35.16 39.85 39.52 35.05 35.92 32.59 26.28 32.04 36.53 38.48 35.48 32.83 31.46 23.67 23.52 25.73 23.70 24.83 35.75 36.98 37.07 36.99 36.43 37.33 37.05 38.32
39.19 38.84 45.11 43.47 30.71 27.84 35.68 37.71 38.79 38.49 37.80 38.14 37.40 38.51 37.66 34.37 31.20 33.97 34.78 39.76 41.25 38.74 34.63 35.26 30.50 20.69 26.01 30.62 33.36 33.41 33.98 33.37 30.52 27.64 23.56 20.62 23.96 36.83 35.39 35.33 36.62 35.99 35.95 36.73 37.90
38.95 32.52 39.12 38.58 36.66 33.81 33.45 35.03 35.34 39.56 38.60 39.01 37.66 38.57 36.23 33.54 34.83 32.99 33.88 38.79 39.85 39.69 42.97 39.91 31.62 27.08 21.98 26.27 30.50 29.32 31.47 33.44 30.84 21.79 23.69 25.22 26.39 30.74 35.56 35.63 36.30 35.75 36.15 36.07 37.46
36.57 33.15 35.96 29.83 34.24 34.20 34.88 35.68 34.77 34.63 38.25 38.35 35.53 35.67 33.59 30.10 31.38 31.60 34.80 35.23 38.66 41.93 37.54 35.70 27.75 26.57 30.12 31.60 31.66 31.43 31.10 31.65 29.72 32.32 25.82 26.01 27.81 33.54 33.87 34.75 37.41 38.14 36.91 36.15 36.63
37.15 35.14 35.50 33.75 34.98 33.19 34.76 34.00 35.06 35.84 35.59 34.25 33.70 35.50 34.21 31.36 31.97 31.18 32.91 33.04 33.54 34.88 34.39 34.75 26.87 27.51 24.00 29.78 29.61 28.34 30.48 31.90 32.17 32.77 31.67 32.43 31.57 38.83 39.22 33.83 35.46 36.45 36.76 37.32 37.88
38.92 38.37 36.48 34.57 33.13 31.15 32.06 34.40 35.85 36.98 37.47 37.79 36.18 34.21 33.29 35.04 36.22 35.22 35.46 35.31 33.72 33.68 32.74 32.05 28.11 24.12 21.54 26.23 27.22 22.87 28.41 30.52 30.18 31.15 33.43 29.30 34.73 34.31 34.31 34.75 35.25 35.74 36.97 38.30 38.97

GFSSW_sfc_wetblb_117.txt.gz
Wetbulb
55.00 53.72 53.52 54.31 54.91 54.46 53.98 54.89 56.47 56.38 55.51 55.28 56.93 59.34 60.44 60.74 58.88 54.33 49.17 51.82 54.08 58.43 57.60 51.69 49.65 50.33 50.67 46.53 46.09 41.92 33.81 31.33 33.88 36.15 37.22 40.14 39.34 40.83 41.49 39.39 40.87 40.00 39.99 42.03 43.25
54.10 53.59 53.71 53.81 55.35 55.03 53.98 54.30 55.20 55.81 54.75 55.40 55.40 57.51 57.99 59.92 55.20 51.80 57.01 58.88 58.64 57.94 50.78 46.51 46.33 47.50 43.47 43.12 42.37 37.94 33.08 35.14 37.99 37.20 37.65 39.07 38.58 37.46 37.75 37.95 38.00 37.89 40.40 41.97 42.85
54.68 54.62 53.84 53.63 53.90 53.90 54.68 53.46 54.10 55.24 55.16 54.70 54.86 55.24 57.62 58.72 50.27 48.91 60.30 60.50 58.82 56.40 52.63 50.29 48.46 45.71 40.77 40.24 38.99 38.25 35.53 39.45 39.91 39.95 40.61 38.74 37.35 38.34 37.26 34.71 35.96 35.96 37.69 39.92 41.40
54.83 54.73 54.53 54.36 53.35 53.91 54.47 54.81 54.91 55.34 55.07 54.68 56.29 56.65 58.72 54.04 38.32 52.51 59.65 61.96 58.37 54.44 50.34 46.55 44.65 39.91 37.19 36.91 39.81 36.59 40.14 41.14 41.25 40.81 39.34 36.66 37.57 34.73 35.55 35.07 39.28 38.64 39.61 41.04 40.97
54.44 54.19 53.99 53.85 53.76 53.54 53.65 53.63 54.38 55.08 54.45 55.08 55.28 56.92 53.48 46.33 46.69 55.04 59.53 56.72 53.21 51.04 47.01 44.01 40.48 39.39 36.31 37.38 38.72 36.42 38.22 40.77 40.71 39.61 38.06 38.86 34.92 33.31 34.90 38.29 38.24 39.91 42.30 41.48 42.68
54.13 53.74 53.59 54.03 54.04 54.20 54.07 54.12 54.60 54.79 54.60 54.27 55.28 55.50 48.54 39.72 53.47 54.78 56.04 52.19 50.38 48.51 44.67 44.00 40.92 42.11 38.29 36.81 36.06 38.07 38.95 38.08 38.33 38.07 38.27 35.73 34.03 35.70 35.50 37.62 39.32 41.20 41.91 44.08 46.20
53.61 53.32 53.37 53.81 53.97 54.16 54.56 54.76 54.79 54.89 54.54 55.12 55.24 52.74 47.83 44.79 53.81 54.53 53.11 50.45 48.36 48.15 43.61 45.12 43.60 41.13 38.98 35.85 38.13 37.63 33.82 34.95 35.92 36.82 36.36 36.87 32.32 33.60 35.97 38.16 39.48 42.14 44.37 46.87 47.45
53.58 53.46 53.51 53.14 53.29 53.70 53.66 53.99 54.22 54.03 54.62 54.73 55.03 49.18 45.08 53.20 54.60 52.06 52.14 49.27 47.60 47.52 46.27 46.53 45.39 40.97 38.36 38.14 36.15 32.53 30.97 27.23 33.83 36.24 37.53 34.11 27.59 34.90 38.08 37.24 36.00 41.04 45.18 46.43 46.78
52.59 52.55 52.32 52.57 52.73 53.32 53.74 53.90 53.80 53.72 54.16 53.12 47.99 46.42 42.96 53.38 48.54 51.17 51.72 47.35 47.37 45.36 45.91 47.34 43.55 37.44 37.27 31.05 25.90 28.39 21.50 27.00 30.55 36.82 36.77 33.50 28.45 35.52 36.73 37.63 37.24 37.30 43.43 45.31 44.90
51.36 51.52 52.45 52.21 52.42 53.29 53.34 52.50 52.84 50.68 49.37 49.98 48.09 40.34 45.25 43.71 47.91 49.70 51.80 48.91 44.12 42.04 41.72 40.71 35.85 32.10 31.25 26.89 20.88 24.11 25.46 27.69 27.89 33.66 34.53 31.65 32.05 35.57 37.97 37.74 36.40 36.39 39.89 43.36 43.62
51.14 51.52 52.61 52.75 52.33 52.23 48.24 44.56 40.66 41.55 43.81 41.97 42.43 41.92 43.60 47.41 49.58 47.32 49.75 46.17 43.70 38.60 32.40 36.39 29.40 24.19 29.34 30.73 30.08 29.32 28.21 27.80 31.05 36.13 32.68 31.93 32.40 34.76 37.18 36.91 36.32 36.14 38.19 41.19 42.38
51.12 51.62 52.46 51.99 52.16 51.38 46.31 41.61 42.43 44.15 36.65 43.12 43.84 44.19 46.24 46.77 40.54 45.08 48.56 40.80 38.61 32.13 35.13 30.57 26.42 31.90 35.45 35.24 33.01 31.03 28.07 28.00 33.62 36.70 34.79 33.37 33.43 36.37 37.26 37.17 37.65 37.63 38.61 40.11 41.28
50.32 51.05 51.68 51.58 50.54 46.40 43.69 44.33 48.29 46.54 35.61 37.75 42.60 41.75 43.65 45.32 40.64 41.87 46.02 42.16 37.18 33.91 32.70 28.20 31.05 36.50 34.84 32.34 32.26 30.65 28.94 29.36 27.75 34.58 34.74 32.18 28.56 32.85 37.64 38.40 39.53 39.72 40.11 40.75 40.73
50.36 50.53 50.82 51.06 44.48 42.52 41.42 47.27 48.02 48.17 28.84 31.49 38.11 41.60 43.67 44.83 38.97 46.24 46.86 42.15 38.26 33.07 33.48 31.44 35.01 34.77 33.22 32.05 31.98 27.64 34.86 35.20 34.06 27.43 21.13 31.20 20.12 28.83 33.65 36.45 37.85 39.42 38.61 39.10 39.68
50.69 50.94 50.98 48.11 42.10 40.15 44.25 46.97 47.33 41.61 18.51 34.88 37.71 46.39 45.01 39.82 39.47 42.14 45.52 43.01 36.90 35.13 32.33 28.80 30.90 32.36 32.50 32.79 35.35 31.38 36.71 34.75 33.23 28.54 23.34 26.58 20.78 28.06 32.30 33.02 36.29 37.79 37.73 38.09 38.94
50.75 51.02 50.92 46.22 44.08 45.05 46.92 45.34 40.71 23.96 19.23 32.76 39.26 38.16 37.81 39.29 39.30 40.88 41.37 43.61 42.49 35.94 34.70 32.74 36.29 35.98 34.72 37.15 36.88 37.83 34.41 31.46 30.74 26.43 16.99 24.25 23.74 26.08 29.35 33.39 34.53 37.04 37.63 38.71 38.89
50.62 51.83 48.34 47.81 41.18 47.15 45.27 38.77 24.51 19.91 32.95 31.30 34.91 37.26 36.59 35.35 37.22 38.57 37.02 36.15 31.17 23.85 22.68 31.66 33.38 37.00 38.47 33.72 36.60 33.55 26.69 13.82 14.57 15.83 15.79 26.82 24.66 28.48 33.49 34.74 36.17 37.10 36.87 37.53 38.41
50.90 48.41 47.23 47.29 46.39 45.78 41.48 30.98 23.85 31.13 32.02 36.99 37.06 36.52 33.39 36.36 36.07 36.47 33.73 31.14 35.55 32.88 25.61 19.99 18.44 33.49 37.27 34.60 31.38 31.34 27.96 16.72 11.62 15.53 17.93 27.54 22.50 28.82 34.97 35.87 36.48 37.85 37.50 37.90 37.81
49.97 43.21 42.94 44.37 46.83 43.97 35.96 24.11 23.83 30.21 35.82 34.98 35.58 31.10 31.55 35.99 34.76 33.98 32.34 32.58 34.02 33.74 26.02 24.13 22.86 36.85 37.38 39.48 36.76 30.50 24.51 31.93 22.51 21.28 22.01 20.41 26.33 33.16 35.72 36.65 36.13 36.37 36.96 36.04 37.24
42.17 41.45 42.18 45.55 44.84 39.27 31.79 28.40 31.59 37.16 37.94 36.64 29.19 33.35 28.99 31.17 31.31 30.99 31.30 34.87 34.71 36.95 35.95 32.04 25.42 35.27 37.29 40.16 38.15 34.52 36.30 24.93 25.49 15.31 17.54 18.84 21.91 26.33 30.52 33.84 36.46 35.90 35.93 36.24 37.05
41.37 38.09 43.65 45.46 42.76 36.65 25.48 28.43 35.21 39.54 39.88 36.06 33.96 32.62 32.97 32.24 32.70 31.03 30.62 35.26 37.19 36.67 37.18 34.36 30.81 33.37 37.77 33.37 31.88 33.35 29.99 30.02 28.12 24.54 17.88 18.61 22.08 31.50 33.24 35.44 35.22 36.08 37.23 36.76 36.85
39.92 34.13 43.96 44.28 34.90 31.57 27.37 34.91 40.24 37.70 39.03 37.63 36.50 35.70 32.90 33.00 31.81 31.33 30.68 33.63 38.71 38.26 33.50 34.37 31.50 25.88 30.53 35.32 36.87 34.35 31.77 30.20 23.35 22.20 24.51 22.70 24.56 33.21 36.67 36.02 36.25 36.42 36.96 36.80 37.62
38.11 37.76 44.10 42.17 30.27 26.93 34.78 36.62 37.72 37.15 36.62 36.87 36.10 37.18 36.05 33.39 30.49 32.59 33.99 38.54 40.00 37.87 34.18 34.29 29.45 20.23 25.36 29.92 32.89 32.23 32.89 32.24 29.11 27.09 23.35 20.17 23.18 34.86 34.51 35.65 36.38 35.98 35.97 36.29 37.01
37.45 32.14 37.66 37.30 34.99 33.20 32.67 34.07 34.16 38.43 37.14 37.69 36.32 37.00 34.51 32.29 34.32 32.04 32.86 37.82 39.35 39.00 42.65 38.92 30.17 26.53 20.83 25.26 29.85 29.39 30.56 31.98 30.24 21.39 23.25 24.72 25.81 30.70 32.69 35.66 36.52 36.13 35.99 36.00 36.26
35.40 32.45 34.14 29.42 33.78 32.74 33.34 34.82 33.52 33.24 36.79 36.61 33.93 34.15 32.59 29.29 30.56 30.60 33.61 34.43 37.63 41.34 36.08 34.36 26.96 25.69 28.56 30.21 30.59 30.12 29.85 30.51 29.20 31.30 26.13 23.85 26.85 32.31 32.85 33.73 35.05 37.40 36.79 35.96 35.87
36.50 34.17 34.06 32.37 33.80 31.64 33.96 31.73 33.38 34.44 34.95 33.41 32.21 34.07 33.33 30.91 31.79 30.70 33.23 31.83 32.00 33.49 32.79 33.52 26.30 26.96 22.86 28.75 28.91 28.47 29.64 31.02 31.36 32.45 32.31 32.64 31.93 39.02 40.12 34.83 33.26 35.28 35.99 36.59 37.32
37.21 37.02 35.27 33.14 31.75 29.90 30.11 32.56 34.04 35.57 36.08 36.33 34.92 33.18 32.47 33.83 34.66 33.65 34.15 34.14 32.98 33.73 32.06 30.85 27.53 23.77 21.13 24.87 26.27 21.93 26.06 29.26 29.56 30.62 32.93 28.72 34.39 36.41 34.70 34.31 34.69 35.00 34.47 35.93 37.62